<?xml version="1.0" encoding="UTF-8" standalone="no" ?>
<gpx xmlns="http://www.topografix.com/GPX/1/1" creator="www.cicloide.com" version="1.1" xmlns:xsi="http://www.w3.org/2001/XMLSchema-instance" xsi:schemaLocation="http://www.topografix.com/GPX/1/1 http://www.topografix.com/GPX/1/1/gpx.xsd">
  <trk>
    <name>www.cicloide.com 16314</name>
    <desc>www.cicloide.com 16314</desc>
    <trkseg>
      <trkpt lat="40.619211802" lon="0.593548715">
        <ele>35.71</ele>
        <time>2013-05-18T08:58:09Z</time>
      </trkpt>
      <trkpt lat="40.619147765" lon="0.593728004">
        <ele>34.26</ele>
        <time>2013-05-18T08:58:16Z</time>
      </trkpt>
      <trkpt lat="40.619054893" lon="0.594003182">
        <ele>32.34</ele>
        <time>2013-05-18T08:58:21Z</time>
      </trkpt>
      <trkpt lat="40.618863199" lon="0.594304260">
        <ele>30.90</ele>
        <time>2013-05-18T08:58:26Z</time>
      </trkpt>
      <trkpt lat="40.618643845" lon="0.594778424">
        <ele>30.42</ele>
        <time>2013-05-18T08:58:34Z</time>
      </trkpt>
      <trkpt lat="40.618491294" lon="0.595181007">
        <ele>29.94</ele>
        <time>2013-05-18T08:58:42Z</time>
      </trkpt>
      <trkpt lat="40.618458353" lon="0.595198944">
        <ele>29.94</ele>
        <time>2013-05-18T08:58:43Z</time>
      </trkpt>
      <trkpt lat="40.618257355" lon="0.595102385">
        <ele>29.94</ele>
        <time>2013-05-18T08:58:50Z</time>
      </trkpt>
      <trkpt lat="40.618079323" lon="0.595029546">
        <ele>30.42</ele>
        <time>2013-05-18T08:58:56Z</time>
      </trkpt>
      <trkpt lat="40.617877319" lon="0.594917228">
        <ele>30.42</ele>
        <time>2013-05-18T08:59:03Z</time>
      </trkpt>
      <trkpt lat="40.617681937" lon="0.594796948">
        <ele>29.94</ele>
        <time>2013-05-18T08:59:10Z</time>
      </trkpt>
      <trkpt lat="40.617584540" lon="0.594807761">
        <ele>30.42</ele>
        <time>2013-05-18T08:59:13Z</time>
      </trkpt>
      <trkpt lat="40.617476078" lon="0.594676333">
        <ele>29.94</ele>
        <time>2013-05-18T08:59:18Z</time>
      </trkpt>
      <trkpt lat="40.617260411" lon="0.594325718">
        <ele>29.94</ele>
        <time>2013-05-18T08:59:28Z</time>
      </trkpt>
      <trkpt lat="40.617080284" lon="0.594087923">
        <ele>29.46</ele>
        <time>2013-05-18T08:59:36Z</time>
      </trkpt>
      <trkpt lat="40.616911724" lon="0.593837807">
        <ele>29.94</ele>
        <time>2013-05-18T08:59:44Z</time>
      </trkpt>
      <trkpt lat="40.616680803" lon="0.593508650">
        <ele>30.42</ele>
        <time>2013-05-18T08:59:55Z</time>
      </trkpt>
      <trkpt lat="40.616443679" lon="0.593199190">
        <ele>29.46</ele>
        <time>2013-05-18T09:00:06Z</time>
      </trkpt>
      <trkpt lat="40.616291044" lon="0.593050579">
        <ele>29.46</ele>
        <time>2013-05-18T09:00:13Z</time>
      </trkpt>
      <trkpt lat="40.616262462" lon="0.592992827">
        <ele>29.94</ele>
        <time>2013-05-18T09:00:39Z</time>
      </trkpt>
      <trkpt lat="40.616210494" lon="0.592832146">
        <ele>30.42</ele>
        <time>2013-05-18T09:00:45Z</time>
      </trkpt>
      <trkpt lat="40.616096500" lon="0.592669873">
        <ele>30.42</ele>
        <time>2013-05-18T09:00:52Z</time>
      </trkpt>
      <trkpt lat="40.616011005" lon="0.592516316">
        <ele>29.94</ele>
        <time>2013-05-18T09:00:59Z</time>
      </trkpt>
      <trkpt lat="40.615909081" lon="0.592378434">
        <ele>30.42</ele>
        <time>2013-05-18T09:01:05Z</time>
      </trkpt>
      <trkpt lat="40.615770696" lon="0.592222111">
        <ele>30.42</ele>
        <time>2013-05-18T09:01:12Z</time>
      </trkpt>
      <trkpt lat="40.615616720" lon="0.592091857">
        <ele>30.90</ele>
        <time>2013-05-18T09:01:19Z</time>
      </trkpt>
      <trkpt lat="40.615572464" lon="0.592063358">
        <ele>30.42</ele>
        <time>2013-05-18T09:01:21Z</time>
      </trkpt>
      <trkpt lat="40.615418572" lon="0.592065286">
        <ele>30.42</ele>
        <time>2013-05-18T09:01:27Z</time>
      </trkpt>
      <trkpt lat="40.615134258" lon="0.591894966">
        <ele>30.90</ele>
        <time>2013-05-18T09:01:38Z</time>
      </trkpt>
      <trkpt lat="40.614919513" lon="0.591807878">
        <ele>31.38</ele>
        <time>2013-05-18T09:01:47Z</time>
      </trkpt>
      <trkpt lat="40.614762353" lon="0.591714503">
        <ele>31.86</ele>
        <time>2013-05-18T09:01:54Z</time>
      </trkpt>
      <trkpt lat="40.614637043" lon="0.591804022">
        <ele>32.34</ele>
        <time>2013-05-18T09:02:01Z</time>
      </trkpt>
      <trkpt lat="40.614510309" lon="0.591965960">
        <ele>31.86</ele>
        <time>2013-05-18T09:02:10Z</time>
      </trkpt>
      <trkpt lat="40.614502681" lon="0.592024382">
        <ele>31.86</ele>
        <time>2013-05-18T09:02:17Z</time>
      </trkpt>
      <trkpt lat="40.614482732" lon="0.592073752">
        <ele>29.94</ele>
        <time>2013-05-18T09:02:26Z</time>
      </trkpt>
      <trkpt lat="40.614469321" lon="0.592109207">
        <ele>28.50</ele>
        <time>2013-05-18T09:02:35Z</time>
      </trkpt>
      <trkpt lat="40.614464460" lon="0.592112308">
        <ele>28.50</ele>
        <time>2013-05-18T09:02:50Z</time>
      </trkpt>
      <trkpt lat="40.614453312" lon="0.592147931">
        <ele>27.05</ele>
        <time>2013-05-18T09:02:55Z</time>
      </trkpt>
      <trkpt lat="40.614307467" lon="0.592187913">
        <ele>26.57</ele>
        <time>2013-05-18T09:03:02Z</time>
      </trkpt>
      <trkpt lat="40.614187354" lon="0.592111051">
        <ele>26.57</ele>
        <time>2013-05-18T09:03:06Z</time>
      </trkpt>
      <trkpt lat="40.613899017" lon="0.591845429">
        <ele>27.05</ele>
        <time>2013-05-18T09:03:16Z</time>
      </trkpt>
      <trkpt lat="40.613898430" lon="0.591635630">
        <ele>27.53</ele>
        <time>2013-05-18T09:03:22Z</time>
      </trkpt>
      <trkpt lat="40.613819892" lon="0.591489030">
        <ele>26.57</ele>
        <time>2013-05-18T09:03:27Z</time>
      </trkpt>
      <trkpt lat="40.613799104" lon="0.591455754">
        <ele>26.57</ele>
        <time>2013-05-18T09:03:28Z</time>
      </trkpt>
      <trkpt lat="40.613695169" lon="0.591103546">
        <ele>26.57</ele>
        <time>2013-05-18T09:03:38Z</time>
      </trkpt>
      <trkpt lat="40.613596598" lon="0.590895172">
        <ele>26.57</ele>
        <time>2013-05-18T09:03:46Z</time>
      </trkpt>
      <trkpt lat="40.613551252" lon="0.590791488">
        <ele>26.57</ele>
        <time>2013-05-18T09:03:52Z</time>
      </trkpt>
      <trkpt lat="40.613547899" lon="0.590774808">
        <ele>27.53</ele>
        <time>2013-05-18T09:04:01Z</time>
      </trkpt>
      <trkpt lat="40.613529710" lon="0.590689229">
        <ele>29.46</ele>
        <time>2013-05-18T09:04:11Z</time>
      </trkpt>
      <trkpt lat="40.613526441" lon="0.590617564">
        <ele>31.38</ele>
        <time>2013-05-18T09:04:19Z</time>
      </trkpt>
      <trkpt lat="40.613518478" lon="0.590582276">
        <ele>30.90</ele>
        <time>2013-05-18T09:04:26Z</time>
      </trkpt>
      <trkpt lat="40.613518562" lon="0.590578672">
        <ele>30.90</ele>
        <time>2013-05-18T09:04:27Z</time>
      </trkpt>
      <trkpt lat="40.613428960" lon="0.590476161">
        <ele>31.38</ele>
        <time>2013-05-18T09:04:34Z</time>
      </trkpt>
      <trkpt lat="40.613244474" lon="0.590359401">
        <ele>32.34</ele>
        <time>2013-05-18T09:04:42Z</time>
      </trkpt>
      <trkpt lat="40.613024952" lon="0.590148931">
        <ele>32.34</ele>
        <time>2013-05-18T09:04:53Z</time>
      </trkpt>
      <trkpt lat="40.612856057" lon="0.590055557">
        <ele>31.38</ele>
        <time>2013-05-18T09:04:59Z</time>
      </trkpt>
      <trkpt lat="40.612643994" lon="0.590010043">
        <ele>29.46</ele>
        <time>2013-05-18T09:05:05Z</time>
      </trkpt>
      <trkpt lat="40.612603677" lon="0.590005098">
        <ele>29.46</ele>
        <time>2013-05-18T09:05:09Z</time>
      </trkpt>
      <trkpt lat="40.612608204" lon="0.590017000">
        <ele>28.98</ele>
        <time>2013-05-18T09:05:23Z</time>
      </trkpt>
      <trkpt lat="40.612603258" lon="0.590014569">
        <ele>29.46</ele>
        <time>2013-05-18T09:05:29Z</time>
      </trkpt>
      <trkpt lat="40.612532767" lon="0.589882135">
        <ele>28.98</ele>
        <time>2013-05-18T09:05:35Z</time>
      </trkpt>
      <trkpt lat="40.612219786" lon="0.589585667">
        <ele>29.94</ele>
        <time>2013-05-18T09:05:46Z</time>
      </trkpt>
      <trkpt lat="40.612048795" lon="0.589415682">
        <ele>29.46</ele>
        <time>2013-05-18T09:05:53Z</time>
      </trkpt>
      <trkpt lat="40.611950476" lon="0.589268832">
        <ele>29.94</ele>
        <time>2013-05-18T09:05:57Z</time>
      </trkpt>
      <trkpt lat="40.611827848" lon="0.589060877">
        <ele>27.05</ele>
        <time>2013-05-18T09:06:03Z</time>
      </trkpt>
      <trkpt lat="40.611751908" lon="0.588875469">
        <ele>25.61</ele>
        <time>2013-05-18T09:06:10Z</time>
      </trkpt>
      <trkpt lat="40.611647638" lon="0.588661646">
        <ele>24.65</ele>
        <time>2013-05-18T09:06:15Z</time>
      </trkpt>
      <trkpt lat="40.611527441" lon="0.588539271">
        <ele>24.17</ele>
        <time>2013-05-18T09:06:19Z</time>
      </trkpt>
      <trkpt lat="40.611372795" lon="0.588646643">
        <ele>24.17</ele>
        <time>2013-05-18T09:06:25Z</time>
      </trkpt>
      <trkpt lat="40.611247150" lon="0.588677237">
        <ele>24.65</ele>
        <time>2013-05-18T09:06:31Z</time>
      </trkpt>
      <trkpt lat="40.611064760" lon="0.588671369">
        <ele>24.17</ele>
        <time>2013-05-18T09:06:38Z</time>
      </trkpt>
      <trkpt lat="40.610859655" lon="0.588571373">
        <ele>23.69</ele>
        <time>2013-05-18T09:06:46Z</time>
      </trkpt>
      <trkpt lat="40.610627644" lon="0.588347409">
        <ele>24.65</ele>
        <time>2013-05-18T09:06:56Z</time>
      </trkpt>
      <trkpt lat="40.610495294" lon="0.588077428">
        <ele>24.17</ele>
        <time>2013-05-18T09:07:05Z</time>
      </trkpt>
      <trkpt lat="40.610507112" lon="0.587882129">
        <ele>25.61</ele>
        <time>2013-05-18T09:07:11Z</time>
      </trkpt>
      <trkpt lat="40.610487331" lon="0.587784313">
        <ele>26.09</ele>
        <time>2013-05-18T09:07:15Z</time>
      </trkpt>
      <trkpt lat="40.610295637" lon="0.587529335">
        <ele>26.09</ele>
        <time>2013-05-18T09:07:24Z</time>
      </trkpt>
      <trkpt lat="40.610203519" lon="0.587428082">
        <ele>26.09</ele>
        <time>2013-05-18T09:07:30Z</time>
      </trkpt>
      <trkpt lat="40.610012328" lon="0.587310232">
        <ele>25.61</ele>
        <time>2013-05-18T09:07:38Z</time>
      </trkpt>
      <trkpt lat="40.609700102" lon="0.587155586">
        <ele>24.17</ele>
        <time>2013-05-18T09:07:47Z</time>
      </trkpt>
      <trkpt lat="40.609471779" lon="0.586927850">
        <ele>24.65</ele>
        <time>2013-05-18T09:07:55Z</time>
      </trkpt>
      <trkpt lat="40.609243624" lon="0.586719224">
        <ele>25.13</ele>
        <time>2013-05-18T09:08:04Z</time>
      </trkpt>
      <trkpt lat="40.609059222" lon="0.586591903">
        <ele>26.09</ele>
        <time>2013-05-18T09:08:12Z</time>
      </trkpt>
      <trkpt lat="40.609044638" lon="0.586461732">
        <ele>26.09</ele>
        <time>2013-05-18T09:08:18Z</time>
      </trkpt>
      <trkpt lat="40.608981019" lon="0.586216729">
        <ele>25.61</ele>
        <time>2013-05-18T09:08:26Z</time>
      </trkpt>
      <trkpt lat="40.608813548" lon="0.585973067">
        <ele>25.61</ele>
        <time>2013-05-18T09:08:33Z</time>
      </trkpt>
      <trkpt lat="40.608563768" lon="0.585852871">
        <ele>25.13</ele>
        <time>2013-05-18T09:08:40Z</time>
      </trkpt>
      <trkpt lat="40.608244585" lon="0.585716832">
        <ele>24.65</ele>
        <time>2013-05-18T09:08:49Z</time>
      </trkpt>
      <trkpt lat="40.608026572" lon="0.585584817">
        <ele>24.17</ele>
        <time>2013-05-18T09:08:56Z</time>
      </trkpt>
      <trkpt lat="40.607804870" lon="0.585533939">
        <ele>23.21</ele>
        <time>2013-05-18T09:09:04Z</time>
      </trkpt>
      <trkpt lat="40.607567579" lon="0.585497310">
        <ele>23.69</ele>
        <time>2013-05-18T09:09:11Z</time>
      </trkpt>
      <trkpt lat="40.607535392" lon="0.585466800">
        <ele>23.21</ele>
        <time>2013-05-18T09:09:12Z</time>
      </trkpt>
      <trkpt lat="40.607455680" lon="0.585277285">
        <ele>22.25</ele>
        <time>2013-05-18T09:09:16Z</time>
      </trkpt>
      <trkpt lat="40.607369514" lon="0.584858274">
        <ele>22.73</ele>
        <time>2013-05-18T09:09:25Z</time>
      </trkpt>
      <trkpt lat="40.607288294" lon="0.584676554">
        <ele>23.21</ele>
        <time>2013-05-18T09:09:30Z</time>
      </trkpt>
      <trkpt lat="40.607169690" lon="0.584541103">
        <ele>23.69</ele>
        <time>2013-05-18T09:09:34Z</time>
      </trkpt>
      <trkpt lat="40.606962405" lon="0.584130473">
        <ele>23.21</ele>
        <time>2013-05-18T09:09:43Z</time>
      </trkpt>
      <trkpt lat="40.606840951" lon="0.583711797">
        <ele>23.21</ele>
        <time>2013-05-18T09:09:52Z</time>
      </trkpt>
      <trkpt lat="40.606754115" lon="0.583338970">
        <ele>23.21</ele>
        <time>2013-05-18T09:10:01Z</time>
      </trkpt>
      <trkpt lat="40.606581364" lon="0.583076449">
        <ele>23.21</ele>
        <time>2013-05-18T09:10:09Z</time>
      </trkpt>
      <trkpt lat="40.606414899" lon="0.582897412">
        <ele>23.21</ele>
        <time>2013-05-18T09:10:17Z</time>
      </trkpt>
      <trkpt lat="40.606357902" lon="0.582810324">
        <ele>23.21</ele>
        <time>2013-05-18T09:10:21Z</time>
      </trkpt>
      <trkpt lat="40.606400147" lon="0.582658360">
        <ele>23.69</ele>
        <time>2013-05-18T09:10:28Z</time>
      </trkpt>
      <trkpt lat="40.606426718" lon="0.582604967">
        <ele>23.69</ele>
        <time>2013-05-18T09:10:30Z</time>
      </trkpt>
      <trkpt lat="40.606480949" lon="0.582501534">
        <ele>24.65</ele>
        <time>2013-05-18T09:10:34Z</time>
      </trkpt>
      <trkpt lat="40.606468292" lon="0.582330292">
        <ele>25.13</ele>
        <time>2013-05-18T09:10:41Z</time>
      </trkpt>
      <trkpt lat="40.606426047" lon="0.582263321">
        <ele>25.61</ele>
        <time>2013-05-18T09:10:43Z</time>
      </trkpt>
      <trkpt lat="40.606301660" lon="0.582139771">
        <ele>26.57</ele>
        <time>2013-05-18T09:10:47Z</time>
      </trkpt>
      <trkpt lat="40.606198227" lon="0.582040027">
        <ele>24.65</ele>
        <time>2013-05-18T09:10:50Z</time>
      </trkpt>
      <trkpt lat="40.605758429" lon="0.581610873">
        <ele>24.65</ele>
        <time>2013-05-18T09:11:03Z</time>
      </trkpt>
      <trkpt lat="40.605417537" lon="0.581270652">
        <ele>24.17</ele>
        <time>2013-05-18T09:11:13Z</time>
      </trkpt>
      <trkpt lat="40.605199523" lon="0.581054483">
        <ele>24.17</ele>
        <time>2013-05-18T09:11:20Z</time>
      </trkpt>
      <trkpt lat="40.604857961" lon="0.580701940">
        <ele>24.17</ele>
        <time>2013-05-18T09:11:31Z</time>
      </trkpt>
      <trkpt lat="40.604504580" lon="0.580356438">
        <ele>24.17</ele>
        <time>2013-05-18T09:11:42Z</time>
      </trkpt>
      <trkpt lat="40.604125969" lon="0.579982521">
        <ele>25.13</ele>
        <time>2013-05-18T09:11:55Z</time>
      </trkpt>
      <trkpt lat="40.603782563" lon="0.579655627">
        <ele>26.09</ele>
        <time>2013-05-18T09:12:07Z</time>
      </trkpt>
      <trkpt lat="40.603469834" lon="0.579327978">
        <ele>27.05</ele>
        <time>2013-05-18T09:12:18Z</time>
      </trkpt>
      <trkpt lat="40.603190549" lon="0.579054644">
        <ele>28.02</ele>
        <time>2013-05-18T09:12:28Z</time>
      </trkpt>
      <trkpt lat="40.603163140" lon="0.579028828">
        <ele>28.02</ele>
        <time>2013-05-18T09:12:29Z</time>
      </trkpt>
      <trkpt lat="40.602946887" lon="0.578797404">
        <ele>28.02</ele>
        <time>2013-05-18T09:12:37Z</time>
      </trkpt>
      <trkpt lat="40.602700878" lon="0.578545192">
        <ele>28.98</ele>
        <time>2013-05-18T09:12:46Z</time>
      </trkpt>
      <trkpt lat="40.602427963" lon="0.578248389">
        <ele>29.94</ele>
        <time>2013-05-18T09:12:56Z</time>
      </trkpt>
      <trkpt lat="40.602191342" lon="0.577969858">
        <ele>30.90</ele>
        <time>2013-05-18T09:13:05Z</time>
      </trkpt>
      <trkpt lat="40.601837123" lon="0.577568701">
        <ele>30.90</ele>
        <time>2013-05-18T09:13:18Z</time>
      </trkpt>
      <trkpt lat="40.601508552" lon="0.577162681">
        <ele>31.38</ele>
        <time>2013-05-18T09:13:30Z</time>
      </trkpt>
      <trkpt lat="40.601209737" lon="0.576800834">
        <ele>31.38</ele>
        <time>2013-05-18T09:13:41Z</time>
      </trkpt>
      <trkpt lat="40.600877227" lon="0.576406131">
        <ele>31.38</ele>
        <time>2013-05-18T09:13:53Z</time>
      </trkpt>
      <trkpt lat="40.600564415" lon="0.576031543">
        <ele>31.38</ele>
        <time>2013-05-18T09:14:04Z</time>
      </trkpt>
      <trkpt lat="40.600248585" lon="0.575640192">
        <ele>31.86</ele>
        <time>2013-05-18T09:14:15Z</time>
      </trkpt>
      <trkpt lat="40.599956391" lon="0.575277256">
        <ele>31.38</ele>
        <time>2013-05-18T09:14:24Z</time>
      </trkpt>
      <trkpt lat="40.599628072" lon="0.574875008">
        <ele>30.90</ele>
        <time>2013-05-18T09:14:33Z</time>
      </trkpt>
      <trkpt lat="40.599251222" lon="0.574411070">
        <ele>29.46</ele>
        <time>2013-05-18T09:14:42Z</time>
      </trkpt>
      <trkpt lat="40.598877305" lon="0.573944617">
        <ele>28.50</ele>
        <time>2013-05-18T09:14:50Z</time>
      </trkpt>
      <trkpt lat="40.598310605" lon="0.573260067">
        <ele>27.53</ele>
        <time>2013-05-18T09:15:01Z</time>
      </trkpt>
      <trkpt lat="40.597710544" lon="0.572585324">
        <ele>24.65</ele>
        <time>2013-05-18T09:15:12Z</time>
      </trkpt>
      <trkpt lat="40.597153734" lon="0.571987359">
        <ele>24.17</ele>
        <time>2013-05-18T09:15:23Z</time>
      </trkpt>
      <trkpt lat="40.596704548" lon="0.571498023">
        <ele>23.69</ele>
        <time>2013-05-18T09:15:33Z</time>
      </trkpt>
      <trkpt lat="40.596405482" lon="0.571160400">
        <ele>23.69</ele>
        <time>2013-05-18T09:15:41Z</time>
      </trkpt>
      <trkpt lat="40.596066099" lon="0.570813725">
        <ele>24.17</ele>
        <time>2013-05-18T09:15:51Z</time>
      </trkpt>
      <trkpt lat="40.595958559" lon="0.570703670">
        <ele>23.69</ele>
        <time>2013-05-18T09:15:57Z</time>
      </trkpt>
      <trkpt lat="40.595951686" lon="0.570702916">
        <ele>24.17</ele>
        <time>2013-05-18T09:16:05Z</time>
      </trkpt>
      <trkpt lat="40.595954536" lon="0.570696546">
        <ele>23.69</ele>
        <time>2013-05-18T09:16:26Z</time>
      </trkpt>
      <trkpt lat="40.595937185" lon="0.570696210">
        <ele>23.69</ele>
        <time>2013-05-18T09:16:48Z</time>
      </trkpt>
      <trkpt lat="40.595921008" lon="0.570705850">
        <ele>22.73</ele>
        <time>2013-05-18T09:17:08Z</time>
      </trkpt>
      <trkpt lat="40.595829058" lon="0.570632173">
        <ele>23.21</ele>
        <time>2013-05-18T09:17:13Z</time>
      </trkpt>
      <trkpt lat="40.595590677" lon="0.570320366">
        <ele>22.73</ele>
        <time>2013-05-18T09:17:22Z</time>
      </trkpt>
      <trkpt lat="40.595541224" lon="0.570236966">
        <ele>23.21</ele>
        <time>2013-05-18T09:17:24Z</time>
      </trkpt>
      <trkpt lat="40.595442485" lon="0.569959609">
        <ele>22.73</ele>
        <time>2013-05-18T09:17:30Z</time>
      </trkpt>
      <trkpt lat="40.595410299" lon="0.569934463">
        <ele>22.73</ele>
        <time>2013-05-18T09:17:31Z</time>
      </trkpt>
      <trkpt lat="40.595284486" lon="0.569914933">
        <ele>23.21</ele>
        <time>2013-05-18T09:17:34Z</time>
      </trkpt>
      <trkpt lat="40.595100839" lon="0.569819883">
        <ele>22.25</ele>
        <time>2013-05-18T09:17:38Z</time>
      </trkpt>
      <trkpt lat="40.594671685" lon="0.569367679">
        <ele>20.81</ele>
        <time>2013-05-18T09:17:48Z</time>
      </trkpt>
      <trkpt lat="40.594064668" lon="0.568719171">
        <ele>20.32</ele>
        <time>2013-05-18T09:18:02Z</time>
      </trkpt>
      <trkpt lat="40.593666025" lon="0.568269985">
        <ele>20.32</ele>
        <time>2013-05-18T09:18:12Z</time>
      </trkpt>
      <trkpt lat="40.593189262" lon="0.567791713">
        <ele>20.32</ele>
        <time>2013-05-18T09:18:24Z</time>
      </trkpt>
      <trkpt lat="40.592819955" lon="0.567413690">
        <ele>21.29</ele>
        <time>2013-05-18T09:18:34Z</time>
      </trkpt>
      <trkpt lat="40.592515022" lon="0.567101799">
        <ele>21.77</ele>
        <time>2013-05-18T09:18:42Z</time>
      </trkpt>
      <trkpt lat="40.592071284" lon="0.566649009">
        <ele>20.81</ele>
        <time>2013-05-18T09:18:52Z</time>
      </trkpt>
      <trkpt lat="40.591584463" lon="0.566149363">
        <ele>20.32</ele>
        <time>2013-05-18T09:19:03Z</time>
      </trkpt>
      <trkpt lat="40.591241308" lon="0.565805454">
        <ele>20.32</ele>
        <time>2013-05-18T09:19:12Z</time>
      </trkpt>
      <trkpt lat="40.590815758" lon="0.565372864">
        <ele>22.73</ele>
        <time>2013-05-18T09:19:24Z</time>
      </trkpt>
      <trkpt lat="40.590444105" lon="0.564868776">
        <ele>21.29</ele>
        <time>2013-05-18T09:19:35Z</time>
      </trkpt>
      <trkpt lat="40.589938173" lon="0.564101748">
        <ele>21.29</ele>
        <time>2013-05-18T09:19:50Z</time>
      </trkpt>
      <trkpt lat="40.589551516" lon="0.563527253">
        <ele>20.81</ele>
        <time>2013-05-18T09:20:02Z</time>
      </trkpt>
      <trkpt lat="40.589182544" lon="0.562968263">
        <ele>21.77</ele>
        <time>2013-05-18T09:20:14Z</time>
      </trkpt>
      <trkpt lat="40.588968722" lon="0.562644219">
        <ele>20.32</ele>
        <time>2013-05-18T09:20:21Z</time>
      </trkpt>
      <trkpt lat="40.588553483" lon="0.562014738">
        <ele>21.77</ele>
        <time>2013-05-18T09:20:35Z</time>
      </trkpt>
      <trkpt lat="40.588215692" lon="0.561503526">
        <ele>22.73</ele>
        <time>2013-05-18T09:20:47Z</time>
      </trkpt>
      <trkpt lat="40.587960044" lon="0.561104296">
        <ele>23.21</ele>
        <time>2013-05-18T09:20:56Z</time>
      </trkpt>
      <trkpt lat="40.587594174" lon="0.560543798">
        <ele>24.17</ele>
        <time>2013-05-18T09:21:09Z</time>
      </trkpt>
      <trkpt lat="40.587262083" lon="0.560038621">
        <ele>25.13</ele>
        <time>2013-05-18T09:21:21Z</time>
      </trkpt>
      <trkpt lat="40.587062091" lon="0.559740476">
        <ele>26.57</ele>
        <time>2013-05-18T09:21:28Z</time>
      </trkpt>
      <trkpt lat="40.586662609" lon="0.559136225">
        <ele>27.05</ele>
        <time>2013-05-18T09:21:42Z</time>
      </trkpt>
      <trkpt lat="40.586318783" lon="0.558622414">
        <ele>27.53</ele>
        <time>2013-05-18T09:21:54Z</time>
      </trkpt>
      <trkpt lat="40.586066237" lon="0.558247995">
        <ele>28.98</ele>
        <time>2013-05-18T09:22:03Z</time>
      </trkpt>
      <trkpt lat="40.585780079" lon="0.557819596">
        <ele>30.42</ele>
        <time>2013-05-18T09:22:13Z</time>
      </trkpt>
      <trkpt lat="40.585407671" lon="0.557416258">
        <ele>29.94</ele>
        <time>2013-05-18T09:22:24Z</time>
      </trkpt>
      <trkpt lat="40.585199213" lon="0.557259684">
        <ele>28.98</ele>
        <time>2013-05-18T09:22:29Z</time>
      </trkpt>
      <trkpt lat="40.584659334" lon="0.556936394">
        <ele>27.53</ele>
        <time>2013-05-18T09:22:40Z</time>
      </trkpt>
      <trkpt lat="40.584023651" lon="0.556575889">
        <ele>24.65</ele>
        <time>2013-05-18T09:22:51Z</time>
      </trkpt>
      <trkpt lat="40.583375059" lon="0.556208091">
        <ele>21.77</ele>
        <time>2013-05-18T09:23:01Z</time>
      </trkpt>
      <trkpt lat="40.582749937" lon="0.555821937">
        <ele>21.29</ele>
        <time>2013-05-18T09:23:11Z</time>
      </trkpt>
      <trkpt lat="40.582095645" lon="0.555456067">
        <ele>18.40</ele>
        <time>2013-05-18T09:23:22Z</time>
      </trkpt>
      <trkpt lat="40.581396511" lon="0.555049628">
        <ele>17.92</ele>
        <time>2013-05-18T09:23:34Z</time>
      </trkpt>
      <trkpt lat="40.580926286" lon="0.554682333">
        <ele>17.92</ele>
        <time>2013-05-18T09:23:43Z</time>
      </trkpt>
      <trkpt lat="40.580575503" lon="0.554249324">
        <ele>19.84</ele>
        <time>2013-05-18T09:23:52Z</time>
      </trkpt>
      <trkpt lat="40.580178117" lon="0.553694861">
        <ele>19.84</ele>
        <time>2013-05-18T09:24:04Z</time>
      </trkpt>
      <trkpt lat="40.579711748" lon="0.553049790">
        <ele>20.81</ele>
        <time>2013-05-18T09:24:18Z</time>
      </trkpt>
      <trkpt lat="40.579622230" lon="0.552916350">
        <ele>21.29</ele>
        <time>2013-05-18T09:24:21Z</time>
      </trkpt>
      <trkpt lat="40.579289300" lon="0.552517707">
        <ele>21.77</ele>
        <time>2013-05-18T09:24:31Z</time>
      </trkpt>
      <trkpt lat="40.578776747" lon="0.551908258">
        <ele>22.73</ele>
        <time>2013-05-18T09:24:46Z</time>
      </trkpt>
      <trkpt lat="40.578441722" lon="0.551354801">
        <ele>23.21</ele>
        <time>2013-05-18T09:24:57Z</time>
      </trkpt>
      <trkpt lat="40.578094963" lon="0.550765051">
        <ele>22.25</ele>
        <time>2013-05-18T09:25:08Z</time>
      </trkpt>
      <trkpt lat="40.577741330" lon="0.550167337">
        <ele>22.25</ele>
        <time>2013-05-18T09:25:19Z</time>
      </trkpt>
      <trkpt lat="40.577553492" lon="0.549876066">
        <ele>24.17</ele>
        <time>2013-05-18T09:25:26Z</time>
      </trkpt>
      <trkpt lat="40.577440420" lon="0.549682444">
        <ele>25.61</ele>
        <time>2013-05-18T09:25:31Z</time>
      </trkpt>
      <trkpt lat="40.577234644" lon="0.549254632">
        <ele>28.50</ele>
        <time>2013-05-18T09:25:42Z</time>
      </trkpt>
      <trkpt lat="40.577169852" lon="0.548850624">
        <ele>30.90</ele>
        <time>2013-05-18T09:25:51Z</time>
      </trkpt>
      <trkpt lat="40.577210421" lon="0.548468828">
        <ele>31.86</ele>
        <time>2013-05-18T09:26:00Z</time>
      </trkpt>
      <trkpt lat="40.577238835" lon="0.548045961">
        <ele>31.38</ele>
        <time>2013-05-18T09:26:09Z</time>
      </trkpt>
      <trkpt lat="40.577162644" lon="0.547759132">
        <ele>30.90</ele>
        <time>2013-05-18T09:26:14Z</time>
      </trkpt>
      <trkpt lat="40.576960472" lon="0.547528965">
        <ele>29.46</ele>
        <time>2013-05-18T09:26:19Z</time>
      </trkpt>
      <trkpt lat="40.576889813" lon="0.547643965">
        <ele>28.02</ele>
        <time>2013-05-18T09:26:27Z</time>
      </trkpt>
      <trkpt lat="40.576892998" lon="0.547838593">
        <ele>28.50</ele>
        <time>2013-05-18T09:26:32Z</time>
      </trkpt>
      <trkpt lat="40.576766934" lon="0.547919814">
        <ele>28.98</ele>
        <time>2013-05-18T09:26:36Z</time>
      </trkpt>
      <trkpt lat="40.576671548" lon="0.547933141">
        <ele>28.50</ele>
        <time>2013-05-18T09:26:38Z</time>
      </trkpt>
      <trkpt lat="40.576364603" lon="0.547889806">
        <ele>25.61</ele>
        <time>2013-05-18T09:26:43Z</time>
      </trkpt>
      <trkpt lat="40.576063273" lon="0.547763491">
        <ele>23.21</ele>
        <time>2013-05-18T09:26:47Z</time>
      </trkpt>
      <trkpt lat="40.575612495" lon="0.547418576">
        <ele>19.84</ele>
        <time>2013-05-18T09:26:53Z</time>
      </trkpt>
      <trkpt lat="40.575114693" lon="0.546930246">
        <ele>17.92</ele>
        <time>2013-05-18T09:27:01Z</time>
      </trkpt>
      <trkpt lat="40.574834822" lon="0.546635371">
        <ele>16.96</ele>
        <time>2013-05-18T09:27:06Z</time>
      </trkpt>
      <trkpt lat="40.574187068" lon="0.546007818">
        <ele>16.00</ele>
        <time>2013-05-18T09:27:18Z</time>
      </trkpt>
      <trkpt lat="40.573741905" lon="0.545552848">
        <ele>17.44</ele>
        <time>2013-05-18T09:27:28Z</time>
      </trkpt>
      <trkpt lat="40.573292635" lon="0.545092430">
        <ele>19.84</ele>
        <time>2013-05-18T09:27:39Z</time>
      </trkpt>
      <trkpt lat="40.572858537" lon="0.544624217">
        <ele>19.36</ele>
        <time>2013-05-18T09:27:49Z</time>
      </trkpt>
      <trkpt lat="40.572318323" lon="0.544017535">
        <ele>18.88</ele>
        <time>2013-05-18T09:28:01Z</time>
      </trkpt>
      <trkpt lat="40.571869388" lon="0.543337008">
        <ele>18.88</ele>
        <time>2013-05-18T09:28:13Z</time>
      </trkpt>
      <trkpt lat="40.571469152" lon="0.542730074">
        <ele>17.92</ele>
        <time>2013-05-18T09:28:24Z</time>
      </trkpt>
      <trkpt lat="40.570862554" lon="0.541829690">
        <ele>16.48</ele>
        <time>2013-05-18T09:28:40Z</time>
      </trkpt>
      <trkpt lat="40.570388725" lon="0.541143548">
        <ele>16.00</ele>
        <time>2013-05-18T09:28:52Z</time>
      </trkpt>
      <trkpt lat="40.570152104" lon="0.540788239">
        <ele>15.04</ele>
        <time>2013-05-18T09:28:58Z</time>
      </trkpt>
      <trkpt lat="40.569714233" lon="0.540103689">
        <ele>16.48</ele>
        <time>2013-05-18T09:29:10Z</time>
      </trkpt>
      <trkpt lat="40.569344088" lon="0.539524583">
        <ele>16.48</ele>
        <time>2013-05-18T09:29:20Z</time>
      </trkpt>
      <trkpt lat="40.568905799" lon="0.538807176">
        <ele>15.52</ele>
        <time>2013-05-18T09:29:32Z</time>
      </trkpt>
      <trkpt lat="40.568587873" lon="0.538283894">
        <ele>16.00</ele>
        <time>2013-05-18T09:29:41Z</time>
      </trkpt>
      <trkpt lat="40.568178501" lon="0.537700010">
        <ele>16.48</ele>
        <time>2013-05-18T09:29:52Z</time>
      </trkpt>
      <trkpt lat="40.567783462" lon="0.537296338">
        <ele>16.48</ele>
        <time>2013-05-18T09:30:01Z</time>
      </trkpt>
      <trkpt lat="40.567298234" lon="0.536955111">
        <ele>17.44</ele>
        <time>2013-05-18T09:30:11Z</time>
      </trkpt>
      <trkpt lat="40.566716865" lon="0.536680855">
        <ele>16.96</ele>
        <time>2013-05-18T09:30:22Z</time>
      </trkpt>
      <trkpt lat="40.566139352" lon="0.536446916">
        <ele>16.48</ele>
        <time>2013-05-18T09:30:33Z</time>
      </trkpt>
      <trkpt lat="40.565574998" lon="0.536215659">
        <ele>16.48</ele>
        <time>2013-05-18T09:30:44Z</time>
      </trkpt>
      <trkpt lat="40.564954067" lon="0.535960933">
        <ele>16.00</ele>
        <time>2013-05-18T09:30:56Z</time>
      </trkpt>
      <trkpt lat="40.564852310" lon="0.535917263">
        <ele>20.81</ele>
        <time>2013-05-18T09:30:58Z</time>
      </trkpt>
      <trkpt lat="40.564800678" lon="0.535895387">
        <ele>18.40</ele>
        <time>2013-05-18T09:30:59Z</time>
      </trkpt>
      <trkpt lat="40.564104225" lon="0.535618952">
        <ele>17.44</ele>
        <time>2013-05-18T09:31:12Z</time>
      </trkpt>
      <trkpt lat="40.563455466" lon="0.535351820">
        <ele>17.44</ele>
        <time>2013-05-18T09:31:24Z</time>
      </trkpt>
      <trkpt lat="40.562899411" lon="0.535127940">
        <ele>17.44</ele>
        <time>2013-05-18T09:31:34Z</time>
      </trkpt>
      <trkpt lat="40.562359616" lon="0.534796519">
        <ele>16.96</ele>
        <time>2013-05-18T09:31:44Z</time>
      </trkpt>
      <trkpt lat="40.561977569" lon="0.534368875">
        <ele>16.96</ele>
        <time>2013-05-18T09:31:52Z</time>
      </trkpt>
      <trkpt lat="40.561474739" lon="0.533709554">
        <ele>16.48</ele>
        <time>2013-05-18T09:32:03Z</time>
      </trkpt>
      <trkpt lat="40.561014656" lon="0.533113517">
        <ele>16.96</ele>
        <time>2013-05-18T09:32:14Z</time>
      </trkpt>
      <trkpt lat="40.560512915" lon="0.532481773">
        <ele>15.52</ele>
        <time>2013-05-18T09:32:27Z</time>
      </trkpt>
      <trkpt lat="40.560475783" lon="0.532436175">
        <ele>18.88</ele>
        <time>2013-05-18T09:32:28Z</time>
      </trkpt>
      <trkpt lat="40.560014946" lon="0.531829996">
        <ele>18.40</ele>
        <time>2013-05-18T09:32:41Z</time>
      </trkpt>
      <trkpt lat="40.559548913" lon="0.531241754">
        <ele>19.84</ele>
        <time>2013-05-18T09:32:54Z</time>
      </trkpt>
      <trkpt lat="40.559196034" lon="0.530744959">
        <ele>21.29</ele>
        <time>2013-05-18T09:33:05Z</time>
      </trkpt>
      <trkpt lat="40.558899902" lon="0.530251097">
        <ele>22.25</ele>
        <time>2013-05-18T09:33:16Z</time>
      </trkpt>
      <trkpt lat="40.558699826" lon="0.530147245">
        <ele>23.69</ele>
        <time>2013-05-18T09:33:22Z</time>
      </trkpt>
      <trkpt lat="40.558507545" lon="0.529887825">
        <ele>23.21</ele>
        <time>2013-05-18T09:33:29Z</time>
      </trkpt>
      <trkpt lat="40.558281820" lon="0.529463449">
        <ele>22.73</ele>
        <time>2013-05-18T09:33:40Z</time>
      </trkpt>
      <trkpt lat="40.558133461" lon="0.529299416">
        <ele>22.25</ele>
        <time>2013-05-18T09:33:46Z</time>
      </trkpt>
      <trkpt lat="40.557931624" lon="0.529426821">
        <ele>21.77</ele>
        <time>2013-05-18T09:33:51Z</time>
      </trkpt>
      <trkpt lat="40.557470033" lon="0.529962676">
        <ele>19.84</ele>
        <time>2013-05-18T09:34:02Z</time>
      </trkpt>
      <trkpt lat="40.557051525" lon="0.530430805">
        <ele>16.96</ele>
        <time>2013-05-18T09:34:11Z</time>
      </trkpt>
      <trkpt lat="40.556542072" lon="0.531003289">
        <ele>15.04</ele>
        <time>2013-05-18T09:34:21Z</time>
      </trkpt>
      <trkpt lat="40.555939833" lon="0.531689515">
        <ele>13.60</ele>
        <time>2013-05-18T09:34:33Z</time>
      </trkpt>
      <trkpt lat="40.555760963" lon="0.531908451">
        <ele>12.15</ele>
        <time>2013-05-18T09:34:37Z</time>
      </trkpt>
      <trkpt lat="40.555660464" lon="0.532122022">
        <ele>12.63</ele>
        <time>2013-05-18T09:34:42Z</time>
      </trkpt>
      <trkpt lat="40.555434907" lon="0.532372976">
        <ele>11.67</ele>
        <time>2013-05-18T09:34:50Z</time>
      </trkpt>
      <trkpt lat="40.555245057" lon="0.532602472">
        <ele>11.19</ele>
        <time>2013-05-18T09:34:56Z</time>
      </trkpt>
      <trkpt lat="40.554991253" lon="0.532785533">
        <ele>11.19</ele>
        <time>2013-05-18T09:35:03Z</time>
      </trkpt>
      <trkpt lat="40.554832835" lon="0.532856444">
        <ele>10.23</ele>
        <time>2013-05-18T09:35:09Z</time>
      </trkpt>
      <trkpt lat="40.554771898" lon="0.532859461">
        <ele>10.23</ele>
        <time>2013-05-18T09:35:15Z</time>
      </trkpt>
      <trkpt lat="40.554783633" lon="0.532848565">
        <ele>9.75</ele>
        <time>2013-05-18T09:35:33Z</time>
      </trkpt>
      <trkpt lat="40.554727474" lon="0.532814702">
        <ele>10.23</ele>
        <time>2013-05-18T09:35:40Z</time>
      </trkpt>
      <trkpt lat="40.554500828" lon="0.532668941">
        <ele>10.71</ele>
        <time>2013-05-18T09:35:48Z</time>
      </trkpt>
      <trkpt lat="40.554477107" lon="0.532644046">
        <ele>11.19</ele>
        <time>2013-05-18T09:35:49Z</time>
      </trkpt>
      <trkpt lat="40.554399407" lon="0.532466853">
        <ele>11.19</ele>
        <time>2013-05-18T09:35:54Z</time>
      </trkpt>
      <trkpt lat="40.554113332" lon="0.532255461">
        <ele>10.71</ele>
        <time>2013-05-18T09:36:03Z</time>
      </trkpt>
      <trkpt lat="40.553871347" lon="0.532126799">
        <ele>9.75</ele>
        <time>2013-05-18T09:36:09Z</time>
      </trkpt>
      <trkpt lat="40.553732207" lon="0.532086231">
        <ele>9.75</ele>
        <time>2013-05-18T09:36:12Z</time>
      </trkpt>
      <trkpt lat="40.553465830" lon="0.531855393">
        <ele>9.75</ele>
        <time>2013-05-18T09:36:19Z</time>
      </trkpt>
      <trkpt lat="40.553114126" lon="0.531467563">
        <ele>9.75</ele>
        <time>2013-05-18T09:36:30Z</time>
      </trkpt>
      <trkpt lat="40.552915726" lon="0.531241754">
        <ele>9.27</ele>
        <time>2013-05-18T09:36:37Z</time>
      </trkpt>
      <trkpt lat="40.552690923" lon="0.530964062">
        <ele>10.23</ele>
        <time>2013-05-18T09:36:45Z</time>
      </trkpt>
      <trkpt lat="40.552513311" lon="0.530725429">
        <ele>9.75</ele>
        <time>2013-05-18T09:36:52Z</time>
      </trkpt>
      <trkpt lat="40.552341398" lon="0.530529711">
        <ele>9.75</ele>
        <time>2013-05-18T09:36:58Z</time>
      </trkpt>
      <trkpt lat="40.552120451" lon="0.530311530">
        <ele>10.23</ele>
        <time>2013-05-18T09:37:05Z</time>
      </trkpt>
      <trkpt lat="40.551908473" lon="0.530152526">
        <ele>10.23</ele>
        <time>2013-05-18T09:37:12Z</time>
      </trkpt>
      <trkpt lat="40.551587781" lon="0.529928142">
        <ele>10.23</ele>
        <time>2013-05-18T09:37:22Z</time>
      </trkpt>
      <trkpt lat="40.551336994" lon="0.529722953">
        <ele>10.71</ele>
        <time>2013-05-18T09:37:30Z</time>
      </trkpt>
      <trkpt lat="40.551149491" lon="0.529611139">
        <ele>9.75</ele>
        <time>2013-05-18T09:37:35Z</time>
      </trkpt>
      <trkpt lat="40.550789237" lon="0.529391030">
        <ele>9.27</ele>
        <time>2013-05-18T09:37:44Z</time>
      </trkpt>
      <trkpt lat="40.550369890" lon="0.529121635">
        <ele>8.31</ele>
        <time>2013-05-18T09:37:55Z</time>
      </trkpt>
      <trkpt lat="40.550077697" lon="0.528864646">
        <ele>8.31</ele>
        <time>2013-05-18T09:38:03Z</time>
      </trkpt>
      <trkpt lat="40.549666313" lon="0.528417723">
        <ele>9.27</ele>
        <time>2013-05-18T09:38:15Z</time>
      </trkpt>
      <trkpt lat="40.549312849" lon="0.527962251">
        <ele>8.31</ele>
        <time>2013-05-18T09:38:26Z</time>
      </trkpt>
      <trkpt lat="40.548981512" lon="0.527506778">
        <ele>8.79</ele>
        <time>2013-05-18T09:38:36Z</time>
      </trkpt>
      <trkpt lat="40.548781687" lon="0.527277701">
        <ele>8.31</ele>
        <time>2013-05-18T09:38:42Z</time>
      </trkpt>
      <trkpt lat="40.548669202" lon="0.527220536">
        <ele>8.31</ele>
        <time>2013-05-18T09:38:45Z</time>
      </trkpt>
      <trkpt lat="40.548399556" lon="0.526922056">
        <ele>7.83</ele>
        <time>2013-05-18T09:38:53Z</time>
      </trkpt>
      <trkpt lat="40.548039135" lon="0.526504973">
        <ele>8.31</ele>
        <time>2013-05-18T09:39:04Z</time>
      </trkpt>
      <trkpt lat="40.547676114" lon="0.526038855">
        <ele>7.83</ele>
        <time>2013-05-18T09:39:15Z</time>
      </trkpt>
      <trkpt lat="40.547304712" lon="0.525592519">
        <ele>7.83</ele>
        <time>2013-05-18T09:39:26Z</time>
      </trkpt>
      <trkpt lat="40.547002880" lon="0.525263110">
        <ele>7.83</ele>
        <time>2013-05-18T09:39:35Z</time>
      </trkpt>
      <trkpt lat="40.546862734" lon="0.525137298">
        <ele>7.35</ele>
        <time>2013-05-18T09:39:39Z</time>
      </trkpt>
      <trkpt lat="40.546420086" lon="0.524822054">
        <ele>7.35</ele>
        <time>2013-05-18T09:39:51Z</time>
      </trkpt>
      <trkpt lat="40.546009792" lon="0.524511505">
        <ele>7.35</ele>
        <time>2013-05-18T09:40:02Z</time>
      </trkpt>
      <trkpt lat="40.545590194" lon="0.524148569">
        <ele>7.83</ele>
        <time>2013-05-18T09:40:14Z</time>
      </trkpt>
      <trkpt lat="40.545067331" lon="0.523752943">
        <ele>7.83</ele>
        <time>2013-05-18T09:40:28Z</time>
      </trkpt>
      <trkpt lat="40.544642536" lon="0.523422277">
        <ele>7.35</ele>
        <time>2013-05-18T09:40:39Z</time>
      </trkpt>
      <trkpt lat="40.544266608" lon="0.523095466">
        <ele>6.39</ele>
        <time>2013-05-18T09:40:49Z</time>
      </trkpt>
      <trkpt lat="40.543940635" lon="0.522828335">
        <ele>6.39</ele>
        <time>2013-05-18T09:40:58Z</time>
      </trkpt>
      <trkpt lat="40.543539561" lon="0.522501273">
        <ele>6.87</ele>
        <time>2013-05-18T09:41:09Z</time>
      </trkpt>
      <trkpt lat="40.543164220" lon="0.522219222">
        <ele>6.87</ele>
        <time>2013-05-18T09:41:19Z</time>
      </trkpt>
      <trkpt lat="40.542745292" lon="0.521933651">
        <ele>5.91</ele>
        <time>2013-05-18T09:41:30Z</time>
      </trkpt>
      <trkpt lat="40.542551419" lon="0.521818316">
        <ele>6.87</ele>
        <time>2013-05-18T09:41:35Z</time>
      </trkpt>
      <trkpt lat="40.542398449" lon="0.521711446">
        <ele>6.87</ele>
        <time>2013-05-18T09:41:39Z</time>
      </trkpt>
      <trkpt lat="40.542019587" lon="0.521615138">
        <ele>6.87</ele>
        <time>2013-05-18T09:41:48Z</time>
      </trkpt>
      <trkpt lat="40.541590601" lon="0.521544395">
        <ele>6.87</ele>
        <time>2013-05-18T09:41:58Z</time>
      </trkpt>
      <trkpt lat="40.541546931" lon="0.521536348">
        <ele>6.87</ele>
        <time>2013-05-18T09:41:59Z</time>
      </trkpt>
      <trkpt lat="40.541208554" lon="0.521562081">
        <ele>6.87</ele>
        <time>2013-05-18T09:42:07Z</time>
      </trkpt>
      <trkpt lat="40.540775461" lon="0.521737095">
        <ele>6.39</ele>
        <time>2013-05-18T09:42:18Z</time>
      </trkpt>
      <trkpt lat="40.540493410" lon="0.521970615">
        <ele>6.87</ele>
        <time>2013-05-18T09:42:27Z</time>
      </trkpt>
      <trkpt lat="40.540338764" lon="0.522000454">
        <ele>7.35</ele>
        <time>2013-05-18T09:42:35Z</time>
      </trkpt>
      <trkpt lat="40.540258465" lon="0.521980003">
        <ele>6.87</ele>
        <time>2013-05-18T09:42:41Z</time>
      </trkpt>
      <trkpt lat="40.540078674" lon="0.522045298">
        <ele>5.91</ele>
        <time>2013-05-18T09:42:48Z</time>
      </trkpt>
      <trkpt lat="40.539822774" lon="0.521996012">
        <ele>5.42</ele>
        <time>2013-05-18T09:42:55Z</time>
      </trkpt>
      <trkpt lat="40.539450953" lon="0.521917054">
        <ele>6.39</ele>
        <time>2013-05-18T09:43:05Z</time>
      </trkpt>
      <trkpt lat="40.539097572" lon="0.521814628">
        <ele>6.39</ele>
        <time>2013-05-18T09:43:15Z</time>
      </trkpt>
      <trkpt lat="40.538899004" lon="0.521735922">
        <ele>5.91</ele>
        <time>2013-05-18T09:43:20Z</time>
      </trkpt>
      <trkpt lat="40.538526429" lon="0.521420343">
        <ele>5.91</ele>
        <time>2013-05-18T09:43:31Z</time>
      </trkpt>
      <trkpt lat="40.538294418" lon="0.521179531">
        <ele>5.42</ele>
        <time>2013-05-18T09:43:38Z</time>
      </trkpt>
      <trkpt lat="40.537910946" lon="0.520846434">
        <ele>5.91</ele>
        <time>2013-05-18T09:43:49Z</time>
      </trkpt>
      <trkpt lat="40.537564941" lon="0.520653483">
        <ele>6.39</ele>
        <time>2013-05-18T09:43:58Z</time>
      </trkpt>
      <trkpt lat="40.537159424" lon="0.520386435">
        <ele>6.87</ele>
        <time>2013-05-18T09:44:09Z</time>
      </trkpt>
      <trkpt lat="40.536794309" lon="0.520150652">
        <ele>6.87</ele>
        <time>2013-05-18T09:44:19Z</time>
      </trkpt>
      <trkpt lat="40.536273876" lon="0.519761397">
        <ele>6.87</ele>
        <time>2013-05-18T09:44:33Z</time>
      </trkpt>
      <trkpt lat="40.535829887" lon="0.519413715">
        <ele>7.35</ele>
        <time>2013-05-18T09:44:45Z</time>
      </trkpt>
      <trkpt lat="40.535428310" lon="0.519108865">
        <ele>7.35</ele>
        <time>2013-05-18T09:44:56Z</time>
      </trkpt>
      <trkpt lat="40.535171404" lon="0.518926224">
        <ele>7.35</ele>
        <time>2013-05-18T09:45:03Z</time>
      </trkpt>
      <trkpt lat="40.534680728" lon="0.518749030">
        <ele>7.83</ele>
        <time>2013-05-18T09:45:15Z</time>
      </trkpt>
      <trkpt lat="40.534263309" lon="0.518617267">
        <ele>8.79</ele>
        <time>2013-05-18T09:45:25Z</time>
      </trkpt>
      <trkpt lat="40.534102796" lon="0.518566389">
        <ele>8.79</ele>
        <time>2013-05-18T09:45:29Z</time>
      </trkpt>
      <trkpt lat="40.533734579" lon="0.518373521">
        <ele>11.19</ele>
        <time>2013-05-18T09:45:39Z</time>
      </trkpt>
      <trkpt lat="40.533366194" lon="0.518137570">
        <ele>11.19</ele>
        <time>2013-05-18T09:45:49Z</time>
      </trkpt>
      <trkpt lat="40.532966880" lon="0.517887203">
        <ele>10.71</ele>
        <time>2013-05-18T09:45:59Z</time>
      </trkpt>
      <trkpt lat="40.532731097" lon="0.517740017">
        <ele>11.67</ele>
        <time>2013-05-18T09:46:05Z</time>
      </trkpt>
      <trkpt lat="40.532335890" lon="0.517497277">
        <ele>12.15</ele>
        <time>2013-05-18T09:46:15Z</time>
      </trkpt>
      <trkpt lat="40.532013858" lon="0.517338691">
        <ele>11.67</ele>
        <time>2013-05-18T09:46:22Z</time>
      </trkpt>
      <trkpt lat="40.531811351" lon="0.517306924">
        <ele>11.67</ele>
        <time>2013-05-18T09:46:26Z</time>
      </trkpt>
      <trkpt lat="40.531490408" lon="0.517320503">
        <ele>11.67</ele>
        <time>2013-05-18T09:46:33Z</time>
      </trkpt>
      <trkpt lat="40.531085478" lon="0.517181447">
        <ele>11.19</ele>
        <time>2013-05-18T09:46:42Z</time>
      </trkpt>
      <trkpt lat="40.530587006" lon="0.516974246">
        <ele>11.19</ele>
        <time>2013-05-18T09:46:54Z</time>
      </trkpt>
      <trkpt lat="40.530176461" lon="0.516779283">
        <ele>11.19</ele>
        <time>2013-05-18T09:47:04Z</time>
      </trkpt>
      <trkpt lat="40.529745463" lon="0.516604856">
        <ele>12.15</ele>
        <time>2013-05-18T09:47:14Z</time>
      </trkpt>
      <trkpt lat="40.529316394" lon="0.516457167">
        <ele>11.67</ele>
        <time>2013-05-18T09:47:24Z</time>
      </trkpt>
      <trkpt lat="40.528967706" lon="0.516371923">
        <ele>12.63</ele>
        <time>2013-05-18T09:47:32Z</time>
      </trkpt>
      <trkpt lat="40.528832423" lon="0.516364714">
        <ele>12.15</ele>
        <time>2013-05-18T09:47:35Z</time>
      </trkpt>
      <trkpt lat="40.528451297" lon="0.516270753">
        <ele>12.15</ele>
        <time>2013-05-18T09:47:44Z</time>
      </trkpt>
      <trkpt lat="40.528101856" lon="0.516287768">
        <ele>12.63</ele>
        <time>2013-05-18T09:47:52Z</time>
      </trkpt>
      <trkpt lat="40.527822068" lon="0.516285170">
        <ele>12.15</ele>
        <time>2013-05-18T09:47:59Z</time>
      </trkpt>
      <trkpt lat="40.527607659" lon="0.516288690">
        <ele>12.15</ele>
        <time>2013-05-18T09:48:04Z</time>
      </trkpt>
      <trkpt lat="40.527521074" lon="0.516270250">
        <ele>11.67</ele>
        <time>2013-05-18T09:48:06Z</time>
      </trkpt>
      <trkpt lat="40.527209602" lon="0.516111916">
        <ele>11.67</ele>
        <time>2013-05-18T09:48:15Z</time>
      </trkpt>
      <trkpt lat="40.527176075" lon="0.516114850">
        <ele>11.67</ele>
        <time>2013-05-18T09:48:20Z</time>
      </trkpt>
      <trkpt lat="40.527176159" lon="0.516122812">
        <ele>11.67</ele>
        <time>2013-05-18T09:48:34Z</time>
      </trkpt>
      <trkpt lat="40.527100554" lon="0.516056847">
        <ele>12.15</ele>
        <time>2013-05-18T09:48:39Z</time>
      </trkpt>
      <trkpt lat="40.526986308" lon="0.515810419">
        <ele>12.15</ele>
        <time>2013-05-18T09:48:46Z</time>
      </trkpt>
      <trkpt lat="40.526872817" lon="0.515541192">
        <ele>12.15</ele>
        <time>2013-05-18T09:48:54Z</time>
      </trkpt>
      <trkpt lat="40.526668886" lon="0.515408339">
        <ele>11.67</ele>
        <time>2013-05-18T09:49:02Z</time>
      </trkpt>
      <trkpt lat="40.526355654" lon="0.515276995">
        <ele>12.15</ele>
        <time>2013-05-18T09:49:12Z</time>
      </trkpt>
      <trkpt lat="40.526061365" lon="0.515112542">
        <ele>12.63</ele>
        <time>2013-05-18T09:49:21Z</time>
      </trkpt>
      <trkpt lat="40.525717540" lon="0.514905844">
        <ele>12.15</ele>
        <time>2013-05-18T09:49:31Z</time>
      </trkpt>
      <trkpt lat="40.525387293" lon="0.514736865">
        <ele>12.15</ele>
        <time>2013-05-18T09:49:40Z</time>
      </trkpt>
      <trkpt lat="40.525309509" lon="0.514710713">
        <ele>12.63</ele>
        <time>2013-05-18T09:49:42Z</time>
      </trkpt>
      <trkpt lat="40.524870297" lon="0.514715575">
        <ele>11.67</ele>
        <time>2013-05-18T09:49:52Z</time>
      </trkpt>
      <trkpt lat="40.524692601" lon="0.514688669">
        <ele>11.67</ele>
        <time>2013-05-18T09:49:57Z</time>
      </trkpt>
      <trkpt lat="40.524419518" lon="0.514599653">
        <ele>11.67</ele>
        <time>2013-05-18T09:50:05Z</time>
      </trkpt>
      <trkpt lat="40.524146017" lon="0.514562437">
        <ele>11.19</ele>
        <time>2013-05-18T09:50:13Z</time>
      </trkpt>
      <trkpt lat="40.523866229" lon="0.514548272">
        <ele>11.67</ele>
        <time>2013-05-18T09:50:21Z</time>
      </trkpt>
      <trkpt lat="40.523679480" lon="0.514537627">
        <ele>11.19</ele>
        <time>2013-05-18T09:50:27Z</time>
      </trkpt>
      <trkpt lat="40.523643941" lon="0.514529496">
        <ele>11.67</ele>
        <time>2013-05-18T09:50:28Z</time>
      </trkpt>
      <trkpt lat="40.523520056" lon="0.514399745">
        <ele>10.23</ele>
        <time>2013-05-18T09:50:32Z</time>
      </trkpt>
      <trkpt lat="40.523463227" lon="0.514213499">
        <ele>10.23</ele>
        <time>2013-05-18T09:50:36Z</time>
      </trkpt>
      <trkpt lat="40.523455516" lon="0.514191790">
        <ele>9.75</ele>
        <time>2013-05-18T09:51:01Z</time>
      </trkpt>
      <trkpt lat="40.523459287" lon="0.514181647">
        <ele>9.75</ele>
        <time>2013-05-18T09:51:08Z</time>
      </trkpt>
      <trkpt lat="40.523473788" lon="0.514093554">
        <ele>9.75</ele>
        <time>2013-05-18T09:51:12Z</time>
      </trkpt>
      <trkpt lat="40.523475213" lon="0.514021805">
        <ele>9.75</ele>
        <time>2013-05-18T09:51:18Z</time>
      </trkpt>
      <trkpt lat="40.523556601" lon="0.513758613">
        <ele>10.71</ele>
        <time>2013-05-18T09:51:50Z</time>
      </trkpt>
      <trkpt lat="40.523695406" lon="0.513423588">
        <ele>11.67</ele>
        <time>2013-05-18T09:51:58Z</time>
      </trkpt>
      <trkpt lat="40.523799760" lon="0.513202809">
        <ele>11.19</ele>
        <time>2013-05-18T09:54:47Z</time>
      </trkpt>
      <trkpt lat="40.523770843" lon="0.513209011">
        <ele>10.71</ele>
        <time>2013-05-18T09:55:34Z</time>
      </trkpt>
      <trkpt lat="40.523769669" lon="0.513218902">
        <ele>10.71</ele>
        <time>2013-05-18T09:55:42Z</time>
      </trkpt>
      <trkpt lat="40.523758354" lon="0.513249161">
        <ele>9.75</ele>
        <time>2013-05-18T09:55:48Z</time>
      </trkpt>
      <trkpt lat="40.523673194" lon="0.513327532">
        <ele>9.27</ele>
        <time>2013-05-18T09:55:52Z</time>
      </trkpt>
      <trkpt lat="40.523561379" lon="0.513455775">
        <ele>6.87</ele>
        <time>2013-05-18T09:55:55Z</time>
      </trkpt>
      <trkpt lat="40.523498766" lon="0.513627771">
        <ele>6.39</ele>
        <time>2013-05-18T09:55:58Z</time>
      </trkpt>
      <trkpt lat="40.523386281" lon="0.514017278">
        <ele>5.42</ele>
        <time>2013-05-18T09:56:06Z</time>
      </trkpt>
      <trkpt lat="40.523260133" lon="0.514284074">
        <ele>2.54</ele>
        <time>2013-05-18T09:56:12Z</time>
      </trkpt>
      <trkpt lat="40.523231970" lon="0.514430674">
        <ele>3.50</ele>
        <time>2013-05-18T09:56:17Z</time>
      </trkpt>
      <trkpt lat="40.523213781" lon="0.514477696">
        <ele>3.50</ele>
        <time>2013-05-18T09:56:23Z</time>
      </trkpt>
      <trkpt lat="40.523116216" lon="0.514544584">
        <ele>3.50</ele>
        <time>2013-05-18T09:56:32Z</time>
      </trkpt>
      <trkpt lat="40.523057124" lon="0.514595378">
        <ele>3.02</ele>
        <time>2013-05-18T09:56:39Z</time>
      </trkpt>
      <trkpt lat="40.523062320" lon="0.514586829">
        <ele>3.02</ele>
        <time>2013-05-18T09:56:53Z</time>
      </trkpt>
      <trkpt lat="40.523028625" lon="0.514624380">
        <ele>3.98</ele>
        <time>2013-05-18T09:57:03Z</time>
      </trkpt>
      <trkpt lat="40.523016555" lon="0.514629241">
        <ele>3.02</ele>
        <time>2013-05-18T09:57:44Z</time>
      </trkpt>
      <trkpt lat="40.523013538" lon="0.514631085">
        <ele>3.50</ele>
        <time>2013-05-18T09:57:45Z</time>
      </trkpt>
      <trkpt lat="40.522942627" lon="0.514621865">
        <ele>3.02</ele>
        <time>2013-05-18T09:57:53Z</time>
      </trkpt>
      <trkpt lat="40.522907842" lon="0.514614070">
        <ele>3.02</ele>
        <time>2013-05-18T09:57:58Z</time>
      </trkpt>
      <trkpt lat="40.522842798" lon="0.514575848">
        <ele>3.02</ele>
        <time>2013-05-18T09:58:07Z</time>
      </trkpt>
      <trkpt lat="40.522820251" lon="0.514556067">
        <ele>2.54</ele>
        <time>2013-05-18T09:58:19Z</time>
      </trkpt>
      <trkpt lat="40.522802398" lon="0.514544081">
        <ele>3.02</ele>
        <time>2013-05-18T09:59:07Z</time>
      </trkpt>
      <trkpt lat="40.522807511" lon="0.514427572">
        <ele>3.98</ele>
        <time>2013-05-18T09:59:15Z</time>
      </trkpt>
      <trkpt lat="40.522800302" lon="0.514292791">
        <ele>3.50</ele>
        <time>2013-05-18T09:59:23Z</time>
      </trkpt>
      <trkpt lat="40.522807762" lon="0.514219785">
        <ele>5.42</ele>
        <time>2013-05-18T09:59:31Z</time>
      </trkpt>
      <trkpt lat="40.522828046" lon="0.514192963">
        <ele>4.94</ele>
        <time>2013-05-18T09:59:38Z</time>
      </trkpt>
      <trkpt lat="40.522839697" lon="0.514034377">
        <ele>4.46</ele>
        <time>2013-05-18T09:59:47Z</time>
      </trkpt>
      <trkpt lat="40.522828214" lon="0.514000682">
        <ele>4.94</ele>
        <time>2013-05-18T09:59:54Z</time>
      </trkpt>
      <trkpt lat="40.522823688" lon="0.513973190">
        <ele>6.87</ele>
        <time>2013-05-18T09:59:57Z</time>
      </trkpt>
      <trkpt lat="40.522809690" lon="0.513938405">
        <ele>8.79</ele>
        <time>2013-05-18T10:00:03Z</time>
      </trkpt>
      <trkpt lat="40.522776414" lon="0.513923317">
        <ele>7.83</ele>
        <time>2013-05-18T10:00:09Z</time>
      </trkpt>
      <trkpt lat="40.522758560" lon="0.513920132">
        <ele>8.31</ele>
        <time>2013-05-18T10:00:59Z</time>
      </trkpt>
      <trkpt lat="40.522659821" lon="0.513978219">
        <ele>8.79</ele>
        <time>2013-05-18T10:01:06Z</time>
      </trkpt>
      <trkpt lat="40.522502242" lon="0.513989115">
        <ele>9.75</ele>
        <time>2013-05-18T10:01:14Z</time>
      </trkpt>
      <trkpt lat="40.522489417" lon="0.513998168">
        <ele>10.71</ele>
        <time>2013-05-18T10:06:59Z</time>
      </trkpt>
      <trkpt lat="40.522382213" lon="0.514068408">
        <ele>11.19</ele>
        <time>2013-05-18T10:07:06Z</time>
      </trkpt>
      <trkpt lat="40.522360001" lon="0.514063714">
        <ele>11.19</ele>
        <time>2013-05-18T10:07:07Z</time>
      </trkpt>
      <trkpt lat="40.522144753" lon="0.513943350">
        <ele>11.67</ele>
        <time>2013-05-18T10:07:17Z</time>
      </trkpt>
      <trkpt lat="40.521933278" lon="0.513821729">
        <ele>11.19</ele>
        <time>2013-05-18T10:07:26Z</time>
      </trkpt>
      <trkpt lat="40.521656340" lon="0.513774287">
        <ele>10.23</ele>
        <time>2013-05-18T10:07:35Z</time>
      </trkpt>
      <trkpt lat="40.521469172" lon="0.513868080">
        <ele>11.19</ele>
        <time>2013-05-18T10:07:41Z</time>
      </trkpt>
      <trkpt lat="40.521164071" lon="0.513872690">
        <ele>10.71</ele>
        <time>2013-05-18T10:07:49Z</time>
      </trkpt>
      <trkpt lat="40.520942118" lon="0.513802534">
        <ele>10.71</ele>
        <time>2013-05-18T10:07:56Z</time>
      </trkpt>
      <trkpt lat="40.520630395" lon="0.513762888">
        <ele>11.19</ele>
        <time>2013-05-18T10:08:05Z</time>
      </trkpt>
      <trkpt lat="40.520310039" lon="0.513618886">
        <ele>10.23</ele>
        <time>2013-05-18T10:08:15Z</time>
      </trkpt>
      <trkpt lat="40.519994628" lon="0.513521153">
        <ele>9.75</ele>
        <time>2013-05-18T10:08:24Z</time>
      </trkpt>
      <trkpt lat="40.519611575" lon="0.513557196">
        <ele>9.27</ele>
        <time>2013-05-18T10:08:34Z</time>
      </trkpt>
      <trkpt lat="40.519236736" lon="0.513529032">
        <ele>9.27</ele>
        <time>2013-05-18T10:08:45Z</time>
      </trkpt>
      <trkpt lat="40.519080330" lon="0.513392156">
        <ele>9.75</ele>
        <time>2013-05-18T10:08:51Z</time>
      </trkpt>
      <trkpt lat="40.518944375" lon="0.513187554">
        <ele>8.79</ele>
        <time>2013-05-18T10:08:58Z</time>
      </trkpt>
      <trkpt lat="40.518684033" lon="0.513039697">
        <ele>9.27</ele>
        <time>2013-05-18T10:09:08Z</time>
      </trkpt>
      <trkpt lat="40.518420842" lon="0.512855379">
        <ele>9.75</ele>
        <time>2013-05-18T10:09:18Z</time>
      </trkpt>
      <trkpt lat="40.518211462" lon="0.512687992">
        <ele>9.75</ele>
        <time>2013-05-18T10:09:26Z</time>
      </trkpt>
      <trkpt lat="40.517879203" lon="0.512470063">
        <ele>8.79</ele>
        <time>2013-05-18T10:09:38Z</time>
      </trkpt>
      <trkpt lat="40.517577287" lon="0.512237800">
        <ele>10.23</ele>
        <time>2013-05-18T10:09:49Z</time>
      </trkpt>
      <trkpt lat="40.517252069" lon="0.512098158">
        <ele>8.79</ele>
        <time>2013-05-18T10:09:59Z</time>
      </trkpt>
      <trkpt lat="40.516906735" lon="0.512056919">
        <ele>9.27</ele>
        <time>2013-05-18T10:10:10Z</time>
      </trkpt>
      <trkpt lat="40.516707413" lon="0.511957845">
        <ele>9.27</ele>
        <time>2013-05-18T10:10:17Z</time>
      </trkpt>
      <trkpt lat="40.516464505" lon="0.511747375">
        <ele>9.27</ele>
        <time>2013-05-18T10:10:26Z</time>
      </trkpt>
      <trkpt lat="40.516079692" lon="0.511549143">
        <ele>9.75</ele>
        <time>2013-05-18T10:10:39Z</time>
      </trkpt>
      <trkpt lat="40.515745003" lon="0.511431713">
        <ele>9.75</ele>
        <time>2013-05-18T10:10:50Z</time>
      </trkpt>
      <trkpt lat="40.515433531" lon="0.511251502">
        <ele>10.71</ele>
        <time>2013-05-18T10:11:00Z</time>
      </trkpt>
      <trkpt lat="40.515149133" lon="0.511000128">
        <ele>10.23</ele>
        <time>2013-05-18T10:11:10Z</time>
      </trkpt>
      <trkpt lat="40.515061961" lon="0.510935672">
        <ele>10.23</ele>
        <time>2013-05-18T10:11:15Z</time>
      </trkpt>
      <trkpt lat="40.515069673" lon="0.510951430">
        <ele>9.75</ele>
        <time>2013-05-18T10:11:17Z</time>
      </trkpt>
      <trkpt lat="40.515073109" lon="0.511107920">
        <ele>10.23</ele>
        <time>2013-05-18T10:11:23Z</time>
      </trkpt>
      <trkpt lat="40.514973281" lon="0.511185285">
        <ele>10.23</ele>
        <time>2013-05-18T10:11:28Z</time>
      </trkpt>
      <trkpt lat="40.514953835" lon="0.511181932">
        <ele>9.75</ele>
        <time>2013-05-18T10:11:29Z</time>
      </trkpt>
      <trkpt lat="40.514919553" lon="0.511155864">
        <ele>10.23</ele>
        <time>2013-05-18T10:11:35Z</time>
      </trkpt>
      <trkpt lat="40.514921062" lon="0.511150165">
        <ele>10.23</ele>
        <time>2013-05-18T10:11:51Z</time>
      </trkpt>
      <trkpt lat="40.514910500" lon="0.511143543">
        <ele>9.75</ele>
        <time>2013-05-18T10:11:52Z</time>
      </trkpt>
      <trkpt lat="40.514826179" lon="0.511134323">
        <ele>10.23</ele>
        <time>2013-05-18T10:11:56Z</time>
      </trkpt>
      <trkpt lat="40.514539853" lon="0.511135412">
        <ele>10.23</ele>
        <time>2013-05-18T10:12:06Z</time>
      </trkpt>
      <trkpt lat="40.514336256" lon="0.511097945">
        <ele>10.71</ele>
        <time>2013-05-18T10:12:13Z</time>
      </trkpt>
      <trkpt lat="40.514142634" lon="0.511097023">
        <ele>10.71</ele>
        <time>2013-05-18T10:12:20Z</time>
      </trkpt>
      <trkpt lat="40.513922106" lon="0.511083696">
        <ele>10.23</ele>
        <time>2013-05-18T10:12:29Z</time>
      </trkpt>
      <trkpt lat="40.513763689" lon="0.510974145">
        <ele>9.75</ele>
        <time>2013-05-18T10:12:36Z</time>
      </trkpt>
      <trkpt lat="40.513665453" lon="0.510738529">
        <ele>9.75</ele>
        <time>2013-05-18T10:12:43Z</time>
      </trkpt>
      <trkpt lat="40.513676517" lon="0.510503165">
        <ele>9.75</ele>
        <time>2013-05-18T10:12:50Z</time>
      </trkpt>
      <trkpt lat="40.513675176" lon="0.510423621">
        <ele>10.23</ele>
        <time>2013-05-18T10:12:56Z</time>
      </trkpt>
      <trkpt lat="40.513664363" lon="0.510360505">
        <ele>10.23</ele>
        <time>2013-05-18T10:13:11Z</time>
      </trkpt>
      <trkpt lat="40.513647180" lon="0.510117598">
        <ele>11.19</ele>
        <time>2013-05-18T10:13:18Z</time>
      </trkpt>
      <trkpt lat="40.513624046" lon="0.509830350">
        <ele>10.23</ele>
        <time>2013-05-18T10:13:25Z</time>
      </trkpt>
      <trkpt lat="40.513619855" lon="0.509702861">
        <ele>10.23</ele>
        <time>2013-05-18T10:13:31Z</time>
      </trkpt>
      <trkpt lat="40.513631338" lon="0.509646954">
        <ele>11.19</ele>
        <time>2013-05-18T10:13:46Z</time>
      </trkpt>
      <trkpt lat="40.513628656" lon="0.509583838">
        <ele>10.71</ele>
        <time>2013-05-18T10:13:50Z</time>
      </trkpt>
      <trkpt lat="40.513599655" lon="0.509409327">
        <ele>12.15</ele>
        <time>2013-05-18T10:13:55Z</time>
      </trkpt>
      <trkpt lat="40.513657490" lon="0.509051420">
        <ele>11.19</ele>
        <time>2013-05-18T10:14:03Z</time>
      </trkpt>
      <trkpt lat="40.513583561" lon="0.508883195">
        <ele>12.63</ele>
        <time>2013-05-18T10:14:07Z</time>
      </trkpt>
      <trkpt lat="40.513270414" lon="0.508621428">
        <ele>11.19</ele>
        <time>2013-05-18T10:14:16Z</time>
      </trkpt>
      <trkpt lat="40.513078133" lon="0.508518750">
        <ele>10.71</ele>
        <time>2013-05-18T10:14:23Z</time>
      </trkpt>
      <trkpt lat="40.512798596" lon="0.508326385">
        <ele>10.71</ele>
        <time>2013-05-18T10:14:33Z</time>
      </trkpt>
      <trkpt lat="40.512454100" lon="0.508076604">
        <ele>10.71</ele>
        <time>2013-05-18T10:14:44Z</time>
      </trkpt>
      <trkpt lat="40.512187304" lon="0.507898740">
        <ele>11.19</ele>
        <time>2013-05-18T10:14:52Z</time>
      </trkpt>
      <trkpt lat="40.511869211" lon="0.507689612">
        <ele>11.19</ele>
        <time>2013-05-18T10:15:01Z</time>
      </trkpt>
      <trkpt lat="40.511546340" lon="0.507465396">
        <ele>10.71</ele>
        <time>2013-05-18T10:15:10Z</time>
      </trkpt>
      <trkpt lat="40.511118192" lon="0.507169431">
        <ele>10.23</ele>
        <time>2013-05-18T10:15:21Z</time>
      </trkpt>
      <trkpt lat="40.510651069" lon="0.506874053">
        <ele>10.71</ele>
        <time>2013-05-18T10:15:32Z</time>
      </trkpt>
      <trkpt lat="40.510224849" lon="0.506669534">
        <ele>11.67</ele>
        <time>2013-05-18T10:15:42Z</time>
      </trkpt>
      <trkpt lat="40.509808352" lon="0.506445402">
        <ele>11.67</ele>
        <time>2013-05-18T10:15:52Z</time>
      </trkpt>
      <trkpt lat="40.509421360" lon="0.506144492">
        <ele>11.67</ele>
        <time>2013-05-18T10:16:02Z</time>
      </trkpt>
      <trkpt lat="40.509380791" lon="0.506116077">
        <ele>12.15</ele>
        <time>2013-05-18T10:16:03Z</time>
      </trkpt>
      <trkpt lat="40.509007629" lon="0.505843749">
        <ele>11.67</ele>
        <time>2013-05-18T10:16:13Z</time>
      </trkpt>
      <trkpt lat="40.508709233" lon="0.505572595">
        <ele>11.67</ele>
        <time>2013-05-18T10:16:23Z</time>
      </trkpt>
      <trkpt lat="40.508453082" lon="0.505361706">
        <ele>11.67</ele>
        <time>2013-05-18T10:16:30Z</time>
      </trkpt>
      <trkpt lat="40.508024180" lon="0.505143190">
        <ele>11.67</ele>
        <time>2013-05-18T10:16:40Z</time>
      </trkpt>
      <trkpt lat="40.507682785" lon="0.504979072">
        <ele>11.67</ele>
        <time>2013-05-18T10:16:48Z</time>
      </trkpt>
      <trkpt lat="40.507204179" lon="0.504851080">
        <ele>11.19</ele>
        <time>2013-05-18T10:16:58Z</time>
      </trkpt>
      <trkpt lat="40.507001504" lon="0.504816966">
        <ele>10.71</ele>
        <time>2013-05-18T10:17:02Z</time>
      </trkpt>
      <trkpt lat="40.506734541" lon="0.504939174">
        <ele>11.19</ele>
        <time>2013-05-18T10:17:08Z</time>
      </trkpt>
      <trkpt lat="40.506465482" lon="0.505319294">
        <ele>10.23</ele>
        <time>2013-05-18T10:17:17Z</time>
      </trkpt>
      <trkpt lat="40.506287115" lon="0.505490536">
        <ele>10.23</ele>
        <time>2013-05-18T10:17:23Z</time>
      </trkpt>
      <trkpt lat="40.506114112" lon="0.505485926">
        <ele>8.79</ele>
        <time>2013-05-18T10:17:30Z</time>
      </trkpt>
      <trkpt lat="40.506031634" lon="0.505508389">
        <ele>8.79</ele>
        <time>2013-05-18T10:17:33Z</time>
      </trkpt>
      <trkpt lat="40.505863493" lon="0.505630597">
        <ele>9.27</ele>
        <time>2013-05-18T10:17:41Z</time>
      </trkpt>
      <trkpt lat="40.505749751" lon="0.505587514">
        <ele>8.79</ele>
        <time>2013-05-18T10:17:46Z</time>
      </trkpt>
      <trkpt lat="40.505617484" lon="0.505392971">
        <ele>9.75</ele>
        <time>2013-05-18T10:17:53Z</time>
      </trkpt>
      <trkpt lat="40.505477339" lon="0.505116954">
        <ele>9.27</ele>
        <time>2013-05-18T10:18:02Z</time>
      </trkpt>
      <trkpt lat="40.505438615" lon="0.505033974">
        <ele>10.23</ele>
        <time>2013-05-18T10:18:07Z</time>
      </trkpt>
      <trkpt lat="40.505440040" lon="0.505030956">
        <ele>9.75</ele>
        <time>2013-05-18T10:18:14Z</time>
      </trkpt>
      <trkpt lat="40.505436854" lon="0.505030956">
        <ele>10.23</ele>
        <time>2013-05-18T10:18:32Z</time>
      </trkpt>
      <trkpt lat="40.505430987" lon="0.505032297">
        <ele>10.23</ele>
        <time>2013-05-18T10:18:36Z</time>
      </trkpt>
      <trkpt lat="40.505309450" lon="0.505001200">
        <ele>10.23</ele>
        <time>2013-05-18T10:18:42Z</time>
      </trkpt>
      <trkpt lat="40.505127562" lon="0.505013773">
        <ele>10.23</ele>
        <time>2013-05-18T10:18:49Z</time>
      </trkpt>
      <trkpt lat="40.504922625" lon="0.505114859">
        <ele>9.27</ele>
        <time>2013-05-18T10:18:57Z</time>
      </trkpt>
      <trkpt lat="40.504896389" lon="0.505119385">
        <ele>9.27</ele>
        <time>2013-05-18T10:18:58Z</time>
      </trkpt>
      <trkpt lat="40.504850540" lon="0.505008744">
        <ele>10.23</ele>
        <time>2013-05-18T10:19:02Z</time>
      </trkpt>
      <trkpt lat="40.504796728" lon="0.504579674">
        <ele>10.23</ele>
        <time>2013-05-18T10:19:13Z</time>
      </trkpt>
      <trkpt lat="40.504667563" lon="0.504271556">
        <ele>11.67</ele>
        <time>2013-05-18T10:19:21Z</time>
      </trkpt>
      <trkpt lat="40.504490789" lon="0.504042227">
        <ele>11.19</ele>
        <time>2013-05-18T10:19:29Z</time>
      </trkpt>
      <trkpt lat="40.504295155" lon="0.503893951">
        <ele>11.19</ele>
        <time>2013-05-18T10:19:37Z</time>
      </trkpt>
      <trkpt lat="40.504038418" lon="0.503851119">
        <ele>9.75</ele>
        <time>2013-05-18T10:19:44Z</time>
      </trkpt>
      <trkpt lat="40.503723510" lon="0.503857154">
        <ele>9.75</ele>
        <time>2013-05-18T10:19:53Z</time>
      </trkpt>
      <trkpt lat="40.503452020" lon="0.503881713">
        <ele>10.23</ele>
        <time>2013-05-18T10:20:01Z</time>
      </trkpt>
      <trkpt lat="40.503246412" lon="0.503848772">
        <ele>10.23</ele>
        <time>2013-05-18T10:20:08Z</time>
      </trkpt>
      <trkpt lat="40.503122360" lon="0.503700329">
        <ele>10.23</ele>
        <time>2013-05-18T10:20:15Z</time>
      </trkpt>
      <trkpt lat="40.503061423" lon="0.503474940">
        <ele>9.75</ele>
        <time>2013-05-18T10:20:22Z</time>
      </trkpt>
      <trkpt lat="40.503015071" lon="0.503355414">
        <ele>9.75</ele>
        <time>2013-05-18T10:20:26Z</time>
      </trkpt>
      <trkpt lat="40.502922200" lon="0.503221974">
        <ele>10.23</ele>
        <time>2013-05-18T10:20:32Z</time>
      </trkpt>
      <trkpt lat="40.502777612" lon="0.503113344">
        <ele>10.23</ele>
        <time>2013-05-18T10:20:38Z</time>
      </trkpt>
      <trkpt lat="40.502704857" lon="0.503080906">
        <ele>10.23</ele>
        <time>2013-05-18T10:20:41Z</time>
      </trkpt>
      <trkpt lat="40.502625061" lon="0.503123822">
        <ele>9.75</ele>
        <time>2013-05-18T10:20:45Z</time>
      </trkpt>
      <trkpt lat="40.502394726" lon="0.503119044">
        <ele>9.75</ele>
        <time>2013-05-18T10:20:54Z</time>
      </trkpt>
      <trkpt lat="40.502379891" lon="0.503111668">
        <ele>9.75</ele>
        <time>2013-05-18T10:20:55Z</time>
      </trkpt>
      <trkpt lat="40.502291545" lon="0.502933469">
        <ele>9.27</ele>
        <time>2013-05-18T10:21:02Z</time>
      </trkpt>
      <trkpt lat="40.502294144" lon="0.502712773">
        <ele>9.75</ele>
        <time>2013-05-18T10:21:08Z</time>
      </trkpt>
      <trkpt lat="40.502263131" lon="0.502419574">
        <ele>9.75</ele>
        <time>2013-05-18T10:21:16Z</time>
      </trkpt>
      <trkpt lat="40.502147125" lon="0.502136433">
        <ele>10.71</ele>
        <time>2013-05-18T10:21:24Z</time>
      </trkpt>
      <trkpt lat="40.501955766" lon="0.501885312">
        <ele>10.71</ele>
        <time>2013-05-18T10:21:32Z</time>
      </trkpt>
      <trkpt lat="40.501936488" lon="0.501893526">
        <ele>21.77</ele>
        <time>2013-05-18T12:19:31Z</time>
      </trkpt>
      <trkpt lat="40.501729706" lon="0.502075749">
        <ele>20.81</ele>
        <time>2013-05-18T12:19:38Z</time>
      </trkpt>
      <trkpt lat="40.501552681" lon="0.502236430">
        <ele>20.81</ele>
        <time>2013-05-18T12:19:46Z</time>
      </trkpt>
      <trkpt lat="40.501304576" lon="0.502344137">
        <ele>20.32</ele>
        <time>2013-05-18T12:19:55Z</time>
      </trkpt>
      <trkpt lat="40.500988662" lon="0.502373558">
        <ele>20.81</ele>
        <time>2013-05-18T12:20:05Z</time>
      </trkpt>
      <trkpt lat="40.500819851" lon="0.502299629">
        <ele>20.81</ele>
        <time>2013-05-18T12:20:12Z</time>
      </trkpt>
      <trkpt lat="40.500815995" lon="0.502041634">
        <ele>19.84</ele>
        <time>2013-05-18T12:20:18Z</time>
      </trkpt>
      <trkpt lat="40.500816498" lon="0.501769474">
        <ele>18.88</ele>
        <time>2013-05-18T12:20:24Z</time>
      </trkpt>
      <trkpt lat="40.500731925" lon="0.501700994">
        <ele>19.36</ele>
        <time>2013-05-18T12:20:28Z</time>
      </trkpt>
      <trkpt lat="40.500670569" lon="0.501688924">
        <ele>17.92</ele>
        <time>2013-05-18T12:20:30Z</time>
      </trkpt>
      <trkpt lat="40.500467727" lon="0.501698311">
        <ele>18.88</ele>
        <time>2013-05-18T12:20:37Z</time>
      </trkpt>
      <trkpt lat="40.500351302" lon="0.501715411">
        <ele>20.32</ele>
        <time>2013-05-18T12:20:42Z</time>
      </trkpt>
      <trkpt lat="40.500313332" lon="0.501711555">
        <ele>21.77</ele>
        <time>2013-05-18T12:20:44Z</time>
      </trkpt>
      <trkpt lat="40.500297910" lon="0.501695881">
        <ele>21.77</ele>
        <time>2013-05-18T12:20:49Z</time>
      </trkpt>
      <trkpt lat="40.500284750" lon="0.501680207">
        <ele>20.32</ele>
        <time>2013-05-18T12:21:05Z</time>
      </trkpt>
      <trkpt lat="40.500196656" lon="0.501565710">
        <ele>19.36</ele>
        <time>2013-05-18T12:21:10Z</time>
      </trkpt>
      <trkpt lat="40.500041926" lon="0.501507204">
        <ele>20.81</ele>
        <time>2013-05-18T12:21:15Z</time>
      </trkpt>
      <trkpt lat="40.499883424" lon="0.501528662">
        <ele>21.77</ele>
        <time>2013-05-18T12:21:20Z</time>
      </trkpt>
      <trkpt lat="40.499778399" lon="0.501411483">
        <ele>20.81</ele>
        <time>2013-05-18T12:21:24Z</time>
      </trkpt>
      <trkpt lat="40.499584274" lon="0.501110321">
        <ele>20.32</ele>
        <time>2013-05-18T12:21:32Z</time>
      </trkpt>
      <trkpt lat="40.499370620" lon="0.500895241">
        <ele>21.29</ele>
        <time>2013-05-18T12:21:39Z</time>
      </trkpt>
      <trkpt lat="40.499321166" lon="0.500685358">
        <ele>20.81</ele>
        <time>2013-05-18T12:21:44Z</time>
      </trkpt>
      <trkpt lat="40.499320747" lon="0.500210440">
        <ele>19.36</ele>
        <time>2013-05-18T12:21:54Z</time>
      </trkpt>
      <trkpt lat="40.499330973" lon="0.500058308">
        <ele>17.92</ele>
        <time>2013-05-18T12:21:56Z</time>
      </trkpt>
      <trkpt lat="40.499362908" lon="0.499861669">
        <ele>16.96</ele>
        <time>2013-05-18T12:21:59Z</time>
      </trkpt>
      <trkpt lat="40.499564577" lon="0.499411309">
        <ele>16.48</ele>
        <time>2013-05-18T12:22:08Z</time>
      </trkpt>
      <trkpt lat="40.499709249" lon="0.499193883">
        <ele>18.88</ele>
        <time>2013-05-18T12:22:16Z</time>
      </trkpt>
      <trkpt lat="40.499708410" lon="0.499171671">
        <ele>19.84</ele>
        <time>2013-05-18T12:22:17Z</time>
      </trkpt>
      <trkpt lat="40.499570528" lon="0.499024400">
        <ele>19.84</ele>
        <time>2013-05-18T12:22:23Z</time>
      </trkpt>
      <trkpt lat="40.499358550" lon="0.498901103">
        <ele>20.32</ele>
        <time>2013-05-18T12:22:30Z</time>
      </trkpt>
      <trkpt lat="40.499083372" lon="0.498712510">
        <ele>21.29</ele>
        <time>2013-05-18T12:22:39Z</time>
      </trkpt>
      <trkpt lat="40.498782042" lon="0.498519056">
        <ele>20.81</ele>
        <time>2013-05-18T12:22:48Z</time>
      </trkpt>
      <trkpt lat="40.498437043" lon="0.498277992">
        <ele>22.25</ele>
        <time>2013-05-18T12:22:58Z</time>
      </trkpt>
      <trkpt lat="40.498042926" lon="0.497995187">
        <ele>22.25</ele>
        <time>2013-05-18T12:23:10Z</time>
      </trkpt>
      <trkpt lat="40.497619892" lon="0.497707268">
        <ele>22.25</ele>
        <time>2013-05-18T12:23:23Z</time>
      </trkpt>
      <trkpt lat="40.497367010" lon="0.497534685">
        <ele>23.21</ele>
        <time>2013-05-18T12:23:32Z</time>
      </trkpt>
      <trkpt lat="40.497105913" lon="0.497337375">
        <ele>22.73</ele>
        <time>2013-05-18T12:23:40Z</time>
      </trkpt>
      <trkpt lat="40.496797627" lon="0.497134784">
        <ele>23.69</ele>
        <time>2013-05-18T12:23:49Z</time>
      </trkpt>
      <trkpt lat="40.496769380" lon="0.497118859">
        <ele>23.21</ele>
        <time>2013-05-18T12:23:50Z</time>
      </trkpt>
      <trkpt lat="40.496700648" lon="0.497227153">
        <ele>22.25</ele>
        <time>2013-05-18T12:23:55Z</time>
      </trkpt>
      <trkpt lat="40.496726129" lon="0.497534098">
        <ele>22.25</ele>
        <time>2013-05-18T12:24:01Z</time>
      </trkpt>
      <trkpt lat="40.496705091" lon="0.497582126">
        <ele>22.25</ele>
        <time>2013-05-18T12:24:02Z</time>
      </trkpt>
      <trkpt lat="40.496500656" lon="0.498006670">
        <ele>22.25</ele>
        <time>2013-05-18T12:24:11Z</time>
      </trkpt>
      <trkpt lat="40.496473582" lon="0.498039778">
        <ele>22.25</ele>
        <time>2013-05-18T12:24:12Z</time>
      </trkpt>
      <trkpt lat="40.496363109" lon="0.498034917">
        <ele>22.25</ele>
        <time>2013-05-18T12:24:17Z</time>
      </trkpt>
      <trkpt lat="40.496358583" lon="0.498041455">
        <ele>22.25</ele>
        <time>2013-05-18T12:24:24Z</time>
      </trkpt>
      <trkpt lat="40.496347519" lon="0.498046568">
        <ele>22.25</ele>
        <time>2013-05-18T12:24:25Z</time>
      </trkpt>
      <trkpt lat="40.496300161" lon="0.498016058">
        <ele>22.25</ele>
        <time>2013-05-18T12:24:32Z</time>
      </trkpt>
      <trkpt lat="40.496309800" lon="0.498002898">
        <ele>21.77</ele>
        <time>2013-05-18T12:24:45Z</time>
      </trkpt>
      <trkpt lat="40.496218102" lon="0.497810449">
        <ele>22.25</ele>
        <time>2013-05-18T12:24:51Z</time>
      </trkpt>
      <trkpt lat="40.496125566" lon="0.497716488">
        <ele>21.29</ele>
        <time>2013-05-18T12:24:54Z</time>
      </trkpt>
      <trkpt lat="40.495931776" lon="0.497632669">
        <ele>22.25</ele>
        <time>2013-05-18T12:24:59Z</time>
      </trkpt>
      <trkpt lat="40.495430958" lon="0.497656558">
        <ele>20.81</ele>
        <time>2013-05-18T12:25:10Z</time>
      </trkpt>
      <trkpt lat="40.495382594" lon="0.497660413">
        <ele>21.29</ele>
        <time>2013-05-18T12:25:11Z</time>
      </trkpt>
      <trkpt lat="40.495152846" lon="0.497683799">
        <ele>20.32</ele>
        <time>2013-05-18T12:25:16Z</time>
      </trkpt>
      <trkpt lat="40.494889822" lon="0.497643398">
        <ele>20.81</ele>
        <time>2013-05-18T12:25:23Z</time>
      </trkpt>
      <trkpt lat="40.494859479" lon="0.497575505">
        <ele>20.81</ele>
        <time>2013-05-18T12:25:25Z</time>
      </trkpt>
      <trkpt lat="40.494856294" lon="0.497488668">
        <ele>20.32</ele>
        <time>2013-05-18T12:25:30Z</time>
      </trkpt>
      <trkpt lat="40.494858725" lon="0.497478442">
        <ele>20.32</ele>
        <time>2013-05-18T12:25:42Z</time>
      </trkpt>
      <trkpt lat="40.494973725" lon="0.497379955">
        <ele>19.84</ele>
        <time>2013-05-18T12:25:48Z</time>
      </trkpt>
      <trkpt lat="40.495085539" lon="0.497130174">
        <ele>19.36</ele>
        <time>2013-05-18T12:25:53Z</time>
      </trkpt>
      <trkpt lat="40.494999876" lon="0.496935882">
        <ele>20.32</ele>
        <time>2013-05-18T12:25:57Z</time>
      </trkpt>
      <trkpt lat="40.494991494" lon="0.496800262">
        <ele>20.32</ele>
        <time>2013-05-18T12:26:00Z</time>
      </trkpt>
      <trkpt lat="40.494997948" lon="0.496702110">
        <ele>19.84</ele>
        <time>2013-05-18T12:26:03Z</time>
      </trkpt>
      <trkpt lat="40.494975569" lon="0.496679312">
        <ele>19.84</ele>
        <time>2013-05-18T12:26:09Z</time>
      </trkpt>
      <trkpt lat="40.494961068" lon="0.496686604">
        <ele>19.84</ele>
        <time>2013-05-18T12:26:22Z</time>
      </trkpt>
      <trkpt lat="40.494948160" lon="0.496683670">
        <ele>19.36</ele>
        <time>2013-05-18T12:26:32Z</time>
      </trkpt>
      <trkpt lat="40.494917985" lon="0.496682497">
        <ele>18.88</ele>
        <time>2013-05-18T12:26:38Z</time>
      </trkpt>
      <trkpt lat="40.494883033" lon="0.496739578">
        <ele>16.48</ele>
        <time>2013-05-18T12:26:46Z</time>
      </trkpt>
      <trkpt lat="40.494859982" lon="0.496749971">
        <ele>15.04</ele>
        <time>2013-05-18T12:26:56Z</time>
      </trkpt>
      <trkpt lat="40.494822683" lon="0.496747708">
        <ele>13.12</ele>
        <time>2013-05-18T12:27:02Z</time>
      </trkpt>
      <trkpt lat="40.494799130" lon="0.496593900">
        <ele>13.12</ele>
        <time>2013-05-18T12:27:12Z</time>
      </trkpt>
      <trkpt lat="40.494776666" lon="0.496457526">
        <ele>13.12</ele>
        <time>2013-05-18T12:27:21Z</time>
      </trkpt>
      <trkpt lat="40.494771888" lon="0.496447552">
        <ele>13.60</ele>
        <time>2013-05-18T12:27:22Z</time>
      </trkpt>
      <trkpt lat="40.494704163" lon="0.496430537">
        <ele>15.04</ele>
        <time>2013-05-18T12:27:29Z</time>
      </trkpt>
      <trkpt lat="40.494670467" lon="0.496451575">
        <ele>16.96</ele>
        <time>2013-05-18T12:27:35Z</time>
      </trkpt>
      <trkpt lat="40.494597880" lon="0.496432884">
        <ele>19.36</ele>
        <time>2013-05-18T12:27:43Z</time>
      </trkpt>
      <trkpt lat="40.494565442" lon="0.496434309">
        <ele>18.88</ele>
        <time>2013-05-18T12:27:54Z</time>
      </trkpt>
      <trkpt lat="40.494460836" lon="0.496391896">
        <ele>19.84</ele>
        <time>2013-05-18T12:28:01Z</time>
      </trkpt>
      <trkpt lat="40.494454801" lon="0.496390220">
        <ele>19.36</ele>
        <time>2013-05-18T12:28:02Z</time>
      </trkpt>
      <trkpt lat="40.494404510" lon="0.496378653">
        <ele>18.88</ele>
        <time>2013-05-18T12:28:06Z</time>
      </trkpt>
      <trkpt lat="40.494264951" lon="0.496343030">
        <ele>20.32</ele>
        <time>2013-05-18T12:28:10Z</time>
      </trkpt>
      <trkpt lat="40.493914168" lon="0.496276729">
        <ele>19.36</ele>
        <time>2013-05-18T12:28:18Z</time>
      </trkpt>
      <trkpt lat="40.493736137" lon="0.496164747">
        <ele>19.84</ele>
        <time>2013-05-18T12:28:23Z</time>
      </trkpt>
      <trkpt lat="40.493629351" lon="0.495998953">
        <ele>19.84</ele>
        <time>2013-05-18T12:28:29Z</time>
      </trkpt>
      <trkpt lat="40.493427934" lon="0.495822178">
        <ele>19.36</ele>
        <time>2013-05-18T12:28:36Z</time>
      </trkpt>
      <trkpt lat="40.493164323" lon="0.495802229">
        <ele>19.36</ele>
        <time>2013-05-18T12:28:43Z</time>
      </trkpt>
      <trkpt lat="40.492898365" lon="0.495734420">
        <ele>18.40</ele>
        <time>2013-05-18T12:28:50Z</time>
      </trkpt>
      <trkpt lat="40.492529646" lon="0.495846989">
        <ele>18.40</ele>
        <time>2013-05-18T12:29:00Z</time>
      </trkpt>
      <trkpt lat="40.492255306" lon="0.495885462">
        <ele>17.92</ele>
        <time>2013-05-18T12:29:07Z</time>
      </trkpt>
      <trkpt lat="40.492198644" lon="0.495876409">
        <ele>17.92</ele>
        <time>2013-05-18T12:29:09Z</time>
      </trkpt>
      <trkpt lat="40.492148688" lon="0.495715477">
        <ele>16.96</ele>
        <time>2013-05-18T12:29:15Z</time>
      </trkpt>
      <trkpt lat="40.492198812" lon="0.495539540">
        <ele>16.48</ele>
        <time>2013-05-18T12:29:21Z</time>
      </trkpt>
      <trkpt lat="40.492238374" lon="0.495509701">
        <ele>16.96</ele>
        <time>2013-05-18T12:29:25Z</time>
      </trkpt>
      <trkpt lat="40.492257318" lon="0.495470893">
        <ele>17.92</ele>
        <time>2013-05-18T12:29:28Z</time>
      </trkpt>
      <trkpt lat="40.492293863" lon="0.495440047">
        <ele>17.44</ele>
        <time>2013-05-18T12:29:34Z</time>
      </trkpt>
      <trkpt lat="40.492348680" lon="0.495404592">
        <ele>17.92</ele>
        <time>2013-05-18T12:29:40Z</time>
      </trkpt>
      <trkpt lat="40.492355553" lon="0.495378692">
        <ele>17.44</ele>
        <time>2013-05-18T12:29:51Z</time>
      </trkpt>
      <trkpt lat="40.492354296" lon="0.495359246">
        <ele>17.92</ele>
        <time>2013-05-18T12:29:59Z</time>
      </trkpt>
      <trkpt lat="40.492339544" lon="0.495330244">
        <ele>16.96</ele>
        <time>2013-05-18T12:30:11Z</time>
      </trkpt>
      <trkpt lat="40.492320517" lon="0.495300069">
        <ele>14.08</ele>
        <time>2013-05-18T12:30:20Z</time>
      </trkpt>
      <trkpt lat="40.492341975" lon="0.495289089">
        <ele>14.08</ele>
        <time>2013-05-18T12:30:22Z</time>
      </trkpt>
      <trkpt lat="40.492389165" lon="0.495191021">
        <ele>14.56</ele>
        <time>2013-05-18T12:30:29Z</time>
      </trkpt>
      <trkpt lat="40.492453203" lon="0.495148692">
        <ele>14.08</ele>
        <time>2013-05-18T12:30:34Z</time>
      </trkpt>
      <trkpt lat="40.492514139" lon="0.495076776">
        <ele>15.04</ele>
        <time>2013-05-18T12:30:42Z</time>
      </trkpt>
      <trkpt lat="40.492551187" lon="0.495009888">
        <ele>14.08</ele>
        <time>2013-05-18T12:30:50Z</time>
      </trkpt>
      <trkpt lat="40.492681442" lon="0.494777709">
        <ele>14.56</ele>
        <time>2013-05-18T12:30:56Z</time>
      </trkpt>
      <trkpt lat="40.492913034" lon="0.494510829">
        <ele>16.00</ele>
        <time>2013-05-18T12:31:04Z</time>
      </trkpt>
      <trkpt lat="40.492968103" lon="0.494425083">
        <ele>16.00</ele>
        <time>2013-05-18T12:31:07Z</time>
      </trkpt>
      <trkpt lat="40.492900629" lon="0.494332127">
        <ele>16.96</ele>
        <time>2013-05-18T12:31:12Z</time>
      </trkpt>
      <trkpt lat="40.492576165" lon="0.494204890">
        <ele>16.48</ele>
        <time>2013-05-18T12:31:23Z</time>
      </trkpt>
      <trkpt lat="40.492364271" lon="0.494114030">
        <ele>16.96</ele>
        <time>2013-05-18T12:31:30Z</time>
      </trkpt>
      <trkpt lat="40.492332084" lon="0.494109252">
        <ele>16.96</ele>
        <time>2013-05-18T12:31:31Z</time>
      </trkpt>
      <trkpt lat="40.492157238" lon="0.494303126">
        <ele>17.92</ele>
        <time>2013-05-18T12:31:38Z</time>
      </trkpt>
      <trkpt lat="40.491922293" lon="0.494576460">
        <ele>18.40</ele>
        <time>2013-05-18T12:31:48Z</time>
      </trkpt>
      <trkpt lat="40.491859261" lon="0.494583165">
        <ele>17.92</ele>
        <time>2013-05-18T12:31:51Z</time>
      </trkpt>
      <trkpt lat="40.491782064" lon="0.494496161">
        <ele>18.40</ele>
        <time>2013-05-18T12:31:55Z</time>
      </trkpt>
      <trkpt lat="40.491689695" lon="0.494364565">
        <ele>16.48</ele>
        <time>2013-05-18T12:31:58Z</time>
      </trkpt>
      <trkpt lat="40.491504790" lon="0.494209332">
        <ele>16.00</ele>
        <time>2013-05-18T12:32:04Z</time>
      </trkpt>
      <trkpt lat="40.491207903" lon="0.494033229">
        <ele>15.52</ele>
        <time>2013-05-18T12:32:12Z</time>
      </trkpt>
      <trkpt lat="40.490957703" lon="0.493993498">
        <ele>16.96</ele>
        <time>2013-05-18T12:32:19Z</time>
      </trkpt>
      <trkpt lat="40.490781516" lon="0.494111599">
        <ele>16.96</ele>
        <time>2013-05-18T12:32:24Z</time>
      </trkpt>
      <trkpt lat="40.490468787" lon="0.494458945">
        <ele>16.48</ele>
        <time>2013-05-18T12:32:34Z</time>
      </trkpt>
      <trkpt lat="40.490293438" lon="0.494623566">
        <ele>17.44</ele>
        <time>2013-05-18T12:32:42Z</time>
      </trkpt>
      <trkpt lat="40.490236105" lon="0.494624572">
        <ele>16.96</ele>
        <time>2013-05-18T12:32:44Z</time>
      </trkpt>
      <trkpt lat="40.490082717" lon="0.494483421">
        <ele>16.48</ele>
        <time>2013-05-18T12:32:50Z</time>
      </trkpt>
      <trkpt lat="40.489889849" lon="0.494250571">
        <ele>16.48</ele>
        <time>2013-05-18T12:32:59Z</time>
      </trkpt>
      <trkpt lat="40.489696478" lon="0.494026942">
        <ele>16.00</ele>
        <time>2013-05-18T12:33:08Z</time>
      </trkpt>
      <trkpt lat="40.489553399" lon="0.493880427">
        <ele>15.52</ele>
        <time>2013-05-18T12:33:15Z</time>
      </trkpt>
      <trkpt lat="40.489515178" lon="0.493629640">
        <ele>15.04</ele>
        <time>2013-05-18T12:33:22Z</time>
      </trkpt>
      <trkpt lat="40.489503695" lon="0.493326047">
        <ele>16.00</ele>
        <time>2013-05-18T12:33:30Z</time>
      </trkpt>
      <trkpt lat="40.489470167" lon="0.493072830">
        <ele>16.00</ele>
        <time>2013-05-18T12:33:36Z</time>
      </trkpt>
      <trkpt lat="40.489416020" lon="0.492769238">
        <ele>15.52</ele>
        <time>2013-05-18T12:33:43Z</time>
      </trkpt>
      <trkpt lat="40.489267996" lon="0.492569748">
        <ele>15.52</ele>
        <time>2013-05-18T12:33:49Z</time>
      </trkpt>
      <trkpt lat="40.489116115" lon="0.492448127">
        <ele>16.48</ele>
        <time>2013-05-18T12:33:55Z</time>
      </trkpt>
      <trkpt lat="40.489039589" lon="0.492214859">
        <ele>16.00</ele>
        <time>2013-05-18T12:34:02Z</time>
      </trkpt>
      <trkpt lat="40.488970103" lon="0.491936998">
        <ele>16.00</ele>
        <time>2013-05-18T12:34:10Z</time>
      </trkpt>
      <trkpt lat="40.488938419" lon="0.491825100">
        <ele>16.00</ele>
        <time>2013-05-18T12:34:16Z</time>
      </trkpt>
      <trkpt lat="40.488942778" lon="0.491828201">
        <ele>16.00</ele>
        <time>2013-05-18T12:34:17Z</time>
      </trkpt>
      <trkpt lat="40.488934647" lon="0.491708675">
        <ele>15.52</ele>
        <time>2013-05-18T12:34:24Z</time>
      </trkpt>
      <trkpt lat="40.488934899" lon="0.491691660">
        <ele>16.00</ele>
        <time>2013-05-18T12:34:28Z</time>
      </trkpt>
      <trkpt lat="40.488944454" lon="0.491666598">
        <ele>15.52</ele>
        <time>2013-05-18T12:34:30Z</time>
      </trkpt>
      <trkpt lat="40.488956105" lon="0.491642458">
        <ele>15.52</ele>
        <time>2013-05-18T12:34:32Z</time>
      </trkpt>
      <trkpt lat="40.488996757" lon="0.491621085">
        <ele>16.00</ele>
        <time>2013-05-18T12:34:35Z</time>
      </trkpt>
      <trkpt lat="40.489033051" lon="0.491578421">
        <ele>14.56</ele>
        <time>2013-05-18T12:34:40Z</time>
      </trkpt>
      <trkpt lat="40.489027854" lon="0.491520921">
        <ele>14.08</ele>
        <time>2013-05-18T12:34:46Z</time>
      </trkpt>
      <trkpt lat="40.489023495" lon="0.491519663">
        <ele>14.08</ele>
        <time>2013-05-18T12:34:50Z</time>
      </trkpt>
      <trkpt lat="40.489053754" lon="0.491481526">
        <ele>13.60</ele>
        <time>2013-05-18T12:34:57Z</time>
      </trkpt>
      <trkpt lat="40.489051994" lon="0.491452524">
        <ele>13.12</ele>
        <time>2013-05-18T12:35:03Z</time>
      </trkpt>
      <trkpt lat="40.489041433" lon="0.491421344">
        <ele>11.67</ele>
        <time>2013-05-18T12:35:07Z</time>
      </trkpt>
      <trkpt lat="40.489027686" lon="0.491408352">
        <ele>10.23</ele>
        <time>2013-05-18T12:35:10Z</time>
      </trkpt>
      <trkpt lat="40.489011761" lon="0.491402149">
        <ele>9.27</ele>
        <time>2013-05-18T12:35:13Z</time>
      </trkpt>
      <trkpt lat="40.488977060" lon="0.491325790">
        <ele>9.75</ele>
        <time>2013-05-18T12:35:18Z</time>
      </trkpt>
      <trkpt lat="40.488910843" lon="0.491238283">
        <ele>8.79</ele>
        <time>2013-05-18T12:35:27Z</time>
      </trkpt>
      <trkpt lat="40.488909921" lon="0.491248425">
        <ele>9.27</ele>
        <time>2013-05-18T12:35:39Z</time>
      </trkpt>
      <trkpt lat="40.488875806" lon="0.491184471">
        <ele>8.79</ele>
        <time>2013-05-18T12:35:47Z</time>
      </trkpt>
      <trkpt lat="40.488851415" lon="0.491120098">
        <ele>9.27</ele>
        <time>2013-05-18T12:35:55Z</time>
      </trkpt>
      <trkpt lat="40.488839345" lon="0.491095455">
        <ele>9.27</ele>
        <time>2013-05-18T12:36:03Z</time>
      </trkpt>
      <trkpt lat="40.488837082" lon="0.491073579">
        <ele>10.23</ele>
        <time>2013-05-18T12:36:10Z</time>
      </trkpt>
      <trkpt lat="40.488846302" lon="0.491004847">
        <ele>12.15</ele>
        <time>2013-05-18T12:36:17Z</time>
      </trkpt>
      <trkpt lat="40.488847140" lon="0.490941396">
        <ele>13.12</ele>
        <time>2013-05-18T12:36:24Z</time>
      </trkpt>
      <trkpt lat="40.488855606" lon="0.490917843">
        <ele>13.60</ele>
        <time>2013-05-18T12:36:26Z</time>
      </trkpt>
      <trkpt lat="40.488934563" lon="0.490755653">
        <ele>15.04</ele>
        <time>2013-05-18T12:36:38Z</time>
      </trkpt>
      <trkpt lat="40.488949399" lon="0.490726484">
        <ele>15.04</ele>
        <time>2013-05-18T12:36:41Z</time>
      </trkpt>
      <trkpt lat="40.488938252" lon="0.490682060">
        <ele>15.04</ele>
        <time>2013-05-18T12:36:47Z</time>
      </trkpt>
      <trkpt lat="40.488935905" lon="0.490687089">
        <ele>15.04</ele>
        <time>2013-05-18T12:36:56Z</time>
      </trkpt>
      <trkpt lat="40.488919560" lon="0.490698237">
        <ele>15.04</ele>
        <time>2013-05-18T12:37:07Z</time>
      </trkpt>
      <trkpt lat="40.488802716" lon="0.490655573">
        <ele>15.52</ele>
        <time>2013-05-18T12:37:14Z</time>
      </trkpt>
      <trkpt lat="40.488642203" lon="0.490543507">
        <ele>15.52</ele>
        <time>2013-05-18T12:37:21Z</time>
      </trkpt>
      <trkpt lat="40.488388063" lon="0.490391124">
        <ele>15.52</ele>
        <time>2013-05-18T12:37:29Z</time>
      </trkpt>
      <trkpt lat="40.488143899" lon="0.490261121">
        <ele>15.04</ele>
        <time>2013-05-18T12:37:35Z</time>
      </trkpt>
      <trkpt lat="40.487847431" lon="0.490139667">
        <ele>15.52</ele>
        <time>2013-05-18T12:37:43Z</time>
      </trkpt>
      <trkpt lat="40.487542581" lon="0.490036234">
        <ele>15.52</ele>
        <time>2013-05-18T12:37:52Z</time>
      </trkpt>
      <trkpt lat="40.487218453" lon="0.489973538">
        <ele>16.00</ele>
        <time>2013-05-18T12:38:01Z</time>
      </trkpt>
      <trkpt lat="40.486971522" lon="0.489929114">
        <ele>15.04</ele>
        <time>2013-05-18T12:38:10Z</time>
      </trkpt>
      <trkpt lat="40.486858953" lon="0.489909500">
        <ele>15.52</ele>
        <time>2013-05-18T12:39:53Z</time>
      </trkpt>
      <trkpt lat="40.486771530" lon="0.489832051">
        <ele>15.52</ele>
        <time>2013-05-18T12:39:58Z</time>
      </trkpt>
      <trkpt lat="40.486429045" lon="0.489690648">
        <ele>15.52</ele>
        <time>2013-05-18T12:40:07Z</time>
      </trkpt>
      <trkpt lat="40.486033754" lon="0.489426786">
        <ele>14.56</ele>
        <time>2013-05-18T12:40:17Z</time>
      </trkpt>
      <trkpt lat="40.485994946" lon="0.489403484">
        <ele>15.04</ele>
        <time>2013-05-18T12:40:18Z</time>
      </trkpt>
      <trkpt lat="40.485784812" lon="0.489095030">
        <ele>15.04</ele>
        <time>2013-05-18T12:40:25Z</time>
      </trkpt>
      <trkpt lat="40.485511562" lon="0.488517266">
        <ele>12.63</ele>
        <time>2013-05-18T12:40:34Z</time>
      </trkpt>
      <trkpt lat="40.485473676" lon="0.488457838">
        <ele>13.12</ele>
        <time>2013-05-18T12:40:35Z</time>
      </trkpt>
      <trkpt lat="40.485306541" lon="0.488292379">
        <ele>13.12</ele>
        <time>2013-05-18T12:40:39Z</time>
      </trkpt>
      <trkpt lat="40.484863138" lon="0.487985853">
        <ele>12.63</ele>
        <time>2013-05-18T12:40:49Z</time>
      </trkpt>
      <trkpt lat="40.484743947" lon="0.487908823">
        <ele>13.60</ele>
        <time>2013-05-18T12:40:52Z</time>
      </trkpt>
      <trkpt lat="40.484434236" lon="0.487634819">
        <ele>14.56</ele>
        <time>2013-05-18T12:41:02Z</time>
      </trkpt>
      <trkpt lat="40.484384950" lon="0.487579331">
        <ele>14.56</ele>
        <time>2013-05-18T12:41:05Z</time>
      </trkpt>
      <trkpt lat="40.484232148" lon="0.487723416">
        <ele>14.56</ele>
        <time>2013-05-18T12:41:13Z</time>
      </trkpt>
      <trkpt lat="40.484041208" lon="0.487864818">
        <ele>14.56</ele>
        <time>2013-05-18T12:41:20Z</time>
      </trkpt>
      <trkpt lat="40.483796792" lon="0.487860627">
        <ele>14.56</ele>
        <time>2013-05-18T12:41:28Z</time>
      </trkpt>
      <trkpt lat="40.483577438" lon="0.487725930">
        <ele>14.56</ele>
        <time>2013-05-18T12:41:36Z</time>
      </trkpt>
      <trkpt lat="40.483303014" lon="0.487571787">
        <ele>15.04</ele>
        <time>2013-05-18T12:41:46Z</time>
      </trkpt>
      <trkpt lat="40.483003277" lon="0.487431977">
        <ele>15.04</ele>
        <time>2013-05-18T12:41:56Z</time>
      </trkpt>
      <trkpt lat="40.482943431" lon="0.487385541">
        <ele>14.56</ele>
        <time>2013-05-18T12:41:58Z</time>
      </trkpt>
      <trkpt lat="40.482663140" lon="0.487245144">
        <ele>14.08</ele>
        <time>2013-05-18T12:42:06Z</time>
      </trkpt>
      <trkpt lat="40.482286625" lon="0.487065185">
        <ele>14.08</ele>
        <time>2013-05-18T12:42:16Z</time>
      </trkpt>
      <trkpt lat="40.482016811" lon="0.486955466">
        <ele>14.08</ele>
        <time>2013-05-18T12:42:24Z</time>
      </trkpt>
      <trkpt lat="40.481755463" lon="0.486782463">
        <ele>14.08</ele>
        <time>2013-05-18T12:42:32Z</time>
      </trkpt>
      <trkpt lat="40.481397053" lon="0.486544669">
        <ele>13.12</ele>
        <time>2013-05-18T12:42:42Z</time>
      </trkpt>
      <trkpt lat="40.481358496" lon="0.486521954">
        <ele>12.63</ele>
        <time>2013-05-18T12:42:43Z</time>
      </trkpt>
      <trkpt lat="40.481164288" lon="0.486431178">
        <ele>12.15</ele>
        <time>2013-05-18T12:42:49Z</time>
      </trkpt>
      <trkpt lat="40.481019281" lon="0.486301258">
        <ele>12.63</ele>
        <time>2013-05-18T12:42:56Z</time>
      </trkpt>
      <trkpt lat="40.480817780" lon="0.486050220">
        <ele>12.63</ele>
        <time>2013-05-18T12:43:04Z</time>
      </trkpt>
      <trkpt lat="40.480558444" lon="0.485702455">
        <ele>13.60</ele>
        <time>2013-05-18T12:43:14Z</time>
      </trkpt>
      <trkpt lat="40.480378149" lon="0.485468097">
        <ele>13.12</ele>
        <time>2013-05-18T12:43:21Z</time>
      </trkpt>
      <trkpt lat="40.480321739" lon="0.485304147">
        <ele>12.15</ele>
        <time>2013-05-18T12:43:24Z</time>
      </trkpt>
      <trkpt lat="40.480128704" lon="0.485061994">
        <ele>10.71</ele>
        <time>2013-05-18T12:43:29Z</time>
      </trkpt>
      <trkpt lat="40.479816310" lon="0.484850099">
        <ele>11.67</ele>
        <time>2013-05-18T12:43:37Z</time>
      </trkpt>
      <trkpt lat="40.479554208" lon="0.484814141">
        <ele>10.23</ele>
        <time>2013-05-18T12:43:45Z</time>
      </trkpt>
      <trkpt lat="40.479469467" lon="0.484816572">
        <ele>10.71</ele>
        <time>2013-05-18T12:43:49Z</time>
      </trkpt>
      <trkpt lat="40.479410039" lon="0.484915981">
        <ele>10.23</ele>
        <time>2013-05-18T12:43:54Z</time>
      </trkpt>
      <trkpt lat="40.479405681" lon="0.484968452">
        <ele>10.23</ele>
        <time>2013-05-18T12:43:56Z</time>
      </trkpt>
      <trkpt lat="40.479276767" lon="0.485003907">
        <ele>11.19</ele>
        <time>2013-05-18T12:44:02Z</time>
      </trkpt>
      <trkpt lat="40.479140142" lon="0.484987898">
        <ele>11.67</ele>
        <time>2013-05-18T12:44:07Z</time>
      </trkpt>
      <trkpt lat="40.478908634" lon="0.484976415">
        <ele>12.15</ele>
        <time>2013-05-18T12:44:15Z</time>
      </trkpt>
      <trkpt lat="40.478723478" lon="0.484997286">
        <ele>12.63</ele>
        <time>2013-05-18T12:44:23Z</time>
      </trkpt>
      <trkpt lat="40.478484342" lon="0.484962920">
        <ele>13.12</ele>
        <time>2013-05-18T12:44:31Z</time>
      </trkpt>
      <trkpt lat="40.478259288" lon="0.484941378">
        <ele>12.63</ele>
        <time>2013-05-18T12:44:38Z</time>
      </trkpt>
      <trkpt lat="40.477878498" lon="0.484918077">
        <ele>12.15</ele>
        <time>2013-05-18T12:44:49Z</time>
      </trkpt>
      <trkpt lat="40.477524027" lon="0.484876838">
        <ele>12.63</ele>
        <time>2013-05-18T12:44:59Z</time>
      </trkpt>
      <trkpt lat="40.477221860" lon="0.484845908">
        <ele>12.15</ele>
        <time>2013-05-18T12:45:08Z</time>
      </trkpt>
      <trkpt lat="40.477013821" lon="0.484801736">
        <ele>12.63</ele>
        <time>2013-05-18T12:45:15Z</time>
      </trkpt>
      <trkpt lat="40.476775188" lon="0.484645329">
        <ele>11.19</ele>
        <time>2013-05-18T12:45:22Z</time>
      </trkpt>
      <trkpt lat="40.476601012" lon="0.484492276">
        <ele>9.75</ele>
        <time>2013-05-18T12:45:28Z</time>
      </trkpt>
      <trkpt lat="40.476348465" lon="0.484251296">
        <ele>10.23</ele>
        <time>2013-05-18T12:45:37Z</time>
      </trkpt>
      <trkpt lat="40.476072701" lon="0.483989278">
        <ele>10.23</ele>
        <time>2013-05-18T12:45:46Z</time>
      </trkpt>
      <trkpt lat="40.475992737" lon="0.483739162">
        <ele>10.71</ele>
        <time>2013-05-18T12:45:52Z</time>
      </trkpt>
      <trkpt lat="40.476065660" lon="0.483480161">
        <ele>10.71</ele>
        <time>2013-05-18T12:45:58Z</time>
      </trkpt>
      <trkpt lat="40.476258192" lon="0.483094426">
        <ele>11.19</ele>
        <time>2013-05-18T12:46:08Z</time>
      </trkpt>
      <trkpt lat="40.476371767" lon="0.482787313">
        <ele>12.63</ele>
        <time>2013-05-18T12:46:16Z</time>
      </trkpt>
      <trkpt lat="40.476433290" lon="0.482397722">
        <ele>11.67</ele>
        <time>2013-05-18T12:46:24Z</time>
      </trkpt>
      <trkpt lat="40.476475954" lon="0.481951553">
        <ele>10.71</ele>
        <time>2013-05-18T12:46:32Z</time>
      </trkpt>
      <trkpt lat="40.476635462" lon="0.481433971">
        <ele>11.67</ele>
        <time>2013-05-18T12:46:41Z</time>
      </trkpt>
      <trkpt lat="40.476657925" lon="0.481378483">
        <ele>11.19</ele>
        <time>2013-05-18T12:46:42Z</time>
      </trkpt>
      <trkpt lat="40.476996638" lon="0.480787391">
        <ele>12.63</ele>
        <time>2013-05-18T12:46:54Z</time>
      </trkpt>
      <trkpt lat="40.477333590" lon="0.480244746">
        <ele>14.08</ele>
        <time>2013-05-18T12:47:06Z</time>
      </trkpt>
      <trkpt lat="40.477402825" lon="0.480085490">
        <ele>15.04</ele>
        <time>2013-05-18T12:47:12Z</time>
      </trkpt>
      <trkpt lat="40.477369130" lon="0.479938891">
        <ele>16.00</ele>
        <time>2013-05-18T12:47:18Z</time>
      </trkpt>
      <trkpt lat="40.477205515" lon="0.479746694">
        <ele>17.44</ele>
        <time>2013-05-18T12:47:27Z</time>
      </trkpt>
      <trkpt lat="40.477000410" lon="0.479532871">
        <ele>16.00</ele>
        <time>2013-05-18T12:47:35Z</time>
      </trkpt>
      <trkpt lat="40.476878956" lon="0.479429858">
        <ele>15.52</ele>
        <time>2013-05-18T12:47:39Z</time>
      </trkpt>
      <trkpt lat="40.476769069" lon="0.479517784">
        <ele>15.04</ele>
        <time>2013-05-18T12:47:43Z</time>
      </trkpt>
      <trkpt lat="40.476500094" lon="0.479989015">
        <ele>13.60</ele>
        <time>2013-05-18T12:47:52Z</time>
      </trkpt>
      <trkpt lat="40.476144701" lon="0.480556553">
        <ele>12.63</ele>
        <time>2013-05-18T12:48:02Z</time>
      </trkpt>
      <trkpt lat="40.475796601" lon="0.481108334">
        <ele>12.15</ele>
        <time>2013-05-18T12:48:13Z</time>
      </trkpt>
      <trkpt lat="40.475424780" lon="0.481733624">
        <ele>11.67</ele>
        <time>2013-05-18T12:48:26Z</time>
      </trkpt>
      <trkpt lat="40.475111380" lon="0.482263360">
        <ele>11.67</ele>
        <time>2013-05-18T12:48:37Z</time>
      </trkpt>
      <trkpt lat="40.474919016" lon="0.482345084">
        <ele>11.19</ele>
        <time>2013-05-18T12:48:42Z</time>
      </trkpt>
      <trkpt lat="40.474617351" lon="0.481999665">
        <ele>11.67</ele>
        <time>2013-05-18T12:48:52Z</time>
      </trkpt>
      <trkpt lat="40.474193310" lon="0.481562382">
        <ele>12.15</ele>
        <time>2013-05-18T12:49:07Z</time>
      </trkpt>
      <trkpt lat="40.473976722" lon="0.481327185">
        <ele>11.67</ele>
        <time>2013-05-18T12:49:15Z</time>
      </trkpt>
      <trkpt lat="40.473731887" lon="0.481072627">
        <ele>12.63</ele>
        <time>2013-05-18T12:49:24Z</time>
      </trkpt>
      <trkpt lat="40.473627951" lon="0.480941115">
        <ele>12.63</ele>
        <time>2013-05-18T12:49:30Z</time>
      </trkpt>
      <trkpt lat="40.473555364" lon="0.480858302">
        <ele>12.15</ele>
        <time>2013-05-18T12:53:07Z</time>
      </trkpt>
      <trkpt lat="40.473326035" lon="0.480619837">
        <ele>12.63</ele>
        <time>2013-05-18T12:53:14Z</time>
      </trkpt>
      <trkpt lat="40.473045660" lon="0.480326638">
        <ele>12.63</ele>
        <time>2013-05-18T12:53:23Z</time>
      </trkpt>
      <trkpt lat="40.472883554" lon="0.480157239">
        <ele>13.12</ele>
        <time>2013-05-18T12:53:29Z</time>
      </trkpt>
      <trkpt lat="40.472673001" lon="0.479960684">
        <ele>12.15</ele>
        <time>2013-05-18T12:53:37Z</time>
      </trkpt>
      <trkpt lat="40.472385418" lon="0.479771085">
        <ele>11.67</ele>
        <time>2013-05-18T12:53:47Z</time>
      </trkpt>
      <trkpt lat="40.472218702" lon="0.479643345">
        <ele>12.15</ele>
        <time>2013-05-18T12:53:54Z</time>
      </trkpt>
      <trkpt lat="40.472104792" lon="0.479576625">
        <ele>11.67</ele>
        <time>2013-05-18T12:54:00Z</time>
      </trkpt>
      <trkpt lat="40.471940590" lon="0.479476377">
        <ele>11.19</ele>
        <time>2013-05-18T12:54:08Z</time>
      </trkpt>
      <trkpt lat="40.471743448" lon="0.479355091">
        <ele>10.71</ele>
        <time>2013-05-18T12:54:15Z</time>
      </trkpt>
      <trkpt lat="40.471511101" lon="0.479200277">
        <ele>10.71</ele>
        <time>2013-05-18T12:54:22Z</time>
      </trkpt>
      <trkpt lat="40.471326113" lon="0.479079830">
        <ele>10.71</ele>
        <time>2013-05-18T12:54:27Z</time>
      </trkpt>
      <trkpt lat="40.471037356" lon="0.478875563">
        <ele>10.71</ele>
        <time>2013-05-18T12:54:35Z</time>
      </trkpt>
      <trkpt lat="40.470749773" lon="0.478657968">
        <ele>10.71</ele>
        <time>2013-05-18T12:54:44Z</time>
      </trkpt>
      <trkpt lat="40.470514074" lon="0.478546154">
        <ele>11.67</ele>
        <time>2013-05-18T12:54:51Z</time>
      </trkpt>
      <trkpt lat="40.470251301" lon="0.478332667">
        <ele>10.71</ele>
        <time>2013-05-18T12:55:00Z</time>
      </trkpt>
      <trkpt lat="40.470120208" lon="0.478213727">
        <ele>11.67</ele>
        <time>2013-05-18T12:55:06Z</time>
      </trkpt>
      <trkpt lat="40.470111910" lon="0.478218421">
        <ele>10.71</ele>
        <time>2013-05-18T12:55:13Z</time>
      </trkpt>
      <trkpt lat="40.470107468" lon="0.478225797">
        <ele>11.19</ele>
        <time>2013-05-18T12:55:27Z</time>
      </trkpt>
      <trkpt lat="40.470103361" lon="0.478223450">
        <ele>10.71</ele>
        <time>2013-05-18T12:55:28Z</time>
      </trkpt>
      <trkpt lat="40.470019625" lon="0.478137704">
        <ele>10.71</ele>
        <time>2013-05-18T12:55:33Z</time>
      </trkpt>
      <trkpt lat="40.469807144" lon="0.477879709">
        <ele>11.19</ele>
        <time>2013-05-18T12:55:42Z</time>
      </trkpt>
      <trkpt lat="40.469665658" lon="0.477741743">
        <ele>11.19</ele>
        <time>2013-05-18T12:55:49Z</time>
      </trkpt>
      <trkpt lat="40.469534565" lon="0.477705281">
        <ele>12.15</ele>
        <time>2013-05-18T12:55:57Z</time>
      </trkpt>
      <trkpt lat="40.469447561" lon="0.477740904">
        <ele>11.19</ele>
        <time>2013-05-18T12:56:01Z</time>
      </trkpt>
      <trkpt lat="40.469356701" lon="0.477747442">
        <ele>11.19</ele>
        <time>2013-05-18T12:56:06Z</time>
      </trkpt>
      <trkpt lat="40.469145896" lon="0.477643255">
        <ele>11.67</ele>
        <time>2013-05-18T12:56:14Z</time>
      </trkpt>
      <trkpt lat="40.468868958" lon="0.477476707">
        <ele>11.19</ele>
        <time>2013-05-18T12:56:23Z</time>
      </trkpt>
      <trkpt lat="40.468637031" lon="0.477266237">
        <ele>11.67</ele>
        <time>2013-05-18T12:56:33Z</time>
      </trkpt>
      <trkpt lat="40.468473835" lon="0.477078566">
        <ele>12.15</ele>
        <time>2013-05-18T12:56:40Z</time>
      </trkpt>
      <trkpt lat="40.468318434" lon="0.476929452">
        <ele>12.15</ele>
        <time>2013-05-18T12:56:47Z</time>
      </trkpt>
      <trkpt lat="40.468178540" lon="0.476848399">
        <ele>12.63</ele>
        <time>2013-05-18T12:56:54Z</time>
      </trkpt>
      <trkpt lat="40.468042837" lon="0.476761060">
        <ele>12.63</ele>
        <time>2013-05-18T12:57:01Z</time>
      </trkpt>
      <trkpt lat="40.467873188" lon="0.476633823">
        <ele>11.67</ele>
        <time>2013-05-18T12:57:08Z</time>
      </trkpt>
      <trkpt lat="40.467694150" lon="0.476485882">
        <ele>11.67</ele>
        <time>2013-05-18T12:57:15Z</time>
      </trkpt>
      <trkpt lat="40.467476388" lon="0.476324195">
        <ele>12.15</ele>
        <time>2013-05-18T12:57:24Z</time>
      </trkpt>
      <trkpt lat="40.467309589" lon="0.476176087">
        <ele>11.67</ele>
        <time>2013-05-18T12:57:32Z</time>
      </trkpt>
      <trkpt lat="40.467189560" lon="0.476037953">
        <ele>11.19</ele>
        <time>2013-05-18T12:57:38Z</time>
      </trkpt>
      <trkpt lat="40.467013288" lon="0.475908536">
        <ele>10.71</ele>
        <time>2013-05-18T12:57:45Z</time>
      </trkpt>
      <trkpt lat="40.466818325" lon="0.475771744">
        <ele>10.23</ele>
        <time>2013-05-18T12:57:52Z</time>
      </trkpt>
      <trkpt lat="40.466610454" lon="0.475592706">
        <ele>10.71</ele>
        <time>2013-05-18T12:58:00Z</time>
      </trkpt>
      <trkpt lat="40.466597630" lon="0.475578792">
        <ele>11.19</ele>
        <time>2013-05-18T12:58:01Z</time>
      </trkpt>
      <trkpt lat="40.466597881" lon="0.475417189">
        <ele>10.71</ele>
        <time>2013-05-18T12:58:07Z</time>
      </trkpt>
      <trkpt lat="40.466656052" lon="0.475349128">
        <ele>10.23</ele>
        <time>2013-05-18T12:58:10Z</time>
      </trkpt>
      <trkpt lat="40.466794521" lon="0.475194901">
        <ele>10.23</ele>
        <time>2013-05-18T12:58:18Z</time>
      </trkpt>
      <trkpt lat="40.466800472" lon="0.475182831">
        <ele>11.19</ele>
        <time>2013-05-18T12:58:24Z</time>
      </trkpt>
      <trkpt lat="40.466811201" lon="0.475180987">
        <ele>10.71</ele>
        <time>2013-05-18T12:58:33Z</time>
      </trkpt>
      <trkpt lat="40.466838693" lon="0.475081829">
        <ele>10.71</ele>
        <time>2013-05-18T12:58:37Z</time>
      </trkpt>
      <trkpt lat="40.466836933" lon="0.474888626">
        <ele>10.71</ele>
        <time>2013-05-18T12:58:42Z</time>
      </trkpt>
      <trkpt lat="40.466746995" lon="0.474791816">
        <ele>11.19</ele>
        <time>2013-05-18T12:58:45Z</time>
      </trkpt>
      <trkpt lat="40.466574915" lon="0.474442625">
        <ele>10.71</ele>
        <time>2013-05-18T12:58:52Z</time>
      </trkpt>
      <trkpt lat="40.466423454" lon="0.474115228">
        <ele>11.19</ele>
        <time>2013-05-18T12:59:00Z</time>
      </trkpt>
      <trkpt lat="40.466209799" lon="0.473865699">
        <ele>10.71</ele>
        <time>2013-05-18T12:59:08Z</time>
      </trkpt>
      <trkpt lat="40.466060769" lon="0.473683393">
        <ele>11.67</ele>
        <time>2013-05-18T12:59:13Z</time>
      </trkpt>
      <trkpt lat="40.465811826" lon="0.473351805">
        <ele>11.19</ele>
        <time>2013-05-18T12:59:22Z</time>
      </trkpt>
      <trkpt lat="40.465624323" lon="0.473120632">
        <ele>11.19</ele>
        <time>2013-05-18T12:59:29Z</time>
      </trkpt>
      <trkpt lat="40.465373201" lon="0.472829444">
        <ele>11.67</ele>
        <time>2013-05-18T12:59:39Z</time>
      </trkpt>
      <trkpt lat="40.465177065" lon="0.472602881">
        <ele>11.19</ele>
        <time>2013-05-18T12:59:47Z</time>
      </trkpt>
      <trkpt lat="40.465010097" lon="0.472614616">
        <ele>12.63</ele>
        <time>2013-05-18T12:59:53Z</time>
      </trkpt>
      <trkpt lat="40.464929966" lon="0.472700866">
        <ele>12.15</ele>
        <time>2013-05-18T12:59:57Z</time>
      </trkpt>
      <trkpt lat="40.464757048" lon="0.472677564">
        <ele>11.67</ele>
        <time>2013-05-18T13:00:03Z</time>
      </trkpt>
      <trkpt lat="40.464603826" lon="0.472642612">
        <ele>11.19</ele>
        <time>2013-05-18T13:00:10Z</time>
      </trkpt>
      <trkpt lat="40.464570215" lon="0.472650994">
        <ele>11.19</ele>
        <time>2013-05-18T13:00:19Z</time>
      </trkpt>
      <trkpt lat="40.464463010" lon="0.472611682">
        <ele>12.15</ele>
        <time>2013-05-18T13:00:26Z</time>
      </trkpt>
      <trkpt lat="40.464441720" lon="0.472601624">
        <ele>12.15</ele>
        <time>2013-05-18T13:00:27Z</time>
      </trkpt>
      <trkpt lat="40.464356979" lon="0.472562397">
        <ele>11.67</ele>
        <time>2013-05-18T13:00:31Z</time>
      </trkpt>
      <trkpt lat="40.464314232" lon="0.472528199">
        <ele>11.19</ele>
        <time>2013-05-18T13:00:37Z</time>
      </trkpt>
      <trkpt lat="40.464293780" lon="0.472530378">
        <ele>11.19</ele>
        <time>2013-05-18T13:00:49Z</time>
      </trkpt>
      <trkpt lat="40.464288499" lon="0.472485116">
        <ele>11.19</ele>
        <time>2013-05-18T13:01:01Z</time>
      </trkpt>
      <trkpt lat="40.464211637" lon="0.472289566">
        <ele>11.19</ele>
        <time>2013-05-18T13:01:08Z</time>
      </trkpt>
      <trkpt lat="40.464090183" lon="0.471937610">
        <ele>12.15</ele>
        <time>2013-05-18T13:01:17Z</time>
      </trkpt>
      <trkpt lat="40.463911565" lon="0.471654385">
        <ele>12.63</ele>
        <time>2013-05-18T13:01:25Z</time>
      </trkpt>
      <trkpt lat="40.463764379" lon="0.471260939">
        <ele>12.15</ele>
        <time>2013-05-18T13:01:35Z</time>
      </trkpt>
      <trkpt lat="40.463760942" lon="0.470977714">
        <ele>11.67</ele>
        <time>2013-05-18T13:01:41Z</time>
      </trkpt>
      <trkpt lat="40.463832021" lon="0.470761042">
        <ele>12.15</ele>
        <time>2013-05-18T13:01:46Z</time>
      </trkpt>
      <trkpt lat="40.463755159" lon="0.470572114">
        <ele>12.63</ele>
        <time>2013-05-18T13:01:50Z</time>
      </trkpt>
      <trkpt lat="40.463662036" lon="0.470440015">
        <ele>11.67</ele>
        <time>2013-05-18T13:01:53Z</time>
      </trkpt>
      <trkpt lat="40.463565644" lon="0.470153857">
        <ele>11.67</ele>
        <time>2013-05-18T13:01:58Z</time>
      </trkpt>
      <trkpt lat="40.463544857" lon="0.470040953">
        <ele>11.67</ele>
        <time>2013-05-18T13:02:00Z</time>
      </trkpt>
      <trkpt lat="40.463470761" lon="0.469871219">
        <ele>10.71</ele>
        <time>2013-05-18T13:02:04Z</time>
      </trkpt>
      <trkpt lat="40.463279737" lon="0.469735935">
        <ele>10.23</ele>
        <time>2013-05-18T13:02:11Z</time>
      </trkpt>
      <trkpt lat="40.463063652" lon="0.469692936">
        <ele>12.15</ele>
        <time>2013-05-18T13:02:18Z</time>
      </trkpt>
      <trkpt lat="40.462816469" lon="0.469622528">
        <ele>13.12</ele>
        <time>2013-05-18T13:02:27Z</time>
      </trkpt>
      <trkpt lat="40.462508937" lon="0.469420273">
        <ele>12.63</ele>
        <time>2013-05-18T13:02:36Z</time>
      </trkpt>
      <trkpt lat="40.462227641" lon="0.469281301">
        <ele>12.15</ele>
        <time>2013-05-18T13:02:44Z</time>
      </trkpt>
      <trkpt lat="40.462125884" lon="0.469193207">
        <ele>12.15</ele>
        <time>2013-05-18T13:02:47Z</time>
      </trkpt>
      <trkpt lat="40.461971657" lon="0.468992544">
        <ele>11.19</ele>
        <time>2013-05-18T13:02:52Z</time>
      </trkpt>
      <trkpt lat="40.461741071" lon="0.468596919">
        <ele>11.19</ele>
        <time>2013-05-18T13:03:01Z</time>
      </trkpt>
      <trkpt lat="40.461471258" lon="0.468267929">
        <ele>10.71</ele>
        <time>2013-05-18T13:03:10Z</time>
      </trkpt>
      <trkpt lat="40.461381990" lon="0.468157120">
        <ele>10.71</ele>
        <time>2013-05-18T13:03:13Z</time>
      </trkpt>
      <trkpt lat="40.461088121" lon="0.467790077">
        <ele>10.23</ele>
        <time>2013-05-18T13:03:23Z</time>
      </trkpt>
      <trkpt lat="40.460967254" lon="0.467412723">
        <ele>10.23</ele>
        <time>2013-05-18T13:03:31Z</time>
      </trkpt>
      <trkpt lat="40.460744379" lon="0.466744099">
        <ele>10.23</ele>
        <time>2013-05-18T13:03:45Z</time>
      </trkpt>
      <trkpt lat="40.460550757" lon="0.466428101">
        <ele>11.19</ele>
        <time>2013-05-18T13:03:53Z</time>
      </trkpt>
      <trkpt lat="40.460247332" lon="0.466008587">
        <ele>11.67</ele>
        <time>2013-05-18T13:04:04Z</time>
      </trkpt>
      <trkpt lat="40.460023871" lon="0.465692086">
        <ele>12.15</ele>
        <time>2013-05-18T13:04:13Z</time>
      </trkpt>
      <trkpt lat="40.459724972" lon="0.465375585">
        <ele>12.63</ele>
        <time>2013-05-18T13:04:23Z</time>
      </trkpt>
      <trkpt lat="40.459347367" lon="0.465051541">
        <ele>12.63</ele>
        <time>2013-05-18T13:04:34Z</time>
      </trkpt>
      <trkpt lat="40.458985185" lon="0.464784745">
        <ele>13.12</ele>
        <time>2013-05-18T13:04:45Z</time>
      </trkpt>
      <trkpt lat="40.458567766" lon="0.464473106">
        <ele>14.08</ele>
        <time>2013-05-18T13:04:58Z</time>
      </trkpt>
      <trkpt lat="40.458090585" lon="0.464144619">
        <ele>13.12</ele>
        <time>2013-05-18T13:05:11Z</time>
      </trkpt>
      <trkpt lat="40.457652546" lon="0.463872626">
        <ele>13.60</ele>
        <time>2013-05-18T13:05:22Z</time>
      </trkpt>
      <trkpt lat="40.457252478" lon="0.463687638">
        <ele>13.60</ele>
        <time>2013-05-18T13:05:32Z</time>
      </trkpt>
      <trkpt lat="40.456813350" lon="0.463516312">
        <ele>14.08</ele>
        <time>2013-05-18T13:05:43Z</time>
      </trkpt>
      <trkpt lat="40.456528617" lon="0.463423189">
        <ele>14.08</ele>
        <time>2013-05-18T13:05:50Z</time>
      </trkpt>
      <trkpt lat="40.456403391" lon="0.463390499">
        <ele>13.60</ele>
        <time>2013-05-18T13:05:53Z</time>
      </trkpt>
      <trkpt lat="40.456155958" lon="0.463291593">
        <ele>14.56</ele>
        <time>2013-05-18T13:05:59Z</time>
      </trkpt>
      <trkpt lat="40.455994103" lon="0.463211043">
        <ele>13.60</ele>
        <time>2013-05-18T13:06:03Z</time>
      </trkpt>
      <trkpt lat="40.455654049" lon="0.462887166">
        <ele>13.60</ele>
        <time>2013-05-18T13:06:13Z</time>
      </trkpt>
      <trkpt lat="40.455264375" lon="0.462479722">
        <ele>13.12</ele>
        <time>2013-05-18T13:06:25Z</time>
      </trkpt>
      <trkpt lat="40.454848297" lon="0.462039756">
        <ele>12.15</ele>
        <time>2013-05-18T13:06:36Z</time>
      </trkpt>
      <trkpt lat="40.454514613" lon="0.461616637">
        <ele>11.67</ele>
        <time>2013-05-18T13:06:45Z</time>
      </trkpt>
      <trkpt lat="40.454133572" lon="0.461166026">
        <ele>11.19</ele>
        <time>2013-05-18T13:06:56Z</time>
      </trkpt>
      <trkpt lat="40.453956714" lon="0.461010793">
        <ele>11.19</ele>
        <time>2013-05-18T13:07:01Z</time>
      </trkpt>
      <trkpt lat="40.453802655" lon="0.460909707">
        <ele>10.71</ele>
        <time>2013-05-18T13:07:05Z</time>
      </trkpt>
      <trkpt lat="40.453266213" lon="0.460544424">
        <ele>11.19</ele>
        <time>2013-05-18T13:07:19Z</time>
      </trkpt>
      <trkpt lat="40.452925069" lon="0.460390532">
        <ele>11.67</ele>
        <time>2013-05-18T13:07:28Z</time>
      </trkpt>
      <trkpt lat="40.452613682" lon="0.460279640">
        <ele>13.12</ele>
        <time>2013-05-18T13:07:37Z</time>
      </trkpt>
      <trkpt lat="40.452207159" lon="0.460087359">
        <ele>13.12</ele>
        <time>2013-05-18T13:07:48Z</time>
      </trkpt>
      <trkpt lat="40.451948075" lon="0.460067829">
        <ele>13.12</ele>
        <time>2013-05-18T13:07:55Z</time>
      </trkpt>
      <trkpt lat="40.451669628" lon="0.459966576">
        <ele>11.19</ele>
        <time>2013-05-18T13:08:03Z</time>
      </trkpt>
      <trkpt lat="40.451633502" lon="0.459943274">
        <ele>11.19</ele>
        <time>2013-05-18T13:08:09Z</time>
      </trkpt>
      <trkpt lat="40.451561417" lon="0.459932964">
        <ele>11.19</ele>
        <time>2013-05-18T13:08:15Z</time>
      </trkpt>
      <trkpt lat="40.451403167" lon="0.459971437">
        <ele>11.67</ele>
        <time>2013-05-18T13:08:21Z</time>
      </trkpt>
      <trkpt lat="40.451275092" lon="0.459945202">
        <ele>12.15</ele>
        <time>2013-05-18T13:08:27Z</time>
      </trkpt>
      <trkpt lat="40.451133270" lon="0.459871944">
        <ele>12.63</ele>
        <time>2013-05-18T13:08:34Z</time>
      </trkpt>
      <trkpt lat="40.451120362" lon="0.459861802">
        <ele>12.63</ele>
        <time>2013-05-18T13:08:40Z</time>
      </trkpt>
      <trkpt lat="40.451115165" lon="0.459855013">
        <ele>12.63</ele>
        <time>2013-05-18T13:08:57Z</time>
      </trkpt>
      <trkpt lat="40.451102508" lon="0.459843781">
        <ele>12.63</ele>
        <time>2013-05-18T13:09:15Z</time>
      </trkpt>
      <trkpt lat="40.451037046" lon="0.459844787">
        <ele>12.63</ele>
        <time>2013-05-18T13:09:25Z</time>
      </trkpt>
      <trkpt lat="40.450974600" lon="0.459855013">
        <ele>12.63</ele>
        <time>2013-05-18T13:09:27Z</time>
      </trkpt>
      <trkpt lat="40.450603534" lon="0.459822407">
        <ele>12.15</ele>
        <time>2013-05-18T13:09:36Z</time>
      </trkpt>
      <trkpt lat="40.450402284" lon="0.459668096">
        <ele>13.12</ele>
        <time>2013-05-18T13:09:43Z</time>
      </trkpt>
      <trkpt lat="40.450203968" lon="0.459568435">
        <ele>13.12</ele>
        <time>2013-05-18T13:09:50Z</time>
      </trkpt>
      <trkpt lat="40.449970281" lon="0.459471205">
        <ele>13.12</ele>
        <time>2013-05-18T13:09:58Z</time>
      </trkpt>
      <trkpt lat="40.449665599" lon="0.459346734">
        <ele>13.60</ele>
        <time>2013-05-18T13:10:07Z</time>
      </trkpt>
      <trkpt lat="40.449461835" lon="0.459280098">
        <ele>12.63</ele>
        <time>2013-05-18T13:10:13Z</time>
      </trkpt>
      <trkpt lat="40.449424116" lon="0.459068120">
        <ele>12.63</ele>
        <time>2013-05-18T13:10:18Z</time>
      </trkpt>
      <trkpt lat="40.449482119" lon="0.458673500">
        <ele>12.63</ele>
        <time>2013-05-18T13:10:27Z</time>
      </trkpt>
      <trkpt lat="40.449613547" lon="0.458632763">
        <ele>13.60</ele>
        <time>2013-05-18T13:10:33Z</time>
      </trkpt>
      <trkpt lat="40.449683955" lon="0.458474848">
        <ele>14.08</ele>
        <time>2013-05-18T13:10:37Z</time>
      </trkpt>
      <trkpt lat="40.449767942" lon="0.458282819">
        <ele>14.08</ele>
        <time>2013-05-18T13:10:41Z</time>
      </trkpt>
      <trkpt lat="40.449808426" lon="0.458205622">
        <ele>13.60</ele>
        <time>2013-05-18T13:10:43Z</time>
      </trkpt>
      <trkpt lat="40.449925521" lon="0.457920637">
        <ele>13.60</ele>
        <time>2013-05-18T13:10:51Z</time>
      </trkpt>
      <trkpt lat="40.450013699" lon="0.457707318">
        <ele>13.60</ele>
        <time>2013-05-18T13:10:58Z</time>
      </trkpt>
      <trkpt lat="40.450102044" lon="0.457513193">
        <ele>14.08</ele>
        <time>2013-05-18T13:11:05Z</time>
      </trkpt>
      <trkpt lat="40.450156946" lon="0.457473714">
        <ele>13.60</ele>
        <time>2013-05-18T13:11:11Z</time>
      </trkpt>
      <trkpt lat="40.450190725" lon="0.457414119">
        <ele>14.08</ele>
        <time>2013-05-18T13:11:16Z</time>
      </trkpt>
      <trkpt lat="40.450179912" lon="0.457270285">
        <ele>13.60</ele>
        <time>2013-05-18T13:11:20Z</time>
      </trkpt>
      <trkpt lat="40.450029206" lon="0.456946911">
        <ele>13.60</ele>
        <time>2013-05-18T13:11:28Z</time>
      </trkpt>
      <trkpt lat="40.449921247" lon="0.456808275">
        <ele>13.60</ele>
        <time>2013-05-18T13:11:57Z</time>
      </trkpt>
      <trkpt lat="40.449843965" lon="0.456743147">
        <ele>13.60</ele>
        <time>2013-05-18T13:11:59Z</time>
      </trkpt>
      <trkpt lat="40.449517909" lon="0.456506694">
        <ele>14.56</ele>
        <time>2013-05-18T13:12:08Z</time>
      </trkpt>
      <trkpt lat="40.449230745" lon="0.456285328">
        <ele>14.08</ele>
        <time>2013-05-18T13:12:17Z</time>
      </trkpt>
      <trkpt lat="40.449032849" lon="0.456139483">
        <ele>14.08</ele>
        <time>2013-05-18T13:12:25Z</time>
      </trkpt>
      <trkpt lat="40.448729927" lon="0.455940412">
        <ele>14.08</ele>
        <time>2013-05-18T13:12:35Z</time>
      </trkpt>
      <trkpt lat="40.448372941" lon="0.455727596">
        <ele>13.12</ele>
        <time>2013-05-18T13:12:46Z</time>
      </trkpt>
      <trkpt lat="40.448256265" lon="0.455682669">
        <ele>13.12</ele>
        <time>2013-05-18T13:12:50Z</time>
      </trkpt>
      <trkpt lat="40.448175296" lon="0.455777217">
        <ele>13.60</ele>
        <time>2013-05-18T13:12:54Z</time>
      </trkpt>
      <trkpt lat="40.448077731" lon="0.456059519">
        <ele>12.63</ele>
        <time>2013-05-18T13:13:01Z</time>
      </trkpt>
      <trkpt lat="40.448082676" lon="0.456257332">
        <ele>12.63</ele>
        <time>2013-05-18T13:13:07Z</time>
      </trkpt>
      <trkpt lat="40.448108492" lon="0.456434945">
        <ele>12.15</ele>
        <time>2013-05-18T13:13:14Z</time>
      </trkpt>
      <trkpt lat="40.448104469" lon="0.456455899">
        <ele>11.67</ele>
        <time>2013-05-18T13:13:20Z</time>
      </trkpt>
      <trkpt lat="40.448099272" lon="0.456485823">
        <ele>11.67</ele>
        <time>2013-05-18T13:13:30Z</time>
      </trkpt>
      <trkpt lat="40.448105894" lon="0.456530917">
        <ele>9.75</ele>
        <time>2013-05-18T13:13:36Z</time>
      </trkpt>
      <trkpt lat="40.448110504" lon="0.456604762">
        <ele>9.75</ele>
        <time>2013-05-18T13:13:44Z</time>
      </trkpt>
      <trkpt lat="40.448107319" lon="0.456615491">
        <ele>9.75</ele>
        <time>2013-05-18T13:13:53Z</time>
      </trkpt>
      <trkpt lat="40.448120395" lon="0.456660418">
        <ele>9.27</ele>
        <time>2013-05-18T13:15:14Z</time>
      </trkpt>
      <trkpt lat="40.448121736" lon="0.456723617">
        <ele>9.75</ele>
        <time>2013-05-18T13:15:28Z</time>
      </trkpt>
      <trkpt lat="40.448060213" lon="0.456932746">
        <ele>9.27</ele>
        <time>2013-05-18T13:15:34Z</time>
      </trkpt>
      <trkpt lat="40.447932472" lon="0.456945486">
        <ele>11.67</ele>
        <time>2013-05-18T13:15:39Z</time>
      </trkpt>
      <trkpt lat="40.447745724" lon="0.456855297">
        <ele>12.15</ele>
        <time>2013-05-18T13:15:48Z</time>
      </trkpt>
      <trkpt lat="40.447542798" lon="0.456754714">
        <ele>12.63</ele>
        <time>2013-05-18T13:15:57Z</time>
      </trkpt>
      <trkpt lat="40.447319169" lon="0.456631333">
        <ele>13.12</ele>
        <time>2013-05-18T13:16:04Z</time>
      </trkpt>
      <trkpt lat="40.447143316" lon="0.456522284">
        <ele>12.63</ele>
        <time>2013-05-18T13:16:10Z</time>
      </trkpt>
      <trkpt lat="40.446913652" lon="0.456399489">
        <ele>12.63</ele>
        <time>2013-05-18T13:16:17Z</time>
      </trkpt>
      <trkpt lat="40.446718941" lon="0.456285663">
        <ele>12.15</ele>
        <time>2013-05-18T13:16:24Z</time>
      </trkpt>
      <trkpt lat="40.446475530" lon="0.456136297">
        <ele>12.15</ele>
        <time>2013-05-18T13:16:32Z</time>
      </trkpt>
      <trkpt lat="40.446191551" lon="0.455904873">
        <ele>13.12</ele>
        <time>2013-05-18T13:16:42Z</time>
      </trkpt>
      <trkpt lat="40.445905309" lon="0.455728853">
        <ele>11.67</ele>
        <time>2013-05-18T13:16:51Z</time>
      </trkpt>
      <trkpt lat="40.445507001" lon="0.455493741">
        <ele>11.67</ele>
        <time>2013-05-18T13:17:03Z</time>
      </trkpt>
      <trkpt lat="40.445179353" lon="0.455274973">
        <ele>12.63</ele>
        <time>2013-05-18T13:17:14Z</time>
      </trkpt>
      <trkpt lat="40.444827983" lon="0.454916060">
        <ele>12.63</ele>
        <time>2013-05-18T13:17:27Z</time>
      </trkpt>
      <trkpt lat="40.444549704" lon="0.454637446">
        <ele>12.15</ele>
        <time>2013-05-18T13:17:36Z</time>
      </trkpt>
      <trkpt lat="40.444262708" lon="0.454339720">
        <ele>13.12</ele>
        <time>2013-05-18T13:17:46Z</time>
      </trkpt>
      <trkpt lat="40.443968503" lon="0.454036379">
        <ele>12.63</ele>
        <time>2013-05-18T13:17:57Z</time>
      </trkpt>
      <trkpt lat="40.443772702" lon="0.453844937">
        <ele>11.67</ele>
        <time>2013-05-18T13:18:06Z</time>
      </trkpt>
      <trkpt lat="40.443597604" lon="0.453685010">
        <ele>9.75</ele>
        <time>2013-05-18T13:18:13Z</time>
      </trkpt>
      <trkpt lat="40.443529123" lon="0.453631366">
        <ele>8.79</ele>
        <time>2013-05-18T13:18:15Z</time>
      </trkpt>
      <trkpt lat="40.443471959" lon="0.453540171">
        <ele>7.83</ele>
        <time>2013-05-18T13:18:17Z</time>
      </trkpt>
      <trkpt lat="40.443427870" lon="0.453426763">
        <ele>7.83</ele>
        <time>2013-05-18T13:18:19Z</time>
      </trkpt>
      <trkpt lat="40.443252521" lon="0.453227693">
        <ele>7.35</ele>
        <time>2013-05-18T13:18:24Z</time>
      </trkpt>
      <trkpt lat="40.443099635" lon="0.453283852">
        <ele>7.35</ele>
        <time>2013-05-18T13:18:28Z</time>
      </trkpt>
      <trkpt lat="40.442931494" lon="0.453310087">
        <ele>6.39</ele>
        <time>2013-05-18T13:18:36Z</time>
      </trkpt>
      <trkpt lat="40.442884387" lon="0.453266837">
        <ele>6.39</ele>
        <time>2013-05-18T13:18:40Z</time>
      </trkpt>
      <trkpt lat="40.442788247" lon="0.453232890">
        <ele>6.87</ele>
        <time>2013-05-18T13:18:47Z</time>
      </trkpt>
      <trkpt lat="40.442771735" lon="0.453238087">
        <ele>7.35</ele>
        <time>2013-05-18T13:18:53Z</time>
      </trkpt>
      <trkpt lat="40.442745080" lon="0.453240015">
        <ele>7.35</ele>
        <time>2013-05-18T13:19:00Z</time>
      </trkpt>
      <trkpt lat="40.442658663" lon="0.453216126">
        <ele>7.83</ele>
        <time>2013-05-18T13:19:09Z</time>
      </trkpt>
      <trkpt lat="40.442606611" lon="0.453174887">
        <ele>7.83</ele>
        <time>2013-05-18T13:19:17Z</time>
      </trkpt>
      <trkpt lat="40.442566881" lon="0.453141360">
        <ele>7.35</ele>
        <time>2013-05-18T13:19:23Z</time>
      </trkpt>
      <trkpt lat="40.442525391" lon="0.453065336">
        <ele>7.83</ele>
        <time>2013-05-18T13:19:27Z</time>
      </trkpt>
      <trkpt lat="40.442576688" lon="0.452967938">
        <ele>8.31</ele>
        <time>2013-05-18T13:19:33Z</time>
      </trkpt>
      <trkpt lat="40.442613401" lon="0.452956120">
        <ele>8.31</ele>
        <time>2013-05-18T13:19:35Z</time>
      </trkpt>
      <trkpt lat="40.442743320" lon="0.452858806">
        <ele>8.31</ele>
        <time>2013-05-18T13:19:42Z</time>
      </trkpt>
      <trkpt lat="40.442891931" lon="0.452726204">
        <ele>7.83</ele>
        <time>2013-05-18T13:19:51Z</time>
      </trkpt>
      <trkpt lat="40.443050936" lon="0.452583879">
        <ele>7.35</ele>
        <time>2013-05-18T13:19:58Z</time>
      </trkpt>
      <trkpt lat="40.443261238" lon="0.452331835">
        <ele>7.83</ele>
        <time>2013-05-18T13:20:08Z</time>
      </trkpt>
      <trkpt lat="40.443467014" lon="0.452034697">
        <ele>7.83</ele>
        <time>2013-05-18T13:20:18Z</time>
      </trkpt>
      <trkpt lat="40.443624174" lon="0.451782150">
        <ele>8.31</ele>
        <time>2013-05-18T13:20:25Z</time>
      </trkpt>
      <trkpt lat="40.443584193" lon="0.451632282">
        <ele>9.27</ele>
        <time>2013-05-18T13:20:29Z</time>
      </trkpt>
      <trkpt lat="40.443456285" lon="0.451450981">
        <ele>11.67</ele>
        <time>2013-05-18T13:20:36Z</time>
      </trkpt>
      <trkpt lat="40.443318402" lon="0.451257108">
        <ele>12.63</ele>
        <time>2013-05-18T13:20:43Z</time>
      </trkpt>
      <trkpt lat="40.443196278" lon="0.451111095">
        <ele>13.60</ele>
        <time>2013-05-18T13:20:50Z</time>
      </trkpt>
      <trkpt lat="40.443022940" lon="0.450874558">
        <ele>14.08</ele>
        <time>2013-05-18T13:20:59Z</time>
      </trkpt>
      <trkpt lat="40.442842897" lon="0.450622346">
        <ele>14.56</ele>
        <time>2013-05-18T13:21:08Z</time>
      </trkpt>
      <trkpt lat="40.442650449" lon="0.450390084">
        <ele>14.56</ele>
        <time>2013-05-18T13:21:16Z</time>
      </trkpt>
      <trkpt lat="40.442367895" lon="0.449992614">
        <ele>14.08</ele>
        <time>2013-05-18T13:21:27Z</time>
      </trkpt>
      <trkpt lat="40.442150803" lon="0.449707294">
        <ele>15.04</ele>
        <time>2013-05-18T13:21:35Z</time>
      </trkpt>
      <trkpt lat="40.441922229" lon="0.449395236">
        <ele>15.04</ele>
        <time>2013-05-18T13:21:44Z</time>
      </trkpt>
      <trkpt lat="40.441785352" lon="0.449226843">
        <ele>16.00</ele>
        <time>2013-05-18T13:21:50Z</time>
      </trkpt>
      <trkpt lat="40.441575050" lon="0.448985863">
        <ele>15.52</ele>
        <time>2013-05-18T13:21:59Z</time>
      </trkpt>
      <trkpt lat="40.441388302" lon="0.448741866">
        <ele>16.00</ele>
        <time>2013-05-18T13:22:07Z</time>
      </trkpt>
      <trkpt lat="40.441145226" lon="0.448453445">
        <ele>16.00</ele>
        <time>2013-05-18T13:22:16Z</time>
      </trkpt>
      <trkpt lat="40.440849261" lon="0.448098136">
        <ele>15.52</ele>
        <time>2013-05-18T13:22:27Z</time>
      </trkpt>
      <trkpt lat="40.440653795" lon="0.447852379">
        <ele>15.52</ele>
        <time>2013-05-18T13:22:35Z</time>
      </trkpt>
      <trkpt lat="40.440417426" lon="0.447575860">
        <ele>16.00</ele>
        <time>2013-05-18T13:22:44Z</time>
      </trkpt>
      <trkpt lat="40.440219780" lon="0.447326833">
        <ele>16.00</ele>
        <time>2013-05-18T13:22:52Z</time>
      </trkpt>
      <trkpt lat="40.439966312" lon="0.447011339">
        <ele>16.48</ele>
        <time>2013-05-18T13:23:02Z</time>
      </trkpt>
      <trkpt lat="40.439657103" lon="0.446633734">
        <ele>16.00</ele>
        <time>2013-05-18T13:23:14Z</time>
      </trkpt>
      <trkpt lat="40.439481419" lon="0.446413374">
        <ele>15.52</ele>
        <time>2013-05-18T13:23:21Z</time>
      </trkpt>
      <trkpt lat="40.439173132" lon="0.446007522">
        <ele>16.00</ele>
        <time>2013-05-18T13:23:33Z</time>
      </trkpt>
      <trkpt lat="40.438849675" lon="0.445618099">
        <ele>16.00</ele>
        <time>2013-05-18T13:23:43Z</time>
      </trkpt>
      <trkpt lat="40.438522864" lon="0.445220880">
        <ele>16.00</ele>
        <time>2013-05-18T13:23:52Z</time>
      </trkpt>
      <trkpt lat="40.438087005" lon="0.444703801">
        <ele>16.00</ele>
        <time>2013-05-18T13:24:04Z</time>
      </trkpt>
      <trkpt lat="40.437732954" lon="0.444336254">
        <ele>16.48</ele>
        <time>2013-05-18T13:24:14Z</time>
      </trkpt>
      <trkpt lat="40.437579900" lon="0.444336757">
        <ele>16.00</ele>
        <time>2013-05-18T13:24:18Z</time>
      </trkpt>
      <trkpt lat="40.437550144" lon="0.444385037">
        <ele>16.48</ele>
        <time>2013-05-18T13:24:19Z</time>
      </trkpt>
      <trkpt lat="40.437248647" lon="0.444993647">
        <ele>16.00</ele>
        <time>2013-05-18T13:24:30Z</time>
      </trkpt>
      <trkpt lat="40.436981013" lon="0.445191376">
        <ele>15.04</ele>
        <time>2013-05-18T13:24:36Z</time>
      </trkpt>
      <trkpt lat="40.436879843" lon="0.445156172">
        <ele>15.04</ele>
        <time>2013-05-18T13:24:38Z</time>
      </trkpt>
      <trkpt lat="40.436416743" lon="0.444881581">
        <ele>16.00</ele>
        <time>2013-05-18T13:24:48Z</time>
      </trkpt>
      <trkpt lat="40.435994631" lon="0.444651330">
        <ele>15.52</ele>
        <time>2013-05-18T13:24:57Z</time>
      </trkpt>
      <trkpt lat="40.435458273" lon="0.444353018">
        <ele>14.56</ele>
        <time>2013-05-18T13:25:08Z</time>
      </trkpt>
      <trkpt lat="40.434948904" lon="0.444069626">
        <ele>14.56</ele>
        <time>2013-05-18T13:25:18Z</time>
      </trkpt>
      <trkpt lat="40.434426125" lon="0.443760585">
        <ele>13.60</ele>
        <time>2013-05-18T13:25:28Z</time>
      </trkpt>
      <trkpt lat="40.433903094" lon="0.443453807">
        <ele>12.63</ele>
        <time>2013-05-18T13:25:37Z</time>
      </trkpt>
      <trkpt lat="40.433247127" lon="0.443098331">
        <ele>12.15</ele>
        <time>2013-05-18T13:25:49Z</time>
      </trkpt>
      <trkpt lat="40.432789056" lon="0.442833379">
        <ele>12.15</ele>
        <time>2013-05-18T13:25:58Z</time>
      </trkpt>
      <trkpt lat="40.432206430" lon="0.442497181">
        <ele>12.15</ele>
        <time>2013-05-18T13:26:09Z</time>
      </trkpt>
      <trkpt lat="40.431643333" lon="0.442180596">
        <ele>12.15</ele>
        <time>2013-05-18T13:26:20Z</time>
      </trkpt>
      <trkpt lat="40.431376453" lon="0.442034164">
        <ele>9.27</ele>
        <time>2013-05-18T13:26:25Z</time>
      </trkpt>
      <trkpt lat="40.431225915" lon="0.441955458">
        <ele>8.79</ele>
        <time>2013-05-18T13:26:28Z</time>
      </trkpt>
      <trkpt lat="40.431157937" lon="0.441791173">
        <ele>7.83</ele>
        <time>2013-05-18T13:26:32Z</time>
      </trkpt>
      <trkpt lat="40.431170845" lon="0.441730740">
        <ele>7.35</ele>
        <time>2013-05-18T13:26:33Z</time>
      </trkpt>
      <trkpt lat="40.431335550" lon="0.441018110">
        <ele>8.31</ele>
        <time>2013-05-18T13:26:45Z</time>
      </trkpt>
      <trkpt lat="40.431439569" lon="0.440494828">
        <ele>8.79</ele>
        <time>2013-05-18T13:26:53Z</time>
      </trkpt>
      <trkpt lat="40.431451555" lon="0.440433137">
        <ele>8.31</ele>
        <time>2013-05-18T13:26:54Z</time>
      </trkpt>
      <trkpt lat="40.431465637" lon="0.440299278">
        <ele>9.27</ele>
        <time>2013-05-18T13:26:56Z</time>
      </trkpt>
      <trkpt lat="40.431573931" lon="0.439742971">
        <ele>10.71</ele>
        <time>2013-05-18T13:27:04Z</time>
      </trkpt>
      <trkpt lat="40.431659594" lon="0.439357236">
        <ele>12.15</ele>
        <time>2013-05-18T13:27:10Z</time>
      </trkpt>
      <trkpt lat="40.431781216" lon="0.439000418">
        <ele>13.60</ele>
        <time>2013-05-18T13:27:17Z</time>
      </trkpt>
      <trkpt lat="40.431759926" lon="0.438802019">
        <ele>13.60</ele>
        <time>2013-05-18T13:27:22Z</time>
      </trkpt>
      <trkpt lat="40.431731679" lon="0.438772263">
        <ele>14.08</ele>
        <time>2013-05-18T13:27:23Z</time>
      </trkpt>
      <trkpt lat="40.431576362" lon="0.438664639">
        <ele>13.60</ele>
        <time>2013-05-18T13:27:27Z</time>
      </trkpt>
      <trkpt lat="40.431434959" lon="0.438389713">
        <ele>12.63</ele>
        <time>2013-05-18T13:27:32Z</time>
      </trkpt>
      <trkpt lat="40.431462871" lon="0.438175807">
        <ele>12.63</ele>
        <time>2013-05-18T13:27:35Z</time>
      </trkpt>
      <trkpt lat="40.431730505" lon="0.437322194">
        <ele>11.19</ele>
        <time>2013-05-18T13:27:47Z</time>
      </trkpt>
      <trkpt lat="40.431752298" lon="0.437252456">
        <ele>11.19</ele>
        <time>2013-05-18T13:27:48Z</time>
      </trkpt>
      <trkpt lat="40.431811642" lon="0.437119603">
        <ele>11.67</ele>
        <time>2013-05-18T13:27:50Z</time>
      </trkpt>
      <trkpt lat="40.431819186" lon="0.436855070">
        <ele>13.12</ele>
        <time>2013-05-18T13:27:55Z</time>
      </trkpt>
      <trkpt lat="40.431650290" lon="0.436760522">
        <ele>14.08</ele>
        <time>2013-05-18T13:27:59Z</time>
      </trkpt>
      <trkpt lat="40.431473935" lon="0.436758930">
        <ele>15.04</ele>
        <time>2013-05-18T13:28:04Z</time>
      </trkpt>
      <trkpt lat="40.431325156" lon="0.436738813">
        <ele>16.48</ele>
        <time>2013-05-18T13:28:09Z</time>
      </trkpt>
      <trkpt lat="40.431090295" lon="0.436576204">
        <ele>17.44</ele>
        <time>2013-05-18T13:28:17Z</time>
      </trkpt>
      <trkpt lat="40.430705482" lon="0.436307313">
        <ele>17.92</ele>
        <time>2013-05-18T13:28:28Z</time>
      </trkpt>
      <trkpt lat="40.430198628" lon="0.435962565">
        <ele>17.92</ele>
        <time>2013-05-18T13:28:41Z</time>
      </trkpt>
      <trkpt lat="40.429799985" lon="0.435644556">
        <ele>18.40</ele>
        <time>2013-05-18T13:28:52Z</time>
      </trkpt>
      <trkpt lat="40.429279469" lon="0.435214564">
        <ele>18.88</ele>
        <time>2013-05-18T13:29:06Z</time>
      </trkpt>
      <trkpt lat="40.428798683" lon="0.434809886">
        <ele>17.44</ele>
        <time>2013-05-18T13:29:18Z</time>
      </trkpt>
      <trkpt lat="40.428246232" lon="0.434316024">
        <ele>17.44</ele>
        <time>2013-05-18T13:29:32Z</time>
      </trkpt>
      <trkpt lat="40.427792938" lon="0.433892068">
        <ele>17.44</ele>
        <time>2013-05-18T13:29:44Z</time>
      </trkpt>
      <trkpt lat="40.427367724" lon="0.433487808">
        <ele>16.96</ele>
        <time>2013-05-18T13:29:55Z</time>
      </trkpt>
      <trkpt lat="40.426822146" lon="0.432968047">
        <ele>17.44</ele>
        <time>2013-05-18T13:30:09Z</time>
      </trkpt>
      <trkpt lat="40.426362650" lon="0.432522716">
        <ele>18.40</ele>
        <time>2013-05-18T13:30:20Z</time>
      </trkpt>
      <trkpt lat="40.425957134" lon="0.432136310">
        <ele>18.40</ele>
        <time>2013-05-18T13:30:30Z</time>
      </trkpt>
      <trkpt lat="40.425579613" lon="0.431772871">
        <ele>18.40</ele>
        <time>2013-05-18T13:30:40Z</time>
      </trkpt>
      <trkpt lat="40.425239392" lon="0.431446480">
        <ele>17.92</ele>
        <time>2013-05-18T13:30:50Z</time>
      </trkpt>
      <trkpt lat="40.424970333" lon="0.431225030">
        <ele>16.48</ele>
        <time>2013-05-18T13:30:59Z</time>
      </trkpt>
      <trkpt lat="40.424866816" lon="0.431018416">
        <ele>13.60</ele>
        <time>2013-05-18T13:31:04Z</time>
      </trkpt>
      <trkpt lat="40.422512926" lon="0.430142675">
        <ele>14.08</ele>
        <time>2013-05-18T14:17:13Z</time>
      </trkpt>
      <trkpt lat="40.422518793" lon="0.430134293">
        <ele>11.19</ele>
        <time>2013-05-18T14:17:20Z</time>
      </trkpt>
      <trkpt lat="40.422512339" lon="0.430136975">
        <ele>8.31</ele>
        <time>2013-05-18T14:17:26Z</time>
      </trkpt>
      <trkpt lat="40.422508232" lon="0.430144183">
        <ele>5.42</ele>
        <time>2013-05-18T14:17:34Z</time>
      </trkpt>
      <trkpt lat="40.422515944" lon="0.430162372">
        <ele>1.58</ele>
        <time>2013-05-18T14:17:50Z</time>
      </trkpt>
      <trkpt lat="40.422510915" lon="0.430144686">
        <ele>0.14</ele>
        <time>2013-05-18T14:18:01Z</time>
      </trkpt>
      <trkpt lat="40.422432041" lon="0.430056341">
        <ele>-0.82</ele>
        <time>2013-05-18T14:18:06Z</time>
      </trkpt>
      <trkpt lat="40.422185780" lon="0.429926505">
        <ele>-0.34</ele>
        <time>2013-05-18T14:18:14Z</time>
      </trkpt>
      <trkpt lat="40.422003642" lon="0.429801280">
        <ele>-0.82</ele>
        <time>2013-05-18T14:18:20Z</time>
      </trkpt>
      <trkpt lat="40.421751346" lon="0.429494167">
        <ele>-1.30</ele>
        <time>2013-05-18T14:18:27Z</time>
      </trkpt>
      <trkpt lat="40.421372149" lon="0.429048669">
        <ele>-0.34</ele>
        <time>2013-05-18T14:18:36Z</time>
      </trkpt>
      <trkpt lat="40.420991527" lon="0.428756140">
        <ele>0.14</ele>
        <time>2013-05-18T14:18:44Z</time>
      </trkpt>
      <trkpt lat="40.420570755" lon="0.428429330">
        <ele>0.14</ele>
        <time>2013-05-18T14:18:53Z</time>
      </trkpt>
      <trkpt lat="40.420068596" lon="0.428043678">
        <ele>-0.34</ele>
        <time>2013-05-18T14:19:04Z</time>
      </trkpt>
      <trkpt lat="40.419571213" lon="0.427685603">
        <ele>0.14</ele>
        <time>2013-05-18T14:19:15Z</time>
      </trkpt>
      <trkpt lat="40.419302322" lon="0.427493071">
        <ele>-0.34</ele>
        <time>2013-05-18T14:19:21Z</time>
      </trkpt>
      <trkpt lat="40.419040974" lon="0.427198447">
        <ele>0.14</ele>
        <time>2013-05-18T14:19:28Z</time>
      </trkpt>
      <trkpt lat="40.417695846" lon="0.425952477">
        <ele>33.30</ele>
        <time>2013-05-18T15:59:11Z</time>
      </trkpt>
      <trkpt lat="40.417420669" lon="0.425759107">
        <ele>33.30</ele>
        <time>2013-05-18T15:59:19Z</time>
      </trkpt>
      <trkpt lat="40.417307764" lon="0.425570011">
        <ele>32.34</ele>
        <time>2013-05-18T15:59:24Z</time>
      </trkpt>
      <trkpt lat="40.417162087" lon="0.425414024">
        <ele>34.26</ele>
        <time>2013-05-18T15:59:29Z</time>
      </trkpt>
      <trkpt lat="40.417003585" lon="0.425217636">
        <ele>32.82</ele>
        <time>2013-05-18T15:59:35Z</time>
      </trkpt>
      <trkpt lat="40.416815495" lon="0.425002724">
        <ele>32.82</ele>
        <time>2013-05-18T15:59:42Z</time>
      </trkpt>
      <trkpt lat="40.416620616" lon="0.424836846">
        <ele>32.34</ele>
        <time>2013-05-18T15:59:48Z</time>
      </trkpt>
      <trkpt lat="40.416391371" lon="0.424590334">
        <ele>32.34</ele>
        <time>2013-05-18T15:59:56Z</time>
      </trkpt>
      <trkpt lat="40.416170508" lon="0.424382715">
        <ele>32.34</ele>
        <time>2013-05-18T16:00:04Z</time>
      </trkpt>
      <trkpt lat="40.416024579" lon="0.424261009">
        <ele>31.86</ele>
        <time>2013-05-18T16:00:10Z</time>
      </trkpt>
      <trkpt lat="40.415869933" lon="0.424385732">
        <ele>31.86</ele>
        <time>2013-05-18T16:00:16Z</time>
      </trkpt>
      <trkpt lat="40.415714616" lon="0.424619000">
        <ele>31.86</ele>
        <time>2013-05-18T16:00:23Z</time>
      </trkpt>
      <trkpt lat="40.415498028" lon="0.424908511">
        <ele>31.38</ele>
        <time>2013-05-18T16:00:30Z</time>
      </trkpt>
      <trkpt lat="40.415427955" lon="0.424995935">
        <ele>30.90</ele>
        <time>2013-05-18T16:00:32Z</time>
      </trkpt>
      <trkpt lat="40.415254869" lon="0.425261892">
        <ele>30.90</ele>
        <time>2013-05-18T16:00:38Z</time>
      </trkpt>
      <trkpt lat="40.415132158" lon="0.425423831">
        <ele>30.42</ele>
        <time>2013-05-18T16:00:42Z</time>
      </trkpt>
      <trkpt lat="40.414880449" lon="0.425758604">
        <ele>29.94</ele>
        <time>2013-05-18T16:00:49Z</time>
      </trkpt>
      <trkpt lat="40.414599907" lon="0.426103938">
        <ele>29.46</ele>
        <time>2013-05-18T16:00:56Z</time>
      </trkpt>
      <trkpt lat="40.414334536" lon="0.426485315">
        <ele>28.50</ele>
        <time>2013-05-18T16:01:04Z</time>
      </trkpt>
      <trkpt lat="40.414092047" lon="0.426849257">
        <ele>28.50</ele>
        <time>2013-05-18T16:01:11Z</time>
      </trkpt>
      <trkpt lat="40.413784347" lon="0.427303975">
        <ele>28.02</ele>
        <time>2013-05-18T16:01:19Z</time>
      </trkpt>
      <trkpt lat="40.413546721" lon="0.427618548">
        <ele>27.53</ele>
        <time>2013-05-18T16:01:25Z</time>
      </trkpt>
      <trkpt lat="40.413262239" lon="0.428051809">
        <ele>26.09</ele>
        <time>2013-05-18T16:01:33Z</time>
      </trkpt>
      <trkpt lat="40.412996365" lon="0.428346349">
        <ele>26.57</ele>
        <time>2013-05-18T16:01:40Z</time>
      </trkpt>
      <trkpt lat="40.412711632" lon="0.428652791">
        <ele>27.05</ele>
        <time>2013-05-18T16:02:51Z</time>
      </trkpt>
      <trkpt lat="40.412530750" lon="0.428908020">
        <ele>26.09</ele>
        <time>2013-05-18T16:02:59Z</time>
      </trkpt>
      <trkpt lat="40.412284490" lon="0.429235920">
        <ele>26.57</ele>
        <time>2013-05-18T16:03:09Z</time>
      </trkpt>
      <trkpt lat="40.412106207" lon="0.429469943">
        <ele>25.13</ele>
        <time>2013-05-18T16:03:17Z</time>
      </trkpt>
      <trkpt lat="40.411969246" lon="0.429718131">
        <ele>25.13</ele>
        <time>2013-05-18T16:03:25Z</time>
      </trkpt>
      <trkpt lat="40.411804458" lon="0.429901360">
        <ele>25.61</ele>
        <time>2013-05-18T16:03:34Z</time>
      </trkpt>
      <trkpt lat="40.411621481" lon="0.429838998">
        <ele>26.57</ele>
        <time>2013-05-18T16:03:42Z</time>
      </trkpt>
      <trkpt lat="40.411451412" lon="0.429760125">
        <ele>25.61</ele>
        <time>2013-05-18T16:03:50Z</time>
      </trkpt>
      <trkpt lat="40.411242368" lon="0.429733051">
        <ele>26.09</ele>
        <time>2013-05-18T16:03:57Z</time>
      </trkpt>
      <trkpt lat="40.410962244" lon="0.429679658">
        <ele>26.09</ele>
        <time>2013-05-18T16:04:06Z</time>
      </trkpt>
      <trkpt lat="40.410575168" lon="0.429579159">
        <ele>25.61</ele>
        <time>2013-05-18T16:04:17Z</time>
      </trkpt>
      <trkpt lat="40.410272665" lon="0.429403139">
        <ele>25.13</ele>
        <time>2013-05-18T16:04:25Z</time>
      </trkpt>
      <trkpt lat="40.410008552" lon="0.429252852">
        <ele>25.61</ele>
        <time>2013-05-18T16:04:33Z</time>
      </trkpt>
      <trkpt lat="40.409842674" lon="0.429083621">
        <ele>25.13</ele>
        <time>2013-05-18T16:04:40Z</time>
      </trkpt>
      <trkpt lat="40.409721807" lon="0.428877091">
        <ele>24.17</ele>
        <time>2013-05-18T16:04:46Z</time>
      </trkpt>
      <trkpt lat="40.409583673" lon="0.428579282">
        <ele>24.17</ele>
        <time>2013-05-18T16:04:53Z</time>
      </trkpt>
      <trkpt lat="40.409422070" lon="0.428192541">
        <ele>24.17</ele>
        <time>2013-05-18T16:05:02Z</time>
      </trkpt>
      <trkpt lat="40.409444366" lon="0.427965727">
        <ele>24.65</ele>
        <time>2013-05-18T16:05:07Z</time>
      </trkpt>
      <trkpt lat="40.409409162" lon="0.427787360">
        <ele>24.65</ele>
        <time>2013-05-18T16:05:11Z</time>
      </trkpt>
      <trkpt lat="40.409340179" lon="0.427309843">
        <ele>24.65</ele>
        <time>2013-05-18T16:05:21Z</time>
      </trkpt>
      <trkpt lat="40.409202296" lon="0.426927628">
        <ele>25.13</ele>
        <time>2013-05-18T16:05:29Z</time>
      </trkpt>
      <trkpt lat="40.409103725" lon="0.426764516">
        <ele>25.61</ele>
        <time>2013-05-18T16:05:33Z</time>
      </trkpt>
      <trkpt lat="40.408857046" lon="0.426391521">
        <ele>24.17</ele>
        <time>2013-05-18T16:05:41Z</time>
      </trkpt>
      <trkpt lat="40.408726372" lon="0.426245090">
        <ele>25.61</ele>
        <time>2013-05-18T16:05:45Z</time>
      </trkpt>
      <trkpt lat="40.408475334" lon="0.426006122">
        <ele>24.17</ele>
        <time>2013-05-18T16:05:52Z</time>
      </trkpt>
      <trkpt lat="40.408305936" lon="0.425664224">
        <ele>24.17</ele>
        <time>2013-05-18T16:05:59Z</time>
      </trkpt>
      <trkpt lat="40.408281796" lon="0.425613932">
        <ele>24.17</ele>
        <time>2013-05-18T16:06:00Z</time>
      </trkpt>
      <trkpt lat="40.408128072" lon="0.425270274">
        <ele>24.65</ele>
        <time>2013-05-18T16:06:07Z</time>
      </trkpt>
      <trkpt lat="40.408109631" lon="0.425159885">
        <ele>24.17</ele>
        <time>2013-05-18T16:06:09Z</time>
      </trkpt>
      <trkpt lat="40.407935372" lon="0.424807174">
        <ele>24.65</ele>
        <time>2013-05-18T16:06:17Z</time>
      </trkpt>
      <trkpt lat="40.407797573" lon="0.424744980">
        <ele>23.69</ele>
        <time>2013-05-18T16:06:23Z</time>
      </trkpt>
      <trkpt lat="40.407620883" lon="0.424611792">
        <ele>24.65</ele>
        <time>2013-05-18T16:06:29Z</time>
      </trkpt>
      <trkpt lat="40.407377221" lon="0.424323454">
        <ele>23.69</ele>
        <time>2013-05-18T16:06:36Z</time>
      </trkpt>
      <trkpt lat="40.407301867" lon="0.424240138">
        <ele>24.17</ele>
        <time>2013-05-18T16:06:38Z</time>
      </trkpt>
      <trkpt lat="40.407065665" lon="0.424056910">
        <ele>23.69</ele>
        <time>2013-05-18T16:06:44Z</time>
      </trkpt>
      <trkpt lat="40.406899536" lon="0.423831772">
        <ele>23.69</ele>
        <time>2013-05-18T16:06:49Z</time>
      </trkpt>
      <trkpt lat="40.406653695" lon="0.423537651">
        <ele>23.21</ele>
        <time>2013-05-18T16:06:56Z</time>
      </trkpt>
      <trkpt lat="40.406328058" lon="0.423200196">
        <ele>23.69</ele>
        <time>2013-05-18T16:07:05Z</time>
      </trkpt>
      <trkpt lat="40.406094035" lon="0.422960473">
        <ele>23.69</ele>
        <time>2013-05-18T16:07:13Z</time>
      </trkpt>
      <trkpt lat="40.405874429" lon="0.422744974">
        <ele>23.69</ele>
        <time>2013-05-18T16:07:22Z</time>
      </trkpt>
      <trkpt lat="40.405616183" lon="0.422541462">
        <ele>24.17</ele>
        <time>2013-05-18T16:07:32Z</time>
      </trkpt>
      <trkpt lat="40.405478468" lon="0.422412883">
        <ele>23.69</ele>
        <time>2013-05-18T16:07:38Z</time>
      </trkpt>
      <trkpt lat="40.405346621" lon="0.422269218">
        <ele>23.21</ele>
        <time>2013-05-18T16:07:45Z</time>
      </trkpt>
      <trkpt lat="40.405192813" lon="0.422156062">
        <ele>23.21</ele>
        <time>2013-05-18T16:07:51Z</time>
      </trkpt>
      <trkpt lat="40.404997263" lon="0.422068471">
        <ele>23.69</ele>
        <time>2013-05-18T16:07:58Z</time>
      </trkpt>
      <trkpt lat="40.404662322" lon="0.421936540">
        <ele>24.17</ele>
        <time>2013-05-18T16:08:09Z</time>
      </trkpt>
      <trkpt lat="40.404490074" lon="0.421813494">
        <ele>24.17</ele>
        <time>2013-05-18T16:08:15Z</time>
      </trkpt>
      <trkpt lat="40.404281532" lon="0.421750881">
        <ele>23.21</ele>
        <time>2013-05-18T16:08:22Z</time>
      </trkpt>
      <trkpt lat="40.404096879" lon="0.421604197">
        <ele>23.21</ele>
        <time>2013-05-18T16:08:29Z</time>
      </trkpt>
      <trkpt lat="40.403919267" lon="0.421411749">
        <ele>23.69</ele>
        <time>2013-05-18T16:08:37Z</time>
      </trkpt>
      <trkpt lat="40.403858079" lon="0.421325415">
        <ele>23.69</ele>
        <time>2013-05-18T16:08:40Z</time>
      </trkpt>
      <trkpt lat="40.403856738" lon="0.421175044">
        <ele>23.21</ele>
        <time>2013-05-18T16:08:44Z</time>
      </trkpt>
      <trkpt lat="40.404033512" lon="0.420780927">
        <ele>23.69</ele>
        <time>2013-05-18T16:08:54Z</time>
      </trkpt>
      <trkpt lat="40.404186146" lon="0.420442633">
        <ele>23.21</ele>
        <time>2013-05-18T16:09:02Z</time>
      </trkpt>
      <trkpt lat="40.404339200" lon="0.420103082">
        <ele>24.17</ele>
        <time>2013-05-18T16:09:11Z</time>
      </trkpt>
      <trkpt lat="40.404443638" lon="0.419807704">
        <ele>24.17</ele>
        <time>2013-05-18T16:09:19Z</time>
      </trkpt>
      <trkpt lat="40.404366609" lon="0.419697817">
        <ele>24.65</ele>
        <time>2013-05-18T16:09:24Z</time>
      </trkpt>
      <trkpt lat="40.404115403" lon="0.419535879">
        <ele>25.13</ele>
        <time>2013-05-18T16:09:32Z</time>
      </trkpt>
      <trkpt lat="40.403824635" lon="0.419267574">
        <ele>25.13</ele>
        <time>2013-05-18T16:09:42Z</time>
      </trkpt>
      <trkpt lat="40.403534621" lon="0.419074036">
        <ele>24.17</ele>
        <time>2013-05-18T16:09:51Z</time>
      </trkpt>
      <trkpt lat="40.403160201" lon="0.418844875">
        <ele>23.69</ele>
        <time>2013-05-18T16:10:00Z</time>
      </trkpt>
      <trkpt lat="40.402800366" lon="0.418620408">
        <ele>24.17</ele>
        <time>2013-05-18T16:10:09Z</time>
      </trkpt>
      <trkpt lat="40.402348749" lon="0.418391665">
        <ele>23.69</ele>
        <time>2013-05-18T16:10:20Z</time>
      </trkpt>
      <trkpt lat="40.401894785" lon="0.418165941">
        <ele>24.17</ele>
        <time>2013-05-18T16:10:31Z</time>
      </trkpt>
      <trkpt lat="40.401558587" lon="0.418008026">
        <ele>24.17</ele>
        <time>2013-05-18T16:10:39Z</time>
      </trkpt>
      <trkpt lat="40.401347866" lon="0.417905850">
        <ele>24.17</ele>
        <time>2013-05-18T16:10:44Z</time>
      </trkpt>
      <trkpt lat="40.400962885" lon="0.417713653">
        <ele>23.69</ele>
        <time>2013-05-18T16:10:53Z</time>
      </trkpt>
      <trkpt lat="40.400566924" lon="0.417501424">
        <ele>24.17</ele>
        <time>2013-05-18T16:11:03Z</time>
      </trkpt>
      <trkpt lat="40.400330219" lon="0.417360440">
        <ele>24.17</ele>
        <time>2013-05-18T16:11:10Z</time>
      </trkpt>
      <trkpt lat="40.400018245" lon="0.417196741">
        <ele>22.73</ele>
        <time>2013-05-18T16:11:19Z</time>
      </trkpt>
      <trkpt lat="40.399837447" lon="0.417164052">
        <ele>22.73</ele>
        <time>2013-05-18T16:11:24Z</time>
      </trkpt>
      <trkpt lat="40.399594624" lon="0.416979482">
        <ele>23.21</ele>
        <time>2013-05-18T16:11:31Z</time>
      </trkpt>
      <trkpt lat="40.399399744" lon="0.416716961">
        <ele>23.21</ele>
        <time>2013-05-18T16:11:38Z</time>
      </trkpt>
      <trkpt lat="40.399023732" lon="0.416520573">
        <ele>23.21</ele>
        <time>2013-05-18T16:11:47Z</time>
      </trkpt>
      <trkpt lat="40.398526099" lon="0.416277330">
        <ele>22.73</ele>
        <time>2013-05-18T16:11:58Z</time>
      </trkpt>
      <trkpt lat="40.398135167" lon="0.416103909">
        <ele>22.73</ele>
        <time>2013-05-18T16:12:06Z</time>
      </trkpt>
      <trkpt lat="40.398003822" lon="0.416019335">
        <ele>22.73</ele>
        <time>2013-05-18T16:12:09Z</time>
      </trkpt>
      <trkpt lat="40.397520605" lon="0.415769806">
        <ele>22.73</ele>
        <time>2013-05-18T16:12:20Z</time>
      </trkpt>
      <trkpt lat="40.397142163" lon="0.415570736">
        <ele>22.25</ele>
        <time>2013-05-18T16:12:28Z</time>
      </trkpt>
      <trkpt lat="40.396597506" lon="0.415320285">
        <ele>23.21</ele>
        <time>2013-05-18T16:12:39Z</time>
      </trkpt>
      <trkpt lat="40.395962577" lon="0.415007723">
        <ele>22.25</ele>
        <time>2013-05-18T16:12:52Z</time>
      </trkpt>
      <trkpt lat="40.395277608" lon="0.414664652">
        <ele>22.25</ele>
        <time>2013-05-18T16:13:06Z</time>
      </trkpt>
      <trkpt lat="40.394776789" lon="0.414423589">
        <ele>21.29</ele>
        <time>2013-05-18T16:13:16Z</time>
      </trkpt>
      <trkpt lat="40.394218387" lon="0.414151596">
        <ele>21.29</ele>
        <time>2013-05-18T16:13:27Z</time>
      </trkpt>
      <trkpt lat="40.393621763" lon="0.413864180">
        <ele>21.29</ele>
        <time>2013-05-18T16:13:39Z</time>
      </trkpt>
      <trkpt lat="40.393043077" lon="0.413565533">
        <ele>21.77</ele>
        <time>2013-05-18T16:13:51Z</time>
      </trkpt>
      <trkpt lat="40.392573606" lon="0.413327571">
        <ele>21.29</ele>
        <time>2013-05-18T16:14:01Z</time>
      </trkpt>
      <trkpt lat="40.392128192" lon="0.413113749">
        <ele>21.29</ele>
        <time>2013-05-18T16:14:10Z</time>
      </trkpt>
      <trkpt lat="40.391656877" lon="0.412864052">
        <ele>21.29</ele>
        <time>2013-05-18T16:14:20Z</time>
      </trkpt>
      <trkpt lat="40.391146587" lon="0.412602117">
        <ele>20.81</ele>
        <time>2013-05-18T16:14:31Z</time>
      </trkpt>
      <trkpt lat="40.390690863" lon="0.412341272">
        <ele>20.32</ele>
        <time>2013-05-18T16:14:41Z</time>
      </trkpt>
      <trkpt lat="40.390526494" lon="0.412319647">
        <ele>20.32</ele>
        <time>2013-05-18T16:14:45Z</time>
      </trkpt>
      <trkpt lat="40.390350139" lon="0.412281007">
        <ele>20.32</ele>
        <time>2013-05-18T16:14:49Z</time>
      </trkpt>
      <trkpt lat="40.390271600" lon="0.412238846">
        <ele>20.32</ele>
        <time>2013-05-18T16:14:51Z</time>
      </trkpt>
      <trkpt lat="40.389851667" lon="0.412031393">
        <ele>20.32</ele>
        <time>2013-05-18T16:15:01Z</time>
      </trkpt>
      <trkpt lat="40.389304664" lon="0.411742972">
        <ele>20.32</ele>
        <time>2013-05-18T16:15:13Z</time>
      </trkpt>
      <trkpt lat="40.388813904" lon="0.411497382">
        <ele>20.32</ele>
        <time>2013-05-18T16:15:23Z</time>
      </trkpt>
      <trkpt lat="40.388293639" lon="0.411181552">
        <ele>20.32</ele>
        <time>2013-05-18T16:15:34Z</time>
      </trkpt>
      <trkpt lat="40.387818469" lon="0.410948368">
        <ele>20.32</ele>
        <time>2013-05-18T16:15:44Z</time>
      </trkpt>
      <trkpt lat="40.387360649" lon="0.410727840">
        <ele>19.84</ele>
        <time>2013-05-18T16:15:53Z</time>
      </trkpt>
      <trkpt lat="40.386819346" lon="0.410450315">
        <ele>20.32</ele>
        <time>2013-05-18T16:16:04Z</time>
      </trkpt>
      <trkpt lat="40.386355156" lon="0.410219226">
        <ele>20.32</ele>
        <time>2013-05-18T16:16:13Z</time>
      </trkpt>
      <trkpt lat="40.385976210" lon="0.410071705">
        <ele>19.84</ele>
        <time>2013-05-18T16:16:20Z</time>
      </trkpt>
      <trkpt lat="40.385407330" lon="0.409796024">
        <ele>19.84</ele>
        <time>2013-05-18T16:16:31Z</time>
      </trkpt>
      <trkpt lat="40.384771060" lon="0.409507854">
        <ele>19.36</ele>
        <time>2013-05-18T16:16:43Z</time>
      </trkpt>
      <trkpt lat="40.384203186" lon="0.409345580">
        <ele>19.84</ele>
        <time>2013-05-18T16:16:53Z</time>
      </trkpt>
      <trkpt lat="40.383658698" lon="0.409256313">
        <ele>19.36</ele>
        <time>2013-05-18T16:17:02Z</time>
      </trkpt>
      <trkpt lat="40.383123849" lon="0.409070067">
        <ele>19.36</ele>
        <time>2013-05-18T16:17:11Z</time>
      </trkpt>
      <trkpt lat="40.382514652" lon="0.408866219">
        <ele>20.32</ele>
        <time>2013-05-18T16:17:21Z</time>
      </trkpt>
      <trkpt lat="40.381775117" lon="0.408614762">
        <ele>18.88</ele>
        <time>2013-05-18T16:17:32Z</time>
      </trkpt>
      <trkpt lat="40.380944889" lon="0.408358611">
        <ele>18.88</ele>
        <time>2013-05-18T16:17:43Z</time>
      </trkpt>
      <trkpt lat="40.380181633" lon="0.408137329">
        <ele>18.40</ele>
        <time>2013-05-18T16:17:53Z</time>
      </trkpt>
      <trkpt lat="40.379267838" lon="0.407849913">
        <ele>18.88</ele>
        <time>2013-05-18T16:18:05Z</time>
      </trkpt>
      <trkpt lat="40.378361503" lon="0.407589236">
        <ele>18.88</ele>
        <time>2013-05-18T16:18:17Z</time>
      </trkpt>
      <trkpt lat="40.377666978" lon="0.407405840">
        <ele>19.36</ele>
        <time>2013-05-18T16:18:26Z</time>
      </trkpt>
      <trkpt lat="40.376595855" lon="0.407054806">
        <ele>18.88</ele>
        <time>2013-05-18T16:18:40Z</time>
      </trkpt>
      <trkpt lat="40.375599414" lon="0.406700838">
        <ele>18.88</ele>
        <time>2013-05-18T16:18:53Z</time>
      </trkpt>
      <trkpt lat="40.374986529" lon="0.406475281">
        <ele>18.88</ele>
        <time>2013-05-18T16:19:01Z</time>
      </trkpt>
      <trkpt lat="40.374319833" lon="0.406230865">
        <ele>18.40</ele>
        <time>2013-05-18T16:19:10Z</time>
      </trkpt>
      <trkpt lat="40.373949772" lon="0.406110333">
        <ele>18.40</ele>
        <time>2013-05-18T16:19:15Z</time>
      </trkpt>
      <trkpt lat="40.373736285" lon="0.406012097">
        <ele>18.40</ele>
        <time>2013-05-18T16:19:18Z</time>
      </trkpt>
      <trkpt lat="40.373174865" lon="0.405815039">
        <ele>18.40</ele>
        <time>2013-05-18T16:19:26Z</time>
      </trkpt>
      <trkpt lat="40.372477155" lon="0.405489402">
        <ele>17.92</ele>
        <time>2013-05-18T16:19:37Z</time>
      </trkpt>
      <trkpt lat="40.371916741" lon="0.405380270">
        <ele>17.92</ele>
        <time>2013-05-18T16:19:46Z</time>
      </trkpt>
      <trkpt lat="40.371796377" lon="0.405352274">
        <ele>17.92</ele>
        <time>2013-05-18T16:19:48Z</time>
      </trkpt>
      <trkpt lat="40.371324224" lon="0.405145157">
        <ele>17.44</ele>
        <time>2013-05-18T16:19:56Z</time>
      </trkpt>
      <trkpt lat="40.370660545" lon="0.404865285">
        <ele>18.40</ele>
        <time>2013-05-18T16:20:07Z</time>
      </trkpt>
      <trkpt lat="40.370250251" lon="0.404699994">
        <ele>17.92</ele>
        <time>2013-05-18T16:20:15Z</time>
      </trkpt>
      <trkpt lat="40.370096192" lon="0.404631849">
        <ele>17.44</ele>
        <time>2013-05-18T16:20:20Z</time>
      </trkpt>
      <trkpt lat="40.370013211" lon="0.404574852">
        <ele>17.44</ele>
        <time>2013-05-18T16:20:22Z</time>
      </trkpt>
      <trkpt lat="40.369590931" lon="0.404466894">
        <ele>17.92</ele>
        <time>2013-05-18T16:20:29Z</time>
      </trkpt>
      <trkpt lat="40.368946195" lon="0.404302860">
        <ele>17.92</ele>
        <time>2013-05-18T16:20:39Z</time>
      </trkpt>
      <trkpt lat="40.368716447" lon="0.404225411">
        <ele>17.44</ele>
        <time>2013-05-18T16:20:43Z</time>
      </trkpt>
      <trkpt lat="40.368502038" lon="0.404026760">
        <ele>16.96</ele>
        <time>2013-05-18T16:20:48Z</time>
      </trkpt>
      <trkpt lat="40.368391564" lon="0.403987532">
        <ele>17.44</ele>
        <time>2013-05-18T16:20:50Z</time>
      </trkpt>
      <trkpt lat="40.367634678" lon="0.403814530">
        <ele>17.44</ele>
        <time>2013-05-18T16:21:03Z</time>
      </trkpt>
      <trkpt lat="40.367230419" lon="0.403734483">
        <ele>17.44</ele>
        <time>2013-05-18T16:21:10Z</time>
      </trkpt>
      <trkpt lat="40.366636729" lon="0.403561983">
        <ele>16.96</ele>
        <time>2013-05-18T16:21:21Z</time>
      </trkpt>
      <trkpt lat="40.366200786" lon="0.403453689">
        <ele>16.96</ele>
        <time>2013-05-18T16:21:30Z</time>
      </trkpt>
      <trkpt lat="40.365904570" lon="0.403392501">
        <ele>16.96</ele>
        <time>2013-05-18T16:21:39Z</time>
      </trkpt>
      <trkpt lat="40.365698794" lon="0.403346149">
        <ele>16.48</ele>
        <time>2013-05-18T16:21:46Z</time>
      </trkpt>
      <trkpt lat="40.365471561" lon="0.403258977">
        <ele>16.48</ele>
        <time>2013-05-18T16:21:54Z</time>
      </trkpt>
      <trkpt lat="40.365187917" lon="0.403193347">
        <ele>16.48</ele>
        <time>2013-05-18T16:22:02Z</time>
      </trkpt>
      <trkpt lat="40.364748705" lon="0.403084718">
        <ele>16.48</ele>
        <time>2013-05-18T16:22:12Z</time>
      </trkpt>
      <trkpt lat="40.364250485" lon="0.402960163">
        <ele>16.48</ele>
        <time>2013-05-18T16:22:23Z</time>
      </trkpt>
      <trkpt lat="40.363831976" lon="0.402873997">
        <ele>16.48</ele>
        <time>2013-05-18T16:22:32Z</time>
      </trkpt>
      <trkpt lat="40.363505166" lon="0.402807361">
        <ele>16.48</ele>
        <time>2013-05-18T16:22:41Z</time>
      </trkpt>
      <trkpt lat="40.363218253" lon="0.402741730">
        <ele>16.48</ele>
        <time>2013-05-18T16:22:49Z</time>
      </trkpt>
      <trkpt lat="40.362896472" lon="0.402648523">
        <ele>16.48</ele>
        <time>2013-05-18T16:22:57Z</time>
      </trkpt>
      <trkpt lat="40.362337567" lon="0.402504606">
        <ele>16.48</ele>
        <time>2013-05-18T16:23:10Z</time>
      </trkpt>
      <trkpt lat="40.361797102" lon="0.402364964">
        <ele>16.00</ele>
        <time>2013-05-18T16:23:22Z</time>
      </trkpt>
      <trkpt lat="40.361753516" lon="0.402357671">
        <ele>16.48</ele>
        <time>2013-05-18T16:23:23Z</time>
      </trkpt>
      <trkpt lat="40.361506082" lon="0.402385080">
        <ele>16.48</ele>
        <time>2013-05-18T16:23:30Z</time>
      </trkpt>
      <trkpt lat="40.361401644" lon="0.402528578">
        <ele>16.96</ele>
        <time>2013-05-18T16:23:35Z</time>
      </trkpt>
      <trkpt lat="40.361357639" lon="0.402665539">
        <ele>16.96</ele>
        <time>2013-05-18T16:23:38Z</time>
      </trkpt>
      <trkpt lat="40.361146331" lon="0.402828986">
        <ele>16.96</ele>
        <time>2013-05-18T16:23:44Z</time>
      </trkpt>
      <trkpt lat="40.360812647" lon="0.402994696">
        <ele>16.48</ele>
        <time>2013-05-18T16:23:52Z</time>
      </trkpt>
      <trkpt lat="40.360545348" lon="0.403182199">
        <ele>16.48</ele>
        <time>2013-05-18T16:24:00Z</time>
      </trkpt>
      <trkpt lat="40.360349044" lon="0.403289907">
        <ele>16.48</ele>
        <time>2013-05-18T16:24:07Z</time>
      </trkpt>
      <trkpt lat="40.360201607" lon="0.403406583">
        <ele>15.52</ele>
        <time>2013-05-18T16:24:12Z</time>
      </trkpt>
      <trkpt lat="40.360168666" lon="0.403429717">
        <ele>16.48</ele>
        <time>2013-05-18T16:24:13Z</time>
      </trkpt>
      <trkpt lat="40.360069759" lon="0.403696680">
        <ele>16.48</ele>
        <time>2013-05-18T16:24:19Z</time>
      </trkpt>
      <trkpt lat="40.359846801" lon="0.403989041">
        <ele>16.48</ele>
        <time>2013-05-18T16:24:27Z</time>
      </trkpt>
      <trkpt lat="40.359786032" lon="0.404067915">
        <ele>16.48</ele>
        <time>2013-05-18T16:24:29Z</time>
      </trkpt>
      <trkpt lat="40.359676061" lon="0.404251143">
        <ele>16.96</ele>
        <time>2013-05-18T16:24:33Z</time>
      </trkpt>
      <trkpt lat="40.359536083" lon="0.404528333">
        <ele>16.96</ele>
        <time>2013-05-18T16:24:39Z</time>
      </trkpt>
      <trkpt lat="40.359413289" lon="0.404779539">
        <ele>16.96</ele>
        <time>2013-05-18T16:24:44Z</time>
      </trkpt>
      <trkpt lat="40.359153785" lon="0.405629463">
        <ele>16.96</ele>
        <time>2013-05-18T16:24:57Z</time>
      </trkpt>
      <trkpt lat="40.359003749" lon="0.405919394">
        <ele>16.96</ele>
        <time>2013-05-18T16:25:03Z</time>
      </trkpt>
      <trkpt lat="40.358965360" lon="0.405980665">
        <ele>17.44</ele>
        <time>2013-05-18T16:25:05Z</time>
      </trkpt>
      <trkpt lat="40.358762769" lon="0.406015450">
        <ele>17.92</ele>
        <time>2013-05-18T16:25:12Z</time>
      </trkpt>
      <trkpt lat="40.358653804" lon="0.406115865">
        <ele>19.36</ele>
        <time>2013-05-18T16:25:17Z</time>
      </trkpt>
      <trkpt lat="40.358606949" lon="0.406197421">
        <ele>19.36</ele>
        <time>2013-05-18T16:25:20Z</time>
      </trkpt>
      <trkpt lat="40.358644919" lon="0.406313930">
        <ele>20.81</ele>
        <time>2013-05-18T16:25:24Z</time>
      </trkpt>
      <trkpt lat="40.358785987" lon="0.406432366">
        <ele>23.21</ele>
        <time>2013-05-18T16:25:32Z</time>
      </trkpt>
      <trkpt lat="40.358802080" lon="0.406447202">
        <ele>23.21</ele>
        <time>2013-05-18T16:25:33Z</time>
      </trkpt>
      <trkpt lat="40.358905429" lon="0.406517861">
        <ele>24.17</ele>
        <time>2013-05-18T16:25:38Z</time>
      </trkpt>
      <trkpt lat="40.358983967" lon="0.406637555">
        <ele>26.57</ele>
        <time>2013-05-18T16:25:44Z</time>
      </trkpt>
      <trkpt lat="40.359039288" lon="0.406666473">
        <ele>27.05</ele>
        <time>2013-05-18T16:25:46Z</time>
      </trkpt>
      <trkpt lat="40.359079018" lon="0.406800164">
        <ele>29.94</ele>
        <time>2013-05-18T16:25:52Z</time>
      </trkpt>
      <trkpt lat="40.359042725" lon="0.406815000">
        <ele>30.42</ele>
        <time>2013-05-18T16:25:54Z</time>
      </trkpt>
      <trkpt lat="40.358878272" lon="0.406780215">
        <ele>31.38</ele>
        <time>2013-05-18T16:26:01Z</time>
      </trkpt>
      <trkpt lat="40.358695127" lon="0.406792285">
        <ele>34.26</ele>
        <time>2013-05-18T16:26:09Z</time>
      </trkpt>
      <trkpt lat="40.358600663" lon="0.406833775">
        <ele>35.71</ele>
        <time>2013-05-18T16:26:18Z</time>
      </trkpt>
      <trkpt lat="40.358549701" lon="0.406798236">
        <ele>37.15</ele>
        <time>2013-05-18T16:26:23Z</time>
      </trkpt>
      <trkpt lat="40.358518017" lon="0.406922288">
        <ele>38.59</ele>
        <time>2013-05-18T16:26:29Z</time>
      </trkpt>
      <trkpt lat="40.358571913" lon="0.406960761">
        <ele>40.99</ele>
        <time>2013-05-18T16:26:35Z</time>
      </trkpt>
      <trkpt lat="40.358694624" lon="0.406938214">
        <ele>40.99</ele>
        <time>2013-05-18T16:26:43Z</time>
      </trkpt>
      <trkpt lat="40.358709460" lon="0.406932430">
        <ele>40.99</ele>
        <time>2013-05-18T16:26:44Z</time>
      </trkpt>
      <trkpt lat="40.358775007" lon="0.406935615">
        <ele>41.47</ele>
        <time>2013-05-18T16:26:48Z</time>
      </trkpt>
      <trkpt lat="40.358945411" lon="0.406974927">
        <ele>41.47</ele>
        <time>2013-05-18T16:26:56Z</time>
      </trkpt>
      <trkpt lat="40.359053537" lon="0.407021865">
        <ele>42.44</ele>
        <time>2013-05-18T16:27:02Z</time>
      </trkpt>
      <trkpt lat="40.359154288" lon="0.407053465">
        <ele>40.99</ele>
        <time>2013-05-18T16:27:08Z</time>
      </trkpt>
      <trkpt lat="40.359316729" lon="0.407162430">
        <ele>39.55</ele>
        <time>2013-05-18T16:27:15Z</time>
      </trkpt>
      <trkpt lat="40.359337181" lon="0.407171901">
        <ele>39.07</ele>
        <time>2013-05-18T16:27:16Z</time>
      </trkpt>
      <trkpt lat="40.359383533" lon="0.407181038">
        <ele>39.07</ele>
        <time>2013-05-18T16:27:23Z</time>
      </trkpt>
      <trkpt lat="40.359417563" lon="0.407143151">
        <ele>38.59</ele>
        <time>2013-05-18T16:27:42Z</time>
      </trkpt>
      <trkpt lat="40.359447654" lon="0.407176930">
        <ele>37.63</ele>
        <time>2013-05-18T16:27:58Z</time>
      </trkpt>
      <trkpt lat="40.359591991" lon="0.407247255">
        <ele>37.15</ele>
        <time>2013-05-18T16:28:04Z</time>
      </trkpt>
      <trkpt lat="40.359613867" lon="0.407264689">
        <ele>37.15</ele>
        <time>2013-05-18T16:28:05Z</time>
      </trkpt>
      <trkpt lat="40.359679330" lon="0.407451941">
        <ele>38.11</ele>
        <time>2013-05-18T16:28:12Z</time>
      </trkpt>
      <trkpt lat="40.359672625" lon="0.407571718">
        <ele>40.03</ele>
        <time>2013-05-18T16:28:17Z</time>
      </trkpt>
      <trkpt lat="40.359634822" lon="0.407607257">
        <ele>40.51</ele>
        <time>2013-05-18T16:28:20Z</time>
      </trkpt>
      <trkpt lat="40.359585704" lon="0.407604827">
        <ele>42.44</ele>
        <time>2013-05-18T16:28:23Z</time>
      </trkpt>
      <trkpt lat="40.359554021" lon="0.407569958">
        <ele>42.44</ele>
        <time>2013-05-18T16:28:26Z</time>
      </trkpt>
      <trkpt lat="40.359526528" lon="0.407545399">
        <ele>44.36</ele>
        <time>2013-05-18T16:28:28Z</time>
      </trkpt>
      <trkpt lat="40.359471040" lon="0.407515643">
        <ele>45.32</ele>
        <time>2013-05-18T16:28:31Z</time>
      </trkpt>
      <trkpt lat="40.359450169" lon="0.407489156">
        <ele>45.80</ele>
        <time>2013-05-18T16:28:33Z</time>
      </trkpt>
      <trkpt lat="40.359414630" lon="0.407421431">
        <ele>46.28</ele>
        <time>2013-05-18T16:28:37Z</time>
      </trkpt>
      <trkpt lat="40.359192593" lon="0.407344401">
        <ele>46.76</ele>
        <time>2013-05-18T16:28:47Z</time>
      </trkpt>
      <trkpt lat="40.359057561" lon="0.407391926">
        <ele>48.20</ele>
        <time>2013-05-18T16:28:53Z</time>
      </trkpt>
      <trkpt lat="40.359036606" lon="0.407394525">
        <ele>48.68</ele>
        <time>2013-05-18T16:28:54Z</time>
      </trkpt>
      <trkpt lat="40.358862765" lon="0.407471135">
        <ele>50.61</ele>
        <time>2013-05-18T16:29:04Z</time>
      </trkpt>
      <trkpt lat="40.358845750" lon="0.407438111">
        <ele>50.13</ele>
        <time>2013-05-18T16:29:10Z</time>
      </trkpt>
      <trkpt lat="40.358804846" lon="0.407434842">
        <ele>50.61</ele>
        <time>2013-05-18T16:29:29Z</time>
      </trkpt>
      <trkpt lat="40.358777689" lon="0.407454288">
        <ele>50.61</ele>
        <time>2013-05-18T16:29:44Z</time>
      </trkpt>
      <trkpt lat="40.358758830" lon="0.407446660">
        <ele>51.09</ele>
        <time>2013-05-18T16:29:59Z</time>
      </trkpt>
      <trkpt lat="40.358739216" lon="0.407476248">
        <ele>51.09</ele>
        <time>2013-05-18T16:30:17Z</time>
      </trkpt>
      <trkpt lat="40.358723793" lon="0.407482367">
        <ele>51.09</ele>
        <time>2013-05-18T16:30:27Z</time>
      </trkpt>
      <trkpt lat="40.358705102" lon="0.407471303">
        <ele>50.61</ele>
        <time>2013-05-18T16:30:29Z</time>
      </trkpt>
      <trkpt lat="40.358705521" lon="0.407435764">
        <ele>50.61</ele>
        <time>2013-05-18T16:30:31Z</time>
      </trkpt>
      <trkpt lat="40.358624551" lon="0.407452527">
        <ele>50.13</ele>
        <time>2013-05-18T16:30:37Z</time>
      </trkpt>
      <trkpt lat="40.358590856" lon="0.407488737">
        <ele>50.13</ele>
        <time>2013-05-18T16:30:42Z</time>
      </trkpt>
      <trkpt lat="40.358527657" lon="0.407614298">
        <ele>46.76</ele>
        <time>2013-05-18T16:30:50Z</time>
      </trkpt>
      <trkpt lat="40.358517682" lon="0.407629050">
        <ele>47.24</ele>
        <time>2013-05-18T16:30:51Z</time>
      </trkpt>
      <trkpt lat="40.358489687" lon="0.407673139">
        <ele>45.80</ele>
        <time>2013-05-18T16:30:58Z</time>
      </trkpt>
      <trkpt lat="40.358483652" lon="0.407681018">
        <ele>45.32</ele>
        <time>2013-05-18T16:30:59Z</time>
      </trkpt>
      <trkpt lat="40.358495638" lon="0.407720245">
        <ele>45.32</ele>
        <time>2013-05-18T16:31:03Z</time>
      </trkpt>
      <trkpt lat="40.358497817" lon="0.407771040">
        <ele>45.32</ele>
        <time>2013-05-18T16:31:06Z</time>
      </trkpt>
      <trkpt lat="40.358293466" lon="0.407882771">
        <ele>43.40</ele>
        <time>2013-05-18T16:31:14Z</time>
      </trkpt>
      <trkpt lat="40.358258011" lon="0.407872461">
        <ele>42.92</ele>
        <time>2013-05-18T16:31:20Z</time>
      </trkpt>
      <trkpt lat="40.358343842" lon="0.407884363">
        <ele>42.92</ele>
        <time>2013-05-18T16:31:30Z</time>
      </trkpt>
      <trkpt lat="40.358205456" lon="0.407906407">
        <ele>42.92</ele>
        <time>2013-05-18T16:31:44Z</time>
      </trkpt>
      <trkpt lat="40.358204450" lon="0.407912778">
        <ele>42.44</ele>
        <time>2013-05-18T16:31:46Z</time>
      </trkpt>
      <trkpt lat="40.358239235" lon="0.407927949">
        <ele>41.95</ele>
        <time>2013-05-18T16:31:50Z</time>
      </trkpt>
      <trkpt lat="40.358269997" lon="0.407920741">
        <ele>40.99</ele>
        <time>2013-05-18T16:31:53Z</time>
      </trkpt>
      <trkpt lat="40.358364461" lon="0.407979330">
        <ele>41.47</ele>
        <time>2013-05-18T16:32:03Z</time>
      </trkpt>
      <trkpt lat="40.358329425" lon="0.408059796">
        <ele>41.95</ele>
        <time>2013-05-18T16:32:13Z</time>
      </trkpt>
      <trkpt lat="40.358295813" lon="0.408069519">
        <ele>41.95</ele>
        <time>2013-05-18T16:32:14Z</time>
      </trkpt>
      <trkpt lat="40.358142005" lon="0.408156607">
        <ele>40.03</ele>
        <time>2013-05-18T16:32:23Z</time>
      </trkpt>
      <trkpt lat="40.358135551" lon="0.408156523">
        <ele>40.03</ele>
        <time>2013-05-18T16:32:31Z</time>
      </trkpt>
      <trkpt lat="40.358146029" lon="0.408167001">
        <ele>40.03</ele>
        <time>2013-05-18T16:32:46Z</time>
      </trkpt>
      <trkpt lat="40.358139407" lon="0.408260794">
        <ele>39.07</ele>
        <time>2013-05-18T16:32:51Z</time>
      </trkpt>
      <trkpt lat="40.358126499" lon="0.408285353">
        <ele>38.59</ele>
        <time>2013-05-18T16:32:58Z</time>
      </trkpt>
      <trkpt lat="40.358122308" lon="0.408340506">
        <ele>37.63</ele>
        <time>2013-05-18T16:33:05Z</time>
      </trkpt>
      <trkpt lat="40.358091379" lon="0.408328772">
        <ele>37.63</ele>
        <time>2013-05-18T16:33:09Z</time>
      </trkpt>
      <trkpt lat="40.358077213" lon="0.408370011">
        <ele>37.63</ele>
        <time>2013-05-18T16:33:16Z</time>
      </trkpt>
      <trkpt lat="40.358039076" lon="0.408363305">
        <ele>38.11</ele>
        <time>2013-05-18T16:33:25Z</time>
      </trkpt>
      <trkpt lat="40.358011331" lon="0.408392055">
        <ele>38.11</ele>
        <time>2013-05-18T16:33:53Z</time>
      </trkpt>
      <trkpt lat="40.358027928" lon="0.408408735">
        <ele>38.11</ele>
        <time>2013-05-18T16:34:15Z</time>
      </trkpt>
      <trkpt lat="40.358035220" lon="0.408415105">
        <ele>37.63</ele>
        <time>2013-05-18T16:34:32Z</time>
      </trkpt>
      <trkpt lat="40.358031364" lon="0.408374704">
        <ele>37.63</ele>
        <time>2013-05-18T16:34:55Z</time>
      </trkpt>
      <trkpt lat="40.358029353" lon="0.408357186">
        <ele>38.11</ele>
        <time>2013-05-18T16:35:13Z</time>
      </trkpt>
      <trkpt lat="40.358018456" lon="0.408349391">
        <ele>38.59</ele>
        <time>2013-05-18T16:35:27Z</time>
      </trkpt>
      <trkpt lat="40.358013175" lon="0.408354253">
        <ele>38.11</ele>
        <time>2013-05-18T16:35:39Z</time>
      </trkpt>
      <trkpt lat="40.358011751" lon="0.408358779">
        <ele>37.63</ele>
        <time>2013-05-18T16:35:53Z</time>
      </trkpt>
      <trkpt lat="40.358007057" lon="0.408374369">
        <ele>37.63</ele>
        <time>2013-05-18T16:36:03Z</time>
      </trkpt>
      <trkpt lat="40.358003369" lon="0.408379231">
        <ele>37.63</ele>
        <time>2013-05-18T16:36:17Z</time>
      </trkpt>
      <trkpt lat="40.358012253" lon="0.408366909">
        <ele>38.59</ele>
        <time>2013-05-18T16:36:27Z</time>
      </trkpt>
      <trkpt lat="40.357988616" lon="0.408366658">
        <ele>37.15</ele>
        <time>2013-05-18T16:36:35Z</time>
      </trkpt>
      <trkpt lat="40.357992472" lon="0.408346290">
        <ele>36.67</ele>
        <time>2013-05-18T16:36:46Z</time>
      </trkpt>
      <trkpt lat="40.357988449" lon="0.408350732">
        <ele>36.67</ele>
        <time>2013-05-18T16:36:47Z</time>
      </trkpt>
      <trkpt lat="40.357888201" lon="0.408406723">
        <ele>35.71</ele>
        <time>2013-05-18T16:36:57Z</time>
      </trkpt>
      <trkpt lat="40.357876383" lon="0.408403706">
        <ele>35.23</ele>
        <time>2013-05-18T16:37:06Z</time>
      </trkpt>
      <trkpt lat="40.357866492" lon="0.408401694">
        <ele>35.23</ele>
        <time>2013-05-18T16:37:08Z</time>
      </trkpt>
      <trkpt lat="40.357783763" lon="0.408377219">
        <ele>35.71</ele>
        <time>2013-05-18T16:37:13Z</time>
      </trkpt>
      <trkpt lat="40.357696339" lon="0.408340925">
        <ele>34.26</ele>
        <time>2013-05-18T16:37:20Z</time>
      </trkpt>
      <trkpt lat="40.357647724" lon="0.408341009">
        <ele>32.82</ele>
        <time>2013-05-18T16:37:27Z</time>
      </trkpt>
      <trkpt lat="40.357584106" lon="0.408261465">
        <ele>31.86</ele>
        <time>2013-05-18T16:37:33Z</time>
      </trkpt>
      <trkpt lat="40.357480673" lon="0.408085780">
        <ele>28.98</ele>
        <time>2013-05-18T16:37:40Z</time>
      </trkpt>
      <trkpt lat="40.357436920" lon="0.408024089">
        <ele>28.02</ele>
        <time>2013-05-18T16:37:43Z</time>
      </trkpt>
      <trkpt lat="40.357344970" lon="0.408033645">
        <ele>27.53</ele>
        <time>2013-05-18T16:37:47Z</time>
      </trkpt>
      <trkpt lat="40.357269198" lon="0.407998776">
        <ele>26.57</ele>
        <time>2013-05-18T16:37:52Z</time>
      </trkpt>
      <trkpt lat="40.357256792" lon="0.407949658">
        <ele>25.61</ele>
        <time>2013-05-18T16:38:00Z</time>
      </trkpt>
      <trkpt lat="40.357261905" lon="0.407945802">
        <ele>25.61</ele>
        <time>2013-05-18T16:38:12Z</time>
      </trkpt>
      <trkpt lat="40.357162664" lon="0.407780679">
        <ele>24.65</ele>
        <time>2013-05-18T16:38:18Z</time>
      </trkpt>
      <trkpt lat="40.357086807" lon="0.407544896">
        <ele>24.17</ele>
        <time>2013-05-18T16:38:23Z</time>
      </trkpt>
      <trkpt lat="40.357009275" lon="0.407337444">
        <ele>22.73</ele>
        <time>2013-05-18T16:38:28Z</time>
      </trkpt>
      <trkpt lat="40.356940376" lon="0.407195371">
        <ele>21.29</ele>
        <time>2013-05-18T16:38:34Z</time>
      </trkpt>
      <trkpt lat="40.356932748" lon="0.407117503">
        <ele>20.81</ele>
        <time>2013-05-18T16:38:40Z</time>
      </trkpt>
      <trkpt lat="40.356921768" lon="0.407107696">
        <ele>20.32</ele>
        <time>2013-05-18T16:38:54Z</time>
      </trkpt>
      <trkpt lat="40.356971473" lon="0.406942740">
        <ele>20.32</ele>
        <time>2013-05-18T16:39:01Z</time>
      </trkpt>
      <trkpt lat="40.357013131" lon="0.406831680">
        <ele>19.84</ele>
        <time>2013-05-18T16:39:07Z</time>
      </trkpt>
      <trkpt lat="40.357051268" lon="0.406747861">
        <ele>19.36</ele>
        <time>2013-05-18T16:39:18Z</time>
      </trkpt>
      <trkpt lat="40.357133243" lon="0.406526076">
        <ele>16.96</ele>
        <time>2013-05-18T16:39:24Z</time>
      </trkpt>
      <trkpt lat="40.357196694" lon="0.406417530">
        <ele>16.00</ele>
        <time>2013-05-18T16:39:29Z</time>
      </trkpt>
      <trkpt lat="40.357284788" lon="0.406323234">
        <ele>15.52</ele>
        <time>2013-05-18T16:39:35Z</time>
      </trkpt>
      <trkpt lat="40.357321417" lon="0.406335890">
        <ele>15.04</ele>
        <time>2013-05-18T16:39:52Z</time>
      </trkpt>
      <trkpt lat="40.357383024" lon="0.406046212">
        <ele>13.12</ele>
        <time>2013-05-18T16:39:59Z</time>
      </trkpt>
      <trkpt lat="40.357426777" lon="0.405943114">
        <ele>11.67</ele>
        <time>2013-05-18T16:40:01Z</time>
      </trkpt>
      <trkpt lat="40.357674547" lon="0.405749660">
        <ele>11.19</ele>
        <time>2013-05-18T16:40:07Z</time>
      </trkpt>
      <trkpt lat="40.357974032" lon="0.405583363">
        <ele>10.23</ele>
        <time>2013-05-18T16:40:16Z</time>
      </trkpt>
      <trkpt lat="40.358155500" lon="0.405480098">
        <ele>11.19</ele>
        <time>2013-05-18T16:40:23Z</time>
      </trkpt>
      <trkpt lat="40.358332442" lon="0.405309945">
        <ele>10.71</ele>
        <time>2013-05-18T16:40:30Z</time>
      </trkpt>
      <trkpt lat="40.358232111" lon="0.405093776">
        <ele>10.71</ele>
        <time>2013-05-18T16:40:35Z</time>
      </trkpt>
      <trkpt lat="40.357926590" lon="0.404667724">
        <ele>10.71</ele>
        <time>2013-05-18T16:40:44Z</time>
      </trkpt>
      <trkpt lat="40.357943941" lon="0.404428253">
        <ele>11.19</ele>
        <time>2013-05-18T16:40:48Z</time>
      </trkpt>
      <trkpt lat="40.357973026" lon="0.404379470">
        <ele>11.19</ele>
        <time>2013-05-18T16:40:49Z</time>
      </trkpt>
      <trkpt lat="40.358214257" lon="0.403947299">
        <ele>10.23</ele>
        <time>2013-05-18T16:40:58Z</time>
      </trkpt>
      <trkpt lat="40.358377537" lon="0.403629793">
        <ele>11.19</ele>
        <time>2013-05-18T16:41:06Z</time>
      </trkpt>
      <trkpt lat="40.358509384" lon="0.403285800">
        <ele>10.23</ele>
        <time>2013-05-18T16:41:14Z</time>
      </trkpt>
      <trkpt lat="40.358518856" lon="0.403240202">
        <ele>10.23</ele>
        <time>2013-05-18T16:41:15Z</time>
      </trkpt>
      <trkpt lat="40.358480802" lon="0.403099051">
        <ele>10.71</ele>
        <time>2013-05-18T16:41:20Z</time>
      </trkpt>
      <trkpt lat="40.358496727" lon="0.403045490">
        <ele>11.19</ele>
        <time>2013-05-18T16:41:23Z</time>
      </trkpt>
      <trkpt lat="40.358577194" lon="0.402785568">
        <ele>11.19</ele>
        <time>2013-05-18T16:41:32Z</time>
      </trkpt>
      <trkpt lat="40.358644836" lon="0.402448783">
        <ele>11.19</ele>
        <time>2013-05-18T16:41:40Z</time>
      </trkpt>
      <trkpt lat="40.358698647" lon="0.401940672">
        <ele>11.19</ele>
        <time>2013-05-18T16:41:50Z</time>
      </trkpt>
      <trkpt lat="40.358710717" lon="0.401628111">
        <ele>10.71</ele>
        <time>2013-05-18T16:41:56Z</time>
      </trkpt>
      <trkpt lat="40.358681381" lon="0.401044143">
        <ele>10.71</ele>
        <time>2013-05-18T16:42:07Z</time>
      </trkpt>
      <trkpt lat="40.358638549" lon="0.400738791">
        <ele>11.19</ele>
        <time>2013-05-18T16:42:15Z</time>
      </trkpt>
      <trkpt lat="40.358560346" lon="0.400316846">
        <ele>11.67</ele>
        <time>2013-05-18T16:42:24Z</time>
      </trkpt>
      <trkpt lat="40.358535871" lon="0.400037058">
        <ele>11.67</ele>
        <time>2013-05-18T16:42:31Z</time>
      </trkpt>
      <trkpt lat="40.358807612" lon="0.399974864">
        <ele>11.19</ele>
        <time>2013-05-18T16:43:38Z</time>
      </trkpt>
      <trkpt lat="40.358885061" lon="0.399991963">
        <ele>10.23</ele>
        <time>2013-05-18T16:45:23Z</time>
      </trkpt>
      <trkpt lat="40.358892018" lon="0.399975535">
        <ele>10.71</ele>
        <time>2013-05-18T16:45:27Z</time>
      </trkpt>
      <trkpt lat="40.358969215" lon="0.399860451">
        <ele>11.19</ele>
        <time>2013-05-18T16:45:33Z</time>
      </trkpt>
      <trkpt lat="40.359005593" lon="0.399798173">
        <ele>10.71</ele>
        <time>2013-05-18T16:45:35Z</time>
      </trkpt>
      <trkpt lat="40.359064266" lon="0.399678564">
        <ele>9.75</ele>
        <time>2013-05-18T16:45:38Z</time>
      </trkpt>
      <trkpt lat="40.359068792" lon="0.399352172">
        <ele>10.23</ele>
        <time>2013-05-18T16:45:44Z</time>
      </trkpt>
      <trkpt lat="40.358908949" lon="0.399139021">
        <ele>10.23</ele>
        <time>2013-05-18T16:45:50Z</time>
      </trkpt>
      <trkpt lat="40.358705604" lon="0.399114797">
        <ele>9.75</ele>
        <time>2013-05-18T16:45:55Z</time>
      </trkpt>
      <trkpt lat="40.358559508" lon="0.399068026">
        <ele>10.71</ele>
        <time>2013-05-18T16:46:00Z</time>
      </trkpt>
      <trkpt lat="40.358544001" lon="0.398923354">
        <ele>10.71</ele>
        <time>2013-05-18T16:46:03Z</time>
      </trkpt>
      <trkpt lat="40.358570740" lon="0.398639962">
        <ele>10.71</ele>
        <time>2013-05-18T16:46:08Z</time>
      </trkpt>
      <trkpt lat="40.358580044" lon="0.398304937">
        <ele>10.71</ele>
        <time>2013-05-18T16:46:14Z</time>
      </trkpt>
      <trkpt lat="40.358378962" lon="0.398283731">
        <ele>10.71</ele>
        <time>2013-05-18T16:46:18Z</time>
      </trkpt>
      <trkpt lat="40.357919214" lon="0.398438545">
        <ele>11.19</ele>
        <time>2013-05-18T16:46:27Z</time>
      </trkpt>
      <trkpt lat="40.357708745" lon="0.398522783">
        <ele>11.67</ele>
        <time>2013-05-18T16:46:31Z</time>
      </trkpt>
      <trkpt lat="40.357544711" lon="0.398660582">
        <ele>11.67</ele>
        <time>2013-05-18T16:46:37Z</time>
      </trkpt>
      <trkpt lat="40.357566755" lon="0.398670221">
        <ele>11.67</ele>
        <time>2013-05-18T16:46:53Z</time>
      </trkpt>
      <trkpt lat="40.357563151" lon="0.398665108">
        <ele>10.71</ele>
        <time>2013-05-18T16:46:57Z</time>
      </trkpt>
      <trkpt lat="40.357447146" lon="0.398560669">
        <ele>11.19</ele>
        <time>2013-05-18T16:47:04Z</time>
      </trkpt>
      <trkpt lat="40.357386041" lon="0.398496296">
        <ele>11.67</ele>
        <time>2013-05-18T16:47:08Z</time>
      </trkpt>
      <trkpt lat="40.357247321" lon="0.398334274">
        <ele>12.15</ele>
        <time>2013-05-18T16:47:17Z</time>
      </trkpt>
      <trkpt lat="40.356995864" lon="0.398046188">
        <ele>15.04</ele>
        <time>2013-05-18T16:47:30Z</time>
      </trkpt>
      <trkpt lat="40.356821436" lon="0.397884753">
        <ele>17.44</ele>
        <time>2013-05-18T16:47:40Z</time>
      </trkpt>
      <trkpt lat="40.356681794" lon="0.398020288">
        <ele>19.36</ele>
        <time>2013-05-18T16:47:48Z</time>
      </trkpt>
      <trkpt lat="40.356460596" lon="0.398221705">
        <ele>21.77</ele>
        <time>2013-05-18T16:47:57Z</time>
      </trkpt>
      <trkpt lat="40.356307961" lon="0.398338381">
        <ele>24.17</ele>
        <time>2013-05-18T16:48:03Z</time>
      </trkpt>
      <trkpt lat="40.356109980" lon="0.398420105">
        <ele>26.57</ele>
        <time>2013-05-18T16:48:11Z</time>
      </trkpt>
      <trkpt lat="40.356029598" lon="0.398410717">
        <ele>27.53</ele>
        <time>2013-05-18T16:48:14Z</time>
      </trkpt>
      <trkpt lat="40.355773363" lon="0.398465283">
        <ele>28.50</ele>
        <time>2013-05-18T16:48:24Z</time>
      </trkpt>
      <trkpt lat="40.355595164" lon="0.398499481">
        <ele>28.02</ele>
        <time>2013-05-18T16:48:32Z</time>
      </trkpt>
      <trkpt lat="40.355437081" lon="0.398509540">
        <ele>28.50</ele>
        <time>2013-05-18T16:48:39Z</time>
      </trkpt>
      <trkpt lat="40.355169112" lon="0.398433600">
        <ele>27.53</ele>
        <time>2013-05-18T16:48:47Z</time>
      </trkpt>
      <trkpt lat="40.354871638" lon="0.398267638">
        <ele>25.61</ele>
        <time>2013-05-18T16:48:53Z</time>
      </trkpt>
      <trkpt lat="40.354677932" lon="0.398192452">
        <ele>24.17</ele>
        <time>2013-05-18T16:48:56Z</time>
      </trkpt>
      <trkpt lat="40.354578188" lon="0.398117267">
        <ele>22.73</ele>
        <time>2013-05-18T16:48:58Z</time>
      </trkpt>
      <trkpt lat="40.354516413" lon="0.397959100">
        <ele>21.29</ele>
        <time>2013-05-18T16:49:00Z</time>
      </trkpt>
      <trkpt lat="40.354479784" lon="0.397764556">
        <ele>20.32</ele>
        <time>2013-05-18T16:49:02Z</time>
      </trkpt>
      <trkpt lat="40.354269734" lon="0.397489462">
        <ele>19.84</ele>
        <time>2013-05-18T16:49:06Z</time>
      </trkpt>
      <trkpt lat="40.353967398" lon="0.397294583">
        <ele>19.84</ele>
        <time>2013-05-18T16:49:11Z</time>
      </trkpt>
      <trkpt lat="40.353926411" lon="0.397243537">
        <ele>19.84</ele>
        <time>2013-05-18T16:49:12Z</time>
      </trkpt>
      <trkpt lat="40.353694819" lon="0.396898370">
        <ele>20.32</ele>
        <time>2013-05-18T16:49:20Z</time>
      </trkpt>
      <trkpt lat="40.353545537" lon="0.396595951">
        <ele>18.88</ele>
        <time>2013-05-18T16:49:25Z</time>
      </trkpt>
      <trkpt lat="40.353524750" lon="0.396284983">
        <ele>18.40</ele>
        <time>2013-05-18T16:49:29Z</time>
      </trkpt>
      <trkpt lat="40.353528354" lon="0.395535305">
        <ele>17.92</ele>
        <time>2013-05-18T16:49:39Z</time>
      </trkpt>
      <trkpt lat="40.353518128" lon="0.395463137">
        <ele>17.44</ele>
        <time>2013-05-18T16:49:40Z</time>
      </trkpt>
      <trkpt lat="40.353282262" lon="0.394689990">
        <ele>15.52</ele>
        <time>2013-05-18T16:49:51Z</time>
      </trkpt>
      <trkpt lat="40.352953942" lon="0.393885998">
        <ele>14.08</ele>
        <time>2013-05-18T16:50:02Z</time>
      </trkpt>
      <trkpt lat="40.352609195" lon="0.393155850">
        <ele>11.67</ele>
        <time>2013-05-18T16:50:13Z</time>
      </trkpt>
      <trkpt lat="40.352351954" lon="0.392678836">
        <ele>13.12</ele>
        <time>2013-05-18T16:50:22Z</time>
      </trkpt>
      <trkpt lat="40.352060767" lon="0.392271141">
        <ele>13.12</ele>
        <time>2013-05-18T16:50:31Z</time>
      </trkpt>
      <trkpt lat="40.351645527" lon="0.391910132">
        <ele>12.63</ele>
        <time>2013-05-18T16:50:40Z</time>
      </trkpt>
      <trkpt lat="40.351590291" lon="0.391869145">
        <ele>12.15</ele>
        <time>2013-05-18T16:50:41Z</time>
      </trkpt>
      <trkpt lat="40.351193240" lon="0.391776860">
        <ele>11.67</ele>
        <time>2013-05-18T16:50:47Z</time>
      </trkpt>
      <trkpt lat="40.350535596" lon="0.391839221">
        <ele>12.63</ele>
        <time>2013-05-18T16:50:57Z</time>
      </trkpt>
      <trkpt lat="40.350252455" lon="0.391851962">
        <ele>14.56</ele>
        <time>2013-05-18T16:51:03Z</time>
      </trkpt>
      <trkpt lat="40.349974427" lon="0.391860427">
        <ele>17.92</ele>
        <time>2013-05-18T16:51:11Z</time>
      </trkpt>
      <trkpt lat="40.349823385" lon="0.391743165">
        <ele>19.36</ele>
        <time>2013-05-18T16:51:17Z</time>
      </trkpt>
      <trkpt lat="40.349729927" lon="0.391528253">
        <ele>22.25</ele>
        <time>2013-05-18T16:51:23Z</time>
      </trkpt>
      <trkpt lat="40.349586597" lon="0.391432364">
        <ele>22.73</ele>
        <time>2013-05-18T16:51:28Z</time>
      </trkpt>
      <trkpt lat="40.349514093" lon="0.391416522">
        <ele>22.73</ele>
        <time>2013-05-18T16:51:30Z</time>
      </trkpt>
      <trkpt lat="40.349347545" lon="0.391324488">
        <ele>21.29</ele>
        <time>2013-05-18T16:51:34Z</time>
      </trkpt>
      <trkpt lat="40.348973544" lon="0.390984770">
        <ele>20.81</ele>
        <time>2013-05-18T16:51:42Z</time>
      </trkpt>
      <trkpt lat="40.348458979" lon="0.390554275">
        <ele>18.40</ele>
        <time>2013-05-18T16:51:51Z</time>
      </trkpt>
      <trkpt lat="40.348205343" lon="0.390304495">
        <ele>16.00</ele>
        <time>2013-05-18T16:51:55Z</time>
      </trkpt>
      <trkpt lat="40.348100821" lon="0.390120931">
        <ele>14.56</ele>
        <time>2013-05-18T16:51:57Z</time>
      </trkpt>
      <trkpt lat="40.347786583" lon="0.389318783">
        <ele>12.15</ele>
        <time>2013-05-18T16:52:05Z</time>
      </trkpt>
      <trkpt lat="40.347741907" lon="0.389228845">
        <ele>12.15</ele>
        <time>2013-05-18T16:52:06Z</time>
      </trkpt>
      <trkpt lat="40.347478129" lon="0.389023991">
        <ele>11.19</ele>
        <time>2013-05-18T16:52:10Z</time>
      </trkpt>
      <trkpt lat="40.347251566" lon="0.389052909">
        <ele>11.19</ele>
        <time>2013-05-18T16:52:13Z</time>
      </trkpt>
      <trkpt lat="40.347054172" lon="0.389115606">
        <ele>11.19</ele>
        <time>2013-05-18T16:52:16Z</time>
      </trkpt>
      <trkpt lat="40.346771535" lon="0.389107391">
        <ele>11.19</ele>
        <time>2013-05-18T16:52:21Z</time>
      </trkpt>
      <trkpt lat="40.346341962" lon="0.388803463">
        <ele>11.67</ele>
        <time>2013-05-18T16:52:32Z</time>
      </trkpt>
      <trkpt lat="40.346235931" lon="0.388645213">
        <ele>12.63</ele>
        <time>2013-05-18T16:52:36Z</time>
      </trkpt>
      <trkpt lat="40.346210701" lon="0.388693577">
        <ele>11.67</ele>
        <time>2013-05-18T16:52:40Z</time>
      </trkpt>
      <trkpt lat="40.346206594" lon="0.388796004">
        <ele>11.67</ele>
        <time>2013-05-18T16:52:44Z</time>
      </trkpt>
      <trkpt lat="40.346203828" lon="0.388806229">
        <ele>11.67</ele>
        <time>2013-05-18T16:52:47Z</time>
      </trkpt>
      <trkpt lat="40.346197877" lon="0.388835650">
        <ele>11.19</ele>
        <time>2013-05-18T16:52:55Z</time>
      </trkpt>
      <trkpt lat="40.346202487" lon="0.388827017">
        <ele>11.19</ele>
        <time>2013-05-18T16:53:15Z</time>
      </trkpt>
      <trkpt lat="40.346200559" lon="0.388820982">
        <ele>10.71</ele>
        <time>2013-05-18T16:53:33Z</time>
      </trkpt>
      <trkpt lat="40.346200224" lon="0.388825759">
        <ele>10.23</ele>
        <time>2013-05-18T16:53:52Z</time>
      </trkpt>
      <trkpt lat="40.346177761" lon="0.388827268">
        <ele>10.71</ele>
        <time>2013-05-18T16:54:07Z</time>
      </trkpt>
      <trkpt lat="40.346174492" lon="0.388831375">
        <ele>10.23</ele>
        <time>2013-05-18T16:54:23Z</time>
      </trkpt>
      <trkpt lat="40.346172228" lon="0.388841685">
        <ele>10.71</ele>
        <time>2013-05-18T16:54:39Z</time>
      </trkpt>
      <trkpt lat="40.346173570" lon="0.388846882">
        <ele>10.71</ele>
        <time>2013-05-18T16:55:02Z</time>
      </trkpt>
      <trkpt lat="40.346171809" lon="0.388846630">
        <ele>10.23</ele>
        <time>2013-05-18T16:55:03Z</time>
      </trkpt>
      <trkpt lat="40.346017415" lon="0.388860209">
        <ele>10.23</ele>
        <time>2013-05-18T16:55:11Z</time>
      </trkpt>
      <trkpt lat="40.345796300" lon="0.388841601">
        <ele>11.19</ele>
        <time>2013-05-18T16:55:19Z</time>
      </trkpt>
      <trkpt lat="40.345555572" lon="0.388745293">
        <ele>10.23</ele>
        <time>2013-05-18T16:55:26Z</time>
      </trkpt>
      <trkpt lat="40.345289698" lon="0.388670107">
        <ele>10.23</ele>
        <time>2013-05-18T16:55:33Z</time>
      </trkpt>
      <trkpt lat="40.345060704" lon="0.388585031">
        <ele>9.75</ele>
        <time>2013-05-18T16:55:38Z</time>
      </trkpt>
      <trkpt lat="40.344791058" lon="0.388389984">
        <ele>11.19</ele>
        <time>2013-05-18T16:55:46Z</time>
      </trkpt>
      <trkpt lat="40.344713274" lon="0.388181526">
        <ele>11.19</ele>
        <time>2013-05-18T16:55:51Z</time>
      </trkpt>
      <trkpt lat="40.344660385" lon="0.387824709">
        <ele>12.15</ele>
        <time>2013-05-18T16:55:59Z</time>
      </trkpt>
      <trkpt lat="40.344612021" lon="0.387683641">
        <ele>11.19</ele>
        <time>2013-05-18T16:56:02Z</time>
      </trkpt>
      <trkpt lat="40.344423009" lon="0.387606947">
        <ele>10.71</ele>
        <time>2013-05-18T16:56:07Z</time>
      </trkpt>
      <trkpt lat="40.344117908" lon="0.387862679">
        <ele>11.67</ele>
        <time>2013-05-18T16:56:16Z</time>
      </trkpt>
      <trkpt lat="40.343839293" lon="0.387933338">
        <ele>11.67</ele>
        <time>2013-05-18T16:56:23Z</time>
      </trkpt>
      <trkpt lat="40.343482560" lon="0.387946917">
        <ele>12.15</ele>
        <time>2013-05-18T16:56:32Z</time>
      </trkpt>
      <trkpt lat="40.343286255" lon="0.387890339">
        <ele>12.63</ele>
        <time>2013-05-18T16:56:37Z</time>
      </trkpt>
      <trkpt lat="40.342907310" lon="0.387700237">
        <ele>12.15</ele>
        <time>2013-05-18T16:56:47Z</time>
      </trkpt>
      <trkpt lat="40.342501290" lon="0.387430675">
        <ele>12.15</ele>
        <time>2013-05-18T16:56:58Z</time>
      </trkpt>
      <trkpt lat="40.342192585" lon="0.387107218">
        <ele>12.15</ele>
        <time>2013-05-18T16:57:07Z</time>
      </trkpt>
      <trkpt lat="40.341970548" lon="0.386914685">
        <ele>13.60</ele>
        <time>2013-05-18T16:57:14Z</time>
      </trkpt>
      <trkpt lat="40.341649773" lon="0.386665324">
        <ele>12.63</ele>
        <time>2013-05-18T16:57:23Z</time>
      </trkpt>
      <trkpt lat="40.341438130" lon="0.386402383">
        <ele>12.15</ele>
        <time>2013-05-18T16:57:30Z</time>
      </trkpt>
      <trkpt lat="40.341300415" lon="0.386066269">
        <ele>14.08</ele>
        <time>2013-05-18T16:57:38Z</time>
      </trkpt>
      <trkpt lat="40.341331679" lon="0.385806514">
        <ele>15.04</ele>
        <time>2013-05-18T16:57:44Z</time>
      </trkpt>
      <trkpt lat="40.341243669" lon="0.385585232">
        <ele>14.56</ele>
        <time>2013-05-18T16:57:50Z</time>
      </trkpt>
      <trkpt lat="40.341001516" lon="0.385305360">
        <ele>15.04</ele>
        <time>2013-05-18T16:57:59Z</time>
      </trkpt>
      <trkpt lat="40.340742767" lon="0.385101847">
        <ele>15.52</ele>
        <time>2013-05-18T16:58:07Z</time>
      </trkpt>
      <trkpt lat="40.340598933" lon="0.384860700">
        <ele>15.52</ele>
        <time>2013-05-18T16:58:14Z</time>
      </trkpt>
      <trkpt lat="40.340635143" lon="0.384678310">
        <ele>15.52</ele>
        <time>2013-05-18T16:58:18Z</time>
      </trkpt>
      <trkpt lat="40.340668503" lon="0.384599101">
        <ele>15.52</ele>
        <time>2013-05-18T16:58:20Z</time>
      </trkpt>
      <trkpt lat="40.340577224" lon="0.384328282">
        <ele>14.56</ele>
        <time>2013-05-18T16:58:26Z</time>
      </trkpt>
      <trkpt lat="40.340272710" lon="0.383923771">
        <ele>14.56</ele>
        <time>2013-05-18T16:58:36Z</time>
      </trkpt>
      <trkpt lat="40.339970542" lon="0.383585142">
        <ele>15.04</ele>
        <time>2013-05-18T16:58:45Z</time>
      </trkpt>
      <trkpt lat="40.339737274" lon="0.383383725">
        <ele>14.08</ele>
        <time>2013-05-18T16:58:52Z</time>
      </trkpt>
      <trkpt lat="40.339456396" lon="0.383167639">
        <ele>14.08</ele>
        <time>2013-05-18T16:58:59Z</time>
      </trkpt>
      <trkpt lat="40.339418510" lon="0.383153558">
        <ele>14.08</ele>
        <time>2013-05-18T16:59:00Z</time>
      </trkpt>
      <trkpt lat="40.339336870" lon="0.383156156">
        <ele>14.08</ele>
        <time>2013-05-18T16:59:02Z</time>
      </trkpt>
      <trkpt lat="40.338976197" lon="0.383329242">
        <ele>12.15</ele>
        <time>2013-05-18T16:59:09Z</time>
      </trkpt>
      <trkpt lat="40.338855246" lon="0.383375175">
        <ele>11.19</ele>
        <time>2013-05-18T16:59:11Z</time>
      </trkpt>
      <trkpt lat="40.338747539" lon="0.383443153">
        <ele>10.71</ele>
        <time>2013-05-18T16:59:13Z</time>
      </trkpt>
      <trkpt lat="40.338698756" lon="0.383484475">
        <ele>10.71</ele>
        <time>2013-05-18T16:59:14Z</time>
      </trkpt>
      <trkpt lat="40.338477977" lon="0.383469723">
        <ele>9.75</ele>
        <time>2013-05-18T16:59:18Z</time>
      </trkpt>
      <trkpt lat="40.338434055" lon="0.383416247">
        <ele>9.75</ele>
        <time>2013-05-18T16:59:19Z</time>
      </trkpt>
      <trkpt lat="40.338011691" lon="0.383007042">
        <ele>10.71</ele>
        <time>2013-05-18T16:59:30Z</time>
      </trkpt>
      <trkpt lat="40.337781021" lon="0.382691296">
        <ele>10.71</ele>
        <time>2013-05-18T16:59:37Z</time>
      </trkpt>
      <trkpt lat="40.337673901" lon="0.382581325">
        <ele>10.23</ele>
        <time>2013-05-18T16:59:40Z</time>
      </trkpt>
      <trkpt lat="40.337540461" lon="0.382409832">
        <ele>9.75</ele>
        <time>2013-05-18T16:59:44Z</time>
      </trkpt>
      <trkpt lat="40.337418253" lon="0.382064246">
        <ele>7.83</ele>
        <time>2013-05-18T16:59:50Z</time>
      </trkpt>
      <trkpt lat="40.337380366" lon="0.382022504">
        <ele>7.35</ele>
        <time>2013-05-18T16:59:51Z</time>
      </trkpt>
      <trkpt lat="40.337179871" lon="0.381843466">
        <ele>9.27</ele>
        <time>2013-05-18T16:59:57Z</time>
      </trkpt>
      <trkpt lat="40.336991781" lon="0.381615059">
        <ele>10.23</ele>
        <time>2013-05-18T17:00:04Z</time>
      </trkpt>
      <trkpt lat="40.336874351" lon="0.381302247">
        <ele>11.19</ele>
        <time>2013-05-18T17:00:12Z</time>
      </trkpt>
      <trkpt lat="40.336797740" lon="0.380982812">
        <ele>12.15</ele>
        <time>2013-05-18T17:00:21Z</time>
      </trkpt>
      <trkpt lat="40.336795980" lon="0.380566902">
        <ele>11.19</ele>
        <time>2013-05-18T17:00:30Z</time>
      </trkpt>
      <trkpt lat="40.336715011" lon="0.380373532">
        <ele>11.67</ele>
        <time>2013-05-18T17:00:35Z</time>
      </trkpt>
      <trkpt lat="40.336492471" lon="0.380061977">
        <ele>12.63</ele>
        <time>2013-05-18T17:00:45Z</time>
      </trkpt>
      <trkpt lat="40.336337658" lon="0.380059462">
        <ele>12.15</ele>
        <time>2013-05-18T17:00:49Z</time>
      </trkpt>
      <trkpt lat="40.336062731" lon="0.380122829">
        <ele>11.19</ele>
        <time>2013-05-18T17:00:56Z</time>
      </trkpt>
      <trkpt lat="40.335845891" lon="0.380020654">
        <ele>8.79</ele>
        <time>2013-05-18T17:01:02Z</time>
      </trkpt>
      <trkpt lat="40.335785877" lon="0.379902888">
        <ele>8.79</ele>
        <time>2013-05-18T17:01:05Z</time>
      </trkpt>
      <trkpt lat="40.335641373" lon="0.379426125">
        <ele>9.75</ele>
        <time>2013-05-18T17:01:16Z</time>
      </trkpt>
      <trkpt lat="40.335591836" lon="0.379257901">
        <ele>10.23</ele>
        <time>2013-05-18T17:01:20Z</time>
      </trkpt>
      <trkpt lat="40.335520087" lon="0.378867220">
        <ele>9.27</ele>
        <time>2013-05-18T17:01:30Z</time>
      </trkpt>
      <trkpt lat="40.335419588" lon="0.378556838">
        <ele>8.31</ele>
        <time>2013-05-18T17:01:38Z</time>
      </trkpt>
      <trkpt lat="40.335196797" lon="0.378134390">
        <ele>7.83</ele>
        <time>2013-05-18T17:01:48Z</time>
      </trkpt>
      <trkpt lat="40.334954895" lon="0.377890561">
        <ele>8.31</ele>
        <time>2013-05-18T17:01:57Z</time>
      </trkpt>
      <trkpt lat="40.334751131" lon="0.377698448">
        <ele>8.31</ele>
        <time>2013-05-18T17:02:05Z</time>
      </trkpt>
      <trkpt lat="40.334554492" lon="0.377510106">
        <ele>8.79</ele>
        <time>2013-05-18T17:02:12Z</time>
      </trkpt>
      <trkpt lat="40.334439576" lon="0.377304330">
        <ele>8.79</ele>
        <time>2013-05-18T17:02:18Z</time>
      </trkpt>
      <trkpt lat="40.334316110" lon="0.377017250">
        <ele>9.75</ele>
        <time>2013-05-18T17:02:27Z</time>
      </trkpt>
      <trkpt lat="40.334277470" lon="0.376941226">
        <ele>10.23</ele>
        <time>2013-05-18T17:02:30Z</time>
      </trkpt>
      <trkpt lat="40.334173534" lon="0.376665546">
        <ele>9.75</ele>
        <time>2013-05-18T17:02:39Z</time>
      </trkpt>
      <trkpt lat="40.334109580" lon="0.376476115">
        <ele>10.71</ele>
        <time>2013-05-18T17:02:46Z</time>
      </trkpt>
      <trkpt lat="40.334089296" lon="0.376362121">
        <ele>9.75</ele>
        <time>2013-05-18T17:02:54Z</time>
      </trkpt>
      <trkpt lat="40.334090386" lon="0.376353068">
        <ele>9.75</ele>
        <time>2013-05-18T17:03:06Z</time>
      </trkpt>
      <trkpt lat="40.334142270" lon="0.376288360">
        <ele>10.71</ele>
        <time>2013-05-18T17:03:12Z</time>
      </trkpt>
      <trkpt lat="40.334134307" lon="0.376260951">
        <ele>10.23</ele>
        <time>2013-05-18T17:03:13Z</time>
      </trkpt>
      <trkpt lat="40.334116872" lon="0.376167577">
        <ele>10.23</ele>
        <time>2013-05-18T17:03:16Z</time>
      </trkpt>
      <trkpt lat="40.334189627" lon="0.376068167">
        <ele>10.23</ele>
        <time>2013-05-18T17:03:21Z</time>
      </trkpt>
      <trkpt lat="40.334436139" lon="0.375837078">
        <ele>11.67</ele>
        <time>2013-05-18T17:03:32Z</time>
      </trkpt>
      <trkpt lat="40.334582655" lon="0.375648485">
        <ele>13.60</ele>
        <time>2013-05-18T17:03:40Z</time>
      </trkpt>
      <trkpt lat="40.334731098" lon="0.375461653">
        <ele>15.04</ele>
        <time>2013-05-18T17:03:48Z</time>
      </trkpt>
      <trkpt lat="40.334891360" lon="0.375287896">
        <ele>16.00</ele>
        <time>2013-05-18T17:03:56Z</time>
      </trkpt>
      <trkpt lat="40.335027231" lon="0.375127215">
        <ele>17.92</ele>
        <time>2013-05-18T17:04:04Z</time>
      </trkpt>
      <trkpt lat="40.335228061" lon="0.374902412">
        <ele>19.84</ele>
        <time>2013-05-18T17:04:15Z</time>
      </trkpt>
      <trkpt lat="40.335351527" lon="0.374661181">
        <ele>20.32</ele>
        <time>2013-05-18T17:04:24Z</time>
      </trkpt>
      <trkpt lat="40.335482284" lon="0.374387512">
        <ele>21.77</ele>
        <time>2013-05-18T17:04:34Z</time>
      </trkpt>
      <trkpt lat="40.335599212" lon="0.374144018">
        <ele>23.69</ele>
        <time>2013-05-18T17:04:43Z</time>
      </trkpt>
      <trkpt lat="40.335660735" lon="0.374011919">
        <ele>24.65</ele>
        <time>2013-05-18T17:04:51Z</time>
      </trkpt>
      <trkpt lat="40.335684372" lon="0.373990964">
        <ele>24.65</ele>
        <time>2013-05-18T17:04:56Z</time>
      </trkpt>
      <trkpt lat="40.335675823" lon="0.373933883">
        <ele>25.61</ele>
        <time>2013-05-18T17:05:01Z</time>
      </trkpt>
      <trkpt lat="40.335627710" lon="0.373912593">
        <ele>26.09</ele>
        <time>2013-05-18T17:05:07Z</time>
      </trkpt>
      <trkpt lat="40.335626034" lon="0.373891890">
        <ele>26.57</ele>
        <time>2013-05-18T17:05:09Z</time>
      </trkpt>
      <trkpt lat="40.335634165" lon="0.373841263">
        <ele>26.09</ele>
        <time>2013-05-18T17:05:17Z</time>
      </trkpt>
      <trkpt lat="40.335626034" lon="0.373833049">
        <ele>27.05</ele>
        <time>2013-05-18T17:05:24Z</time>
      </trkpt>
      <trkpt lat="40.335624525" lon="0.373822069">
        <ele>26.57</ele>
        <time>2013-05-18T17:05:42Z</time>
      </trkpt>
      <trkpt lat="40.335629387" lon="0.373849226">
        <ele>26.09</ele>
        <time>2013-05-18T17:06:07Z</time>
      </trkpt>
      <trkpt lat="40.335607845" lon="0.373845706">
        <ele>26.57</ele>
        <time>2013-05-18T17:06:27Z</time>
      </trkpt>
      <trkpt lat="40.335597284" lon="0.373849645">
        <ele>25.61</ele>
        <time>2013-05-18T17:06:45Z</time>
      </trkpt>
      <trkpt lat="40.335597703" lon="0.373866577">
        <ele>26.09</ele>
        <time>2013-05-18T17:07:07Z</time>
      </trkpt>
      <trkpt lat="40.335601224" lon="0.373874456">
        <ele>26.09</ele>
        <time>2013-05-18T17:07:31Z</time>
      </trkpt>
      <trkpt lat="40.335602565" lon="0.373880826">
        <ele>26.09</ele>
        <time>2013-05-18T17:07:57Z</time>
      </trkpt>
      <trkpt lat="40.335604912" lon="0.373871606">
        <ele>25.13</ele>
        <time>2013-05-18T17:08:15Z</time>
      </trkpt>
      <trkpt lat="40.335606923" lon="0.373872863">
        <ele>25.61</ele>
        <time>2013-05-18T17:08:29Z</time>
      </trkpt>
      <trkpt lat="40.335610779" lon="0.373868253">
        <ele>26.09</ele>
        <time>2013-05-18T17:08:42Z</time>
      </trkpt>
      <trkpt lat="40.335608264" lon="0.373879736">
        <ele>26.09</ele>
        <time>2013-05-18T17:09:07Z</time>
      </trkpt>
      <trkpt lat="40.335608767" lon="0.373874456">
        <ele>26.09</ele>
        <time>2013-05-18T17:09:28Z</time>
      </trkpt>
      <trkpt lat="40.335612036" lon="0.373865236">
        <ele>26.09</ele>
        <time>2013-05-18T17:09:42Z</time>
      </trkpt>
      <trkpt lat="40.335607929" lon="0.373874875">
        <ele>25.61</ele>
        <time>2013-05-18T17:09:49Z</time>
      </trkpt>
      <trkpt lat="40.335611701" lon="0.373878898">
        <ele>26.09</ele>
        <time>2013-05-18T17:10:01Z</time>
      </trkpt>
      <trkpt lat="40.335609438" lon="0.373890046">
        <ele>26.09</ele>
        <time>2013-05-18T17:10:05Z</time>
      </trkpt>
      <trkpt lat="40.335528553" lon="0.373918964">
        <ele>25.61</ele>
        <time>2013-05-18T17:10:10Z</time>
      </trkpt>
      <trkpt lat="40.335285561" lon="0.373947127">
        <ele>24.65</ele>
        <time>2013-05-18T17:10:17Z</time>
      </trkpt>
      <trkpt lat="40.335191181" lon="0.373958861">
        <ele>24.65</ele>
        <time>2013-05-18T17:10:19Z</time>
      </trkpt>
      <trkpt lat="40.334885828" lon="0.374120632">
        <ele>21.77</ele>
        <time>2013-05-18T17:10:25Z</time>
      </trkpt>
      <trkpt lat="40.334812319" lon="0.374137564">
        <ele>21.77</ele>
        <time>2013-05-18T17:10:27Z</time>
      </trkpt>
      <trkpt lat="40.334637975" lon="0.373991719">
        <ele>22.25</ele>
        <time>2013-05-18T17:10:33Z</time>
      </trkpt>
      <trkpt lat="40.334452987" lon="0.373846712">
        <ele>22.25</ele>
        <time>2013-05-18T17:10:39Z</time>
      </trkpt>
      <trkpt lat="40.334341340" lon="0.373838330">
        <ele>22.73</ele>
        <time>2013-05-18T17:10:42Z</time>
      </trkpt>
      <trkpt lat="40.334197506" lon="0.373954754">
        <ele>21.77</ele>
        <time>2013-05-18T17:10:46Z</time>
      </trkpt>
      <trkpt lat="40.334125422" lon="0.374053577">
        <ele>20.81</ele>
        <time>2013-05-18T17:10:48Z</time>
      </trkpt>
      <trkpt lat="40.334086446" lon="0.374103785">
        <ele>20.81</ele>
        <time>2013-05-18T17:10:49Z</time>
      </trkpt>
      <trkpt lat="40.333896428" lon="0.374141671">
        <ele>19.36</ele>
        <time>2013-05-18T17:10:53Z</time>
      </trkpt>
      <trkpt lat="40.333772711" lon="0.373897422">
        <ele>17.92</ele>
        <time>2013-05-18T17:10:57Z</time>
      </trkpt>
      <trkpt lat="40.333634745" lon="0.373795079">
        <ele>17.92</ele>
        <time>2013-05-18T17:11:00Z</time>
      </trkpt>
      <trkpt lat="40.333445398" lon="0.373882167">
        <ele>17.92</ele>
        <time>2013-05-18T17:11:04Z</time>
      </trkpt>
      <trkpt lat="40.333113642" lon="0.373906558">
        <ele>16.00</ele>
        <time>2013-05-18T17:11:10Z</time>
      </trkpt>
      <trkpt lat="40.332867466" lon="0.373797845">
        <ele>15.04</ele>
        <time>2013-05-18T17:11:14Z</time>
      </trkpt>
      <trkpt lat="40.332392044" lon="0.373654934">
        <ele>14.08</ele>
        <time>2013-05-18T17:11:21Z</time>
      </trkpt>
      <trkpt lat="40.332157100" lon="0.373540521">
        <ele>14.08</ele>
        <time>2013-05-18T17:11:25Z</time>
      </trkpt>
      <trkpt lat="40.331853842" lon="0.373409344">
        <ele>14.56</ele>
        <time>2013-05-18T17:11:32Z</time>
      </trkpt>
      <trkpt lat="40.331755690" lon="0.373210358">
        <ele>15.52</ele>
        <time>2013-05-18T17:11:37Z</time>
      </trkpt>
      <trkpt lat="40.331625855" lon="0.372800902">
        <ele>12.63</ele>
        <time>2013-05-18T17:11:45Z</time>
      </trkpt>
      <trkpt lat="40.331599116" lon="0.372730577">
        <ele>12.63</ele>
        <time>2013-05-18T17:11:46Z</time>
      </trkpt>
      <trkpt lat="40.331428042" lon="0.372401252">
        <ele>12.15</ele>
        <time>2013-05-18T17:11:51Z</time>
      </trkpt>
      <trkpt lat="40.331192510" lon="0.372313745">
        <ele>12.63</ele>
        <time>2013-05-18T17:11:57Z</time>
      </trkpt>
      <trkpt lat="40.331149762" lon="0.372317098">
        <ele>13.60</ele>
        <time>2013-05-18T17:11:59Z</time>
      </trkpt>
      <trkpt lat="40.331014562" lon="0.372277033">
        <ele>16.00</ele>
        <time>2013-05-18T17:12:06Z</time>
      </trkpt>
      <trkpt lat="40.330874501" lon="0.372089446">
        <ele>17.44</ele>
        <time>2013-05-18T17:12:16Z</time>
      </trkpt>
      <trkpt lat="40.330805350" lon="0.371936057">
        <ele>19.36</ele>
        <time>2013-05-18T17:12:23Z</time>
      </trkpt>
      <trkpt lat="40.330786994" lon="0.371895907">
        <ele>20.81</ele>
        <time>2013-05-18T17:12:25Z</time>
      </trkpt>
      <trkpt lat="40.330764614" lon="0.371757522">
        <ele>22.25</ele>
        <time>2013-05-18T17:12:31Z</time>
      </trkpt>
      <trkpt lat="40.330724129" lon="0.371689964">
        <ele>23.69</ele>
        <time>2013-05-18T17:12:35Z</time>
      </trkpt>
      <trkpt lat="40.330691105" lon="0.371591477">
        <ele>25.13</ele>
        <time>2013-05-18T17:12:40Z</time>
      </trkpt>
      <trkpt lat="40.330631929" lon="0.371416379">
        <ele>28.02</ele>
        <time>2013-05-18T17:12:49Z</time>
      </trkpt>
      <trkpt lat="40.330568478" lon="0.371247986">
        <ele>29.94</ele>
        <time>2013-05-18T17:12:59Z</time>
      </trkpt>
      <trkpt lat="40.330521958" lon="0.371109014">
        <ele>30.90</ele>
        <time>2013-05-18T17:13:07Z</time>
      </trkpt>
      <trkpt lat="40.330485078" lon="0.370976748">
        <ele>32.34</ele>
        <time>2013-05-18T17:13:15Z</time>
      </trkpt>
      <trkpt lat="40.330413161" lon="0.370800393">
        <ele>34.26</ele>
        <time>2013-05-18T17:13:25Z</time>
      </trkpt>
      <trkpt lat="40.330366390" lon="0.370659409">
        <ele>36.19</ele>
        <time>2013-05-18T17:13:33Z</time>
      </trkpt>
      <trkpt lat="40.330320373" lon="0.370531417">
        <ele>37.63</ele>
        <time>2013-05-18T17:13:41Z</time>
      </trkpt>
      <trkpt lat="40.330312746" lon="0.370492777">
        <ele>38.59</ele>
        <time>2013-05-18T17:13:43Z</time>
      </trkpt>
      <trkpt lat="40.330291037" lon="0.370429326">
        <ele>40.03</ele>
        <time>2013-05-18T17:13:47Z</time>
      </trkpt>
      <trkpt lat="40.330180479" lon="0.370295215">
        <ele>41.95</ele>
        <time>2013-05-18T17:13:57Z</time>
      </trkpt>
      <trkpt lat="40.330120297" lon="0.370223550">
        <ele>43.40</ele>
        <time>2013-05-18T17:14:03Z</time>
      </trkpt>
      <trkpt lat="40.329984175" lon="0.370075945">
        <ele>44.36</ele>
        <time>2013-05-18T17:14:15Z</time>
      </trkpt>
      <trkpt lat="40.329872193" lon="0.369934207">
        <ele>46.28</ele>
        <time>2013-05-18T17:14:24Z</time>
      </trkpt>
      <trkpt lat="40.329756606" lon="0.369814932">
        <ele>48.20</ele>
        <time>2013-05-18T17:14:33Z</time>
      </trkpt>
      <trkpt lat="40.329631465" lon="0.369684007">
        <ele>50.13</ele>
        <time>2013-05-18T17:14:43Z</time>
      </trkpt>
      <trkpt lat="40.329547562" lon="0.369562553">
        <ele>52.05</ele>
        <time>2013-05-18T17:14:51Z</time>
      </trkpt>
      <trkpt lat="40.329470867" lon="0.369385192">
        <ele>52.53</ele>
        <time>2013-05-18T17:15:00Z</time>
      </trkpt>
      <trkpt lat="40.329462904" lon="0.369374212">
        <ele>53.49</ele>
        <time>2013-05-18T17:15:01Z</time>
      </trkpt>
      <trkpt lat="40.329383947" lon="0.369155947">
        <ele>53.49</ele>
        <time>2013-05-18T17:15:12Z</time>
      </trkpt>
      <trkpt lat="40.329339523" lon="0.368980682">
        <ele>54.45</ele>
        <time>2013-05-18T17:15:20Z</time>
      </trkpt>
      <trkpt lat="40.329231815" lon="0.368790580">
        <ele>54.93</ele>
        <time>2013-05-18T17:15:29Z</time>
      </trkpt>
      <trkpt lat="40.329058226" lon="0.368755963">
        <ele>55.89</ele>
        <time>2013-05-18T17:15:37Z</time>
      </trkpt>
      <trkpt lat="40.328888074" lon="0.368744228">
        <ele>55.89</ele>
        <time>2013-05-18T17:15:45Z</time>
      </trkpt>
      <trkpt lat="40.328732003" lon="0.368701983">
        <ele>56.86</ele>
        <time>2013-05-18T17:15:53Z</time>
      </trkpt>
      <trkpt lat="40.328565538" lon="0.368649764">
        <ele>57.34</ele>
        <time>2013-05-18T17:16:01Z</time>
      </trkpt>
      <trkpt lat="40.328462860" lon="0.368486233">
        <ele>56.37</ele>
        <time>2013-05-18T17:16:08Z</time>
      </trkpt>
      <trkpt lat="40.328447521" lon="0.368443402">
        <ele>55.89</ele>
        <time>2013-05-18T17:16:09Z</time>
      </trkpt>
      <trkpt lat="40.328425476" lon="0.368344327">
        <ele>55.89</ele>
        <time>2013-05-18T17:16:11Z</time>
      </trkpt>
      <trkpt lat="40.328401588" lon="0.367974099">
        <ele>54.93</ele>
        <time>2013-05-18T17:16:18Z</time>
      </trkpt>
      <trkpt lat="40.328307962" lon="0.367861530">
        <ele>55.41</ele>
        <time>2013-05-18T17:16:22Z</time>
      </trkpt>
      <trkpt lat="40.328058600" lon="0.367819788">
        <ele>57.82</ele>
        <time>2013-05-18T17:16:32Z</time>
      </trkpt>
      <trkpt lat="40.327887777" lon="0.367711578">
        <ele>58.78</ele>
        <time>2013-05-18T17:16:41Z</time>
      </trkpt>
      <trkpt lat="40.327759618" lon="0.367675787">
        <ele>60.70</ele>
        <time>2013-05-18T17:16:47Z</time>
      </trkpt>
      <trkpt lat="40.327579742" lon="0.367580317">
        <ele>62.62</ele>
        <time>2013-05-18T17:16:57Z</time>
      </trkpt>
      <trkpt lat="40.327408668" lon="0.367413685">
        <ele>64.55</ele>
        <time>2013-05-18T17:17:08Z</time>
      </trkpt>
      <trkpt lat="40.327277910" lon="0.367285190">
        <ele>66.95</ele>
        <time>2013-05-18T17:17:17Z</time>
      </trkpt>
      <trkpt lat="40.327165006" lon="0.367092825">
        <ele>67.91</ele>
        <time>2013-05-18T17:17:27Z</time>
      </trkpt>
      <trkpt lat="40.327130305" lon="0.366864922">
        <ele>69.35</ele>
        <time>2013-05-18T17:17:36Z</time>
      </trkpt>
      <trkpt lat="40.327128544" lon="0.366841704">
        <ele>69.83</ele>
        <time>2013-05-18T17:17:41Z</time>
      </trkpt>
      <trkpt lat="40.327138603" lon="0.366850505">
        <ele>69.83</ele>
        <time>2013-05-18T17:17:55Z</time>
      </trkpt>
      <trkpt lat="40.327156205" lon="0.366679681">
        <ele>69.83</ele>
        <time>2013-05-18T17:18:02Z</time>
      </trkpt>
      <trkpt lat="40.327138519" lon="0.366466613">
        <ele>71.76</ele>
        <time>2013-05-18T17:18:10Z</time>
      </trkpt>
      <trkpt lat="40.327056460" lon="0.366281709">
        <ele>73.68</ele>
        <time>2013-05-18T17:18:17Z</time>
      </trkpt>
      <trkpt lat="40.326990327" lon="0.366011057">
        <ele>75.60</ele>
        <time>2013-05-18T17:18:26Z</time>
      </trkpt>
      <trkpt lat="40.326795196" lon="0.365871750">
        <ele>75.12</ele>
        <time>2013-05-18T17:18:33Z</time>
      </trkpt>
      <trkpt lat="40.326518929" lon="0.365732023">
        <ele>75.60</ele>
        <time>2013-05-18T17:18:42Z</time>
      </trkpt>
      <trkpt lat="40.326308291" lon="0.365555501">
        <ele>77.04</ele>
        <time>2013-05-18T17:18:50Z</time>
      </trkpt>
      <trkpt lat="40.326194884" lon="0.365386354">
        <ele>79.45</ele>
        <time>2013-05-18T17:18:55Z</time>
      </trkpt>
      <trkpt lat="40.326070329" lon="0.365196252">
        <ele>80.41</ele>
        <time>2013-05-18T17:19:02Z</time>
      </trkpt>
      <trkpt lat="40.325838067" lon="0.364898695">
        <ele>79.45</ele>
        <time>2013-05-18T17:19:12Z</time>
      </trkpt>
      <trkpt lat="40.325746620" lon="0.364770954">
        <ele>79.93</ele>
        <time>2013-05-18T17:19:19Z</time>
      </trkpt>
      <trkpt lat="40.325623825" lon="0.364588313">
        <ele>80.41</ele>
        <time>2013-05-18T17:19:28Z</time>
      </trkpt>
      <trkpt lat="40.325520644" lon="0.364406845">
        <ele>80.41</ele>
        <time>2013-05-18T17:19:35Z</time>
      </trkpt>
      <trkpt lat="40.325443111" lon="0.364089841">
        <ele>80.41</ele>
        <time>2013-05-18T17:19:44Z</time>
      </trkpt>
      <trkpt lat="40.325463563" lon="0.363858668">
        <ele>79.93</ele>
        <time>2013-05-18T17:19:51Z</time>
      </trkpt>
      <trkpt lat="40.325489799" lon="0.363635290">
        <ele>80.41</ele>
        <time>2013-05-18T17:20:00Z</time>
      </trkpt>
      <trkpt lat="40.325400615" lon="0.363470837">
        <ele>79.45</ele>
        <time>2013-05-18T17:20:06Z</time>
      </trkpt>
      <trkpt lat="40.325355772" lon="0.363433789">
        <ele>78.97</ele>
        <time>2013-05-18T17:20:07Z</time>
      </trkpt>
      <trkpt lat="40.325290477" lon="0.363334715">
        <ele>79.45</ele>
        <time>2013-05-18T17:20:09Z</time>
      </trkpt>
      <trkpt lat="40.325175896" lon="0.363268331">
        <ele>77.52</ele>
        <time>2013-05-18T17:20:12Z</time>
      </trkpt>
      <trkpt lat="40.325092245" lon="0.363330692">
        <ele>77.04</ele>
        <time>2013-05-18T17:20:14Z</time>
      </trkpt>
      <trkpt lat="40.325000295" lon="0.363419540">
        <ele>76.08</ele>
        <time>2013-05-18T17:20:16Z</time>
      </trkpt>
      <trkpt lat="40.324606681" lon="0.363562368">
        <ele>72.24</ele>
        <time>2013-05-18T17:20:22Z</time>
      </trkpt>
      <trkpt lat="40.324469386" lon="0.363554321">
        <ele>71.76</ele>
        <time>2013-05-18T17:20:27Z</time>
      </trkpt>
      <trkpt lat="40.324470224" lon="0.363524230">
        <ele>71.27</ele>
        <time>2013-05-18T17:20:36Z</time>
      </trkpt>
      <trkpt lat="40.324423537" lon="0.363503611">
        <ele>71.27</ele>
        <time>2013-05-18T17:20:46Z</time>
      </trkpt>
      <trkpt lat="40.324276937" lon="0.363464216">
        <ele>71.76</ele>
        <time>2013-05-18T17:20:50Z</time>
      </trkpt>
      <trkpt lat="40.323972423" lon="0.363270594">
        <ele>71.27</ele>
        <time>2013-05-18T17:20:57Z</time>
      </trkpt>
      <trkpt lat="40.323828841" lon="0.363225499">
        <ele>71.27</ele>
        <time>2013-05-18T17:21:00Z</time>
      </trkpt>
      <trkpt lat="40.323521057" lon="0.363307893">
        <ele>71.76</ele>
        <time>2013-05-18T17:21:06Z</time>
      </trkpt>
      <trkpt lat="40.323327100" lon="0.363328680">
        <ele>72.72</ele>
        <time>2013-05-18T17:21:10Z</time>
      </trkpt>
      <trkpt lat="40.323063405" lon="0.363257434">
        <ele>73.20</ele>
        <time>2013-05-18T17:21:16Z</time>
      </trkpt>
      <trkpt lat="40.322921416" lon="0.363119384">
        <ele>73.68</ele>
        <time>2013-05-18T17:21:21Z</time>
      </trkpt>
      <trkpt lat="40.322877411" lon="0.363022909">
        <ele>74.16</ele>
        <time>2013-05-18T17:21:24Z</time>
      </trkpt>
      <trkpt lat="40.322853103" lon="0.363022238">
        <ele>74.16</ele>
        <time>2013-05-18T17:21:32Z</time>
      </trkpt>
      <trkpt lat="40.322857881" lon="0.363022741">
        <ele>73.68</ele>
        <time>2013-05-18T17:21:43Z</time>
      </trkpt>
      <trkpt lat="40.322865508" lon="0.363023663">
        <ele>74.16</ele>
        <time>2013-05-18T17:21:57Z</time>
      </trkpt>
      <trkpt lat="40.322868358" lon="0.363024585">
        <ele>74.16</ele>
        <time>2013-05-18T17:22:01Z</time>
      </trkpt>
      <trkpt lat="40.322883613" lon="0.363007067">
        <ele>73.68</ele>
        <time>2013-05-18T17:22:09Z</time>
      </trkpt>
      <trkpt lat="40.322883865" lon="0.363005809">
        <ele>74.16</ele>
        <time>2013-05-18T17:22:29Z</time>
      </trkpt>
      <trkpt lat="40.322874142" lon="0.363003379">
        <ele>74.16</ele>
        <time>2013-05-18T17:22:49Z</time>
      </trkpt>
      <trkpt lat="40.322864335" lon="0.363012012">
        <ele>74.16</ele>
        <time>2013-05-18T17:23:02Z</time>
      </trkpt>
      <trkpt lat="40.322871627" lon="0.363017712">
        <ele>73.68</ele>
        <time>2013-05-18T17:23:16Z</time>
      </trkpt>
      <trkpt lat="40.322867269" lon="0.363016790">
        <ele>74.64</ele>
        <time>2013-05-18T17:23:17Z</time>
      </trkpt>
      <trkpt lat="40.322703067" lon="0.362988291">
        <ele>72.24</ele>
        <time>2013-05-18T17:23:22Z</time>
      </trkpt>
      <trkpt lat="40.322502153" lon="0.362969600">
        <ele>70.31</ele>
        <time>2013-05-18T17:23:25Z</time>
      </trkpt>
      <trkpt lat="40.322125470" lon="0.362941604">
        <ele>65.99</ele>
        <time>2013-05-18T17:23:30Z</time>
      </trkpt>
      <trkpt lat="40.321795559" lon="0.362940682">
        <ele>63.58</ele>
        <time>2013-05-18T17:23:34Z</time>
      </trkpt>
      <trkpt lat="40.321494900" lon="0.362976640">
        <ele>59.74</ele>
        <time>2013-05-18T17:23:38Z</time>
      </trkpt>
      <trkpt lat="40.321306977" lon="0.363039002">
        <ele>56.37</ele>
        <time>2013-05-18T17:23:41Z</time>
      </trkpt>
      <trkpt lat="40.321254758" lon="0.363060627">
        <ele>55.41</ele>
        <time>2013-05-18T17:23:42Z</time>
      </trkpt>
      <trkpt lat="40.321134981" lon="0.362984352">
        <ele>53.01</ele>
        <time>2013-05-18T17:23:46Z</time>
      </trkpt>
      <trkpt lat="40.321218213" lon="0.362819396">
        <ele>52.05</ele>
        <time>2013-05-18T17:23:49Z</time>
      </trkpt>
      <trkpt lat="40.321264230" lon="0.362780588">
        <ele>51.09</ele>
        <time>2013-05-18T17:23:50Z</time>
      </trkpt>
      <trkpt lat="40.321539827" lon="0.362627199">
        <ele>50.13</ele>
        <time>2013-05-18T17:23:55Z</time>
      </trkpt>
      <trkpt lat="40.321987337" lon="0.362436511">
        <ele>48.20</ele>
        <time>2013-05-18T17:24:02Z</time>
      </trkpt>
      <trkpt lat="40.322094625" lon="0.362309441">
        <ele>47.72</ele>
        <time>2013-05-18T17:24:06Z</time>
      </trkpt>
      <trkpt lat="40.322010554" lon="0.362298209">
        <ele>47.72</ele>
        <time>2013-05-18T17:24:08Z</time>
      </trkpt>
      <trkpt lat="40.321772844" lon="0.362347243">
        <ele>44.36</ele>
        <time>2013-05-18T17:24:12Z</time>
      </trkpt>
      <trkpt lat="40.321428934" lon="0.362361073">
        <ele>40.99</ele>
        <time>2013-05-18T17:24:18Z</time>
      </trkpt>
      <trkpt lat="40.321235647" lon="0.362340454">
        <ele>39.07</ele>
        <time>2013-05-18T17:24:21Z</time>
      </trkpt>
      <trkpt lat="40.320929037" lon="0.362331821">
        <ele>37.15</ele>
        <time>2013-05-18T17:24:25Z</time>
      </trkpt>
      <trkpt lat="40.320770703" lon="0.362349842">
        <ele>36.19</ele>
        <time>2013-05-18T17:24:27Z</time>
      </trkpt>
      <trkpt lat="40.320495609" lon="0.362556539">
        <ele>32.82</ele>
        <time>2013-05-18T17:24:32Z</time>
      </trkpt>
      <trkpt lat="40.320406761" lon="0.362603310">
        <ele>30.90</ele>
        <time>2013-05-18T17:24:35Z</time>
      </trkpt>
      <trkpt lat="40.320436852" lon="0.362449838">
        <ele>29.94</ele>
        <time>2013-05-18T17:24:38Z</time>
      </trkpt>
      <trkpt lat="40.320597701" lon="0.362259652">
        <ele>29.46</ele>
        <time>2013-05-18T17:24:42Z</time>
      </trkpt>
      <trkpt lat="40.321085695" lon="0.361969806">
        <ele>27.05</ele>
        <time>2013-05-18T17:24:51Z</time>
      </trkpt>
      <trkpt lat="40.321266828" lon="0.361906942">
        <ele>25.13</ele>
        <time>2013-05-18T17:24:54Z</time>
      </trkpt>
      <trkpt lat="40.321263140" lon="0.361784818">
        <ele>24.65</ele>
        <time>2013-05-18T17:24:58Z</time>
      </trkpt>
      <trkpt lat="40.321072955" lon="0.361739723">
        <ele>22.73</ele>
        <time>2013-05-18T17:25:01Z</time>
      </trkpt>
      <trkpt lat="40.320847481" lon="0.361719690">
        <ele>21.29</ele>
        <time>2013-05-18T17:25:04Z</time>
      </trkpt>
      <trkpt lat="40.320693422" lon="0.361730754">
        <ele>19.84</ele>
        <time>2013-05-18T17:25:06Z</time>
      </trkpt>
      <trkpt lat="40.320612621" lon="0.361742740">
        <ele>19.36</ele>
        <time>2013-05-18T17:25:07Z</time>
      </trkpt>
      <trkpt lat="40.320279943" lon="0.361681972">
        <ele>15.52</ele>
        <time>2013-05-18T17:25:11Z</time>
      </trkpt>
      <trkpt lat="40.320113227" lon="0.361682726">
        <ele>15.52</ele>
        <time>2013-05-18T17:25:13Z</time>
      </trkpt>
      <trkpt lat="40.319751212" lon="0.361683145">
        <ele>15.52</ele>
        <time>2013-05-18T17:25:19Z</time>
      </trkpt>
      <trkpt lat="40.319707626" lon="0.361527493">
        <ele>18.40</ele>
        <time>2013-05-18T17:25:22Z</time>
      </trkpt>
      <trkpt lat="40.319710644" lon="0.361430934">
        <ele>18.88</ele>
        <time>2013-05-18T17:25:24Z</time>
      </trkpt>
      <trkpt lat="40.319665382" lon="0.361165898">
        <ele>20.32</ele>
        <time>2013-05-18T17:25:30Z</time>
      </trkpt>
      <trkpt lat="40.319587179" lon="0.361069506">
        <ele>20.32</ele>
        <time>2013-05-18T17:25:33Z</time>
      </trkpt>
      <trkpt lat="40.319385342" lon="0.360902539">
        <ele>21.29</ele>
        <time>2013-05-18T17:25:39Z</time>
      </trkpt>
      <trkpt lat="40.319126761" lon="0.360594420">
        <ele>19.84</ele>
        <time>2013-05-18T17:25:47Z</time>
      </trkpt>
      <trkpt lat="40.318927523" lon="0.360203823">
        <ele>18.88</ele>
        <time>2013-05-18T17:25:54Z</time>
      </trkpt>
      <trkpt lat="40.318712611" lon="0.359853376">
        <ele>19.36</ele>
        <time>2013-05-18T17:26:01Z</time>
      </trkpt>
      <trkpt lat="40.318669444" lon="0.359831750">
        <ele>18.88</ele>
        <time>2013-05-18T17:26:02Z</time>
      </trkpt>
      <trkpt lat="40.318515468" lon="0.359767210">
        <ele>18.40</ele>
        <time>2013-05-18T17:26:05Z</time>
      </trkpt>
      <trkpt lat="40.318314973" lon="0.359704178">
        <ele>16.48</ele>
        <time>2013-05-18T17:26:08Z</time>
      </trkpt>
      <trkpt lat="40.318087656" lon="0.359540395">
        <ele>16.00</ele>
        <time>2013-05-18T17:26:12Z</time>
      </trkpt>
      <trkpt lat="40.317870062" lon="0.359471915">
        <ele>16.00</ele>
        <time>2013-05-18T17:26:16Z</time>
      </trkpt>
      <trkpt lat="40.317666046" lon="0.359499827">
        <ele>16.00</ele>
        <time>2013-05-18T17:26:20Z</time>
      </trkpt>
      <trkpt lat="40.317423139" lon="0.359444506">
        <ele>16.00</ele>
        <time>2013-05-18T17:26:25Z</time>
      </trkpt>
      <trkpt lat="40.317245442" lon="0.359261613">
        <ele>15.52</ele>
        <time>2013-05-18T17:26:30Z</time>
      </trkpt>
      <trkpt lat="40.317002870" lon="0.358887445">
        <ele>14.56</ele>
        <time>2013-05-18T17:26:38Z</time>
      </trkpt>
      <trkpt lat="40.316883344" lon="0.358698852">
        <ele>13.60</ele>
        <time>2013-05-18T17:26:42Z</time>
      </trkpt>
      <trkpt lat="40.316705648" lon="0.358527778">
        <ele>13.60</ele>
        <time>2013-05-18T17:26:47Z</time>
      </trkpt>
      <trkpt lat="40.316623924" lon="0.358321164">
        <ele>14.08</ele>
        <time>2013-05-18T17:26:52Z</time>
      </trkpt>
      <trkpt lat="40.316701122" lon="0.358106503">
        <ele>13.60</ele>
        <time>2013-05-18T17:26:57Z</time>
      </trkpt>
      <trkpt lat="40.316668935" lon="0.357943727">
        <ele>13.12</ele>
        <time>2013-05-18T17:27:01Z</time>
      </trkpt>
      <trkpt lat="40.316534154" lon="0.358018158">
        <ele>14.56</ele>
        <time>2013-05-18T17:27:05Z</time>
      </trkpt>
      <trkpt lat="40.316321924" lon="0.358224688">
        <ele>12.63</ele>
        <time>2013-05-18T17:27:11Z</time>
      </trkpt>
      <trkpt lat="40.316080861" lon="0.358192166">
        <ele>12.15</ele>
        <time>2013-05-18T17:27:16Z</time>
      </trkpt>
      <trkpt lat="40.315822028" lon="0.357987648">
        <ele>11.67</ele>
        <time>2013-05-18T17:27:21Z</time>
      </trkpt>
      <trkpt lat="40.315440651" lon="0.357481129">
        <ele>9.27</ele>
        <time>2013-05-18T17:27:29Z</time>
      </trkpt>
      <trkpt lat="40.315235630" lon="0.357260182">
        <ele>9.75</ele>
        <time>2013-05-18T17:27:33Z</time>
      </trkpt>
      <trkpt lat="40.315057766" lon="0.357146775">
        <ele>9.75</ele>
        <time>2013-05-18T17:27:36Z</time>
      </trkpt>
      <trkpt lat="40.314853918" lon="0.356988944">
        <ele>9.27</ele>
        <time>2013-05-18T17:27:40Z</time>
      </trkpt>
      <trkpt lat="40.314508248" lon="0.356547553">
        <ele>9.27</ele>
        <time>2013-05-18T17:27:48Z</time>
      </trkpt>
      <trkpt lat="40.314228628" lon="0.356197609">
        <ele>6.87</ele>
        <time>2013-05-18T17:27:54Z</time>
      </trkpt>
      <trkpt lat="40.313906763" lon="0.356013793">
        <ele>6.39</ele>
        <time>2013-05-18T17:28:00Z</time>
      </trkpt>
      <trkpt lat="40.313859740" lon="0.355987558">
        <ele>6.87</ele>
        <time>2013-05-18T17:28:01Z</time>
      </trkpt>
      <trkpt lat="40.313565871" lon="0.355688995">
        <ele>6.39</ele>
        <time>2013-05-18T17:28:08Z</time>
      </trkpt>
      <trkpt lat="40.313332099" lon="0.355352797">
        <ele>6.39</ele>
        <time>2013-05-18T17:28:14Z</time>
      </trkpt>
      <trkpt lat="40.313210897" lon="0.355189769">
        <ele>6.39</ele>
        <time>2013-05-18T17:28:17Z</time>
      </trkpt>
      <trkpt lat="40.313046025" lon="0.354795484">
        <ele>6.39</ele>
        <time>2013-05-18T17:28:23Z</time>
      </trkpt>
      <trkpt lat="40.312831616" lon="0.354383765">
        <ele>6.39</ele>
        <time>2013-05-18T17:28:30Z</time>
      </trkpt>
      <trkpt lat="40.312624583" lon="0.354009345">
        <ele>6.87</ele>
        <time>2013-05-18T17:28:37Z</time>
      </trkpt>
      <trkpt lat="40.312504722" lon="0.353860818">
        <ele>6.39</ele>
        <time>2013-05-18T17:28:40Z</time>
      </trkpt>
      <trkpt lat="40.312310345" lon="0.353712374">
        <ele>5.91</ele>
        <time>2013-05-18T17:28:44Z</time>
      </trkpt>
      <trkpt lat="40.311971130" lon="0.353555884">
        <ele>7.35</ele>
        <time>2013-05-18T17:28:51Z</time>
      </trkpt>
      <trkpt lat="40.311743477" lon="0.353541467">
        <ele>6.87</ele>
        <time>2013-05-18T17:28:56Z</time>
      </trkpt>
      <trkpt lat="40.311638201" lon="0.353556471">
        <ele>6.39</ele>
        <time>2013-05-18T17:28:58Z</time>
      </trkpt>
      <trkpt lat="40.311434101" lon="0.353510035">
        <ele>6.87</ele>
        <time>2013-05-18T17:29:02Z</time>
      </trkpt>
      <trkpt lat="40.311253890" lon="0.353391599">
        <ele>6.39</ele>
        <time>2013-05-18T17:29:06Z</time>
      </trkpt>
      <trkpt lat="40.311083319" lon="0.353244832">
        <ele>6.87</ele>
        <time>2013-05-18T17:29:10Z</time>
      </trkpt>
      <trkpt lat="40.310795819" lon="0.353113571">
        <ele>6.39</ele>
        <time>2013-05-18T17:29:16Z</time>
      </trkpt>
      <trkpt lat="40.310694147" lon="0.353056993">
        <ele>5.91</ele>
        <time>2013-05-18T17:29:18Z</time>
      </trkpt>
      <trkpt lat="40.310262311" lon="0.352915172">
        <ele>5.42</ele>
        <time>2013-05-18T17:29:26Z</time>
      </trkpt>
      <trkpt lat="40.309737269" lon="0.352485264">
        <ele>6.87</ele>
        <time>2013-05-18T17:29:37Z</time>
      </trkpt>
      <trkpt lat="40.309482794" lon="0.352200614">
        <ele>6.39</ele>
        <time>2013-05-18T17:29:43Z</time>
      </trkpt>
      <trkpt lat="40.309279365" lon="0.351947229">
        <ele>7.35</ele>
        <time>2013-05-18T17:29:48Z</time>
      </trkpt>
      <trkpt lat="40.309152883" lon="0.351837426">
        <ele>6.39</ele>
        <time>2013-05-18T17:29:51Z</time>
      </trkpt>
      <trkpt lat="40.309012905" lon="0.351770790">
        <ele>6.87</ele>
        <time>2013-05-18T17:29:54Z</time>
      </trkpt>
      <trkpt lat="40.308642089" lon="0.351769449">
        <ele>5.91</ele>
        <time>2013-05-18T17:30:01Z</time>
      </trkpt>
      <trkpt lat="40.308541004" lon="0.351796104">
        <ele>6.39</ele>
        <time>2013-05-18T17:30:03Z</time>
      </trkpt>
      <trkpt lat="40.308297006" lon="0.351752182">
        <ele>6.39</ele>
        <time>2013-05-18T17:30:08Z</time>
      </trkpt>
      <trkpt lat="40.308255935" lon="0.351710692">
        <ele>5.91</ele>
        <time>2013-05-18T17:30:09Z</time>
      </trkpt>
      <trkpt lat="40.308141103" lon="0.351572474">
        <ele>6.39</ele>
        <time>2013-05-18T17:30:12Z</time>
      </trkpt>
      <trkpt lat="40.308036162" lon="0.351313977">
        <ele>7.83</ele>
        <time>2013-05-18T17:30:17Z</time>
      </trkpt>
      <trkpt lat="40.308002634" lon="0.351079116">
        <ele>7.35</ele>
        <time>2013-05-18T17:30:21Z</time>
      </trkpt>
      <trkpt lat="40.307877660" lon="0.350934695">
        <ele>6.87</ele>
        <time>2013-05-18T17:30:25Z</time>
      </trkpt>
      <trkpt lat="40.307685630" lon="0.351047935">
        <ele>6.87</ele>
        <time>2013-05-18T17:30:29Z</time>
      </trkpt>
      <trkpt lat="40.307425708" lon="0.351084983">
        <ele>7.83</ele>
        <time>2013-05-18T17:30:36Z</time>
      </trkpt>
      <trkpt lat="40.307201492" lon="0.351033350">
        <ele>8.31</ele>
        <time>2013-05-18T17:30:42Z</time>
      </trkpt>
      <trkpt lat="40.307118427" lon="0.351026393">
        <ele>7.83</ele>
        <time>2013-05-18T17:30:44Z</time>
      </trkpt>
      <trkpt lat="40.306682484" lon="0.350944921">
        <ele>8.79</ele>
        <time>2013-05-18T17:30:54Z</time>
      </trkpt>
      <trkpt lat="40.306285936" lon="0.350920698">
        <ele>9.27</ele>
        <time>2013-05-18T17:31:03Z</time>
      </trkpt>
      <trkpt lat="40.306070773" lon="0.350882644">
        <ele>8.79</ele>
        <time>2013-05-18T17:31:08Z</time>
      </trkpt>
      <trkpt lat="40.305802133" lon="0.350813493">
        <ele>9.27</ele>
        <time>2013-05-18T17:31:14Z</time>
      </trkpt>
      <trkpt lat="40.305434922" lon="0.350571172">
        <ele>8.79</ele>
        <time>2013-05-18T17:31:23Z</time>
      </trkpt>
      <trkpt lat="40.305292178" lon="0.350498669">
        <ele>8.79</ele>
        <time>2013-05-18T17:31:26Z</time>
      </trkpt>
      <trkpt lat="40.305044660" lon="0.350482073">
        <ele>8.79</ele>
        <time>2013-05-18T17:31:31Z</time>
      </trkpt>
      <trkpt lat="40.304792030" lon="0.350512080">
        <ele>9.27</ele>
        <time>2013-05-18T17:31:36Z</time>
      </trkpt>
      <trkpt lat="40.304177133" lon="0.350408815">
        <ele>9.75</ele>
        <time>2013-05-18T17:31:48Z</time>
      </trkpt>
      <trkpt lat="40.304073701" lon="0.350401606">
        <ele>10.23</ele>
        <time>2013-05-18T17:31:50Z</time>
      </trkpt>
      <trkpt lat="40.303974459" lon="0.350407306">
        <ele>9.75</ele>
        <time>2013-05-18T17:31:52Z</time>
      </trkpt>
      <trkpt lat="40.303452183" lon="0.350353243">
        <ele>11.19</ele>
        <time>2013-05-18T17:32:03Z</time>
      </trkpt>
      <trkpt lat="40.303264512" lon="0.350307478">
        <ele>11.19</ele>
        <time>2013-05-18T17:32:07Z</time>
      </trkpt>
      <trkpt lat="40.303174574" lon="0.350274704">
        <ele>11.19</ele>
        <time>2013-05-18T17:32:09Z</time>
      </trkpt>
      <trkpt lat="40.303000147" lon="0.350145204">
        <ele>11.19</ele>
        <time>2013-05-18T17:32:13Z</time>
      </trkpt>
      <trkpt lat="40.302639306" lon="0.350015033">
        <ele>11.19</ele>
        <time>2013-05-18T17:32:20Z</time>
      </trkpt>
      <trkpt lat="40.302351387" lon="0.349822752">
        <ele>10.71</ele>
        <time>2013-05-18T17:32:26Z</time>
      </trkpt>
      <trkpt lat="40.301754260" lon="0.349558052">
        <ele>10.71</ele>
        <time>2013-05-18T17:32:37Z</time>
      </trkpt>
      <trkpt lat="40.301605565" lon="0.349492840">
        <ele>10.71</ele>
        <time>2013-05-18T17:32:40Z</time>
      </trkpt>
      <trkpt lat="40.301394761" lon="0.349436682">
        <ele>9.75</ele>
        <time>2013-05-18T17:32:44Z</time>
      </trkpt>
      <trkpt lat="40.300861839" lon="0.349380774">
        <ele>10.71</ele>
        <time>2013-05-18T17:32:53Z</time>
      </trkpt>
      <trkpt lat="40.300578196" lon="0.349275833">
        <ele>11.19</ele>
        <time>2013-05-18T17:32:58Z</time>
      </trkpt>
      <trkpt lat="40.300358003" lon="0.349147925">
        <ele>11.19</ele>
        <time>2013-05-18T17:33:02Z</time>
      </trkpt>
      <trkpt lat="40.300120292" lon="0.349072320">
        <ele>10.71</ele>
        <time>2013-05-18T17:33:06Z</time>
      </trkpt>
      <trkpt lat="40.299814269" lon="0.348797645">
        <ele>10.23</ele>
        <time>2013-05-18T17:33:12Z</time>
      </trkpt>
      <trkpt lat="40.299768001" lon="0.348742409">
        <ele>10.71</ele>
        <time>2013-05-18T17:33:13Z</time>
      </trkpt>
      <trkpt lat="40.299574714" lon="0.348580722">
        <ele>9.75</ele>
        <time>2013-05-18T17:33:17Z</time>
      </trkpt>
      <trkpt lat="40.299438424" lon="0.348464632">
        <ele>10.23</ele>
        <time>2013-05-18T17:33:20Z</time>
      </trkpt>
      <trkpt lat="40.299273720" lon="0.348253828">
        <ele>9.75</ele>
        <time>2013-05-18T17:33:24Z</time>
      </trkpt>
      <trkpt lat="40.299084457" lon="0.348103037">
        <ele>9.75</ele>
        <time>2013-05-18T17:33:28Z</time>
      </trkpt>
      <trkpt lat="40.298841717" lon="0.347896172">
        <ele>8.79</ele>
        <time>2013-05-18T17:33:33Z</time>
      </trkpt>
      <trkpt lat="40.298710708" lon="0.347726103">
        <ele>8.79</ele>
        <time>2013-05-18T17:33:36Z</time>
      </trkpt>
      <trkpt lat="40.298505435" lon="0.347591406">
        <ele>9.27</ele>
        <time>2013-05-18T17:33:40Z</time>
      </trkpt>
      <trkpt lat="40.298304856" lon="0.347445477">
        <ele>9.27</ele>
        <time>2013-05-18T17:33:44Z</time>
      </trkpt>
      <trkpt lat="40.298025487" lon="0.347267026">
        <ele>8.31</ele>
        <time>2013-05-18T17:33:49Z</time>
      </trkpt>
      <trkpt lat="40.297772856" lon="0.347054712">
        <ele>9.27</ele>
        <time>2013-05-18T17:33:54Z</time>
      </trkpt>
      <trkpt lat="40.297616702" lon="0.346964858">
        <ele>8.31</ele>
        <time>2013-05-18T17:33:57Z</time>
      </trkpt>
      <trkpt lat="40.297428193" lon="0.346759921">
        <ele>8.31</ele>
        <time>2013-05-18T17:34:01Z</time>
      </trkpt>
      <trkpt lat="40.297350492" lon="0.346621117">
        <ele>7.35</ele>
        <time>2013-05-18T17:34:03Z</time>
      </trkpt>
      <trkpt lat="40.297148405" lon="0.346463788">
        <ele>7.83</ele>
        <time>2013-05-18T17:34:07Z</time>
      </trkpt>
      <trkpt lat="40.296948161" lon="0.346370498">
        <ele>5.91</ele>
        <time>2013-05-18T17:34:13Z</time>
      </trkpt>
      <trkpt lat="40.296933912" lon="0.346379215">
        <ele>5.42</ele>
        <time>2013-05-18T17:34:19Z</time>
      </trkpt>
      <trkpt lat="40.296925697" lon="0.346388854">
        <ele>5.91</ele>
        <time>2013-05-18T17:34:42Z</time>
      </trkpt>
      <trkpt lat="40.296859816" lon="0.346355662">
        <ele>5.91</ele>
        <time>2013-05-18T17:34:56Z</time>
      </trkpt>
      <trkpt lat="40.296833664" lon="0.346325990">
        <ele>5.42</ele>
        <time>2013-05-18T17:34:57Z</time>
      </trkpt>
      <trkpt lat="40.296724197" lon="0.345951067">
        <ele>3.98</ele>
        <time>2013-05-18T17:35:03Z</time>
      </trkpt>
      <trkpt lat="40.296650771" lon="0.345760882">
        <ele>3.98</ele>
        <time>2013-05-18T17:35:06Z</time>
      </trkpt>
      <trkpt lat="40.296489419" lon="0.345439436">
        <ele>6.39</ele>
        <time>2013-05-18T17:35:13Z</time>
      </trkpt>
      <trkpt lat="40.296364194" lon="0.345175406">
        <ele>6.39</ele>
        <time>2013-05-18T17:35:19Z</time>
      </trkpt>
      <trkpt lat="40.296246512" lon="0.344931409">
        <ele>6.39</ele>
        <time>2013-05-18T17:35:24Z</time>
      </trkpt>
      <trkpt lat="40.296120699" lon="0.344855720">
        <ele>5.42</ele>
        <time>2013-05-18T17:35:27Z</time>
      </trkpt>
      <trkpt lat="40.295977704" lon="0.344667127">
        <ele>4.94</ele>
        <time>2013-05-18T17:35:31Z</time>
      </trkpt>
      <trkpt lat="40.295831356" lon="0.344366888">
        <ele>4.94</ele>
        <time>2013-05-18T17:35:36Z</time>
      </trkpt>
      <trkpt lat="40.295632035" lon="0.343982326">
        <ele>5.42</ele>
        <time>2013-05-18T17:35:43Z</time>
      </trkpt>
      <trkpt lat="40.295484597" lon="0.343536157">
        <ele>5.91</ele>
        <time>2013-05-18T17:35:51Z</time>
      </trkpt>
      <trkpt lat="40.295464480" lon="0.343479160">
        <ele>5.91</ele>
        <time>2013-05-18T17:35:52Z</time>
      </trkpt>
      <trkpt lat="40.295313187" lon="0.343077499">
        <ele>4.94</ele>
        <time>2013-05-18T17:35:59Z</time>
      </trkpt>
      <trkpt lat="40.295296004" lon="0.342874825">
        <ele>4.94</ele>
        <time>2013-05-18T17:36:02Z</time>
      </trkpt>
      <trkpt lat="40.295315115" lon="0.342739960">
        <ele>4.94</ele>
        <time>2013-05-18T17:36:04Z</time>
      </trkpt>
      <trkpt lat="40.295254597" lon="0.342339724">
        <ele>4.94</ele>
        <time>2013-05-18T17:36:10Z</time>
      </trkpt>
      <trkpt lat="40.295198523" lon="0.341795739">
        <ele>5.91</ele>
        <time>2013-05-18T17:36:18Z</time>
      </trkpt>
      <trkpt lat="40.295177819" lon="0.341669507">
        <ele>5.91</ele>
        <time>2013-05-18T17:36:20Z</time>
      </trkpt>
      <trkpt lat="40.294983024" lon="0.341078416">
        <ele>6.39</ele>
        <time>2013-05-18T17:36:30Z</time>
      </trkpt>
      <trkpt lat="40.294894176" lon="0.340765771">
        <ele>6.39</ele>
        <time>2013-05-18T17:36:35Z</time>
      </trkpt>
      <trkpt lat="40.294810189" lon="0.340512553">
        <ele>6.39</ele>
        <time>2013-05-18T17:36:39Z</time>
      </trkpt>
      <trkpt lat="40.294787223" lon="0.340380874">
        <ele>6.39</ele>
        <time>2013-05-18T17:36:41Z</time>
      </trkpt>
      <trkpt lat="40.294757551" lon="0.340250703">
        <ele>6.87</ele>
        <time>2013-05-18T17:36:43Z</time>
      </trkpt>
      <trkpt lat="40.294534005" lon="0.339612588">
        <ele>6.87</ele>
        <time>2013-05-18T17:36:53Z</time>
      </trkpt>
      <trkpt lat="40.294429986" lon="0.339297764">
        <ele>6.87</ele>
        <time>2013-05-18T17:36:58Z</time>
      </trkpt>
      <trkpt lat="40.294181043" lon="0.338663673">
        <ele>6.87</ele>
        <time>2013-05-18T17:37:08Z</time>
      </trkpt>
      <trkpt lat="40.294123041" lon="0.338343820">
        <ele>5.91</ele>
        <time>2013-05-18T17:37:12Z</time>
      </trkpt>
      <trkpt lat="40.294002006" lon="0.338072078">
        <ele>6.39</ele>
        <time>2013-05-18T17:37:16Z</time>
      </trkpt>
      <trkpt lat="40.293885078" lon="0.337920198">
        <ele>6.87</ele>
        <time>2013-05-18T17:37:19Z</time>
      </trkpt>
      <trkpt lat="40.293623395" lon="0.337448381">
        <ele>7.83</ele>
        <time>2013-05-18T17:37:28Z</time>
      </trkpt>
      <trkpt lat="40.293475119" lon="0.337125091">
        <ele>8.31</ele>
        <time>2013-05-18T17:37:34Z</time>
      </trkpt>
      <trkpt lat="40.293144453" lon="0.336657884">
        <ele>8.31</ele>
        <time>2013-05-18T17:37:43Z</time>
      </trkpt>
      <trkpt lat="40.292815212" lon="0.336246248">
        <ele>8.31</ele>
        <time>2013-05-18T17:37:51Z</time>
      </trkpt>
      <trkpt lat="40.292421849" lon="0.335778287">
        <ele>8.31</ele>
        <time>2013-05-18T17:38:00Z</time>
      </trkpt>
      <trkpt lat="40.292086406" lon="0.335319545">
        <ele>7.35</ele>
        <time>2013-05-18T17:38:08Z</time>
      </trkpt>
      <trkpt lat="40.291816760" lon="0.335105304">
        <ele>7.83</ele>
        <time>2013-05-18T17:38:14Z</time>
      </trkpt>
      <trkpt lat="40.291485926" lon="0.334893661">
        <ele>7.83</ele>
        <time>2013-05-18T17:38:22Z</time>
      </trkpt>
      <trkpt lat="40.291168923" lon="0.334671289">
        <ele>8.31</ele>
        <time>2013-05-18T17:38:29Z</time>
      </trkpt>
      <trkpt lat="40.290947054" lon="0.334507590">
        <ele>8.31</ele>
        <time>2013-05-18T17:38:34Z</time>
      </trkpt>
      <trkpt lat="40.290498286" lon="0.334236352">
        <ele>7.83</ele>
        <time>2013-05-18T17:38:43Z</time>
      </trkpt>
      <trkpt lat="40.290053124" lon="0.333925299">
        <ele>6.87</ele>
        <time>2013-05-18T17:38:51Z</time>
      </trkpt>
      <trkpt lat="40.289614247" lon="0.333615420">
        <ele>6.87</ele>
        <time>2013-05-18T17:38:59Z</time>
      </trkpt>
      <trkpt lat="40.289461613" lon="0.333526405">
        <ele>6.87</ele>
        <time>2013-05-18T17:39:02Z</time>
      </trkpt>
      <trkpt lat="40.289017623" lon="0.333389528">
        <ele>6.87</ele>
        <time>2013-05-18T17:39:10Z</time>
      </trkpt>
      <trkpt lat="40.288745211" lon="0.333291963">
        <ele>6.87</ele>
        <time>2013-05-18T17:39:15Z</time>
      </trkpt>
      <trkpt lat="40.288632056" lon="0.333287017">
        <ele>6.39</ele>
        <time>2013-05-18T17:39:17Z</time>
      </trkpt>
      <trkpt lat="40.288521582" lon="0.333270337">
        <ele>6.87</ele>
        <time>2013-05-18T17:39:19Z</time>
      </trkpt>
      <trkpt lat="40.288368529" lon="0.333308056">
        <ele>6.87</ele>
        <time>2013-05-18T17:39:22Z</time>
      </trkpt>
      <trkpt lat="40.288172644" lon="0.333308894">
        <ele>6.39</ele>
        <time>2013-05-18T17:39:26Z</time>
      </trkpt>
      <trkpt lat="40.287894448" lon="0.333204288">
        <ele>6.87</ele>
        <time>2013-05-18T17:39:32Z</time>
      </trkpt>
      <trkpt lat="40.287663862" lon="0.332986945">
        <ele>6.87</ele>
        <time>2013-05-18T17:39:38Z</time>
      </trkpt>
      <trkpt lat="40.287597645" lon="0.332720652">
        <ele>7.83</ele>
        <time>2013-05-18T17:39:44Z</time>
      </trkpt>
      <trkpt lat="40.287567303" lon="0.332608754">
        <ele>8.79</ele>
        <time>2013-05-18T17:39:47Z</time>
      </trkpt>
      <trkpt lat="40.287356917" lon="0.332243387">
        <ele>10.23</ele>
        <time>2013-05-18T17:39:58Z</time>
      </trkpt>
      <trkpt lat="40.287325736" lon="0.331981368">
        <ele>10.71</ele>
        <time>2013-05-18T17:40:04Z</time>
      </trkpt>
      <trkpt lat="40.287309894" lon="0.331636872">
        <ele>12.15</ele>
        <time>2013-05-18T17:40:12Z</time>
      </trkpt>
      <trkpt lat="40.287168659" lon="0.331351636">
        <ele>12.63</ele>
        <time>2013-05-18T17:40:20Z</time>
      </trkpt>
      <trkpt lat="40.287001859" lon="0.331094647">
        <ele>14.08</ele>
        <time>2013-05-18T17:40:28Z</time>
      </trkpt>
      <trkpt lat="40.286866995" lon="0.330863642">
        <ele>14.56</ele>
        <time>2013-05-18T17:40:35Z</time>
      </trkpt>
      <trkpt lat="40.286853416" lon="0.330689466">
        <ele>15.04</ele>
        <time>2013-05-18T17:40:39Z</time>
      </trkpt>
      <trkpt lat="40.286614113" lon="0.330424178">
        <ele>16.96</ele>
        <time>2013-05-18T17:40:48Z</time>
      </trkpt>
      <trkpt lat="40.286534652" lon="0.330175823">
        <ele>17.44</ele>
        <time>2013-05-18T17:40:54Z</time>
      </trkpt>
      <trkpt lat="40.286386209" lon="0.329720518">
        <ele>18.88</ele>
        <time>2013-05-18T17:41:04Z</time>
      </trkpt>
      <trkpt lat="40.286311274" lon="0.329352133">
        <ele>19.36</ele>
        <time>2013-05-18T17:41:12Z</time>
      </trkpt>
      <trkpt lat="40.286157131" lon="0.329161696">
        <ele>19.84</ele>
        <time>2013-05-18T17:41:18Z</time>
      </trkpt>
      <trkpt lat="40.286113713" lon="0.328858858">
        <ele>21.29</ele>
        <time>2013-05-18T17:41:25Z</time>
      </trkpt>
      <trkpt lat="40.286023188" lon="0.328532802">
        <ele>23.21</ele>
        <time>2013-05-18T17:41:33Z</time>
      </trkpt>
      <trkpt lat="40.285871811" lon="0.328332726">
        <ele>23.69</ele>
        <time>2013-05-18T17:41:39Z</time>
      </trkpt>
      <trkpt lat="40.285839289" lon="0.328070289">
        <ele>24.17</ele>
        <time>2013-05-18T17:41:45Z</time>
      </trkpt>
      <trkpt lat="40.285833757" lon="0.327828303">
        <ele>26.09</ele>
        <time>2013-05-18T17:41:51Z</time>
      </trkpt>
      <trkpt lat="40.285827639" lon="0.327558825">
        <ele>26.57</ele>
        <time>2013-05-18T17:41:58Z</time>
      </trkpt>
      <trkpt lat="40.285742898" lon="0.327271661">
        <ele>28.02</ele>
        <time>2013-05-18T17:42:06Z</time>
      </trkpt>
      <trkpt lat="40.285690678" lon="0.327041578">
        <ele>28.98</ele>
        <time>2013-05-18T17:42:12Z</time>
      </trkpt>
      <trkpt lat="40.285522956" lon="0.326700518">
        <ele>29.94</ele>
        <time>2013-05-18T17:42:22Z</time>
      </trkpt>
      <trkpt lat="40.285404520" lon="0.326480074">
        <ele>30.90</ele>
        <time>2013-05-18T17:42:29Z</time>
      </trkpt>
      <trkpt lat="40.285338722" lon="0.326305144">
        <ele>32.34</ele>
        <time>2013-05-18T17:42:34Z</time>
      </trkpt>
      <trkpt lat="40.285130432" lon="0.326172374">
        <ele>32.82</ele>
        <time>2013-05-18T17:42:41Z</time>
      </trkpt>
      <trkpt lat="40.284926752" lon="0.326047149">
        <ele>33.30</ele>
        <time>2013-05-18T17:42:48Z</time>
      </trkpt>
      <trkpt lat="40.284739081" lon="0.325981099">
        <ele>33.30</ele>
        <time>2013-05-18T17:42:54Z</time>
      </trkpt>
      <trkpt lat="40.284607736" lon="0.325817484">
        <ele>33.30</ele>
        <time>2013-05-18T17:42:59Z</time>
      </trkpt>
      <trkpt lat="40.284446217" lon="0.325728301">
        <ele>33.30</ele>
        <time>2013-05-18T17:43:03Z</time>
      </trkpt>
      <trkpt lat="40.284313867" lon="0.325513473">
        <ele>32.82</ele>
        <time>2013-05-18T17:43:08Z</time>
      </trkpt>
      <trkpt lat="40.284320572" lon="0.325455805">
        <ele>32.82</ele>
        <time>2013-05-18T17:43:09Z</time>
      </trkpt>
      <trkpt lat="40.284336414" lon="0.325325886">
        <ele>32.34</ele>
        <time>2013-05-18T17:43:11Z</time>
      </trkpt>
      <trkpt lat="40.284228623" lon="0.325180963">
        <ele>33.30</ele>
        <time>2013-05-18T17:43:15Z</time>
      </trkpt>
      <trkpt lat="40.284148911" lon="0.325202839">
        <ele>32.82</ele>
        <time>2013-05-18T17:43:17Z</time>
      </trkpt>
      <trkpt lat="40.284032319" lon="0.325249359">
        <ele>32.34</ele>
        <time>2013-05-18T17:43:20Z</time>
      </trkpt>
      <trkpt lat="40.283832829" lon="0.325312139">
        <ele>32.34</ele>
        <time>2013-05-18T17:43:25Z</time>
      </trkpt>
      <trkpt lat="40.283779437" lon="0.325389840">
        <ele>31.86</ele>
        <time>2013-05-18T17:43:27Z</time>
      </trkpt>
      <trkpt lat="40.283698300" lon="0.325580360">
        <ele>30.90</ele>
        <time>2013-05-18T17:43:30Z</time>
      </trkpt>
      <trkpt lat="40.283580869" lon="0.325758560">
        <ele>30.42</ele>
        <time>2013-05-18T17:43:33Z</time>
      </trkpt>
      <trkpt lat="40.283485064" lon="0.325863920">
        <ele>28.98</ele>
        <time>2013-05-18T17:43:35Z</time>
      </trkpt>
      <trkpt lat="40.283359671" lon="0.326033067">
        <ele>28.98</ele>
        <time>2013-05-18T17:43:38Z</time>
      </trkpt>
      <trkpt lat="40.283137048" lon="0.326198190">
        <ele>27.53</ele>
        <time>2013-05-18T17:43:42Z</time>
      </trkpt>
      <trkpt lat="40.282795820" lon="0.326412767">
        <ele>25.61</ele>
        <time>2013-05-18T17:43:48Z</time>
      </trkpt>
      <trkpt lat="40.282566659" lon="0.326594068">
        <ele>24.65</ele>
        <time>2013-05-18T17:43:52Z</time>
      </trkpt>
      <trkpt lat="40.282435566" lon="0.326655339">
        <ele>24.17</ele>
        <time>2013-05-18T17:43:54Z</time>
      </trkpt>
      <trkpt lat="40.282114958" lon="0.326856254">
        <ele>22.25</ele>
        <time>2013-05-18T17:43:59Z</time>
      </trkpt>
      <trkpt lat="40.281619169" lon="0.327034118">
        <ele>20.32</ele>
        <time>2013-05-18T17:44:06Z</time>
      </trkpt>
      <trkpt lat="40.281547923" lon="0.327047780">
        <ele>20.32</ele>
        <time>2013-05-18T17:44:07Z</time>
      </trkpt>
      <trkpt lat="40.281268889" lon="0.327020288">
        <ele>19.84</ele>
        <time>2013-05-18T17:44:11Z</time>
      </trkpt>
      <trkpt lat="40.280950880" lon="0.327039734">
        <ele>18.88</ele>
        <time>2013-05-18T17:44:16Z</time>
      </trkpt>
      <trkpt lat="40.280749630" lon="0.327067142">
        <ele>17.44</ele>
        <time>2013-05-18T17:44:19Z</time>
      </trkpt>
      <trkpt lat="40.280553326" lon="0.327162445">
        <ele>16.48</ele>
        <time>2013-05-18T17:44:22Z</time>
      </trkpt>
      <trkpt lat="40.280218804" lon="0.327197900">
        <ele>15.04</ele>
        <time>2013-05-18T17:44:27Z</time>
      </trkpt>
      <trkpt lat="40.280022249" lon="0.327174934">
        <ele>14.08</ele>
        <time>2013-05-18T17:44:30Z</time>
      </trkpt>
      <trkpt lat="40.279892497" lon="0.327236792">
        <ele>13.12</ele>
        <time>2013-05-18T17:44:32Z</time>
      </trkpt>
      <trkpt lat="40.279535763" lon="0.327431420">
        <ele>11.19</ele>
        <time>2013-05-18T17:44:38Z</time>
      </trkpt>
      <trkpt lat="40.279410202" lon="0.327473162">
        <ele>9.27</ele>
        <time>2013-05-18T17:44:40Z</time>
      </trkpt>
      <trkpt lat="40.279211048" lon="0.327367466">
        <ele>6.87</ele>
        <time>2013-05-18T17:44:44Z</time>
      </trkpt>
      <trkpt lat="40.279106693" lon="0.327019701">
        <ele>4.46</ele>
        <time>2013-05-18T17:44:48Z</time>
      </trkpt>
      <trkpt lat="40.278998567" lon="0.326878214">
        <ele>4.94</ele>
        <time>2013-05-18T17:44:51Z</time>
      </trkpt>
      <trkpt lat="40.279065706" lon="0.326792132">
        <ele>6.39</ele>
        <time>2013-05-18T17:44:54Z</time>
      </trkpt>
      <trkpt lat="40.279149525" lon="0.326781906">
        <ele>7.35</ele>
        <time>2013-05-18T17:44:57Z</time>
      </trkpt>
      <trkpt lat="40.279388325" lon="0.326743685">
        <ele>9.27</ele>
        <time>2013-05-18T17:45:06Z</time>
      </trkpt>
      <trkpt lat="40.279511791" lon="0.326598259">
        <ele>9.75</ele>
        <time>2013-05-18T17:45:12Z</time>
      </trkpt>
      <trkpt lat="40.279513886" lon="0.326417377">
        <ele>12.15</ele>
        <time>2013-05-18T17:45:18Z</time>
      </trkpt>
      <trkpt lat="40.279466612" lon="0.326150414">
        <ele>13.12</ele>
        <time>2013-05-18T17:45:27Z</time>
      </trkpt>
      <trkpt lat="40.279515060" lon="0.325916642">
        <ele>14.08</ele>
        <time>2013-05-18T17:45:34Z</time>
      </trkpt>
      <trkpt lat="40.279597286" lon="0.325642470">
        <ele>14.56</ele>
        <time>2013-05-18T17:45:43Z</time>
      </trkpt>
      <trkpt lat="40.279748915" lon="0.325458236">
        <ele>14.56</ele>
        <time>2013-05-18T17:45:51Z</time>
      </trkpt>
      <trkpt lat="40.279950248" lon="0.325260255">
        <ele>15.04</ele>
        <time>2013-05-18T17:46:00Z</time>
      </trkpt>
      <trkpt lat="40.280135907" lon="0.325041907">
        <ele>16.48</ele>
        <time>2013-05-18T17:46:09Z</time>
      </trkpt>
      <trkpt lat="40.280288206" lon="0.324813249">
        <ele>16.00</ele>
        <time>2013-05-18T17:46:17Z</time>
      </trkpt>
      <trkpt lat="40.280425334" lon="0.324584590">
        <ele>16.48</ele>
        <time>2013-05-18T17:46:24Z</time>
      </trkpt>
      <trkpt lat="40.280590374" lon="0.324246716">
        <ele>15.52</ele>
        <time>2013-05-18T17:46:33Z</time>
      </trkpt>
      <trkpt lat="40.280620549" lon="0.324156526">
        <ele>16.00</ele>
        <time>2013-05-18T17:46:35Z</time>
      </trkpt>
      <trkpt lat="40.280535389" lon="0.324044377">
        <ele>16.48</ele>
        <time>2013-05-18T17:46:39Z</time>
      </trkpt>
      <trkpt lat="40.280503454" lon="0.324060302">
        <ele>17.44</ele>
        <time>2013-05-18T17:46:40Z</time>
      </trkpt>
      <trkpt lat="40.280230287" lon="0.324196005">
        <ele>17.44</ele>
        <time>2013-05-18T17:46:48Z</time>
      </trkpt>
      <trkpt lat="40.280163484" lon="0.324071785">
        <ele>18.88</ele>
        <time>2013-05-18T17:46:52Z</time>
      </trkpt>
      <trkpt lat="40.280229868" lon="0.323970951">
        <ele>18.88</ele>
        <time>2013-05-18T17:46:55Z</time>
      </trkpt>
      <trkpt lat="40.280417036" lon="0.323637938">
        <ele>20.81</ele>
        <time>2013-05-18T17:47:05Z</time>
      </trkpt>
      <trkpt lat="40.280509405" lon="0.323358569">
        <ele>21.77</ele>
        <time>2013-05-18T17:47:13Z</time>
      </trkpt>
      <trkpt lat="40.280539077" lon="0.323064364">
        <ele>22.73</ele>
        <time>2013-05-18T17:47:21Z</time>
      </trkpt>
      <trkpt lat="40.280633876" lon="0.322779380">
        <ele>23.69</ele>
        <time>2013-05-18T17:47:29Z</time>
      </trkpt>
      <trkpt lat="40.280662877" lon="0.322403116">
        <ele>24.65</ele>
        <time>2013-05-18T17:47:39Z</time>
      </trkpt>
      <trkpt lat="40.280676708" lon="0.322189126">
        <ele>25.13</ele>
        <time>2013-05-18T17:47:45Z</time>
      </trkpt>
      <trkpt lat="40.280667404" lon="0.321913864">
        <ele>25.61</ele>
        <time>2013-05-18T17:47:53Z</time>
      </trkpt>
      <trkpt lat="40.280651562" lon="0.321602980">
        <ele>26.09</ele>
        <time>2013-05-18T17:48:02Z</time>
      </trkpt>
      <trkpt lat="40.280522481" lon="0.321480855">
        <ele>27.53</ele>
        <time>2013-05-18T17:48:08Z</time>
      </trkpt>
      <trkpt lat="40.280311005" lon="0.321304835">
        <ele>27.05</ele>
        <time>2013-05-18T17:48:17Z</time>
      </trkpt>
      <trkpt lat="40.280052423" lon="0.321117500">
        <ele>27.53</ele>
        <time>2013-05-18T17:48:25Z</time>
      </trkpt>
      <trkpt lat="40.279734079" lon="0.320928739">
        <ele>26.57</ele>
        <time>2013-05-18T17:48:34Z</time>
      </trkpt>
      <trkpt lat="40.279454961" lon="0.320673259">
        <ele>27.05</ele>
        <time>2013-05-18T17:48:43Z</time>
      </trkpt>
      <trkpt lat="40.279386984" lon="0.320603270">
        <ele>26.57</ele>
        <time>2013-05-18T17:48:45Z</time>
      </trkpt>
      <trkpt lat="40.279069310" lon="0.320361620">
        <ele>26.09</ele>
        <time>2013-05-18T17:48:54Z</time>
      </trkpt>
      <trkpt lat="40.278961351" lon="0.320140673">
        <ele>27.05</ele>
        <time>2013-05-18T17:49:00Z</time>
      </trkpt>
      <trkpt lat="40.278967554" lon="0.319907404">
        <ele>26.57</ele>
        <time>2013-05-18T17:49:06Z</time>
      </trkpt>
      <trkpt lat="40.278949784" lon="0.319834147">
        <ele>26.09</ele>
        <time>2013-05-18T17:49:10Z</time>
      </trkpt>
      <trkpt lat="40.278949700" lon="0.319828112">
        <ele>26.09</ele>
        <time>2013-05-18T17:49:16Z</time>
      </trkpt>
      <trkpt lat="40.278931763" lon="0.319880666">
        <ele>25.61</ele>
        <time>2013-05-18T17:49:20Z</time>
      </trkpt>
      <trkpt lat="40.278923968" lon="0.319963647">
        <ele>26.09</ele>
        <time>2013-05-18T17:49:23Z</time>
      </trkpt>
      <trkpt lat="40.278726071" lon="0.320161460">
        <ele>26.09</ele>
        <time>2013-05-18T17:49:31Z</time>
      </trkpt>
      <trkpt lat="40.278641330" lon="0.320262127">
        <ele>25.61</ele>
        <time>2013-05-18T17:49:34Z</time>
      </trkpt>
      <trkpt lat="40.278479224" lon="0.320220049">
        <ele>23.21</ele>
        <time>2013-05-18T17:49:40Z</time>
      </trkpt>
      <trkpt lat="40.278376294" lon="0.320195742">
        <ele>22.25</ele>
        <time>2013-05-18T17:49:43Z</time>
      </trkpt>
      <trkpt lat="40.278259618" lon="0.320267323">
        <ele>20.32</ele>
        <time>2013-05-18T17:49:47Z</time>
      </trkpt>
      <trkpt lat="40.278257355" lon="0.320280567">
        <ele>21.29</ele>
        <time>2013-05-18T17:49:53Z</time>
      </trkpt>
      <trkpt lat="40.278261630" lon="0.320283081">
        <ele>20.32</ele>
        <time>2013-05-18T17:50:02Z</time>
      </trkpt>
      <trkpt lat="40.278263725" lon="0.320272436">
        <ele>22.25</ele>
        <time>2013-05-18T17:50:10Z</time>
      </trkpt>
      <trkpt lat="40.278248889" lon="0.320286937">
        <ele>20.81</ele>
        <time>2013-05-18T17:50:22Z</time>
      </trkpt>
      <trkpt lat="40.278272694" lon="0.320291128">
        <ele>21.29</ele>
        <time>2013-05-18T17:50:38Z</time>
      </trkpt>
      <trkpt lat="40.278249811" lon="0.320313005">
        <ele>21.29</ele>
        <time>2013-05-18T17:50:57Z</time>
      </trkpt>
      <trkpt lat="40.278246710" lon="0.320298756">
        <ele>20.81</ele>
        <time>2013-05-18T17:51:13Z</time>
      </trkpt>
      <trkpt lat="40.278256014" lon="0.320304874">
        <ele>20.81</ele>
        <time>2013-05-18T17:51:25Z</time>
      </trkpt>
      <trkpt lat="40.278231958" lon="0.320379306">
        <ele>20.32</ele>
        <time>2013-05-18T17:51:35Z</time>
      </trkpt>
      <trkpt lat="40.278097847" lon="0.320554152">
        <ele>19.36</ele>
        <time>2013-05-18T17:51:41Z</time>
      </trkpt>
      <trkpt lat="40.277904477" lon="0.320799574">
        <ele>17.44</ele>
        <time>2013-05-18T17:51:47Z</time>
      </trkpt>
      <trkpt lat="40.277852258" lon="0.320970984">
        <ele>15.52</ele>
        <time>2013-05-18T17:51:52Z</time>
      </trkpt>
      <trkpt lat="40.277867932" lon="0.320958411">
        <ele>17.44</ele>
        <time>2013-05-18T17:52:01Z</time>
      </trkpt>
      <trkpt lat="40.277893161" lon="0.320946174">
        <ele>17.92</ele>
        <time>2013-05-18T17:52:11Z</time>
      </trkpt>
      <trkpt lat="40.277885785" lon="0.320957405">
        <ele>16.48</ele>
        <time>2013-05-18T17:52:27Z</time>
      </trkpt>
      <trkpt lat="40.277926354" lon="0.320958830">
        <ele>15.52</ele>
        <time>2013-05-18T17:52:47Z</time>
      </trkpt>
      <trkpt lat="40.277906824" lon="0.320962770">
        <ele>16.48</ele>
        <time>2013-05-18T17:53:05Z</time>
      </trkpt>
      <trkpt lat="40.277895676" lon="0.320955226">
        <ele>16.00</ele>
        <time>2013-05-18T17:53:17Z</time>
      </trkpt>
      <trkpt lat="40.277906405" lon="0.320939636">
        <ele>15.52</ele>
        <time>2013-05-18T17:53:41Z</time>
      </trkpt>
      <trkpt lat="40.277884193" lon="0.320952795">
        <ele>15.04</ele>
        <time>2013-05-18T17:54:01Z</time>
      </trkpt>
      <trkpt lat="40.277890479" lon="0.320939468">
        <ele>16.48</ele>
        <time>2013-05-18T17:54:22Z</time>
      </trkpt>
      <trkpt lat="40.277880589" lon="0.320942486">
        <ele>16.00</ele>
        <time>2013-05-18T17:54:41Z</time>
      </trkpt>
      <trkpt lat="40.277889054" lon="0.320941899">
        <ele>15.52</ele>
        <time>2013-05-18T17:55:03Z</time>
      </trkpt>
      <trkpt lat="40.277884109" lon="0.320947347">
        <ele>16.00</ele>
        <time>2013-05-18T17:55:20Z</time>
      </trkpt>
      <trkpt lat="40.277883438" lon="0.320949862">
        <ele>15.52</ele>
        <time>2013-05-18T17:55:39Z</time>
      </trkpt>
      <trkpt lat="40.277898023" lon="0.320950784">
        <ele>16.00</ele>
        <time>2013-05-18T17:55:57Z</time>
      </trkpt>
      <trkpt lat="40.277888048" lon="0.320975427">
        <ele>16.48</ele>
        <time>2013-05-18T17:56:15Z</time>
      </trkpt>
      <trkpt lat="40.277887043" lon="0.320977271">
        <ele>16.96</ele>
        <time>2013-05-18T17:56:16Z</time>
      </trkpt>
      <trkpt lat="40.277880505" lon="0.320961094">
        <ele>16.48</ele>
        <time>2013-05-18T17:56:24Z</time>
      </trkpt>
      <trkpt lat="40.277896766" lon="0.320973415">
        <ele>16.48</ele>
        <time>2013-05-18T17:56:39Z</time>
      </trkpt>
      <trkpt lat="40.277904058" lon="0.320984144">
        <ele>16.00</ele>
        <time>2013-05-18T17:56:59Z</time>
      </trkpt>
      <trkpt lat="40.277911518" lon="0.320985736">
        <ele>16.48</ele>
        <time>2013-05-18T17:57:15Z</time>
      </trkpt>
      <trkpt lat="40.277924426" lon="0.320992945">
        <ele>16.48</ele>
        <time>2013-05-18T17:57:29Z</time>
      </trkpt>
      <trkpt lat="40.277918223" lon="0.321003255">
        <ele>17.44</ele>
        <time>2013-05-18T17:57:48Z</time>
      </trkpt>
      <trkpt lat="40.277928701" lon="0.321005099">
        <ele>16.96</ele>
        <time>2013-05-18T17:58:05Z</time>
      </trkpt>
      <trkpt lat="40.277920654" lon="0.320968721">
        <ele>17.44</ele>
        <time>2013-05-18T17:58:25Z</time>
      </trkpt>
      <trkpt lat="40.277939346" lon="0.320975175">
        <ele>17.44</ele>
        <time>2013-05-18T17:58:47Z</time>
      </trkpt>
      <trkpt lat="40.277924761" lon="0.320970649">
        <ele>17.92</ele>
        <time>2013-05-18T17:59:02Z</time>
      </trkpt>
      <trkpt lat="40.277906740" lon="0.320954891">
        <ele>18.40</ele>
        <time>2013-05-18T17:59:20Z</time>
      </trkpt>
      <trkpt lat="40.277903639" lon="0.320967631">
        <ele>17.92</ele>
        <time>2013-05-18T17:59:44Z</time>
      </trkpt>
      <trkpt lat="40.277889222" lon="0.320945419">
        <ele>18.40</ele>
        <time>2013-05-18T18:00:03Z</time>
      </trkpt>
      <trkpt lat="40.277910260" lon="0.320961513">
        <ele>18.40</ele>
        <time>2013-05-18T18:00:22Z</time>
      </trkpt>
      <trkpt lat="40.277910763" lon="0.320981545">
        <ele>18.88</ele>
        <time>2013-05-18T18:00:42Z</time>
      </trkpt>
      <trkpt lat="40.277925180" lon="0.321003590">
        <ele>19.36</ele>
        <time>2013-05-18T18:00:59Z</time>
      </trkpt>
      <trkpt lat="40.277929706" lon="0.321006356">
        <ele>19.36</ele>
        <time>2013-05-18T18:01:15Z</time>
      </trkpt>
      <trkpt lat="40.277901124" lon="0.321018007">
        <ele>19.36</ele>
        <time>2013-05-18T18:01:35Z</time>
      </trkpt>
      <trkpt lat="40.277912691" lon="0.321012475">
        <ele>21.29</ele>
        <time>2013-05-18T18:01:43Z</time>
      </trkpt>
      <trkpt lat="40.277896095" lon="0.320915664">
        <ele>19.84</ele>
        <time>2013-05-18T18:01:45Z</time>
      </trkpt>
      <trkpt lat="40.277904226" lon="0.320869312">
        <ele>20.32</ele>
        <time>2013-05-18T18:01:51Z</time>
      </trkpt>
      <trkpt lat="40.277860053" lon="0.320942737">
        <ele>20.32</ele>
        <time>2013-05-18T18:02:06Z</time>
      </trkpt>
      <trkpt lat="40.277863238" lon="0.320943408">
        <ele>21.29</ele>
        <time>2013-05-18T18:02:27Z</time>
      </trkpt>
      <trkpt lat="40.277863992" lon="0.320972744">
        <ele>20.81</ele>
        <time>2013-05-18T18:02:41Z</time>
      </trkpt>
      <trkpt lat="40.277859382" lon="0.320978779">
        <ele>20.32</ele>
        <time>2013-05-18T18:02:53Z</time>
      </trkpt>
      <trkpt lat="40.277858963" lon="0.321002249">
        <ele>21.29</ele>
        <time>2013-05-18T18:03:06Z</time>
      </trkpt>
      <trkpt lat="40.277851839" lon="0.321005601">
        <ele>22.25</ele>
        <time>2013-05-18T18:03:15Z</time>
      </trkpt>
      <trkpt lat="40.277859718" lon="0.320980707">
        <ele>21.29</ele>
        <time>2013-05-18T18:03:30Z</time>
      </trkpt>
      <trkpt lat="40.277859718" lon="0.320974085">
        <ele>21.77</ele>
        <time>2013-05-18T18:03:40Z</time>
      </trkpt>
      <trkpt lat="40.277854353" lon="0.320991352">
        <ele>22.73</ele>
        <time>2013-05-18T18:03:56Z</time>
      </trkpt>
      <trkpt lat="40.277849240" lon="0.320994789">
        <ele>21.77</ele>
        <time>2013-05-18T18:04:09Z</time>
      </trkpt>
      <trkpt lat="40.277883857" lon="0.320974421">
        <ele>22.25</ele>
        <time>2013-05-18T18:04:21Z</time>
      </trkpt>
      <trkpt lat="40.277864998" lon="0.320983557">
        <ele>22.25</ele>
        <time>2013-05-18T18:04:31Z</time>
      </trkpt>
      <trkpt lat="40.277874134" lon="0.320996884">
        <ele>22.73</ele>
        <time>2013-05-18T18:04:36Z</time>
      </trkpt>
      <trkpt lat="40.277876565" lon="0.321010631">
        <ele>21.77</ele>
        <time>2013-05-18T18:04:49Z</time>
      </trkpt>
      <trkpt lat="40.277871117" lon="0.321023623">
        <ele>22.73</ele>
        <time>2013-05-18T18:05:01Z</time>
      </trkpt>
      <trkpt lat="40.277855862" lon="0.321014486">
        <ele>23.69</ele>
        <time>2013-05-18T18:05:15Z</time>
      </trkpt>
      <trkpt lat="40.277867764" lon="0.321011553">
        <ele>23.21</ele>
        <time>2013-05-18T18:05:31Z</time>
      </trkpt>
      <trkpt lat="40.277893580" lon="0.320958998">
        <ele>21.77</ele>
        <time>2013-05-18T18:05:37Z</time>
      </trkpt>
      <trkpt lat="40.277893078" lon="0.320960674">
        <ele>27.53</ele>
        <time>2013-05-18T18:05:39Z</time>
      </trkpt>
      <trkpt lat="40.277892742" lon="0.320961596">
        <ele>25.13</ele>
        <time>2013-05-18T18:05:40Z</time>
      </trkpt>
      <trkpt lat="40.277935741" lon="0.320979785">
        <ele>24.17</ele>
        <time>2013-05-18T18:06:05Z</time>
      </trkpt>
      <trkpt lat="40.277873799" lon="0.320932176">
        <ele>23.21</ele>
        <time>2013-05-18T18:06:11Z</time>
      </trkpt>
      <trkpt lat="40.277866339" lon="0.320936618">
        <ele>24.17</ele>
        <time>2013-05-18T18:06:30Z</time>
      </trkpt>
      <trkpt lat="40.277869105" lon="0.320953382">
        <ele>24.17</ele>
        <time>2013-05-18T18:06:44Z</time>
      </trkpt>
      <trkpt lat="40.277772965" lon="0.321067208">
        <ele>23.69</ele>
        <time>2013-05-18T18:06:50Z</time>
      </trkpt>
      <trkpt lat="40.277653774" lon="0.321188830">
        <ele>23.21</ele>
        <time>2013-05-18T18:06:57Z</time>
      </trkpt>
      <trkpt lat="40.277545899" lon="0.321349427">
        <ele>21.77</ele>
        <time>2013-05-18T18:07:04Z</time>
      </trkpt>
      <trkpt lat="40.277388906" lon="0.321500301">
        <ele>20.81</ele>
        <time>2013-05-18T18:07:11Z</time>
      </trkpt>
      <trkpt lat="40.277223783" lon="0.321652349">
        <ele>19.36</ele>
        <time>2013-05-18T18:07:18Z</time>
      </trkpt>
      <trkpt lat="40.277075423" lon="0.321740862">
        <ele>18.40</ele>
        <time>2013-05-18T18:07:23Z</time>
      </trkpt>
      <trkpt lat="40.276875347" lon="0.321673388">
        <ele>17.44</ele>
        <time>2013-05-18T18:07:29Z</time>
      </trkpt>
      <trkpt lat="40.276690694" lon="0.321631227">
        <ele>16.96</ele>
        <time>2013-05-18T18:07:36Z</time>
      </trkpt>
      <trkpt lat="40.276567731" lon="0.321660982">
        <ele>16.48</ele>
        <time>2013-05-18T18:07:42Z</time>
      </trkpt>
      <trkpt lat="40.276564211" lon="0.321671544">
        <ele>15.52</ele>
        <time>2013-05-18T18:07:50Z</time>
      </trkpt>
      <trkpt lat="40.276519284" lon="0.321704652">
        <ele>15.52</ele>
        <time>2013-05-18T18:08:05Z</time>
      </trkpt>
      <trkpt lat="40.276373103" lon="0.321828704">
        <ele>14.08</ele>
        <time>2013-05-18T18:08:10Z</time>
      </trkpt>
      <trkpt lat="40.276186103" lon="0.322063733">
        <ele>13.60</ele>
        <time>2013-05-18T18:08:17Z</time>
      </trkpt>
      <trkpt lat="40.276034391" lon="0.322180493">
        <ele>12.63</ele>
        <time>2013-05-18T18:08:23Z</time>
      </trkpt>
      <trkpt lat="40.275949985" lon="0.322221983">
        <ele>11.19</ele>
        <time>2013-05-18T18:08:26Z</time>
      </trkpt>
      <trkpt lat="40.275813779" lon="0.322334133">
        <ele>11.19</ele>
        <time>2013-05-18T18:08:32Z</time>
      </trkpt>
      <trkpt lat="40.275677824" lon="0.322430022">
        <ele>11.19</ele>
        <time>2013-05-18T18:08:38Z</time>
      </trkpt>
      <trkpt lat="40.275589060" lon="0.322559774">
        <ele>10.71</ele>
        <time>2013-05-18T18:08:45Z</time>
      </trkpt>
      <trkpt lat="40.275562573" lon="0.322645353">
        <ele>9.75</ele>
        <time>2013-05-18T18:08:48Z</time>
      </trkpt>
      <trkpt lat="40.275548324" lon="0.322665554">
        <ele>8.79</ele>
        <time>2013-05-18T18:08:49Z</time>
      </trkpt>
      <trkpt lat="40.275381776" lon="0.322789354">
        <ele>7.83</ele>
        <time>2013-05-18T18:08:57Z</time>
      </trkpt>
      <trkpt lat="40.275366353" lon="0.322806789">
        <ele>8.31</ele>
        <time>2013-05-18T18:09:03Z</time>
      </trkpt>
      <trkpt lat="40.275376914" lon="0.322816093">
        <ele>7.83</ele>
        <time>2013-05-18T18:09:14Z</time>
      </trkpt>
      <trkpt lat="40.275390744" lon="0.322795473">
        <ele>7.83</ele>
        <time>2013-05-18T18:09:18Z</time>
      </trkpt>
      <trkpt lat="40.275485627" lon="0.322687263">
        <ele>8.79</ele>
        <time>2013-05-18T18:09:26Z</time>
      </trkpt>
      <trkpt lat="40.275559807" lon="0.322658848">
        <ele>9.75</ele>
        <time>2013-05-18T18:09:30Z</time>
      </trkpt>
      <trkpt lat="40.275585288" lon="0.322597325">
        <ele>9.75</ele>
        <time>2013-05-18T18:09:34Z</time>
      </trkpt>
      <trkpt lat="40.275574392" lon="0.322492635">
        <ele>9.75</ele>
        <time>2013-05-18T18:09:41Z</time>
      </trkpt>
      <trkpt lat="40.275507588" lon="0.322499173">
        <ele>9.75</ele>
        <time>2013-05-18T18:09:45Z</time>
      </trkpt>
      <trkpt lat="40.275388397" lon="0.322503615">
        <ele>8.79</ele>
        <time>2013-05-18T18:09:52Z</time>
      </trkpt>
      <trkpt lat="40.275321342" lon="0.322477128">
        <ele>9.27</ele>
        <time>2013-05-18T18:09:58Z</time>
      </trkpt>
      <trkpt lat="40.275311535" lon="0.322462460">
        <ele>8.79</ele>
        <time>2013-05-18T18:10:12Z</time>
      </trkpt>
      <trkpt lat="40.275334083" lon="0.322471177">
        <ele>8.31</ele>
        <time>2013-05-18T18:10:15Z</time>
      </trkpt>
      <trkpt lat="40.275396360" lon="0.322525660">
        <ele>9.75</ele>
        <time>2013-05-18T18:10:22Z</time>
      </trkpt>
      <trkpt lat="40.275413375" lon="0.322512584">
        <ele>8.79</ele>
        <time>2013-05-18T18:10:24Z</time>
      </trkpt>
      <trkpt lat="40.275419075" lon="0.322382832">
        <ele>8.79</ele>
        <time>2013-05-18T18:10:32Z</time>
      </trkpt>
      <trkpt lat="40.275407257" lon="0.322238663">
        <ele>8.31</ele>
        <time>2013-05-18T18:10:38Z</time>
      </trkpt>
      <trkpt lat="40.275406167" lon="0.322204968">
        <ele>8.31</ele>
        <time>2013-05-18T18:10:47Z</time>
      </trkpt>
      <trkpt lat="40.275404407" lon="0.322187617">
        <ele>9.27</ele>
        <time>2013-05-18T18:10:58Z</time>
      </trkpt>
      <trkpt lat="40.275403233" lon="0.322187115">
        <ele>7.83</ele>
        <time>2013-05-18T18:11:02Z</time>
      </trkpt>
      <trkpt lat="40.275399964" lon="0.322186779">
        <ele>7.83</ele>
        <time>2013-05-18T18:11:14Z</time>
      </trkpt>
      <trkpt lat="40.275397198" lon="0.322187282">
        <ele>7.83</ele>
        <time>2013-05-18T18:11:31Z</time>
      </trkpt>
      <trkpt lat="40.275402395" lon="0.322039258">
        <ele>6.87</ele>
        <time>2013-05-18T18:11:41Z</time>
      </trkpt>
      <trkpt lat="40.275372891" lon="0.322001288">
        <ele>6.87</ele>
        <time>2013-05-18T18:11:48Z</time>
      </trkpt>
      <trkpt lat="40.275375489" lon="0.322001120">
        <ele>7.35</ele>
        <time>2013-05-18T18:11:49Z</time>
      </trkpt>
      <trkpt lat="40.275357552" lon="0.321964324">
        <ele>6.87</ele>
        <time>2013-05-18T18:11:57Z</time>
      </trkpt>
      <trkpt lat="40.275298962" lon="0.321914200">
        <ele>6.39</ele>
        <time>2013-05-18T18:12:09Z</time>
      </trkpt>
      <trkpt lat="40.275182873" lon="0.321789980">
        <ele>6.39</ele>
        <time>2013-05-18T18:12:16Z</time>
      </trkpt>
      <trkpt lat="40.275080781" lon="0.321664335">
        <ele>6.39</ele>
        <time>2013-05-18T18:12:23Z</time>
      </trkpt>
      <trkpt lat="40.274960082" lon="0.321579259">
        <ele>8.31</ele>
        <time>2013-05-18T18:12:29Z</time>
      </trkpt>
      <trkpt lat="40.274933260" lon="0.321547743">
        <ele>9.27</ele>
        <time>2013-05-18T18:12:31Z</time>
      </trkpt>
      <trkpt lat="40.274851536" lon="0.321431402">
        <ele>10.23</ele>
        <time>2013-05-18T18:12:39Z</time>
      </trkpt>
      <trkpt lat="40.274743242" lon="0.321370801">
        <ele>9.27</ele>
        <time>2013-05-18T18:12:45Z</time>
      </trkpt>
      <trkpt lat="40.274643665" lon="0.321253035">
        <ele>8.79</ele>
        <time>2013-05-18T18:12:52Z</time>
      </trkpt>
      <trkpt lat="40.274594715" lon="0.321186567">
        <ele>9.27</ele>
        <time>2013-05-18T18:12:56Z</time>
      </trkpt>
      <trkpt lat="40.274578119" lon="0.321098557">
        <ele>8.31</ele>
        <time>2013-05-18T18:13:01Z</time>
      </trkpt>
      <trkpt lat="40.274497820" lon="0.321009373">
        <ele>8.31</ele>
        <time>2013-05-18T18:13:07Z</time>
      </trkpt>
      <trkpt lat="40.274402853" lon="0.320807537">
        <ele>7.83</ele>
        <time>2013-05-18T18:13:15Z</time>
      </trkpt>
      <trkpt lat="40.274308473" lon="0.320726568">
        <ele>8.31</ele>
        <time>2013-05-18T18:13:21Z</time>
      </trkpt>
      <trkpt lat="40.274290955" lon="0.320697818">
        <ele>7.83</ele>
        <time>2013-05-18T18:13:27Z</time>
      </trkpt>
      <trkpt lat="40.274291039" lon="0.320682731">
        <ele>7.35</ele>
        <time>2013-05-18T18:13:28Z</time>
      </trkpt>
      <trkpt lat="40.274273353" lon="0.320548285">
        <ele>6.87</ele>
        <time>2013-05-18T18:13:34Z</time>
      </trkpt>
      <trkpt lat="40.274247536" lon="0.320497239">
        <ele>6.87</ele>
        <time>2013-05-18T18:13:39Z</time>
      </trkpt>
      <trkpt lat="40.274104793" lon="0.320360698">
        <ele>6.39</ele>
        <time>2013-05-18T18:13:47Z</time>
      </trkpt>
      <trkpt lat="40.274003372" lon="0.320230694">
        <ele>6.39</ele>
        <time>2013-05-18T18:13:54Z</time>
      </trkpt>
      <trkpt lat="40.273978226" lon="0.320202615">
        <ele>6.87</ele>
        <time>2013-05-18T18:13:56Z</time>
      </trkpt>
      <trkpt lat="40.273913098" lon="0.320182834">
        <ele>7.35</ele>
        <time>2013-05-18T18:14:00Z</time>
      </trkpt>
      <trkpt lat="40.273795249" lon="0.320065487">
        <ele>7.35</ele>
        <time>2013-05-18T18:14:09Z</time>
      </trkpt>
      <trkpt lat="40.273785526" lon="0.320048137">
        <ele>7.35</ele>
        <time>2013-05-18T18:14:10Z</time>
      </trkpt>
      <trkpt lat="40.273765326" lon="0.319991140">
        <ele>7.35</ele>
        <time>2013-05-18T18:14:13Z</time>
      </trkpt>
      <trkpt lat="40.273729786" lon="0.319812438">
        <ele>7.35</ele>
        <time>2013-05-18T18:14:20Z</time>
      </trkpt>
      <trkpt lat="40.273616631" lon="0.319697186">
        <ele>6.39</ele>
        <time>2013-05-18T18:14:27Z</time>
      </trkpt>
      <trkpt lat="40.273574218" lon="0.319648907">
        <ele>7.35</ele>
        <time>2013-05-18T18:14:32Z</time>
      </trkpt>
      <trkpt lat="40.273571452" lon="0.319604399">
        <ele>7.83</ele>
        <time>2013-05-18T18:14:35Z</time>
      </trkpt>
      <trkpt lat="40.273510348" lon="0.319469199">
        <ele>7.35</ele>
        <time>2013-05-18T18:14:43Z</time>
      </trkpt>
      <trkpt lat="40.273500374" lon="0.319449669">
        <ele>6.39</ele>
        <time>2013-05-18T18:14:49Z</time>
      </trkpt>
      <trkpt lat="40.273461146" lon="0.319349421">
        <ele>6.39</ele>
        <time>2013-05-18T18:14:55Z</time>
      </trkpt>
      <trkpt lat="40.273453100" lon="0.319314469">
        <ele>6.87</ele>
        <time>2013-05-18T18:15:01Z</time>
      </trkpt>
      <trkpt lat="40.273430217" lon="0.319275660">
        <ele>7.83</ele>
        <time>2013-05-18T18:15:08Z</time>
      </trkpt>
      <trkpt lat="40.273386715" lon="0.319253281">
        <ele>8.31</ele>
        <time>2013-05-18T18:15:12Z</time>
      </trkpt>
      <trkpt lat="40.273329299" lon="0.319228303">
        <ele>8.31</ele>
        <time>2013-05-18T18:15:22Z</time>
      </trkpt>
      <trkpt lat="40.273328461" lon="0.319207432">
        <ele>8.79</ele>
        <time>2013-05-18T18:15:39Z</time>
      </trkpt>
      <trkpt lat="40.273299795" lon="0.319204833">
        <ele>8.79</ele>
        <time>2013-05-18T18:15:45Z</time>
      </trkpt>
      <trkpt lat="40.273301974" lon="0.319212712">
        <ele>8.79</ele>
        <time>2013-05-18T18:15:48Z</time>
      </trkpt>
      <trkpt lat="40.273230644" lon="0.319122607">
        <ele>8.79</ele>
        <time>2013-05-18T18:15:55Z</time>
      </trkpt>
      <trkpt lat="40.273107849" lon="0.318938876">
        <ele>9.27</ele>
        <time>2013-05-18T18:16:04Z</time>
      </trkpt>
      <trkpt lat="40.273071053" lon="0.318821948">
        <ele>9.75</ele>
        <time>2013-05-18T18:16:09Z</time>
      </trkpt>
      <trkpt lat="40.273030400" lon="0.318695549">
        <ele>11.19</ele>
        <time>2013-05-18T18:16:16Z</time>
      </trkpt>
      <trkpt lat="40.273052445" lon="0.318635367">
        <ele>11.67</ele>
        <time>2013-05-18T18:16:19Z</time>
      </trkpt>
      <trkpt lat="40.273211030" lon="0.318418946">
        <ele>13.12</ele>
        <time>2013-05-18T18:16:30Z</time>
      </trkpt>
      <trkpt lat="40.273335250" lon="0.318212751">
        <ele>14.56</ele>
        <time>2013-05-18T18:16:40Z</time>
      </trkpt>
      <trkpt lat="40.273369364" lon="0.318076462">
        <ele>15.04</ele>
        <time>2013-05-18T18:16:46Z</time>
      </trkpt>
      <trkpt lat="40.273362324" lon="0.317935310">
        <ele>15.52</ele>
        <time>2013-05-18T18:16:55Z</time>
      </trkpt>
      <trkpt lat="40.273376824" lon="0.317939837">
        <ele>16.00</ele>
        <time>2013-05-18T18:17:11Z</time>
      </trkpt>
      <trkpt lat="40.273373472" lon="0.317968670">
        <ele>15.52</ele>
        <time>2013-05-18T18:17:24Z</time>
      </trkpt>
      <trkpt lat="40.273390654" lon="0.317956768">
        <ele>16.00</ele>
        <time>2013-05-18T18:17:30Z</time>
      </trkpt>
      <trkpt lat="40.273487549" lon="0.318000941">
        <ele>16.00</ele>
        <time>2013-05-18T18:17:38Z</time>
      </trkpt>
      <trkpt lat="40.273540858" lon="0.317899939">
        <ele>16.48</ele>
        <time>2013-05-18T18:17:44Z</time>
      </trkpt>
      <trkpt lat="40.273550330" lon="0.317879403">
        <ele>16.96</ele>
        <time>2013-05-18T18:17:45Z</time>
      </trkpt>
      <trkpt lat="40.273695923" lon="0.317671532">
        <ele>18.40</ele>
        <time>2013-05-18T18:17:56Z</time>
      </trkpt>
      <trkpt lat="40.273843277" lon="0.317457039">
        <ele>19.84</ele>
        <time>2013-05-18T18:18:07Z</time>
      </trkpt>
      <trkpt lat="40.273976633" lon="0.317265177">
        <ele>19.84</ele>
        <time>2013-05-18T18:18:17Z</time>
      </trkpt>
      <trkpt lat="40.274098171" lon="0.317113381">
        <ele>21.29</ele>
        <time>2013-05-18T18:18:25Z</time>
      </trkpt>
      <trkpt lat="40.274284920" lon="0.316844741">
        <ele>22.25</ele>
        <time>2013-05-18T18:18:38Z</time>
      </trkpt>
      <trkpt lat="40.274430094" lon="0.316621279">
        <ele>23.69</ele>
        <time>2013-05-18T18:18:49Z</time>
      </trkpt>
      <trkpt lat="40.274574263" lon="0.316384155">
        <ele>24.65</ele>
        <time>2013-05-18T18:19:00Z</time>
      </trkpt>
      <trkpt lat="40.274724802" lon="0.316131357">
        <ele>25.61</ele>
        <time>2013-05-18T18:19:11Z</time>
      </trkpt>
      <trkpt lat="40.274870647" lon="0.315837068">
        <ele>26.09</ele>
        <time>2013-05-18T18:19:23Z</time>
      </trkpt>
      <trkpt lat="40.275036441" lon="0.315615367">
        <ele>27.05</ele>
        <time>2013-05-18T18:19:34Z</time>
      </trkpt>
      <trkpt lat="40.275210282" lon="0.315445215">
        <ele>29.94</ele>
        <time>2013-05-18T18:19:45Z</time>
      </trkpt>
      <trkpt lat="40.275395270" lon="0.315333903">
        <ele>31.38</ele>
        <time>2013-05-18T18:19:55Z</time>
      </trkpt>
      <trkpt lat="40.275569865" lon="0.315203648">
        <ele>33.78</ele>
        <time>2013-05-18T18:20:05Z</time>
      </trkpt>
      <trkpt lat="40.275698612" lon="0.315075070">
        <ele>34.74</ele>
        <time>2013-05-18T18:20:13Z</time>
      </trkpt>
      <trkpt lat="40.275874212" lon="0.314951101">
        <ele>36.67</ele>
        <time>2013-05-18T18:20:23Z</time>
      </trkpt>
      <trkpt lat="40.276034055" lon="0.314835599">
        <ele>37.63</ele>
        <time>2013-05-18T18:20:32Z</time>
      </trkpt>
      <trkpt lat="40.276229521" lon="0.314744236">
        <ele>38.59</ele>
        <time>2013-05-18T18:20:42Z</time>
      </trkpt>
      <trkpt lat="40.276387688" lon="0.314612053">
        <ele>40.51</ele>
        <time>2013-05-18T18:20:51Z</time>
      </trkpt>
      <trkpt lat="40.276532527" lon="0.314467968">
        <ele>40.99</ele>
        <time>2013-05-18T18:21:00Z</time>
      </trkpt>
      <trkpt lat="40.276672421" lon="0.314368475">
        <ele>41.95</ele>
        <time>2013-05-18T18:21:08Z</time>
      </trkpt>
      <trkpt lat="40.276800497" lon="0.314266635">
        <ele>42.92</ele>
        <time>2013-05-18T18:21:15Z</time>
      </trkpt>
      <trkpt lat="40.276927985" lon="0.314207124">
        <ele>44.36</ele>
        <time>2013-05-18T18:21:22Z</time>
      </trkpt>
      <trkpt lat="40.277145496" lon="0.314047281">
        <ele>45.80</ele>
        <time>2013-05-18T18:21:34Z</time>
      </trkpt>
      <trkpt lat="40.277321516" lon="0.313920714">
        <ele>48.20</ele>
        <time>2013-05-18T18:21:44Z</time>
      </trkpt>
      <trkpt lat="40.277515724" lon="0.313763889">
        <ele>50.13</ele>
        <time>2013-05-18T18:21:55Z</time>
      </trkpt>
      <trkpt lat="40.277660647" lon="0.313608740">
        <ele>51.57</ele>
        <time>2013-05-18T18:22:04Z</time>
      </trkpt>
      <trkpt lat="40.277749998" lon="0.313405730">
        <ele>52.53</ele>
        <time>2013-05-18T18:22:13Z</time>
      </trkpt>
      <trkpt lat="40.277723176" lon="0.313225351">
        <ele>53.01</ele>
        <time>2013-05-18T18:22:20Z</time>
      </trkpt>
      <trkpt lat="40.277632400" lon="0.312954448">
        <ele>52.53</ele>
        <time>2013-05-18T18:22:29Z</time>
      </trkpt>
      <trkpt lat="40.277444059" lon="0.312741799">
        <ele>50.61</ele>
        <time>2013-05-18T18:22:34Z</time>
      </trkpt>
      <trkpt lat="40.277340962" lon="0.312634343">
        <ele>49.65</ele>
        <time>2013-05-18T18:22:36Z</time>
      </trkpt>
      <trkpt lat="40.277032005" lon="0.312308790">
        <ele>50.13</ele>
        <time>2013-05-18T18:22:43Z</time>
      </trkpt>
      <trkpt lat="40.276967380" lon="0.312215332">
        <ele>49.65</ele>
        <time>2013-05-18T18:22:45Z</time>
      </trkpt>
      <trkpt lat="40.276878197" lon="0.312001090">
        <ele>49.16</ele>
        <time>2013-05-18T18:22:49Z</time>
      </trkpt>
      <trkpt lat="40.276764873" lon="0.311717028">
        <ele>50.13</ele>
        <time>2013-05-18T18:22:56Z</time>
      </trkpt>
      <trkpt lat="40.276738722" lon="0.311684338">
        <ele>50.61</ele>
        <time>2013-05-18T18:22:57Z</time>
      </trkpt>
      <trkpt lat="40.276485505" lon="0.311625917">
        <ele>48.20</ele>
        <time>2013-05-18T18:23:03Z</time>
      </trkpt>
      <trkpt lat="40.276432950" lon="0.311643938">
        <ele>48.20</ele>
        <time>2013-05-18T18:23:04Z</time>
      </trkpt>
      <trkpt lat="40.276116617" lon="0.311777880">
        <ele>46.28</ele>
        <time>2013-05-18T18:23:10Z</time>
      </trkpt>
      <trkpt lat="40.275831800" lon="0.311732702">
        <ele>43.40</ele>
        <time>2013-05-18T18:23:15Z</time>
      </trkpt>
      <trkpt lat="40.275643291" lon="0.311731948">
        <ele>42.44</ele>
        <time>2013-05-18T18:23:18Z</time>
      </trkpt>
      <trkpt lat="40.275452686" lon="0.311770001">
        <ele>40.99</ele>
        <time>2013-05-18T18:23:21Z</time>
      </trkpt>
      <trkpt lat="40.275387224" lon="0.311778970">
        <ele>40.99</ele>
        <time>2013-05-18T18:23:22Z</time>
      </trkpt>
      <trkpt lat="40.275037112" lon="0.311717112">
        <ele>39.07</ele>
        <time>2013-05-18T18:23:27Z</time>
      </trkpt>
      <trkpt lat="40.274839634" lon="0.311678471">
        <ele>37.15</ele>
        <time>2013-05-18T18:23:30Z</time>
      </trkpt>
      <trkpt lat="40.274777776" lon="0.311660366">
        <ele>37.63</ele>
        <time>2013-05-18T18:23:31Z</time>
      </trkpt>
      <trkpt lat="40.274523804" lon="0.311460542">
        <ele>35.71</ele>
        <time>2013-05-18T18:23:36Z</time>
      </trkpt>
      <trkpt lat="40.274312245" lon="0.311192572">
        <ele>34.26</ele>
        <time>2013-05-18T18:23:41Z</time>
      </trkpt>
      <trkpt lat="40.274017872" lon="0.310846735">
        <ele>32.34</ele>
        <time>2013-05-18T18:23:47Z</time>
      </trkpt>
      <trkpt lat="40.273955343" lon="0.310506849">
        <ele>31.38</ele>
        <time>2013-05-18T18:23:51Z</time>
      </trkpt>
      <trkpt lat="40.273940675" lon="0.310263857">
        <ele>30.90</ele>
        <time>2013-05-18T18:23:54Z</time>
      </trkpt>
      <trkpt lat="40.273819808" lon="0.310006617">
        <ele>29.94</ele>
        <time>2013-05-18T18:23:58Z</time>
      </trkpt>
      <trkpt lat="40.273510935" lon="0.309569165">
        <ele>30.42</ele>
        <time>2013-05-18T18:24:07Z</time>
      </trkpt>
      <trkpt lat="40.273330724" lon="0.309265237">
        <ele>30.42</ele>
        <time>2013-05-18T18:24:15Z</time>
      </trkpt>
      <trkpt lat="40.273263752" lon="0.309137497">
        <ele>31.38</ele>
        <time>2013-05-18T18:24:19Z</time>
      </trkpt>
      <trkpt lat="40.273206336" lon="0.309028868">
        <ele>32.34</ele>
        <time>2013-05-18T18:24:25Z</time>
      </trkpt>
      <trkpt lat="40.273184795" lon="0.308966422">
        <ele>32.34</ele>
        <time>2013-05-18T18:24:34Z</time>
      </trkpt>
      <trkpt lat="40.273119248" lon="0.308740698">
        <ele>32.82</ele>
        <time>2013-05-18T18:24:42Z</time>
      </trkpt>
      <trkpt lat="40.273043895" lon="0.308432663">
        <ele>34.26</ele>
        <time>2013-05-18T18:24:51Z</time>
      </trkpt>
      <trkpt lat="40.272967201" lon="0.308181290">
        <ele>36.19</ele>
        <time>2013-05-18T18:24:59Z</time>
      </trkpt>
      <trkpt lat="40.272893440" lon="0.307972413">
        <ele>38.59</ele>
        <time>2013-05-18T18:25:06Z</time>
      </trkpt>
      <trkpt lat="40.272836359" lon="0.307817347">
        <ele>35.23</ele>
        <time>2013-05-18T18:25:11Z</time>
      </trkpt>
      <trkpt lat="40.272834431" lon="0.307782898">
        <ele>40.03</ele>
        <time>2013-05-18T18:25:12Z</time>
      </trkpt>
      <trkpt lat="40.272855638" lon="0.307529932">
        <ele>39.07</ele>
        <time>2013-05-18T18:25:20Z</time>
      </trkpt>
      <trkpt lat="40.272875419" lon="0.307239667">
        <ele>40.51</ele>
        <time>2013-05-18T18:25:29Z</time>
      </trkpt>
      <trkpt lat="40.272824541" lon="0.306924675">
        <ele>40.99</ele>
        <time>2013-05-18T18:25:38Z</time>
      </trkpt>
      <trkpt lat="40.272739045" lon="0.306671793">
        <ele>40.51</ele>
        <time>2013-05-18T18:25:45Z</time>
      </trkpt>
      <trkpt lat="40.272721360" lon="0.306629464">
        <ele>40.99</ele>
        <time>2013-05-18T18:25:46Z</time>
      </trkpt>
      <trkpt lat="40.272584986" lon="0.306427879">
        <ele>40.03</ele>
        <time>2013-05-18T18:25:51Z</time>
      </trkpt>
      <trkpt lat="40.272252811" lon="0.306177596">
        <ele>38.11</ele>
        <time>2013-05-18T18:25:59Z</time>
      </trkpt>
      <trkpt lat="40.271876883" lon="0.305761853">
        <ele>36.67</ele>
        <time>2013-05-18T18:26:07Z</time>
      </trkpt>
      <trkpt lat="40.271662809" lon="0.305529339">
        <ele>34.74</ele>
        <time>2013-05-18T18:26:11Z</time>
      </trkpt>
      <trkpt lat="40.271338848" lon="0.305160871">
        <ele>34.26</ele>
        <time>2013-05-18T18:26:18Z</time>
      </trkpt>
      <trkpt lat="40.271267518" lon="0.305064982">
        <ele>34.74</ele>
        <time>2013-05-18T18:26:20Z</time>
      </trkpt>
      <trkpt lat="40.271165008" lon="0.304865241">
        <ele>35.23</ele>
        <time>2013-05-18T18:26:24Z</time>
      </trkpt>
      <trkpt lat="40.271024527" lon="0.304661226">
        <ele>35.71</ele>
        <time>2013-05-18T18:26:29Z</time>
      </trkpt>
      <trkpt lat="40.270812381" lon="0.304566175">
        <ele>34.74</ele>
        <time>2013-05-18T18:26:34Z</time>
      </trkpt>
      <trkpt lat="40.270542484" lon="0.304342713">
        <ele>33.30</ele>
        <time>2013-05-18T18:26:40Z</time>
      </trkpt>
      <trkpt lat="40.270514907" lon="0.304276999">
        <ele>32.82</ele>
        <time>2013-05-18T18:26:41Z</time>
      </trkpt>
      <trkpt lat="40.270469310" lon="0.304145319">
        <ele>32.34</ele>
        <time>2013-05-18T18:26:43Z</time>
      </trkpt>
      <trkpt lat="40.270286333" lon="0.303862179">
        <ele>34.26</ele>
        <time>2013-05-18T18:26:50Z</time>
      </trkpt>
      <trkpt lat="40.270073265" lon="0.303576859">
        <ele>36.19</ele>
        <time>2013-05-18T18:26:59Z</time>
      </trkpt>
      <trkpt lat="40.269912919" lon="0.303364797">
        <ele>37.15</ele>
        <time>2013-05-18T18:27:06Z</time>
      </trkpt>
      <trkpt lat="40.269732876" lon="0.303177545">
        <ele>38.59</ele>
        <time>2013-05-18T18:27:14Z</time>
      </trkpt>
      <trkpt lat="40.269569345" lon="0.302944025">
        <ele>39.07</ele>
        <time>2013-05-18T18:27:22Z</time>
      </trkpt>
      <trkpt lat="40.269335657" lon="0.302628446">
        <ele>40.03</ele>
        <time>2013-05-18T18:27:32Z</time>
      </trkpt>
      <trkpt lat="40.269068610" lon="0.302327871">
        <ele>40.51</ele>
        <time>2013-05-18T18:27:43Z</time>
      </trkpt>
      <trkpt lat="40.268859565" lon="0.302090831">
        <ele>41.95</ele>
        <time>2013-05-18T18:27:52Z</time>
      </trkpt>
      <trkpt lat="40.268614730" lon="0.301932078">
        <ele>42.44</ele>
        <time>2013-05-18T18:28:01Z</time>
      </trkpt>
      <trkpt lat="40.268393029" lon="0.301804170">
        <ele>42.44</ele>
        <time>2013-05-18T18:28:09Z</time>
      </trkpt>
      <trkpt lat="40.268180212" lon="0.301633263">
        <ele>42.92</ele>
        <time>2013-05-18T18:28:17Z</time>
      </trkpt>
      <trkpt lat="40.267980639" lon="0.301430169">
        <ele>43.88</ele>
        <time>2013-05-18T18:28:25Z</time>
      </trkpt>
      <trkpt lat="40.267801182" lon="0.301179131">
        <ele>43.88</ele>
        <time>2013-05-18T18:28:33Z</time>
      </trkpt>
      <trkpt lat="40.267612003" lon="0.300961118">
        <ele>44.36</ele>
        <time>2013-05-18T18:28:41Z</time>
      </trkpt>
      <trkpt lat="40.267384853" lon="0.300779650">
        <ele>44.84</ele>
        <time>2013-05-18T18:28:49Z</time>
      </trkpt>
      <trkpt lat="40.267134234" lon="0.300586531">
        <ele>44.84</ele>
        <time>2013-05-18T18:28:57Z</time>
      </trkpt>
      <trkpt lat="40.266910940" lon="0.300496509">
        <ele>44.84</ele>
        <time>2013-05-18T18:29:04Z</time>
      </trkpt>
      <trkpt lat="40.266664680" lon="0.300376732">
        <ele>44.36</ele>
        <time>2013-05-18T18:29:11Z</time>
      </trkpt>
      <trkpt lat="40.266357651" lon="0.300109014">
        <ele>42.92</ele>
        <time>2013-05-18T18:29:20Z</time>
      </trkpt>
      <trkpt lat="40.266240723" lon="0.299974987">
        <ele>42.92</ele>
        <time>2013-05-18T18:29:24Z</time>
      </trkpt>
      <trkpt lat="40.265929420" lon="0.299786646">
        <ele>42.92</ele>
        <time>2013-05-18T18:29:32Z</time>
      </trkpt>
      <trkpt lat="40.265612332" lon="0.299764182">
        <ele>41.47</ele>
        <time>2013-05-18T18:29:39Z</time>
      </trkpt>
      <trkpt lat="40.265329024" lon="0.299762338">
        <ele>38.59</ele>
        <time>2013-05-18T18:29:43Z</time>
      </trkpt>
      <trkpt lat="40.265168343" lon="0.299779521">
        <ele>37.15</ele>
        <time>2013-05-18T18:29:45Z</time>
      </trkpt>
      <trkpt lat="40.265038339" lon="0.299788909">
        <ele>38.11</ele>
        <time>2013-05-18T18:29:47Z</time>
      </trkpt>
      <trkpt lat="40.264847400" lon="0.299697714">
        <ele>38.11</ele>
        <time>2013-05-18T18:29:51Z</time>
      </trkpt>
      <trkpt lat="40.264700465" lon="0.299542984">
        <ele>38.11</ele>
        <time>2013-05-18T18:29:55Z</time>
      </trkpt>
      <trkpt lat="40.264624860" lon="0.299464529">
        <ele>38.11</ele>
        <time>2013-05-18T18:29:57Z</time>
      </trkpt>
      <trkpt lat="40.264444817" lon="0.299344501">
        <ele>36.67</ele>
        <time>2013-05-18T18:30:01Z</time>
      </trkpt>
      <trkpt lat="40.263887336" lon="0.299116848">
        <ele>33.30</ele>
        <time>2013-05-18T18:30:10Z</time>
      </trkpt>
      <trkpt lat="40.263313260" lon="0.298924064">
        <ele>31.38</ele>
        <time>2013-05-18T18:30:18Z</time>
      </trkpt>
      <trkpt lat="40.262599289" lon="0.298715439">
        <ele>28.98</ele>
        <time>2013-05-18T18:30:28Z</time>
      </trkpt>
      <trkpt lat="40.262135267" lon="0.298487535">
        <ele>27.53</ele>
        <time>2013-05-18T18:30:35Z</time>
      </trkpt>
      <trkpt lat="40.262012724" lon="0.298387790">
        <ele>26.57</ele>
        <time>2013-05-18T18:30:37Z</time>
      </trkpt>
      <trkpt lat="40.261786496" lon="0.298154522">
        <ele>25.61</ele>
        <time>2013-05-18T18:30:41Z</time>
      </trkpt>
      <trkpt lat="40.261680046" lon="0.298046563">
        <ele>24.65</ele>
        <time>2013-05-18T18:30:43Z</time>
      </trkpt>
      <trkpt lat="40.261386344" lon="0.297932988">
        <ele>22.25</ele>
        <time>2013-05-18T18:30:48Z</time>
      </trkpt>
      <trkpt lat="40.261155674" lon="0.297818743">
        <ele>20.81</ele>
        <time>2013-05-18T18:30:52Z</time>
      </trkpt>
      <trkpt lat="40.260810424" lon="0.297472319">
        <ele>17.44</ele>
        <time>2013-05-18T18:30:58Z</time>
      </trkpt>
      <trkpt lat="40.260506580" lon="0.297220778">
        <ele>17.92</ele>
        <time>2013-05-18T18:31:03Z</time>
      </trkpt>
      <trkpt lat="40.259950943" lon="0.296816016">
        <ele>15.52</ele>
        <time>2013-05-18T18:31:12Z</time>
      </trkpt>
      <trkpt lat="40.259718345" lon="0.296628512">
        <ele>15.04</ele>
        <time>2013-05-18T18:31:16Z</time>
      </trkpt>
      <trkpt lat="40.259508379" lon="0.296373703">
        <ele>14.08</ele>
        <time>2013-05-18T18:31:21Z</time>
      </trkpt>
      <trkpt lat="40.259305034" lon="0.296271779">
        <ele>14.08</ele>
        <time>2013-05-18T18:31:25Z</time>
      </trkpt>
      <trkpt lat="40.259044357" lon="0.296211177">
        <ele>12.15</ele>
        <time>2013-05-18T18:31:31Z</time>
      </trkpt>
      <trkpt lat="40.258971686" lon="0.296142781">
        <ele>12.15</ele>
        <time>2013-05-18T18:31:45Z</time>
      </trkpt>
      <trkpt lat="40.258839838" lon="0.295968018">
        <ele>9.75</ele>
        <time>2013-05-18T18:35:59Z</time>
      </trkpt>
      <trkpt lat="40.258847717" lon="0.295780599">
        <ele>9.27</ele>
        <time>2013-05-18T18:36:06Z</time>
      </trkpt>
      <trkpt lat="40.258810250" lon="0.295463596">
        <ele>10.23</ele>
        <time>2013-05-18T18:36:14Z</time>
      </trkpt>
      <trkpt lat="40.258700280" lon="0.295272991">
        <ele>10.71</ele>
        <time>2013-05-18T18:36:20Z</time>
      </trkpt>
      <trkpt lat="40.258386545" lon="0.295073753">
        <ele>10.71</ele>
        <time>2013-05-18T18:36:29Z</time>
      </trkpt>
      <trkpt lat="40.258213123" lon="0.294942409">
        <ele>10.71</ele>
        <time>2013-05-18T18:36:34Z</time>
      </trkpt>
      <trkpt lat="40.257877177" lon="0.294431699">
        <ele>9.75</ele>
        <time>2013-05-18T18:36:45Z</time>
      </trkpt>
      <trkpt lat="40.257610800" lon="0.294021238">
        <ele>9.75</ele>
        <time>2013-05-18T18:36:54Z</time>
      </trkpt>
      <trkpt lat="40.257234033" lon="0.293550594">
        <ele>9.27</ele>
        <time>2013-05-18T18:37:06Z</time>
      </trkpt>
      <trkpt lat="40.257029515" lon="0.293313051">
        <ele>8.79</ele>
        <time>2013-05-18T18:37:13Z</time>
      </trkpt>
      <trkpt lat="40.256830445" lon="0.293093026">
        <ele>8.79</ele>
        <time>2013-05-18T18:37:19Z</time>
      </trkpt>
      <trkpt lat="40.256459713" lon="0.292717181">
        <ele>8.31</ele>
        <time>2013-05-18T18:37:30Z</time>
      </trkpt>
      <trkpt lat="40.256420737" lon="0.292684995">
        <ele>8.79</ele>
        <time>2013-05-18T18:37:31Z</time>
      </trkpt>
      <trkpt lat="40.256322585" lon="0.292566977">
        <ele>9.27</ele>
        <time>2013-05-18T18:37:34Z</time>
      </trkpt>
      <trkpt lat="40.256056041" lon="0.292267324">
        <ele>8.31</ele>
        <time>2013-05-18T18:37:42Z</time>
      </trkpt>
      <trkpt lat="40.255707353" lon="0.291816965">
        <ele>8.79</ele>
        <time>2013-05-18T18:37:53Z</time>
      </trkpt>
      <trkpt lat="40.255345926" lon="0.291306674">
        <ele>8.31</ele>
        <time>2013-05-18T18:38:05Z</time>
      </trkpt>
      <trkpt lat="40.255017690" lon="0.290762270">
        <ele>7.35</ele>
        <time>2013-05-18T18:38:16Z</time>
      </trkpt>
      <trkpt lat="40.254861703" lon="0.290501174">
        <ele>7.35</ele>
        <time>2013-05-18T18:38:21Z</time>
      </trkpt>
      <trkpt lat="40.254677385" lon="0.290287687">
        <ele>6.39</ele>
        <time>2013-05-18T18:38:26Z</time>
      </trkpt>
      <trkpt lat="40.254552495" lon="0.290113343">
        <ele>4.94</ele>
        <time>2013-05-18T18:38:30Z</time>
      </trkpt>
      <trkpt lat="40.254249070" lon="0.289544798">
        <ele>4.46</ele>
        <time>2013-05-18T18:38:41Z</time>
      </trkpt>
      <trkpt lat="40.254041366" lon="0.289180018">
        <ele>5.42</ele>
        <time>2013-05-18T18:38:50Z</time>
      </trkpt>
      <trkpt lat="40.253802314" lon="0.288670985">
        <ele>5.42</ele>
        <time>2013-05-18T18:39:02Z</time>
      </trkpt>
      <trkpt lat="40.253720842" lon="0.288280556">
        <ele>5.42</ele>
        <time>2013-05-18T18:39:10Z</time>
      </trkpt>
      <trkpt lat="40.253707599" lon="0.288001355">
        <ele>5.42</ele>
        <time>2013-05-18T18:39:16Z</time>
      </trkpt>
      <trkpt lat="40.253698463" lon="0.287586534">
        <ele>4.94</ele>
        <time>2013-05-18T18:39:25Z</time>
      </trkpt>
      <trkpt lat="40.253645992" lon="0.287274811">
        <ele>5.91</ele>
        <time>2013-05-18T18:39:32Z</time>
      </trkpt>
      <trkpt lat="40.253499309" lon="0.286913887">
        <ele>5.42</ele>
        <time>2013-05-18T18:39:41Z</time>
      </trkpt>
      <trkpt lat="40.253346758" lon="0.286623118">
        <ele>5.91</ele>
        <time>2013-05-18T18:39:49Z</time>
      </trkpt>
      <trkpt lat="40.253105778" lon="0.286380295">
        <ele>6.39</ele>
        <time>2013-05-18T18:39:58Z</time>
      </trkpt>
      <trkpt lat="40.252790786" lon="0.286260266">
        <ele>6.39</ele>
        <time>2013-05-18T18:40:07Z</time>
      </trkpt>
      <trkpt lat="40.252505299" lon="0.286224475">
        <ele>7.35</ele>
        <time>2013-05-18T18:40:15Z</time>
      </trkpt>
      <trkpt lat="40.252170609" lon="0.286292033">
        <ele>7.35</ele>
        <time>2013-05-18T18:40:24Z</time>
      </trkpt>
      <trkpt lat="40.251780096" lon="0.286388006">
        <ele>6.87</ele>
        <time>2013-05-18T18:40:34Z</time>
      </trkpt>
      <trkpt lat="40.251419758" lon="0.286444835">
        <ele>6.87</ele>
        <time>2013-05-18T18:40:44Z</time>
      </trkpt>
      <trkpt lat="40.251327222" lon="0.286410805">
        <ele>6.87</ele>
        <time>2013-05-18T18:40:49Z</time>
      </trkpt>
      <trkpt lat="40.251306687" lon="0.286400579">
        <ele>6.87</ele>
        <time>2013-05-18T18:40:50Z</time>
      </trkpt>
      <trkpt lat="40.251190094" lon="0.286403513">
        <ele>6.87</ele>
        <time>2013-05-18T18:40:55Z</time>
      </trkpt>
      <trkpt lat="40.250955988" lon="0.286404351">
        <ele>7.83</ele>
        <time>2013-05-18T18:41:05Z</time>
      </trkpt>
      <trkpt lat="40.250826068" lon="0.286463778">
        <ele>7.35</ele>
        <time>2013-05-18T18:41:11Z</time>
      </trkpt>
      <trkpt lat="40.250591123" lon="0.286479034">
        <ele>7.83</ele>
        <time>2013-05-18T18:41:20Z</time>
      </trkpt>
      <trkpt lat="40.250328770" lon="0.286425222">
        <ele>7.35</ele>
        <time>2013-05-18T18:41:30Z</time>
      </trkpt>
      <trkpt lat="40.250062058" lon="0.286370236">
        <ele>7.35</ele>
        <time>2013-05-18T18:41:39Z</time>
      </trkpt>
      <trkpt lat="40.249812696" lon="0.286306031">
        <ele>7.35</ele>
        <time>2013-05-18T18:41:47Z</time>
      </trkpt>
      <trkpt lat="40.249550594" lon="0.286248196">
        <ele>7.35</ele>
        <time>2013-05-18T18:41:55Z</time>
      </trkpt>
      <trkpt lat="40.249391925" lon="0.286164461">
        <ele>7.83</ele>
        <time>2013-05-18T18:42:01Z</time>
      </trkpt>
      <trkpt lat="40.249256138" lon="0.286152391">
        <ele>8.31</ele>
        <time>2013-05-18T18:42:07Z</time>
      </trkpt>
      <trkpt lat="40.249094116" lon="0.286076032">
        <ele>7.35</ele>
        <time>2013-05-18T18:42:15Z</time>
      </trkpt>
      <trkpt lat="40.249073664" lon="0.286041833">
        <ele>6.87</ele>
        <time>2013-05-18T18:42:22Z</time>
      </trkpt>
      <trkpt lat="40.248971488" lon="0.285919877">
        <ele>6.87</ele>
        <time>2013-05-18T18:42:28Z</time>
      </trkpt>
      <trkpt lat="40.248847185" lon="0.285659870">
        <ele>6.87</ele>
        <time>2013-05-18T18:42:35Z</time>
      </trkpt>
      <trkpt lat="40.248788511" lon="0.285346555">
        <ele>7.83</ele>
        <time>2013-05-18T18:42:43Z</time>
      </trkpt>
      <trkpt lat="40.248596566" lon="0.285103479">
        <ele>7.83</ele>
        <time>2013-05-18T18:42:50Z</time>
      </trkpt>
      <trkpt lat="40.248284172" lon="0.284763174">
        <ele>7.35</ele>
        <time>2013-05-18T18:42:59Z</time>
      </trkpt>
      <trkpt lat="40.247898940" lon="0.284358999">
        <ele>6.87</ele>
        <time>2013-05-18T18:43:09Z</time>
      </trkpt>
      <trkpt lat="40.247607501" lon="0.284008468">
        <ele>7.35</ele>
        <time>2013-05-18T18:43:17Z</time>
      </trkpt>
      <trkpt lat="40.247421507" lon="0.283762962">
        <ele>7.83</ele>
        <time>2013-05-18T18:43:23Z</time>
      </trkpt>
      <trkpt lat="40.247221598" lon="0.283541679">
        <ele>7.83</ele>
        <time>2013-05-18T18:43:29Z</time>
      </trkpt>
      <trkpt lat="40.246769479" lon="0.283108670">
        <ele>7.83</ele>
        <time>2013-05-18T18:43:41Z</time>
      </trkpt>
      <trkpt lat="40.246341666" lon="0.282668453">
        <ele>6.39</ele>
        <time>2013-05-18T18:43:51Z</time>
      </trkpt>
      <trkpt lat="40.246078307" lon="0.282365447">
        <ele>5.91</ele>
        <time>2013-05-18T18:43:58Z</time>
      </trkpt>
      <trkpt lat="40.245967414" lon="0.282261092">
        <ele>4.94</ele>
        <time>2013-05-18T18:45:17Z</time>
      </trkpt>
      <trkpt lat="40.245854761" lon="0.281924391">
        <ele>5.42</ele>
        <time>2013-05-18T18:45:26Z</time>
      </trkpt>
      <trkpt lat="40.245628869" lon="0.281459698">
        <ele>5.91</ele>
        <time>2013-05-18T18:45:37Z</time>
      </trkpt>
      <trkpt lat="40.245448658" lon="0.281029874">
        <ele>5.91</ele>
        <time>2013-05-18T18:45:47Z</time>
      </trkpt>
      <trkpt lat="40.245383447" lon="0.280601894">
        <ele>5.91</ele>
        <time>2013-05-18T18:45:56Z</time>
      </trkpt>
      <trkpt lat="40.245361067" lon="0.279975096">
        <ele>6.39</ele>
        <time>2013-05-18T18:46:09Z</time>
      </trkpt>
      <trkpt lat="40.245373556" lon="0.279661110">
        <ele>5.91</ele>
        <time>2013-05-18T18:46:17Z</time>
      </trkpt>
      <trkpt lat="40.245288732" lon="0.279393895">
        <ele>7.35</ele>
        <time>2013-05-18T18:46:24Z</time>
      </trkpt>
      <trkpt lat="40.245229471" lon="0.279307645">
        <ele>6.87</ele>
        <time>2013-05-18T18:46:27Z</time>
      </trkpt>
      <trkpt lat="40.245137606" lon="0.279211756">
        <ele>7.35</ele>
        <time>2013-05-18T18:46:32Z</time>
      </trkpt>
      <trkpt lat="40.245011961" lon="0.278919647">
        <ele>6.87</ele>
        <time>2013-05-18T18:46:42Z</time>
      </trkpt>
      <trkpt lat="40.244905762" lon="0.278620748">
        <ele>6.87</ele>
        <time>2013-05-18T18:46:51Z</time>
      </trkpt>
      <trkpt lat="40.244849939" lon="0.278455121">
        <ele>5.91</ele>
        <time>2013-05-18T18:46:57Z</time>
      </trkpt>
      <trkpt lat="40.244732508" lon="0.278311959">
        <ele>6.39</ele>
        <time>2013-05-18T18:47:04Z</time>
      </trkpt>
      <trkpt lat="40.244612312" lon="0.278162090">
        <ele>6.87</ele>
        <time>2013-05-18T18:47:11Z</time>
      </trkpt>
      <trkpt lat="40.244501587" lon="0.277983807">
        <ele>6.39</ele>
        <time>2013-05-18T18:47:17Z</time>
      </trkpt>
      <trkpt lat="40.244447188" lon="0.277803596">
        <ele>5.91</ele>
        <time>2013-05-18T18:47:23Z</time>
      </trkpt>
      <trkpt lat="40.244372422" lon="0.277735284">
        <ele>5.91</ele>
        <time>2013-05-18T18:47:30Z</time>
      </trkpt>
      <trkpt lat="40.244265720" lon="0.277581643">
        <ele>5.91</ele>
        <time>2013-05-18T18:47:38Z</time>
      </trkpt>
      <trkpt lat="40.244096825" lon="0.277471505">
        <ele>5.91</ele>
        <time>2013-05-18T18:47:46Z</time>
      </trkpt>
      <trkpt lat="40.243904460" lon="0.277307471">
        <ele>4.46</ele>
        <time>2013-05-18T18:47:53Z</time>
      </trkpt>
      <trkpt lat="40.243619056" lon="0.277129943">
        <ele>5.42</ele>
        <time>2013-05-18T18:48:02Z</time>
      </trkpt>
      <trkpt lat="40.243390230" lon="0.276982589">
        <ele>4.94</ele>
        <time>2013-05-18T18:48:10Z</time>
      </trkpt>
      <trkpt lat="40.243194262" lon="0.276802713">
        <ele>5.42</ele>
        <time>2013-05-18T18:48:18Z</time>
      </trkpt>
      <trkpt lat="40.242994437" lon="0.276604732">
        <ele>4.94</ele>
        <time>2013-05-18T18:48:26Z</time>
      </trkpt>
      <trkpt lat="40.242919670" lon="0.276532732">
        <ele>4.46</ele>
        <time>2013-05-18T18:48:29Z</time>
      </trkpt>
      <trkpt lat="40.242745746" lon="0.276513454">
        <ele>4.94</ele>
        <time>2013-05-18T18:48:35Z</time>
      </trkpt>
      <trkpt lat="40.242529660" lon="0.276396861">
        <ele>4.94</ele>
        <time>2013-05-18T18:48:43Z</time>
      </trkpt>
      <trkpt lat="40.242285579" lon="0.276223524">
        <ele>4.46</ele>
        <time>2013-05-18T18:48:52Z</time>
      </trkpt>
      <trkpt lat="40.242112493" lon="0.276100477">
        <ele>4.94</ele>
        <time>2013-05-18T18:48:58Z</time>
      </trkpt>
      <trkpt lat="40.241862712" lon="0.275868047">
        <ele>4.46</ele>
        <time>2013-05-18T18:49:07Z</time>
      </trkpt>
      <trkpt lat="40.241775792" lon="0.275843572">
        <ele>3.50</ele>
        <time>2013-05-18T18:55:08Z</time>
      </trkpt>
      <trkpt lat="40.241778558" lon="0.275849104">
        <ele>3.50</ele>
        <time>2013-05-18T18:55:22Z</time>
      </trkpt>
      <trkpt lat="40.241711587" lon="0.275783809">
        <ele>3.50</ele>
        <time>2013-05-18T18:55:31Z</time>
      </trkpt>
      <trkpt lat="40.241610752" lon="0.275637712">
        <ele>2.54</ele>
        <time>2013-05-18T18:55:39Z</time>
      </trkpt>
      <trkpt lat="40.241435738" lon="0.275497735">
        <ele>3.50</ele>
        <time>2013-05-18T18:55:47Z</time>
      </trkpt>
      <trkpt lat="40.241200710" lon="0.275324145">
        <ele>3.02</ele>
        <time>2013-05-18T18:55:56Z</time>
      </trkpt>
      <trkpt lat="40.241178498" lon="0.275324564">
        <ele>4.94</ele>
        <time>2013-05-18T18:55:57Z</time>
      </trkpt>
      <trkpt lat="40.241100127" lon="0.275301179">
        <ele>3.50</ele>
        <time>2013-05-18T18:56:00Z</time>
      </trkpt>
      <trkpt lat="40.240823105" lon="0.275084423">
        <ele>3.50</ele>
        <time>2013-05-18T18:56:10Z</time>
      </trkpt>
      <trkpt lat="40.240694191" lon="0.275027426">
        <ele>3.02</ele>
        <time>2013-05-18T18:56:14Z</time>
      </trkpt>
      <trkpt lat="40.240472574" lon="0.274813352">
        <ele>3.02</ele>
        <time>2013-05-18T18:56:21Z</time>
      </trkpt>
      <trkpt lat="40.240200749" lon="0.274628866">
        <ele>3.98</ele>
        <time>2013-05-18T18:56:30Z</time>
      </trkpt>
      <trkpt lat="40.239984160" lon="0.274548316">
        <ele>3.98</ele>
        <time>2013-05-18T18:56:37Z</time>
      </trkpt>
      <trkpt lat="40.239873016" lon="0.274509005">
        <ele>3.98</ele>
        <time>2013-05-18T18:56:42Z</time>
      </trkpt>
      <trkpt lat="40.239600269" lon="0.274380343">
        <ele>4.46</ele>
        <time>2013-05-18T18:56:53Z</time>
      </trkpt>
      <trkpt lat="40.239409329" lon="0.274310019">
        <ele>4.46</ele>
        <time>2013-05-18T18:57:00Z</time>
      </trkpt>
      <trkpt lat="40.239188382" lon="0.274254614">
        <ele>5.42</ele>
        <time>2013-05-18T18:57:08Z</time>
      </trkpt>
      <trkpt lat="40.238939524" lon="0.274213376">
        <ele>4.46</ele>
        <time>2013-05-18T18:57:17Z</time>
      </trkpt>
      <trkpt lat="40.238725618" lon="0.274281269">
        <ele>4.46</ele>
        <time>2013-05-18T18:57:24Z</time>
      </trkpt>
      <trkpt lat="40.238428563" lon="0.274286717">
        <ele>3.98</ele>
        <time>2013-05-18T18:57:32Z</time>
      </trkpt>
      <trkpt lat="40.238162521" lon="0.274402220">
        <ele>3.50</ele>
        <time>2013-05-18T18:57:40Z</time>
      </trkpt>
      <trkpt lat="40.238048946" lon="0.274615958">
        <ele>3.50</ele>
        <time>2013-05-18T18:57:46Z</time>
      </trkpt>
      <trkpt lat="40.238027908" lon="0.274831792">
        <ele>4.46</ele>
        <time>2013-05-18T18:57:52Z</time>
      </trkpt>
      <trkpt lat="40.237919362" lon="0.275073024">
        <ele>3.98</ele>
        <time>2013-05-18T18:58:00Z</time>
      </trkpt>
      <trkpt lat="40.237725489" lon="0.275192466">
        <ele>4.94</ele>
        <time>2013-05-18T18:58:09Z</time>
      </trkpt>
      <trkpt lat="40.237565562" lon="0.275109233">
        <ele>5.42</ele>
        <time>2013-05-18T18:58:16Z</time>
      </trkpt>
      <trkpt lat="40.237310585" lon="0.274931369">
        <ele>4.94</ele>
        <time>2013-05-18T18:58:26Z</time>
      </trkpt>
      <trkpt lat="40.237041274" lon="0.274801115">
        <ele>4.46</ele>
        <time>2013-05-18T18:58:35Z</time>
      </trkpt>
      <trkpt lat="40.236767856" lon="0.274625011">
        <ele>4.94</ele>
        <time>2013-05-18T18:58:44Z</time>
      </trkpt>
      <trkpt lat="40.236549508" lon="0.274351006">
        <ele>5.42</ele>
        <time>2013-05-18T18:58:53Z</time>
      </trkpt>
      <trkpt lat="40.236357478" lon="0.274023106">
        <ele>4.94</ele>
        <time>2013-05-18T18:59:03Z</time>
      </trkpt>
      <trkpt lat="40.236264188" lon="0.273706857">
        <ele>4.46</ele>
        <time>2013-05-18T18:59:11Z</time>
      </trkpt>
      <trkpt lat="40.236116750" lon="0.273458920">
        <ele>3.98</ele>
        <time>2013-05-18T18:59:18Z</time>
      </trkpt>
      <trkpt lat="40.235927235" lon="0.273245433">
        <ele>5.42</ele>
        <time>2013-05-18T18:59:26Z</time>
      </trkpt>
      <trkpt lat="40.235738223" lon="0.273202267">
        <ele>6.39</ele>
        <time>2013-05-18T18:59:33Z</time>
      </trkpt>
      <trkpt lat="40.235717855" lon="0.273200339">
        <ele>6.39</ele>
        <time>2013-05-18T18:59:34Z</time>
      </trkpt>
      <trkpt lat="40.235702600" lon="0.273102773">
        <ele>6.39</ele>
        <time>2013-05-18T18:59:39Z</time>
      </trkpt>
      <trkpt lat="40.235731602" lon="0.272999089">
        <ele>7.35</ele>
        <time>2013-05-18T18:59:43Z</time>
      </trkpt>
      <trkpt lat="40.235617189" lon="0.272901440">
        <ele>6.87</ele>
        <time>2013-05-18T18:59:50Z</time>
      </trkpt>
      <trkpt lat="40.235589696" lon="0.272885347">
        <ele>7.35</ele>
        <time>2013-05-18T18:59:52Z</time>
      </trkpt>
      <trkpt lat="40.235385513" lon="0.272776717">
        <ele>7.83</ele>
        <time>2013-05-18T19:00:01Z</time>
      </trkpt>
      <trkpt lat="40.235149981" lon="0.272683762">
        <ele>7.35</ele>
        <time>2013-05-18T19:00:08Z</time>
      </trkpt>
      <trkpt lat="40.234960886" lon="0.272610923">
        <ele>7.83</ele>
        <time>2013-05-18T19:00:15Z</time>
      </trkpt>
      <trkpt lat="40.234797103" lon="0.272553507">
        <ele>8.31</ele>
        <time>2013-05-18T19:00:21Z</time>
      </trkpt>
      <trkpt lat="40.234581605" lon="0.272485446">
        <ele>8.31</ele>
        <time>2013-05-18T19:00:29Z</time>
      </trkpt>
      <trkpt lat="40.234371722" lon="0.272426270">
        <ele>8.31</ele>
        <time>2013-05-18T19:00:36Z</time>
      </trkpt>
      <trkpt lat="40.234109536" lon="0.272360137">
        <ele>8.31</ele>
        <time>2013-05-18T19:00:44Z</time>
      </trkpt>
      <trkpt lat="40.233925972" lon="0.272276569">
        <ele>8.79</ele>
        <time>2013-05-18T19:00:50Z</time>
      </trkpt>
      <trkpt lat="40.233801669" lon="0.272254189">
        <ele>7.83</ele>
        <time>2013-05-18T19:00:55Z</time>
      </trkpt>
      <trkpt lat="40.233546440" lon="0.272244718">
        <ele>7.35</ele>
        <time>2013-05-18T19:01:03Z</time>
      </trkpt>
      <trkpt lat="40.233267071" lon="0.272269025">
        <ele>7.83</ele>
        <time>2013-05-18T19:01:12Z</time>
      </trkpt>
      <trkpt lat="40.232999017" lon="0.272335997">
        <ele>7.83</ele>
        <time>2013-05-18T19:01:21Z</time>
      </trkpt>
      <trkpt lat="40.232742950" lon="0.272414200">
        <ele>8.79</ele>
        <time>2013-05-18T19:01:30Z</time>
      </trkpt>
      <trkpt lat="40.232549496" lon="0.272462228">
        <ele>9.27</ele>
        <time>2013-05-18T19:01:37Z</time>
      </trkpt>
      <trkpt lat="40.232354701" lon="0.272683259">
        <ele>9.75</ele>
        <time>2013-05-18T19:01:46Z</time>
      </trkpt>
      <trkpt lat="40.232189326" lon="0.272851987">
        <ele>9.75</ele>
        <time>2013-05-18T19:01:53Z</time>
      </trkpt>
      <trkpt lat="40.232006768" lon="0.272937063">
        <ele>8.79</ele>
        <time>2013-05-18T19:02:01Z</time>
      </trkpt>
      <trkpt lat="40.231764279" lon="0.272927172">
        <ele>7.83</ele>
        <time>2013-05-18T19:02:08Z</time>
      </trkpt>
      <trkpt lat="40.231442079" lon="0.272878055">
        <ele>6.87</ele>
        <time>2013-05-18T19:02:15Z</time>
      </trkpt>
      <trkpt lat="40.231163548" lon="0.272859363">
        <ele>5.91</ele>
        <time>2013-05-18T19:02:22Z</time>
      </trkpt>
      <trkpt lat="40.230982834" lon="0.272809071">
        <ele>5.91</ele>
        <time>2013-05-18T19:02:28Z</time>
      </trkpt>
      <trkpt lat="40.230829781" lon="0.272608493">
        <ele>6.39</ele>
        <time>2013-05-18T19:02:35Z</time>
      </trkpt>
      <trkpt lat="40.230760295" lon="0.272356784">
        <ele>5.91</ele>
        <time>2013-05-18T19:02:41Z</time>
      </trkpt>
      <trkpt lat="40.230663149" lon="0.272186380">
        <ele>5.42</ele>
        <time>2013-05-18T19:02:47Z</time>
      </trkpt>
      <trkpt lat="40.230481597" lon="0.271944562">
        <ele>4.94</ele>
        <time>2013-05-18T19:02:56Z</time>
      </trkpt>
      <trkpt lat="40.230289903" lon="0.271732667">
        <ele>3.98</ele>
        <time>2013-05-18T19:03:04Z</time>
      </trkpt>
      <trkpt lat="40.230158223" lon="0.271580955">
        <ele>3.98</ele>
        <time>2013-05-18T19:03:10Z</time>
      </trkpt>
      <trkpt lat="40.229871981" lon="0.271508535">
        <ele>4.94</ele>
        <time>2013-05-18T19:03:18Z</time>
      </trkpt>
      <trkpt lat="40.229615830" lon="0.271523036">
        <ele>6.39</ele>
        <time>2013-05-18T19:03:26Z</time>
      </trkpt>
      <trkpt lat="40.229360601" lon="0.271579530">
        <ele>7.83</ele>
        <time>2013-05-18T19:03:34Z</time>
      </trkpt>
      <trkpt lat="40.229034545" lon="0.271658404">
        <ele>8.79</ele>
        <time>2013-05-18T19:03:44Z</time>
      </trkpt>
      <trkpt lat="40.228729360" lon="0.271668462">
        <ele>7.83</ele>
        <time>2013-05-18T19:03:52Z</time>
      </trkpt>
      <trkpt lat="40.228340523" lon="0.271539884">
        <ele>7.83</ele>
        <time>2013-05-18T19:04:02Z</time>
      </trkpt>
      <trkpt lat="40.227826880" lon="0.271335533">
        <ele>7.35</ele>
        <time>2013-05-18T19:04:14Z</time>
      </trkpt>
      <trkpt lat="40.227318853" lon="0.271226317">
        <ele>5.42</ele>
        <time>2013-05-18T19:04:24Z</time>
      </trkpt>
      <trkpt lat="40.226748632" lon="0.271122213">
        <ele>4.94</ele>
        <time>2013-05-18T19:04:35Z</time>
      </trkpt>
      <trkpt lat="40.226278910" lon="0.271016937">
        <ele>5.42</ele>
        <time>2013-05-18T19:04:45Z</time>
      </trkpt>
      <trkpt lat="40.226039020" lon="0.270993132">
        <ele>7.83</ele>
        <time>2013-05-18T19:04:52Z</time>
      </trkpt>
      <trkpt lat="40.225735595" lon="0.270951139">
        <ele>6.87</ele>
        <time>2013-05-18T19:05:00Z</time>
      </trkpt>
      <trkpt lat="40.225647166" lon="0.270948624">
        <ele>6.87</ele>
        <time>2013-05-18T19:05:02Z</time>
      </trkpt>
      <trkpt lat="40.225267382" lon="0.271007465">
        <ele>4.94</ele>
        <time>2013-05-18T19:05:09Z</time>
      </trkpt>
      <trkpt lat="40.225141402" lon="0.271003274">
        <ele>4.46</ele>
        <time>2013-05-18T19:05:11Z</time>
      </trkpt>
      <trkpt lat="40.224969238" lon="0.270937644">
        <ele>4.46</ele>
        <time>2013-05-18T19:05:14Z</time>
      </trkpt>
      <trkpt lat="40.224487614" lon="0.270678056">
        <ele>4.46</ele>
        <time>2013-05-18T19:05:24Z</time>
      </trkpt>
      <trkpt lat="40.223915298" lon="0.270536486">
        <ele>4.94</ele>
        <time>2013-05-18T19:05:35Z</time>
      </trkpt>
      <trkpt lat="40.223624529" lon="0.270402627">
        <ele>5.91</ele>
        <time>2013-05-18T19:05:41Z</time>
      </trkpt>
      <trkpt lat="40.223366199" lon="0.270265834">
        <ele>7.35</ele>
        <time>2013-05-18T19:05:48Z</time>
      </trkpt>
      <trkpt lat="40.222987169" lon="0.270101549">
        <ele>7.83</ele>
        <time>2013-05-18T19:05:58Z</time>
      </trkpt>
      <trkpt lat="40.222830931" lon="0.269960649">
        <ele>6.39</ele>
        <time>2013-05-18T19:06:05Z</time>
      </trkpt>
      <trkpt lat="40.222766222" lon="0.269907592">
        <ele>5.91</ele>
        <time>2013-05-18T19:06:07Z</time>
      </trkpt>
      <trkpt lat="40.222530272" lon="0.269805668">
        <ele>4.46</ele>
        <time>2013-05-18T19:06:12Z</time>
      </trkpt>
      <trkpt lat="40.222307481" lon="0.269639790">
        <ele>3.02</ele>
        <time>2013-05-18T19:06:17Z</time>
      </trkpt>
      <trkpt lat="40.222234726" lon="0.269465866">
        <ele>3.50</ele>
        <time>2013-05-18T19:06:20Z</time>
      </trkpt>
      <trkpt lat="40.222211257" lon="0.269136038">
        <ele>2.54</ele>
        <time>2013-05-18T19:06:25Z</time>
      </trkpt>
      <trkpt lat="40.222053677" lon="0.268870499">
        <ele>1.58</ele>
        <time>2013-05-18T19:06:31Z</time>
      </trkpt>
      <trkpt lat="40.221872712" lon="0.268931603">
        <ele>2.06</ele>
        <time>2013-05-18T19:06:35Z</time>
      </trkpt>
      <trkpt lat="40.221772967" lon="0.269080549">
        <ele>2.06</ele>
        <time>2013-05-18T19:06:38Z</time>
      </trkpt>
      <trkpt lat="40.221570041" lon="0.269223712">
        <ele>3.02</ele>
        <time>2013-05-18T19:06:44Z</time>
      </trkpt>
      <trkpt lat="40.221532742" lon="0.269205188">
        <ele>3.50</ele>
        <time>2013-05-18T19:06:45Z</time>
      </trkpt>
      <trkpt lat="40.221235352" lon="0.269029923">
        <ele>3.98</ele>
        <time>2013-05-18T19:06:53Z</time>
      </trkpt>
      <trkpt lat="40.220906110" lon="0.268825488">
        <ele>3.50</ele>
        <time>2013-05-18T19:07:02Z</time>
      </trkpt>
      <trkpt lat="40.220637470" lon="0.268613426">
        <ele>3.98</ele>
        <time>2013-05-18T19:07:10Z</time>
      </trkpt>
      <trkpt lat="40.220341757" lon="0.268424246">
        <ele>3.50</ele>
        <time>2013-05-18T19:07:18Z</time>
      </trkpt>
      <trkpt lat="40.219951747" lon="0.268170191">
        <ele>3.98</ele>
        <time>2013-05-18T19:07:29Z</time>
      </trkpt>
      <trkpt lat="40.219712360" lon="0.268054269">
        <ele>5.42</ele>
        <time>2013-05-18T19:07:36Z</time>
      </trkpt>
      <trkpt lat="40.219344227" lon="0.267876489">
        <ele>4.94</ele>
        <time>2013-05-18T19:07:45Z</time>
      </trkpt>
      <trkpt lat="40.218877941" lon="0.267692842">
        <ele>4.94</ele>
        <time>2013-05-18T19:07:56Z</time>
      </trkpt>
      <trkpt lat="40.218400173" lon="0.267554792">
        <ele>5.42</ele>
        <time>2013-05-18T19:08:07Z</time>
      </trkpt>
      <trkpt lat="40.218008403" lon="0.267446162">
        <ele>5.91</ele>
        <time>2013-05-18T19:08:16Z</time>
      </trkpt>
      <trkpt lat="40.217586039" lon="0.267259749">
        <ele>5.42</ele>
        <time>2013-05-18T19:08:26Z</time>
      </trkpt>
      <trkpt lat="40.217138277" lon="0.267090434">
        <ele>3.02</ele>
        <time>2013-05-18T19:08:35Z</time>
      </trkpt>
      <trkpt lat="40.216509383" lon="0.266908631">
        <ele>3.50</ele>
        <time>2013-05-18T19:08:47Z</time>
      </trkpt>
      <trkpt lat="40.216087354" lon="0.266726827">
        <ele>2.54</ele>
        <time>2013-05-18T19:08:56Z</time>
      </trkpt>
      <trkpt lat="40.215678485" lon="0.266478388">
        <ele>2.54</ele>
        <time>2013-05-18T19:09:05Z</time>
      </trkpt>
      <trkpt lat="40.215156209" lon="0.266256435">
        <ele>2.54</ele>
        <time>2013-05-18T19:09:16Z</time>
      </trkpt>
      <trkpt lat="40.214536870" lon="0.266011432">
        <ele>2.54</ele>
        <time>2013-05-18T19:09:29Z</time>
      </trkpt>
      <trkpt lat="40.214006882" lon="0.265785623">
        <ele>3.50</ele>
        <time>2013-05-18T19:09:40Z</time>
      </trkpt>
      <trkpt lat="40.213584686" lon="0.265581608">
        <ele>3.02</ele>
        <time>2013-05-18T19:09:49Z</time>
      </trkpt>
      <trkpt lat="40.213122088" lon="0.265364600">
        <ele>3.02</ele>
        <time>2013-05-18T19:09:59Z</time>
      </trkpt>
      <trkpt lat="40.212558154" lon="0.265125297">
        <ele>3.02</ele>
        <time>2013-05-18T19:10:11Z</time>
      </trkpt>
      <trkpt lat="40.212036800" lon="0.265011806">
        <ele>3.02</ele>
        <time>2013-05-18T19:10:22Z</time>
      </trkpt>
      <trkpt lat="40.211527934" lon="0.264974842">
        <ele>3.50</ele>
        <time>2013-05-18T19:10:32Z</time>
      </trkpt>
      <trkpt lat="40.211078245" lon="0.264814664">
        <ele>2.54</ele>
        <time>2013-05-18T19:10:41Z</time>
      </trkpt>
      <trkpt lat="40.210769707" lon="0.264580809">
        <ele>2.54</ele>
        <time>2013-05-18T19:10:48Z</time>
      </trkpt>
      <trkpt lat="40.210648421" lon="0.264249556">
        <ele>2.54</ele>
        <time>2013-05-18T19:10:54Z</time>
      </trkpt>
      <trkpt lat="40.210645823" lon="0.264126761">
        <ele>2.54</ele>
        <time>2013-05-18T19:10:56Z</time>
      </trkpt>
      <trkpt lat="40.210642722" lon="0.263532316">
        <ele>3.02</ele>
        <time>2013-05-18T19:11:06Z</time>
      </trkpt>
      <trkpt lat="40.210509449" lon="0.262973662">
        <ele>2.54</ele>
        <time>2013-05-18T19:11:15Z</time>
      </trkpt>
      <trkpt lat="40.210296549" lon="0.262497906">
        <ele>2.54</ele>
        <time>2013-05-18T19:11:24Z</time>
      </trkpt>
      <trkpt lat="40.210159840" lon="0.262337560">
        <ele>2.54</ele>
        <time>2013-05-18T19:11:28Z</time>
      </trkpt>
      <trkpt lat="40.209964374" lon="0.262170425">
        <ele>3.02</ele>
        <time>2013-05-18T19:11:33Z</time>
      </trkpt>
      <trkpt lat="40.209709145" lon="0.261810841">
        <ele>3.98</ele>
        <time>2013-05-18T19:11:41Z</time>
      </trkpt>
      <trkpt lat="40.209348053" lon="0.261395099">
        <ele>4.94</ele>
        <time>2013-05-18T19:11:51Z</time>
      </trkpt>
      <trkpt lat="40.208975142" lon="0.261016823">
        <ele>3.98</ele>
        <time>2013-05-18T19:12:01Z</time>
      </trkpt>
      <trkpt lat="40.208863411" lon="0.260907440">
        <ele>3.98</ele>
        <time>2013-05-18T19:12:04Z</time>
      </trkpt>
      <trkpt lat="40.208535343" lon="0.260583563">
        <ele>3.98</ele>
        <time>2013-05-18T19:12:13Z</time>
      </trkpt>
      <trkpt lat="40.208119517" lon="0.260246359">
        <ele>3.50</ele>
        <time>2013-05-18T19:12:22Z</time>
      </trkpt>
      <trkpt lat="40.207806956" lon="0.259997500">
        <ele>3.98</ele>
        <time>2013-05-18T19:12:30Z</time>
      </trkpt>
      <trkpt lat="40.207410241" lon="0.259669181">
        <ele>3.50</ele>
        <time>2013-05-18T19:12:41Z</time>
      </trkpt>
      <trkpt lat="40.207245369" lon="0.259538256">
        <ele>3.50</ele>
        <time>2013-05-18T19:12:45Z</time>
      </trkpt>
      <trkpt lat="40.207139337" lon="0.259417975">
        <ele>3.02</ele>
        <time>2013-05-18T19:12:48Z</time>
      </trkpt>
      <trkpt lat="40.206826776" lon="0.259226700">
        <ele>3.50</ele>
        <time>2013-05-18T19:12:56Z</time>
      </trkpt>
      <trkpt lat="40.206518993" lon="0.259089153">
        <ele>3.50</ele>
        <time>2013-05-18T19:13:05Z</time>
      </trkpt>
      <trkpt lat="40.206291340" lon="0.258969460">
        <ele>3.98</ele>
        <time>2013-05-18T19:13:14Z</time>
      </trkpt>
      <trkpt lat="40.206132503" lon="0.258854460">
        <ele>3.98</ele>
        <time>2013-05-18T19:13:22Z</time>
      </trkpt>
      <trkpt lat="40.206023455" lon="0.258664442">
        <ele>3.02</ele>
        <time>2013-05-18T19:13:30Z</time>
      </trkpt>
      <trkpt lat="40.205835700" lon="0.258435113">
        <ele>3.50</ele>
        <time>2013-05-18T19:13:40Z</time>
      </trkpt>
      <trkpt lat="40.205653394" lon="0.258247694">
        <ele>3.50</ele>
        <time>2013-05-18T19:13:49Z</time>
      </trkpt>
      <trkpt lat="40.205630008" lon="0.258219698">
        <ele>3.50</ele>
        <time>2013-05-18T19:13:54Z</time>
      </trkpt>
      <trkpt lat="40.205630260" lon="0.258211736">
        <ele>3.02</ele>
        <time>2013-05-18T19:14:12Z</time>
      </trkpt>
      <trkpt lat="40.205625985" lon="0.258208718">
        <ele>3.02</ele>
        <time>2013-05-18T19:14:26Z</time>
      </trkpt>
      <trkpt lat="40.205565970" lon="0.258119954">
        <ele>3.50</ele>
        <time>2013-05-18T19:14:34Z</time>
      </trkpt>
      <trkpt lat="40.205402272" lon="0.257924404">
        <ele>3.02</ele>
        <time>2013-05-18T19:14:42Z</time>
      </trkpt>
      <trkpt lat="40.205190377" lon="0.257661631">
        <ele>3.02</ele>
        <time>2013-05-18T19:14:51Z</time>
      </trkpt>
      <trkpt lat="40.205017710" lon="0.257425597">
        <ele>3.02</ele>
        <time>2013-05-18T19:14:59Z</time>
      </trkpt>
      <trkpt lat="40.204804726" lon="0.257152934">
        <ele>3.50</ele>
        <time>2013-05-18T19:15:09Z</time>
      </trkpt>
      <trkpt lat="40.204641698" lon="0.256929388">
        <ele>2.54</ele>
        <time>2013-05-18T19:15:18Z</time>
      </trkpt>
      <trkpt lat="40.204546060" lon="0.256744400">
        <ele>2.54</ele>
        <time>2013-05-18T19:15:26Z</time>
      </trkpt>
      <trkpt lat="40.204461906" lon="0.256630238">
        <ele>3.02</ele>
        <time>2013-05-18T19:15:32Z</time>
      </trkpt>
      <trkpt lat="40.204421338" lon="0.256590927">
        <ele>2.54</ele>
        <time>2013-05-18T19:15:39Z</time>
      </trkpt>
      <trkpt lat="40.204387140" lon="0.256551951">
        <ele>2.54</ele>
        <time>2013-05-18T19:15:45Z</time>
      </trkpt>
      <trkpt lat="40.204338944" lon="0.256488416">
        <ele>3.50</ele>
        <time>2013-05-18T19:15:52Z</time>
      </trkpt>
      <trkpt lat="40.204273649" lon="0.256379619">
        <ele>3.50</ele>
        <time>2013-05-18T19:16:02Z</time>
      </trkpt>
      <trkpt lat="40.204210617" lon="0.256260345">
        <ele>3.02</ele>
        <time>2013-05-18T19:16:12Z</time>
      </trkpt>
      <trkpt lat="40.204155631" lon="0.256148614">
        <ele>3.50</ele>
        <time>2013-05-18T19:16:21Z</time>
      </trkpt>
      <trkpt lat="40.204125373" lon="0.256065549">
        <ele>3.02</ele>
        <time>2013-05-18T19:16:31Z</time>
      </trkpt>
      <trkpt lat="40.204127971" lon="0.255977372">
        <ele>3.02</ele>
        <time>2013-05-18T19:16:35Z</time>
      </trkpt>
      <trkpt lat="40.204099724" lon="0.255773608">
        <ele>2.06</ele>
        <time>2013-05-18T19:16:42Z</time>
      </trkpt>
      <trkpt lat="40.204013642" lon="0.255601611">
        <ele>2.54</ele>
        <time>2013-05-18T19:16:49Z</time>
      </trkpt>
      <trkpt lat="40.203942060" lon="0.255504129">
        <ele>2.06</ele>
        <time>2013-05-18T19:16:56Z</time>
      </trkpt>
      <trkpt lat="40.203939294" lon="0.255493065">
        <ele>2.06</ele>
        <time>2013-05-18T19:17:10Z</time>
      </trkpt>
      <trkpt lat="40.203944156" lon="0.255487114">
        <ele>2.54</ele>
        <time>2013-05-18T19:17:23Z</time>
      </trkpt>
      <trkpt lat="40.203946922" lon="0.255487617">
        <ele>1.58</ele>
        <time>2013-05-18T19:17:40Z</time>
      </trkpt>
      <trkpt lat="40.203928063" lon="0.255469428">
        <ele>1.58</ele>
        <time>2013-05-18T19:17:51Z</time>
      </trkpt>
      <trkpt lat="40.203863773" lon="0.255338000">
        <ele>2.06</ele>
        <time>2013-05-18T19:17:58Z</time>
      </trkpt>
      <trkpt lat="40.203857571" lon="0.255151000">
        <ele>1.58</ele>
        <time>2013-05-18T19:18:03Z</time>
      </trkpt>
      <trkpt lat="40.203829324" lon="0.254992750">
        <ele>3.02</ele>
        <time>2013-05-18T19:18:08Z</time>
      </trkpt>
      <trkpt lat="40.203668224" lon="0.254859226">
        <ele>3.02</ele>
        <time>2013-05-18T19:18:15Z</time>
      </trkpt>
      <trkpt lat="40.203499328" lon="0.254663844">
        <ele>2.54</ele>
        <time>2013-05-18T19:18:23Z</time>
      </trkpt>
      <trkpt lat="40.203314926" lon="0.254333094">
        <ele>2.54</ele>
        <time>2013-05-18T19:18:34Z</time>
      </trkpt>
      <trkpt lat="40.203301683" lon="0.254251454">
        <ele>2.54</ele>
        <time>2013-05-18T19:18:40Z</time>
      </trkpt>
      <trkpt lat="40.203305623" lon="0.254259752">
        <ele>2.54</ele>
        <time>2013-05-18T19:18:58Z</time>
      </trkpt>
      <trkpt lat="40.203300258" lon="0.254262350">
        <ele>3.02</ele>
        <time>2013-05-18T19:19:13Z</time>
      </trkpt>
      <trkpt lat="40.203298498" lon="0.254257321">
        <ele>2.54</ele>
        <time>2013-05-18T19:19:17Z</time>
      </trkpt>
      <trkpt lat="40.203209147" lon="0.253946856">
        <ele>2.54</ele>
        <time>2013-05-18T19:19:27Z</time>
      </trkpt>
      <trkpt lat="40.203141337" lon="0.253561372">
        <ele>2.54</ele>
        <time>2013-05-18T19:19:36Z</time>
      </trkpt>
      <trkpt lat="40.203105547" lon="0.253142025">
        <ele>1.58</ele>
        <time>2013-05-18T19:19:46Z</time>
      </trkpt>
      <trkpt lat="40.203081574" lon="0.252901297">
        <ele>1.58</ele>
        <time>2013-05-18T19:19:52Z</time>
      </trkpt>
      <trkpt lat="40.203089621" lon="0.252640871">
        <ele>2.06</ele>
        <time>2013-05-18T19:19:59Z</time>
      </trkpt>
      <trkpt lat="40.203142595" lon="0.252303248">
        <ele>2.54</ele>
        <time>2013-05-18T19:20:08Z</time>
      </trkpt>
      <trkpt lat="40.203185426" lon="0.251959255">
        <ele>1.58</ele>
        <time>2013-05-18T19:20:17Z</time>
      </trkpt>
      <trkpt lat="40.203155922" lon="0.251593972">
        <ele>1.58</ele>
        <time>2013-05-18T19:20:25Z</time>
      </trkpt>
      <trkpt lat="40.203135805" lon="0.251145791">
        <ele>1.58</ele>
        <time>2013-05-18T19:20:34Z</time>
      </trkpt>
      <trkpt lat="40.203097919" lon="0.250749914">
        <ele>1.58</ele>
        <time>2013-05-18T19:20:42Z</time>
      </trkpt>
      <trkpt lat="40.203087945" lon="0.250369040">
        <ele>1.58</ele>
        <time>2013-05-18T19:20:50Z</time>
      </trkpt>
      <trkpt lat="40.202996330" lon="0.250012642">
        <ele>1.10</ele>
        <time>2013-05-18T19:20:58Z</time>
      </trkpt>
      <trkpt lat="40.202935142" lon="0.249690525">
        <ele>2.06</ele>
        <time>2013-05-18T19:21:06Z</time>
      </trkpt>
      <trkpt lat="40.202908237" lon="0.249513583">
        <ele>1.10</ele>
        <time>2013-05-18T19:21:12Z</time>
      </trkpt>
      <trkpt lat="40.202814946" lon="0.249304371">
        <ele>1.10</ele>
        <time>2013-05-18T19:21:19Z</time>
      </trkpt>
      <trkpt lat="40.202721572" lon="0.248951996">
        <ele>1.58</ele>
        <time>2013-05-18T19:21:29Z</time>
      </trkpt>
      <trkpt lat="40.202655606" lon="0.248658629">
        <ele>1.58</ele>
        <time>2013-05-18T19:21:37Z</time>
      </trkpt>
      <trkpt lat="40.202767672" lon="0.248476909">
        <ele>1.10</ele>
        <time>2013-05-18T19:28:58Z</time>
      </trkpt>
      <trkpt lat="40.202955259" lon="0.248342883">
        <ele>1.10</ele>
        <time>2013-05-18T19:29:06Z</time>
      </trkpt>
      <trkpt lat="40.203148630" lon="0.248199971">
        <ele>1.58</ele>
        <time>2013-05-18T19:29:13Z</time>
      </trkpt>
      <trkpt lat="40.203372845" lon="0.247977683">
        <ele>1.58</ele>
        <time>2013-05-18T19:29:21Z</time>
      </trkpt>
      <trkpt lat="40.203662859" lon="0.247743074">
        <ele>1.58</ele>
        <time>2013-05-18T19:29:30Z</time>
      </trkpt>
      <trkpt lat="40.203986736" lon="0.247505447">
        <ele>1.58</ele>
        <time>2013-05-18T19:29:40Z</time>
      </trkpt>
      <trkpt lat="40.204225956" lon="0.247289529">
        <ele>2.54</ele>
        <time>2013-05-18T19:29:48Z</time>
      </trkpt>
      <trkpt lat="40.204479424" lon="0.247005299">
        <ele>2.06</ele>
        <time>2013-05-18T19:29:57Z</time>
      </trkpt>
      <trkpt lat="40.204782933" lon="0.246756440">
        <ele>2.06</ele>
        <time>2013-05-18T19:30:06Z</time>
      </trkpt>
      <trkpt lat="40.205048388" lon="0.246551838">
        <ele>2.06</ele>
        <time>2013-05-18T19:30:14Z</time>
      </trkpt>
      <trkpt lat="40.205267156" lon="0.246398784">
        <ele>2.54</ele>
        <time>2013-05-18T19:30:21Z</time>
      </trkpt>
      <trkpt lat="40.205397997" lon="0.246217903">
        <ele>3.02</ele>
        <time>2013-05-18T19:30:27Z</time>
      </trkpt>
      <trkpt lat="40.205456587" lon="0.246088402">
        <ele>2.54</ele>
        <time>2013-05-18T19:30:31Z</time>
      </trkpt>
      <trkpt lat="40.205361787" lon="0.245916825">
        <ele>1.10</ele>
        <time>2013-05-18T19:30:37Z</time>
      </trkpt>
      <trkpt lat="40.205338988" lon="0.245885728">
        <ele>4.46</ele>
        <time>2013-05-18T19:30:38Z</time>
      </trkpt>
      <trkpt lat="40.205032378" lon="0.245363452">
        <ele>2.54</ele>
        <time>2013-05-18T19:30:51Z</time>
      </trkpt>
      <trkpt lat="40.204695174" lon="0.244733468">
        <ele>3.02</ele>
        <time>2013-05-18T19:31:05Z</time>
      </trkpt>
      <trkpt lat="40.204431061" lon="0.244204737">
        <ele>2.06</ele>
        <time>2013-05-18T19:31:16Z</time>
      </trkpt>
      <trkpt lat="40.204220926" lon="0.243701153">
        <ele>2.54</ele>
        <time>2013-05-18T19:31:26Z</time>
      </trkpt>
      <trkpt lat="40.203986904" lon="0.243102014">
        <ele>3.02</ele>
        <time>2013-05-18T19:31:38Z</time>
      </trkpt>
      <trkpt lat="40.203773333" lon="0.242580995">
        <ele>2.54</ele>
        <time>2013-05-18T19:31:49Z</time>
      </trkpt>
      <trkpt lat="40.203708876" lon="0.242157206">
        <ele>2.54</ele>
        <time>2013-05-18T19:31:57Z</time>
      </trkpt>
      <trkpt lat="40.203703344" lon="0.242102221">
        <ele>3.50</ele>
        <time>2013-05-18T19:31:58Z</time>
      </trkpt>
      <trkpt lat="40.203534532" lon="0.241665440">
        <ele>3.50</ele>
        <time>2013-05-18T19:32:07Z</time>
      </trkpt>
      <trkpt lat="40.203301515" lon="0.241287835">
        <ele>3.02</ele>
        <time>2013-05-18T19:32:16Z</time>
      </trkpt>
      <trkpt lat="40.203060620" lon="0.240931436">
        <ele>3.50</ele>
        <time>2013-05-18T19:32:25Z</time>
      </trkpt>
      <trkpt lat="40.202772534" lon="0.240476970">
        <ele>3.50</ele>
        <time>2013-05-18T19:32:35Z</time>
      </trkpt>
      <trkpt lat="40.202706149" lon="0.240318803">
        <ele>3.02</ele>
        <time>2013-05-18T19:32:38Z</time>
      </trkpt>
      <trkpt lat="40.202667005" lon="0.240210006">
        <ele>2.54</ele>
        <time>2013-05-18T19:32:40Z</time>
      </trkpt>
      <trkpt lat="40.202418398" lon="0.239526629">
        <ele>3.02</ele>
        <time>2013-05-18T19:32:52Z</time>
      </trkpt>
      <trkpt lat="40.202236930" lon="0.239042575">
        <ele>3.02</ele>
        <time>2013-05-18T19:33:01Z</time>
      </trkpt>
      <trkpt lat="40.202057138" lon="0.238484675">
        <ele>3.02</ele>
        <time>2013-05-18T19:33:11Z</time>
      </trkpt>
      <trkpt lat="40.201806687" lon="0.237943707">
        <ele>3.98</ele>
        <time>2013-05-18T19:33:22Z</time>
      </trkpt>
      <trkpt lat="40.201567551" lon="0.237435931">
        <ele>4.46</ele>
        <time>2013-05-18T19:33:32Z</time>
      </trkpt>
      <trkpt lat="40.201314334" lon="0.236911979">
        <ele>3.98</ele>
        <time>2013-05-18T19:33:42Z</time>
      </trkpt>
      <trkpt lat="40.201264964" lon="0.236799410">
        <ele>3.98</ele>
        <time>2013-05-18T19:33:44Z</time>
      </trkpt>
      <trkpt lat="40.201191204" lon="0.236301608">
        <ele>3.98</ele>
        <time>2013-05-18T19:33:52Z</time>
      </trkpt>
      <trkpt lat="40.201049717" lon="0.235879496">
        <ele>3.98</ele>
        <time>2013-05-18T19:33:59Z</time>
      </trkpt>
      <trkpt lat="40.200795410" lon="0.235417821">
        <ele>4.46</ele>
        <time>2013-05-18T19:34:08Z</time>
      </trkpt>
      <trkpt lat="40.200502966" lon="0.234912140">
        <ele>3.50</ele>
        <time>2013-05-18T19:34:18Z</time>
      </trkpt>
      <trkpt lat="40.200304734" lon="0.234488100">
        <ele>2.54</ele>
        <time>2013-05-18T19:34:26Z</time>
      </trkpt>
      <trkpt lat="40.200207420" lon="0.234148465">
        <ele>2.54</ele>
        <time>2013-05-18T19:34:32Z</time>
      </trkpt>
      <trkpt lat="40.200143130" lon="0.233987113">
        <ele>2.54</ele>
        <time>2013-05-18T19:34:35Z</time>
      </trkpt>
      <trkpt lat="40.200090408" lon="0.233888123">
        <ele>3.02</ele>
        <time>2013-05-18T19:34:37Z</time>
      </trkpt>
      <trkpt lat="40.199961495" lon="0.233569192">
        <ele>2.06</ele>
        <time>2013-05-18T19:34:43Z</time>
      </trkpt>
      <trkpt lat="40.199869713" lon="0.232986063">
        <ele>3.50</ele>
        <time>2013-05-18T19:34:53Z</time>
      </trkpt>
      <trkpt lat="40.199809028" lon="0.232578702">
        <ele>2.54</ele>
        <time>2013-05-18T19:35:00Z</time>
      </trkpt>
      <trkpt lat="40.199625213" lon="0.232161619">
        <ele>3.02</ele>
        <time>2013-05-18T19:35:09Z</time>
      </trkpt>
      <trkpt lat="40.199596714" lon="0.232152399">
        <ele>2.54</ele>
        <time>2013-05-18T19:35:10Z</time>
      </trkpt>
      <trkpt lat="40.199382892" lon="0.232331268">
        <ele>2.54</ele>
        <time>2013-05-18T19:35:18Z</time>
      </trkpt>
      <trkpt lat="40.199061614" lon="0.232536374">
        <ele>3.02</ele>
        <time>2013-05-18T19:35:27Z</time>
      </trkpt>
      <trkpt lat="40.199027248" lon="0.232535368">
        <ele>3.02</ele>
        <time>2013-05-18T19:35:31Z</time>
      </trkpt>
      <trkpt lat="40.199020207" lon="0.232490441">
        <ele>3.50</ele>
        <time>2013-05-18T19:35:44Z</time>
      </trkpt>
      <trkpt lat="40.199018782" lon="0.232486669">
        <ele>3.50</ele>
        <time>2013-05-18T19:35:47Z</time>
      </trkpt>
      <trkpt lat="40.199013669" lon="0.232390864">
        <ele>3.02</ele>
        <time>2013-05-18T19:35:56Z</time>
      </trkpt>
      <trkpt lat="40.199024482" lon="0.232358091">
        <ele>3.02</ele>
        <time>2013-05-18T19:36:03Z</time>
      </trkpt>
      <trkpt lat="40.199022554" lon="0.232359096">
        <ele>3.50</ele>
        <time>2013-05-18T19:36:17Z</time>
      </trkpt>
      <trkpt lat="40.199015513" lon="0.232372675">
        <ele>3.50</ele>
        <time>2013-05-18T19:36:39Z</time>
      </trkpt>
      <trkpt lat="40.199019285" lon="0.232369825">
        <ele>3.02</ele>
        <time>2013-05-18T19:36:56Z</time>
      </trkpt>
      <trkpt lat="40.199022470" lon="0.232366808">
        <ele>3.02</ele>
        <time>2013-05-18T19:37:18Z</time>
      </trkpt>
      <trkpt lat="40.199017357" lon="0.232372927">
        <ele>3.02</ele>
        <time>2013-05-18T19:37:41Z</time>
      </trkpt>
      <trkpt lat="40.199013166" lon="0.232364628">
        <ele>2.54</ele>
        <time>2013-05-18T19:38:08Z</time>
      </trkpt>
      <trkpt lat="40.199013082" lon="0.232357336">
        <ele>2.54</ele>
        <time>2013-05-18T19:38:31Z</time>
      </trkpt>
      <trkpt lat="40.199025571" lon="0.232358426">
        <ele>2.06</ele>
        <time>2013-05-18T19:38:48Z</time>
      </trkpt>
      <trkpt lat="40.199023308" lon="0.232354738">
        <ele>2.54</ele>
        <time>2013-05-18T19:39:06Z</time>
      </trkpt>
      <trkpt lat="40.199044766" lon="0.232349290">
        <ele>2.54</ele>
        <time>2013-05-18T19:39:25Z</time>
      </trkpt>
      <trkpt lat="40.199047448" lon="0.232346021">
        <ele>3.02</ele>
        <time>2013-05-18T19:39:49Z</time>
      </trkpt>
      <trkpt lat="40.199029678" lon="0.232343003">
        <ele>3.02</ele>
        <time>2013-05-18T19:40:06Z</time>
      </trkpt>
      <trkpt lat="40.199011322" lon="0.232348200">
        <ele>2.06</ele>
        <time>2013-05-18T19:40:32Z</time>
      </trkpt>
      <trkpt lat="40.199016016" lon="0.232345518">
        <ele>2.54</ele>
        <time>2013-05-18T19:40:48Z</time>
      </trkpt>
      <trkpt lat="40.199015345" lon="0.232342081">
        <ele>2.06</ele>
        <time>2013-05-18T19:41:00Z</time>
      </trkpt>
      <trkpt lat="40.199018111" lon="0.232336214">
        <ele>2.06</ele>
        <time>2013-05-18T19:41:04Z</time>
      </trkpt>
      <trkpt lat="40.198936304" lon="0.232199589">
        <ele>2.54</ele>
        <time>2013-05-18T19:41:12Z</time>
      </trkpt>
      <trkpt lat="40.198825160" lon="0.231885016">
        <ele>2.06</ele>
        <time>2013-05-18T19:41:21Z</time>
      </trkpt>
      <trkpt lat="40.198688200" lon="0.231452342">
        <ele>2.54</ele>
        <time>2013-05-18T19:41:31Z</time>
      </trkpt>
      <trkpt lat="40.198543360" lon="0.230980860">
        <ele>3.02</ele>
        <time>2013-05-18T19:41:41Z</time>
      </trkpt>
      <trkpt lat="40.198352840" lon="0.230407873">
        <ele>2.54</ele>
        <time>2013-05-18T19:41:53Z</time>
      </trkpt>
      <trkpt lat="40.198170785" lon="0.230027419">
        <ele>2.54</ele>
        <time>2013-05-18T19:42:01Z</time>
      </trkpt>
      <trkpt lat="40.197878759" lon="0.229473040">
        <ele>3.02</ele>
        <time>2013-05-18T19:42:13Z</time>
      </trkpt>
      <trkpt lat="40.197839281" lon="0.229383186">
        <ele>3.02</ele>
        <time>2013-05-18T19:42:15Z</time>
      </trkpt>
      <trkpt lat="40.197765185" lon="0.229143379">
        <ele>3.02</ele>
        <time>2013-05-18T19:42:20Z</time>
      </trkpt>
      <trkpt lat="40.197527893" lon="0.228880439">
        <ele>3.02</ele>
        <time>2013-05-18T19:42:28Z</time>
      </trkpt>
      <trkpt lat="40.197277358" lon="0.228742305">
        <ele>3.50</ele>
        <time>2013-05-18T19:42:35Z</time>
      </trkpt>
      <trkpt lat="40.197085747" lon="0.228455812">
        <ele>3.02</ele>
        <time>2013-05-18T19:42:43Z</time>
      </trkpt>
      <trkpt lat="40.196861364" lon="0.227938397">
        <ele>3.50</ele>
        <time>2013-05-18T19:42:54Z</time>
      </trkpt>
      <trkpt lat="40.196561040" lon="0.227427185">
        <ele>2.54</ele>
        <time>2013-05-18T19:43:06Z</time>
      </trkpt>
      <trkpt lat="40.196193410" lon="0.226904908">
        <ele>3.02</ele>
        <time>2013-05-18T19:43:19Z</time>
      </trkpt>
      <trkpt lat="40.195809687" lon="0.226303590">
        <ele>2.54</ele>
        <time>2013-05-18T19:43:33Z</time>
      </trkpt>
      <trkpt lat="40.195757886" lon="0.226205103">
        <ele>3.02</ele>
        <time>2013-05-18T19:43:35Z</time>
      </trkpt>
      <trkpt lat="40.195499053" lon="0.225775531">
        <ele>2.54</ele>
        <time>2013-05-18T19:43:45Z</time>
      </trkpt>
      <trkpt lat="40.195189510" lon="0.225221487">
        <ele>2.06</ele>
        <time>2013-05-18T19:43:57Z</time>
      </trkpt>
      <trkpt lat="40.194870494" lon="0.224654954">
        <ele>2.54</ele>
        <time>2013-05-18T19:44:09Z</time>
      </trkpt>
      <trkpt lat="40.194626497" lon="0.224190680">
        <ele>2.54</ele>
        <time>2013-05-18T19:44:19Z</time>
      </trkpt>
      <trkpt lat="40.194311757" lon="0.223674187">
        <ele>2.06</ele>
        <time>2013-05-18T19:44:31Z</time>
      </trkpt>
      <trkpt lat="40.193902971" lon="0.223104972">
        <ele>1.58</ele>
        <time>2013-05-18T19:44:45Z</time>
      </trkpt>
      <trkpt lat="40.193633996" lon="0.222746730">
        <ele>2.06</ele>
        <time>2013-05-18T19:44:54Z</time>
      </trkpt>
      <trkpt lat="40.193324788" lon="0.222293437">
        <ele>2.06</ele>
        <time>2013-05-18T19:45:05Z</time>
      </trkpt>
      <trkpt lat="40.193172153" lon="0.222097468">
        <ele>2.06</ele>
        <time>2013-05-18T19:45:11Z</time>
      </trkpt>
      <trkpt lat="40.193203250" lon="0.221992107">
        <ele>2.06</ele>
        <time>2013-05-18T19:45:17Z</time>
      </trkpt>
      <trkpt lat="40.193192773" lon="0.221974421">
        <ele>2.54</ele>
        <time>2013-05-18T19:45:18Z</time>
      </trkpt>
      <trkpt lat="40.193158407" lon="0.221899487">
        <ele>2.06</ele>
        <time>2013-05-18T19:45:24Z</time>
      </trkpt>
      <trkpt lat="40.193116330" lon="0.221874593">
        <ele>1.58</ele>
        <time>2013-05-18T19:45:40Z</time>
      </trkpt>
      <trkpt lat="40.193003761" lon="0.221717767">
        <ele>2.06</ele>
        <time>2013-05-18T19:45:46Z</time>
      </trkpt>
      <trkpt lat="40.192813240" lon="0.221433118">
        <ele>2.06</ele>
        <time>2013-05-18T19:45:54Z</time>
      </trkpt>
      <trkpt lat="40.192586090" lon="0.221139584">
        <ele>2.54</ele>
        <time>2013-05-18T19:46:03Z</time>
      </trkpt>
      <trkpt lat="40.192413256" lon="0.220897431">
        <ele>1.58</ele>
        <time>2013-05-18T19:46:11Z</time>
      </trkpt>
      <trkpt lat="40.192282833" lon="0.220667431">
        <ele>2.06</ele>
        <time>2013-05-18T19:46:20Z</time>
      </trkpt>
      <trkpt lat="40.192277217" lon="0.220656870">
        <ele>1.58</ele>
        <time>2013-05-18T19:46:28Z</time>
      </trkpt>
    </trkseg>
  </trk>
</gpx>
